<?xml version="1.0" encoding="UTF-8"?>
<gpx
  version="1.0"
  creator="GPSBabel - http://www.gpsbabel.org"
  xmlns:xsi="http://www.w3.org/2001/XMLSchema-instance"
  xmlns="http://www.topografix.com/GPX/1/0"
  xsi:schemaLocation="http://www.topografix.com/GPX/1/0 http://www.topografix.com/GPX/1/0/gpx.xsd">
<time>2011-10-18T11:07:33Z</time>
<bounds minlat="32.583503723" minlon="35.127128601" maxlat="32.609527588" maxlon="35.144966125"/>
<trk>
  <name>Holux2011/10/18_06:24</name>
<trkseg>
<trkpt lat="32.608783722" lon="35.137912750">
  <ele>161.407471</ele>
  <time>2011-10-18T04:24:05Z</time>
  <speed>0.010000</speed>
</trkpt>
<trkpt lat="32.608783722" lon="35.137882233">
  <ele>159.411377</ele>
  <time>2011-10-18T04:24:09Z</time>
  <speed>1.420000</speed>
</trkpt>
<trkpt lat="32.608764648" lon="35.137859344">
  <ele>158.673096</ele>
  <time>2011-10-18T04:24:10Z</time>
  <speed>1.600000</speed>
</trkpt>
<trkpt lat="32.608757019" lon="35.137828827">
  <ele>157.548096</ele>
  <time>2011-10-18T04:24:11Z</time>
  <speed>1.420000</speed>
</trkpt>
<trkpt lat="32.608745575" lon="35.137802124">
  <ele>155.934814</ele>
  <time>2011-10-18T04:24:12Z</time>
  <speed>1.560000</speed>
</trkpt>
<trkpt lat="32.608726501" lon="35.137775421">
  <ele>155.192627</ele>
  <time>2011-10-18T04:24:14Z</time>
  <speed>1.490000</speed>
</trkpt>
<trkpt lat="32.608722687" lon="35.137744904">
  <ele>154.665283</ele>
  <time>2011-10-18T04:24:15Z</time>
  <speed>2.080000</speed>
</trkpt>
<trkpt lat="32.608730316" lon="35.137710571">
  <ele>154.305908</ele>
  <time>2011-10-18T04:24:17Z</time>
  <speed>1.850000</speed>
</trkpt>
<trkpt lat="32.608760834" lon="35.137695313">
  <ele>153.927002</ele>
  <time>2011-10-18T04:24:19Z</time>
  <speed>1.400000</speed>
</trkpt>
<trkpt lat="32.608795166" lon="35.137714386">
  <ele>153.555908</ele>
  <time>2011-10-18T04:24:21Z</time>
  <speed>1.780000</speed>
</trkpt>
<trkpt lat="32.608837128" lon="35.137725830">
  <ele>153.778564</ele>
  <time>2011-10-18T04:24:23Z</time>
  <speed>1.650000</speed>
</trkpt>
<trkpt lat="32.608871460" lon="35.137710571">
  <ele>153.657471</ele>
  <time>2011-10-18T04:24:25Z</time>
  <speed>1.840000</speed>
</trkpt>
<trkpt lat="32.608898163" lon="35.137680054">
  <ele>154.079346</ele>
  <time>2011-10-18T04:24:27Z</time>
  <speed>1.270000</speed>
</trkpt>
<trkpt lat="32.608886719" lon="35.137641907">
  <ele>154.145752</ele>
  <time>2011-10-18T04:24:29Z</time>
  <speed>2.390000</speed>
</trkpt>
<trkpt lat="32.608852386" lon="35.137611389">
  <ele>154.118408</ele>
  <time>2011-10-18T04:24:31Z</time>
  <speed>2.280000</speed>
</trkpt>
<trkpt lat="32.608825684" lon="35.137599945">
  <ele>154.028564</ele>
  <time>2011-10-18T04:24:32Z</time>
  <speed>2.440000</speed>
</trkpt>
<trkpt lat="32.608798981" lon="35.137596130">
  <ele>154.524658</ele>
  <time>2011-10-18T04:24:33Z</time>
  <speed>2.490000</speed>
</trkpt>
<trkpt lat="32.608772278" lon="35.137580872">
  <ele>155.024658</ele>
  <time>2011-10-18T04:24:34Z</time>
  <speed>2.690000</speed>
</trkpt>
<trkpt lat="32.608745575" lon="35.137573242">
  <ele>155.001221</ele>
  <time>2011-10-18T04:24:35Z</time>
  <speed>2.740000</speed>
</trkpt>
<trkpt lat="32.608718872" lon="35.137565613">
  <ele>154.860596</ele>
  <time>2011-10-18T04:24:36Z</time>
  <speed>2.900000</speed>
</trkpt>
<trkpt lat="32.608673096" lon="35.137546539">
  <ele>153.938721</ele>
  <time>2011-10-18T04:24:38Z</time>
  <speed>2.600000</speed>
</trkpt>
<trkpt lat="32.608631134" lon="35.137516022">
  <ele>153.622314</ele>
  <time>2011-10-18T04:24:40Z</time>
  <speed>2.380000</speed>
</trkpt>
<trkpt lat="32.608604431" lon="35.137485504">
  <ele>153.634033</ele>
  <time>2011-10-18T04:24:42Z</time>
  <speed>1.910000</speed>
</trkpt>
<trkpt lat="32.608581543" lon="35.137454987">
  <ele>153.759033</ele>
  <time>2011-10-18T04:24:44Z</time>
  <speed>2.370000</speed>
</trkpt>
<trkpt lat="32.608554840" lon="35.137428284">
  <ele>153.969971</ele>
  <time>2011-10-18T04:24:46Z</time>
  <speed>2.030000</speed>
</trkpt>
<trkpt lat="32.608528137" lon="35.137401581">
  <ele>153.891846</ele>
  <time>2011-10-18T04:24:48Z</time>
  <speed>1.700000</speed>
</trkpt>
<trkpt lat="32.608497620" lon="35.137390137">
  <ele>154.169189</ele>
  <time>2011-10-18T04:24:50Z</time>
  <speed>1.370000</speed>
</trkpt>
<trkpt lat="32.608493805" lon="35.137424469">
  <ele>154.169189</ele>
  <time>2011-10-18T04:24:53Z</time>
  <speed>1.270000</speed>
</trkpt>
<trkpt lat="32.608516693" lon="35.137458801">
  <ele>154.341064</ele>
  <time>2011-10-18T04:24:55Z</time>
  <speed>1.410000</speed>
</trkpt>
<trkpt lat="32.608539581" lon="35.137489319">
  <ele>154.329346</ele>
  <time>2011-10-18T04:24:57Z</time>
  <speed>1.270000</speed>
</trkpt>
<trkpt lat="32.608573914" lon="35.137535095">
  <ele>154.165283</ele>
  <time>2011-10-18T04:24:59Z</time>
  <speed>1.840000</speed>
</trkpt>
<trkpt lat="32.608604431" lon="35.137542725">
  <ele>154.809814</ele>
  <time>2011-10-18T04:25:00Z</time>
  <speed>2.530000</speed>
</trkpt>
<trkpt lat="32.608642578" lon="35.137561798">
  <ele>155.106689</ele>
  <time>2011-10-18T04:25:01Z</time>
  <speed>3.260000</speed>
</trkpt>
<trkpt lat="32.608673096" lon="35.137592316">
  <ele>155.114502</ele>
  <time>2011-10-18T04:25:02Z</time>
  <speed>3.910000</speed>
</trkpt>
<trkpt lat="32.608703613" lon="35.137603760">
  <ele>155.114502</ele>
  <time>2011-10-18T04:25:03Z</time>
  <speed>3.530000</speed>
</trkpt>
<trkpt lat="32.608730316" lon="35.137607574">
  <ele>155.145752</ele>
  <time>2011-10-18T04:25:05Z</time>
  <speed>0.800000</speed>
</trkpt>
<trkpt lat="32.608737946" lon="35.137607574">
  <ele>158.196533</ele>
  <time>2011-10-18T04:25:26Z</time>
  <speed>0.160000</speed>
</trkpt>
<trkpt lat="32.608760834" lon="35.137626648">
  <ele>158.309814</ele>
  <time>2011-10-18T04:25:30Z</time>
  <speed>1.510000</speed>
</trkpt>
<trkpt lat="32.608798981" lon="35.137641907">
  <ele>157.821533</ele>
  <time>2011-10-18T04:25:32Z</time>
  <speed>1.900000</speed>
</trkpt>
<trkpt lat="32.608821869" lon="35.137622833">
  <ele>157.661377</ele>
  <time>2011-10-18T04:25:34Z</time>
  <speed>1.180000</speed>
</trkpt>
<trkpt lat="32.608814240" lon="35.137580872">
  <ele>157.860596</ele>
  <time>2011-10-18T04:25:36Z</time>
  <speed>2.060000</speed>
</trkpt>
<trkpt lat="32.608768463" lon="35.137557983">
  <ele>157.110596</ele>
  <time>2011-10-18T04:25:38Z</time>
  <speed>1.970000</speed>
</trkpt>
<trkpt lat="32.608726501" lon="35.137554169">
  <ele>155.782471</ele>
  <time>2011-10-18T04:25:40Z</time>
  <speed>2.070000</speed>
</trkpt>
<trkpt lat="32.608688354" lon="35.137538910">
  <ele>155.344971</ele>
  <time>2011-10-18T04:25:42Z</time>
  <speed>1.880000</speed>
</trkpt>
<trkpt lat="32.608646393" lon="35.137519836">
  <ele>154.825439</ele>
  <time>2011-10-18T04:25:44Z</time>
  <speed>2.100000</speed>
</trkpt>
<trkpt lat="32.608604431" lon="35.137504578">
  <ele>154.204346</ele>
  <time>2011-10-18T04:25:46Z</time>
  <speed>2.090000</speed>
</trkpt>
<trkpt lat="32.608581543" lon="35.137481689">
  <ele>153.989502</ele>
  <time>2011-10-18T04:25:48Z</time>
  <speed>1.900000</speed>
</trkpt>
<trkpt lat="32.608558655" lon="35.137454987">
  <ele>153.966064</ele>
  <time>2011-10-18T04:25:50Z</time>
  <speed>1.910000</speed>
</trkpt>
<trkpt lat="32.608543396" lon="35.137428284">
  <ele>154.098877</ele>
  <time>2011-10-18T04:25:53Z</time>
  <speed>0.800000</speed>
</trkpt>
<trkpt lat="32.608516693" lon="35.137397766">
  <ele>153.368408</ele>
  <time>2011-10-18T04:25:55Z</time>
  <speed>1.270000</speed>
</trkpt>
<trkpt lat="32.608493805" lon="35.137371063">
  <ele>153.528564</ele>
  <time>2011-10-18T04:25:57Z</time>
  <speed>1.030000</speed>
</trkpt>
<trkpt lat="32.608470917" lon="35.137355804">
  <ele>153.325439</ele>
  <time>2011-10-18T04:26:00Z</time>
  <speed>1.150000</speed>
</trkpt>
<trkpt lat="32.608451843" lon="35.137329102">
  <ele>152.891846</ele>
  <time>2011-10-18T04:26:02Z</time>
  <speed>1.160000</speed>
</trkpt>
<trkpt lat="32.608436584" lon="35.137287140">
  <ele>151.610596</ele>
  <time>2011-10-18T04:26:05Z</time>
  <speed>0.990000</speed>
</trkpt>
<trkpt lat="32.608409882" lon="35.137260437">
  <ele>150.700439</ele>
  <time>2011-10-18T04:26:07Z</time>
  <speed>1.390000</speed>
</trkpt>
<trkpt lat="32.608383179" lon="35.137233734">
  <ele>150.243408</ele>
  <time>2011-10-18T04:26:09Z</time>
  <speed>1.590000</speed>
</trkpt>
<trkpt lat="32.608345032" lon="35.137218475">
  <ele>150.329346</ele>
  <time>2011-10-18T04:26:11Z</time>
  <speed>1.680000</speed>
</trkpt>
<trkpt lat="32.608299255" lon="35.137199402">
  <ele>149.981689</ele>
  <time>2011-10-18T04:26:13Z</time>
  <speed>1.750000</speed>
</trkpt>
<trkpt lat="32.608291626" lon="35.137172699">
  <ele>151.098877</ele>
  <time>2011-10-18T04:26:14Z</time>
  <speed>2.140000</speed>
</trkpt>
<trkpt lat="32.608253479" lon="35.137145996">
  <ele>151.419189</ele>
  <time>2011-10-18T04:26:16Z</time>
  <speed>1.930000</speed>
</trkpt>
<trkpt lat="32.608222961" lon="35.137111664">
  <ele>151.341064</ele>
  <time>2011-10-18T04:26:18Z</time>
  <speed>2.100000</speed>
</trkpt>
<trkpt lat="32.608184814" lon="35.137088776">
  <ele>151.149658</ele>
  <time>2011-10-18T04:26:20Z</time>
  <speed>2.120000</speed>
</trkpt>
<trkpt lat="32.608150482" lon="35.137065887">
  <ele>151.364502</ele>
  <time>2011-10-18T04:26:22Z</time>
  <speed>2.080000</speed>
</trkpt>
<trkpt lat="32.608123779" lon="35.137035370">
  <ele>151.305908</ele>
  <time>2011-10-18T04:26:24Z</time>
  <speed>1.670000</speed>
</trkpt>
<trkpt lat="32.608108521" lon="35.137008667">
  <ele>150.989502</ele>
  <time>2011-10-18T04:26:26Z</time>
  <speed>1.660000</speed>
</trkpt>
<trkpt lat="32.608074188" lon="35.136985779">
  <ele>150.688721</ele>
  <time>2011-10-18T04:26:29Z</time>
  <speed>1.260000</speed>
</trkpt>
<trkpt lat="32.608051300" lon="35.136947632">
  <ele>150.048096</ele>
  <time>2011-10-18T04:26:31Z</time>
  <speed>1.470000</speed>
</trkpt>
<trkpt lat="32.608024597" lon="35.136924744">
  <ele>149.809814</ele>
  <time>2011-10-18T04:26:33Z</time>
  <speed>1.560000</speed>
</trkpt>
<trkpt lat="32.607990265" lon="35.136901855">
  <ele>149.344971</ele>
  <time>2011-10-18T04:26:36Z</time>
  <speed>0.760000</speed>
</trkpt>
<trkpt lat="32.607959747" lon="35.136882782">
  <ele>149.352783</ele>
  <time>2011-10-18T04:26:38Z</time>
  <speed>1.460000</speed>
</trkpt>
<trkpt lat="32.607936859" lon="35.136863708">
  <ele>148.837158</ele>
  <time>2011-10-18T04:26:40Z</time>
  <speed>1.480000</speed>
</trkpt>
<trkpt lat="32.607902527" lon="35.136825562">
  <ele>148.751221</ele>
  <time>2011-10-18T04:26:42Z</time>
  <speed>1.980000</speed>
</trkpt>
<trkpt lat="32.607875824" lon="35.136795044">
  <ele>148.637939</ele>
  <time>2011-10-18T04:26:43Z</time>
  <speed>2.150000</speed>
</trkpt>
<trkpt lat="32.607849121" lon="35.136768341">
  <ele>148.403564</ele>
  <time>2011-10-18T04:26:45Z</time>
  <speed>1.460000</speed>
</trkpt>
<trkpt lat="32.607826233" lon="35.136749268">
  <ele>148.333252</ele>
  <time>2011-10-18T04:26:46Z</time>
  <speed>2.080000</speed>
</trkpt>
<trkpt lat="32.607795715" lon="35.136730194">
  <ele>148.329346</ele>
  <time>2011-10-18T04:26:47Z</time>
  <speed>1.960000</speed>
</trkpt>
<trkpt lat="32.607761383" lon="35.136688232">
  <ele>147.591064</ele>
  <time>2011-10-18T04:26:49Z</time>
  <speed>2.220000</speed>
</trkpt>
<trkpt lat="32.607715607" lon="35.136650085">
  <ele>146.977783</ele>
  <time>2011-10-18T04:26:51Z</time>
  <speed>2.650000</speed>
</trkpt>
<trkpt lat="32.607688904" lon="35.136631012">
  <ele>146.641846</ele>
  <time>2011-10-18T04:26:52Z</time>
  <speed>2.270000</speed>
</trkpt>
<trkpt lat="32.607650757" lon="35.136592865">
  <ele>146.173096</ele>
  <time>2011-10-18T04:26:54Z</time>
  <speed>1.940000</speed>
</trkpt>
<trkpt lat="32.607616425" lon="35.136566162">
  <ele>145.766846</ele>
  <time>2011-10-18T04:26:56Z</time>
  <speed>2.100000</speed>
</trkpt>
<trkpt lat="32.607593536" lon="35.136558533">
  <ele>145.532471</ele>
  <time>2011-10-18T04:26:57Z</time>
  <speed>2.510000</speed>
</trkpt>
<trkpt lat="32.607570648" lon="35.136535645">
  <ele>145.247314</ele>
  <time>2011-10-18T04:26:58Z</time>
  <speed>2.590000</speed>
</trkpt>
<trkpt lat="32.607536316" lon="35.136505127">
  <ele>145.579346</ele>
  <time>2011-10-18T04:27:00Z</time>
  <speed>2.510000</speed>
</trkpt>
<trkpt lat="32.607501984" lon="35.136466980">
  <ele>146.126221</ele>
  <time>2011-10-18T04:27:02Z</time>
  <speed>2.530000</speed>
</trkpt>
<trkpt lat="32.607479095" lon="35.136447906">
  <ele>146.274658</ele>
  <time>2011-10-18T04:27:03Z</time>
  <speed>2.310000</speed>
</trkpt>
<trkpt lat="32.607452393" lon="35.136413574">
  <ele>146.516846</ele>
  <time>2011-10-18T04:27:05Z</time>
  <speed>2.250000</speed>
</trkpt>
<trkpt lat="32.607421875" lon="35.136383057">
  <ele>146.317627</ele>
  <time>2011-10-18T04:27:07Z</time>
  <speed>2.090000</speed>
</trkpt>
<trkpt lat="32.607383728" lon="35.136360168">
  <ele>147.454346</ele>
  <time>2011-10-18T04:27:09Z</time>
  <speed>2.610000</speed>
</trkpt>
<trkpt lat="32.607357025" lon="35.136348724">
  <ele>146.911377</ele>
  <time>2011-10-18T04:27:10Z</time>
  <speed>2.350000</speed>
</trkpt>
<trkpt lat="32.607315063" lon="35.136302948">
  <ele>145.880127</ele>
  <time>2011-10-18T04:27:12Z</time>
  <speed>2.430000</speed>
</trkpt>
<trkpt lat="32.607276917" lon="35.136272430">
  <ele>145.411377</ele>
  <time>2011-10-18T04:27:14Z</time>
  <speed>2.360000</speed>
</trkpt>
<trkpt lat="32.607238770" lon="35.136245728">
  <ele>145.591064</ele>
  <time>2011-10-18T04:27:16Z</time>
  <speed>2.280000</speed>
</trkpt>
<trkpt lat="32.607196808" lon="35.136215210">
  <ele>146.063721</ele>
  <time>2011-10-18T04:27:18Z</time>
  <speed>2.600000</speed>
</trkpt>
<trkpt lat="32.607170105" lon="35.136180878">
  <ele>145.977783</ele>
  <time>2011-10-18T04:27:20Z</time>
  <speed>2.440000</speed>
</trkpt>
<trkpt lat="32.607139587" lon="35.136150360">
  <ele>146.071533</ele>
  <time>2011-10-18T04:27:22Z</time>
  <speed>1.780000</speed>
</trkpt>
<trkpt lat="32.607105255" lon="35.136123657">
  <ele>146.098877</ele>
  <time>2011-10-18T04:27:24Z</time>
  <speed>1.980000</speed>
</trkpt>
<trkpt lat="32.607082367" lon="35.136089325">
  <ele>146.141846</ele>
  <time>2011-10-18T04:27:26Z</time>
  <speed>2.110000</speed>
</trkpt>
<trkpt lat="32.607048035" lon="35.136058807">
  <ele>146.583252</ele>
  <time>2011-10-18T04:27:28Z</time>
  <speed>2.430000</speed>
</trkpt>
<trkpt lat="32.607009888" lon="35.136028290">
  <ele>146.466064</ele>
  <time>2011-10-18T04:27:30Z</time>
  <speed>2.510000</speed>
</trkpt>
<trkpt lat="32.606987000" lon="35.136016846">
  <ele>146.954346</ele>
  <time>2011-10-18T04:27:31Z</time>
  <speed>2.580000</speed>
</trkpt>
<trkpt lat="32.606948853" lon="35.135978699">
  <ele>146.872314</ele>
  <time>2011-10-18T04:27:33Z</time>
  <speed>2.520000</speed>
</trkpt>
<trkpt lat="32.606910706" lon="35.135944366">
  <ele>146.509033</ele>
  <time>2011-10-18T04:27:35Z</time>
  <speed>2.530000</speed>
</trkpt>
<trkpt lat="32.606876373" lon="35.135913849">
  <ele>146.669189</ele>
  <time>2011-10-18T04:27:37Z</time>
  <speed>2.300000</speed>
</trkpt>
<trkpt lat="32.606849670" lon="35.135902405">
  <ele>147.298096</ele>
  <time>2011-10-18T04:27:40Z</time>
  <speed>0.210000</speed>
</trkpt>
<trkpt lat="32.606864929" lon="35.135871887">
  <ele>148.895752</ele>
  <time>2011-10-18T04:27:42Z</time>
  <speed>0.450000</speed>
</trkpt>
<trkpt lat="32.606845856" lon="35.135837555">
  <ele>150.071533</ele>
  <time>2011-10-18T04:27:46Z</time>
  <speed>0.940000</speed>
</trkpt>
<trkpt lat="32.606834412" lon="35.135871887">
  <ele>150.825439</ele>
  <time>2011-10-18T04:27:49Z</time>
  <speed>0.660000</speed>
</trkpt>
<trkpt lat="32.606826782" lon="35.135913849">
  <ele>152.751221</ele>
  <time>2011-10-18T04:27:50Z</time>
  <speed>0.690000</speed>
</trkpt>
<trkpt lat="32.606819153" lon="35.135883331">
  <ele>153.852783</ele>
  <time>2011-10-18T04:27:54Z</time>
  <speed>0.590000</speed>
</trkpt>
<trkpt lat="32.606781006" lon="35.135856628">
  <ele>155.122314</ele>
  <time>2011-10-18T04:27:59Z</time>
  <speed>0.600000</speed>
</trkpt>
<trkpt lat="32.606758118" lon="35.135787964">
  <ele>158.130127</ele>
  <time>2011-10-18T04:28:31Z</time>
  <speed>0.440000</speed>
</trkpt>
<trkpt lat="32.606739044" lon="35.135761261">
  <ele>158.899658</ele>
  <time>2011-10-18T04:28:38Z</time>
  <speed>0.600000</speed>
</trkpt>
<trkpt lat="32.606708527" lon="35.135734558">
  <ele>159.876221</ele>
  <time>2011-10-18T04:28:41Z</time>
  <speed>2.230000</speed>
</trkpt>
<trkpt lat="32.606678009" lon="35.135707855">
  <ele>159.981689</ele>
  <time>2011-10-18T04:28:43Z</time>
  <speed>2.040000</speed>
</trkpt>
<trkpt lat="32.606643677" lon="35.135677338">
  <ele>160.091064</ele>
  <time>2011-10-18T04:28:45Z</time>
  <speed>1.980000</speed>
</trkpt>
<trkpt lat="32.606620789" lon="35.135658264">
  <ele>159.973877</ele>
  <time>2011-10-18T04:28:46Z</time>
  <speed>2.210000</speed>
</trkpt>
<trkpt lat="32.606590271" lon="35.135654449">
  <ele>160.876221</ele>
  <time>2011-10-18T04:28:47Z</time>
  <speed>2.200000</speed>
</trkpt>
<trkpt lat="32.606567383" lon="35.135631561">
  <ele>160.805908</ele>
  <time>2011-10-18T04:28:48Z</time>
  <speed>2.230000</speed>
</trkpt>
<trkpt lat="32.606544495" lon="35.135593414">
  <ele>161.157471</ele>
  <time>2011-10-18T04:28:50Z</time>
  <speed>2.240000</speed>
</trkpt>
<trkpt lat="32.606510162" lon="35.135570526">
  <ele>161.442627</ele>
  <time>2011-10-18T04:28:52Z</time>
  <speed>1.700000</speed>
</trkpt>
<trkpt lat="32.606513977" lon="35.135532379">
  <ele>161.380127</ele>
  <time>2011-10-18T04:28:55Z</time>
  <speed>1.520000</speed>
</trkpt>
<trkpt lat="32.606533051" lon="35.135490417">
  <ele>162.130127</ele>
  <time>2011-10-18T04:28:57Z</time>
  <speed>1.420000</speed>
</trkpt>
<trkpt lat="32.606533051" lon="35.135456085">
  <ele>163.016846</ele>
  <time>2011-10-18T04:29:00Z</time>
  <speed>0.930000</speed>
</trkpt>
<trkpt lat="32.606521606" lon="35.135425568">
  <ele>163.387939</ele>
  <time>2011-10-18T04:29:03Z</time>
  <speed>1.180000</speed>
</trkpt>
<trkpt lat="32.606506348" lon="35.135398865">
  <ele>163.907471</ele>
  <time>2011-10-18T04:29:05Z</time>
  <speed>2.360000</speed>
</trkpt>
<trkpt lat="32.606491089" lon="35.135360718">
  <ele>164.165283</ele>
  <time>2011-10-18T04:29:07Z</time>
  <speed>1.530000</speed>
</trkpt>
<trkpt lat="32.606494904" lon="35.135318756">
  <ele>164.809814</ele>
  <time>2011-10-18T04:29:09Z</time>
  <speed>1.480000</speed>
</trkpt>
<trkpt lat="32.606521606" lon="35.135288239">
  <ele>165.079346</ele>
  <time>2011-10-18T04:29:11Z</time>
  <speed>1.900000</speed>
</trkpt>
<trkpt lat="32.606548309" lon="35.135253906">
  <ele>165.434814</ele>
  <time>2011-10-18T04:29:13Z</time>
  <speed>2.070000</speed>
</trkpt>
<trkpt lat="32.606571198" lon="35.135223389">
  <ele>166.274658</ele>
  <time>2011-10-18T04:29:15Z</time>
  <speed>1.350000</speed>
</trkpt>
<trkpt lat="32.606571198" lon="35.135169983">
  <ele>166.747314</ele>
  <time>2011-10-18T04:29:17Z</time>
  <speed>1.960000</speed>
</trkpt>
<trkpt lat="32.606586456" lon="35.135135651">
  <ele>166.348877</ele>
  <time>2011-10-18T04:29:18Z</time>
  <speed>2.100000</speed>
</trkpt>
<trkpt lat="32.606616974" lon="35.135108948">
  <ele>166.227783</ele>
  <time>2011-10-18T04:29:19Z</time>
  <speed>2.620000</speed>
</trkpt>
<trkpt lat="32.606651306" lon="35.135082245">
  <ele>166.141846</ele>
  <time>2011-10-18T04:29:20Z</time>
  <speed>2.610000</speed>
</trkpt>
<trkpt lat="32.606681824" lon="35.135040283">
  <ele>166.317627</ele>
  <time>2011-10-18T04:29:22Z</time>
  <speed>2.100000</speed>
</trkpt>
<trkpt lat="32.606697083" lon="35.135002136">
  <ele>167.071533</ele>
  <time>2011-10-18T04:29:24Z</time>
  <speed>2.200000</speed>
</trkpt>
<trkpt lat="32.606708527" lon="35.134960175">
  <ele>167.364502</ele>
  <time>2011-10-18T04:29:26Z</time>
  <speed>1.870000</speed>
</trkpt>
<trkpt lat="32.606727600" lon="35.134906769">
  <ele>167.841064</ele>
  <time>2011-10-18T04:29:28Z</time>
  <speed>2.240000</speed>
</trkpt>
<trkpt lat="32.606719971" lon="35.134864807">
  <ele>168.098877</ele>
  <time>2011-10-18T04:29:30Z</time>
  <speed>1.520000</speed>
</trkpt>
<trkpt lat="32.606712341" lon="35.134822845">
  <ele>168.505127</ele>
  <time>2011-10-18T04:29:32Z</time>
  <speed>1.560000</speed>
</trkpt>
<trkpt lat="32.606700897" lon="35.134777069">
  <ele>168.930908</ele>
  <time>2011-10-18T04:29:34Z</time>
  <speed>1.840000</speed>
</trkpt>
<trkpt lat="32.606697083" lon="35.134735107">
  <ele>168.962158</ele>
  <time>2011-10-18T04:29:36Z</time>
  <speed>1.890000</speed>
</trkpt>
<trkpt lat="32.606700897" lon="35.134696960">
  <ele>169.645752</ele>
  <time>2011-10-18T04:29:38Z</time>
  <speed>1.500000</speed>
</trkpt>
<trkpt lat="32.606723785" lon="35.134658813">
  <ele>170.692627</ele>
  <time>2011-10-18T04:29:41Z</time>
  <speed>1.700000</speed>
</trkpt>
<trkpt lat="32.606765747" lon="35.134643555">
  <ele>170.739502</ele>
  <time>2011-10-18T04:29:43Z</time>
  <speed>1.500000</speed>
</trkpt>
<trkpt lat="32.606784821" lon="35.134616852">
  <ele>171.356689</ele>
  <time>2011-10-18T04:29:45Z</time>
  <speed>0.970000</speed>
</trkpt>
<trkpt lat="32.606784821" lon="35.134563446">
  <ele>171.391846</ele>
  <time>2011-10-18T04:29:47Z</time>
  <speed>1.240000</speed>
</trkpt>
<trkpt lat="32.606784821" lon="35.134517670">
  <ele>171.915283</ele>
  <time>2011-10-18T04:29:50Z</time>
  <speed>1.790000</speed>
</trkpt>
<trkpt lat="32.606769562" lon="35.134487152">
  <ele>172.645752</ele>
  <time>2011-10-18T04:29:53Z</time>
  <speed>1.550000</speed>
</trkpt>
<trkpt lat="32.606742859" lon="35.134445190">
  <ele>172.735596</ele>
  <time>2011-10-18T04:29:55Z</time>
  <speed>1.720000</speed>
</trkpt>
<trkpt lat="32.606735229" lon="35.134395599">
  <ele>173.489502</ele>
  <time>2011-10-18T04:29:57Z</time>
  <speed>1.740000</speed>
</trkpt>
<trkpt lat="32.606723785" lon="35.134361267">
  <ele>175.134033</ele>
  <time>2011-10-18T04:29:59Z</time>
  <speed>1.230000</speed>
</trkpt>
<trkpt lat="32.606700897" lon="35.134342194">
  <ele>176.216064</ele>
  <time>2011-10-18T04:30:01Z</time>
  <speed>1.280000</speed>
</trkpt>
<trkpt lat="32.606674194" lon="35.134334564">
  <ele>177.395752</ele>
  <time>2011-10-18T04:30:02Z</time>
  <speed>1.070000</speed>
</trkpt>
<trkpt lat="32.606655121" lon="35.134281158">
  <ele>177.247314</ele>
  <time>2011-10-18T04:30:04Z</time>
  <speed>1.310000</speed>
</trkpt>
<trkpt lat="32.606651306" lon="35.134239197">
  <ele>178.919189</ele>
  <time>2011-10-18T04:30:06Z</time>
  <speed>1.080000</speed>
</trkpt>
<trkpt lat="32.606643677" lon="35.134204865">
  <ele>179.399658</ele>
  <time>2011-10-18T04:30:09Z</time>
  <speed>0.510000</speed>
</trkpt>
<trkpt lat="32.606643677" lon="35.134170532">
  <ele>179.942627</ele>
  <time>2011-10-18T04:30:11Z</time>
  <speed>0.770000</speed>
</trkpt>
<trkpt lat="32.606666565" lon="35.134143829">
  <ele>180.802002</ele>
  <time>2011-10-18T04:30:13Z</time>
  <speed>1.030000</speed>
</trkpt>
<trkpt lat="32.606700897" lon="35.134101868">
  <ele>182.598877</ele>
  <time>2011-10-18T04:30:16Z</time>
  <speed>1.200000</speed>
</trkpt>
<trkpt lat="32.606719971" lon="35.134067535">
  <ele>183.473877</ele>
  <time>2011-10-18T04:30:18Z</time>
  <speed>1.310000</speed>
</trkpt>
<trkpt lat="32.606704712" lon="35.134021759">
  <ele>183.036377</ele>
  <time>2011-10-18T04:30:21Z</time>
  <speed>1.320000</speed>
</trkpt>
<trkpt lat="32.606670380" lon="35.133975983">
  <ele>183.098877</ele>
  <time>2011-10-18T04:30:23Z</time>
  <speed>1.750000</speed>
</trkpt>
<trkpt lat="32.606655121" lon="35.133922577">
  <ele>183.020752</ele>
  <time>2011-10-18T04:30:25Z</time>
  <speed>1.750000</speed>
</trkpt>
<trkpt lat="32.606655121" lon="35.133872986">
  <ele>182.505127</ele>
  <time>2011-10-18T04:30:27Z</time>
  <speed>1.330000</speed>
</trkpt>
<trkpt lat="32.606643677" lon="35.133838654">
  <ele>182.430908</ele>
  <time>2011-10-18T04:30:29Z</time>
  <speed>1.110000</speed>
</trkpt>
<trkpt lat="32.606620789" lon="35.133811951">
  <ele>182.161377</ele>
  <time>2011-10-18T04:30:31Z</time>
  <speed>1.040000</speed>
</trkpt>
<trkpt lat="32.606594086" lon="35.133796692">
  <ele>182.360596</ele>
  <time>2011-10-18T04:30:36Z</time>
  <speed>0.220000</speed>
</trkpt>
<trkpt lat="32.606567383" lon="35.133777618">
  <ele>182.544189</ele>
  <time>2011-10-18T04:30:41Z</time>
  <speed>0.400000</speed>
</trkpt>
<trkpt lat="32.606494904" lon="35.133781433">
  <ele>183.204346</ele>
  <time>2011-10-18T04:30:55Z</time>
  <speed>0.350000</speed>
</trkpt>
<trkpt lat="32.606460571" lon="35.133758545">
  <ele>183.602783</ele>
  <time>2011-10-18T04:30:58Z</time>
  <speed>0.430000</speed>
</trkpt>
<trkpt lat="32.606430054" lon="35.133735657">
  <ele>183.841064</ele>
  <time>2011-10-18T04:31:03Z</time>
  <speed>0.390000</speed>
</trkpt>
<trkpt lat="32.606407166" lon="35.133716583">
  <ele>184.427002</ele>
  <time>2011-10-18T04:31:08Z</time>
  <speed>0.490000</speed>
</trkpt>
<trkpt lat="32.606410980" lon="35.133678436">
  <ele>184.454346</ele>
  <time>2011-10-18T04:31:11Z</time>
  <speed>0.800000</speed>
</trkpt>
<trkpt lat="32.606403351" lon="35.133647919">
  <ele>184.915283</ele>
  <time>2011-10-18T04:31:13Z</time>
  <speed>1.190000</speed>
</trkpt>
<trkpt lat="32.606399536" lon="35.133609772">
  <ele>185.020752</ele>
  <time>2011-10-18T04:31:14Z</time>
  <speed>2.060000</speed>
</trkpt>
<trkpt lat="32.606384277" lon="35.133571625">
  <ele>185.313721</ele>
  <time>2011-10-18T04:31:16Z</time>
  <speed>1.630000</speed>
</trkpt>
<trkpt lat="32.606342316" lon="35.133533478">
  <ele>184.880127</ele>
  <time>2011-10-18T04:31:18Z</time>
  <speed>2.340000</speed>
</trkpt>
<trkpt lat="32.606300354" lon="35.133502960">
  <ele>185.497314</ele>
  <time>2011-10-18T04:31:20Z</time>
  <speed>1.910000</speed>
</trkpt>
<trkpt lat="32.606262207" lon="35.133476257">
  <ele>187.473877</ele>
  <time>2011-10-18T04:31:22Z</time>
  <speed>1.670000</speed>
</trkpt>
<trkpt lat="32.606231689" lon="35.133464813">
  <ele>188.028564</ele>
  <time>2011-10-18T04:31:24Z</time>
  <speed>1.460000</speed>
</trkpt>
<trkpt lat="32.606204987" lon="35.133453369">
  <ele>188.528564</ele>
  <time>2011-10-18T04:31:27Z</time>
  <speed>0.980000</speed>
</trkpt>
<trkpt lat="32.606174469" lon="35.133460999">
  <ele>189.294189</ele>
  <time>2011-10-18T04:31:29Z</time>
  <speed>1.250000</speed>
</trkpt>
<trkpt lat="32.606143951" lon="35.133472443">
  <ele>189.735596</ele>
  <time>2011-10-18T04:31:31Z</time>
  <speed>1.080000</speed>
</trkpt>
<trkpt lat="32.606147766" lon="35.133468628">
  <ele>192.942627</ele>
  <time>2011-10-18T04:31:36Z</time>
  <speed>0.060000</speed>
</trkpt>
<trkpt lat="32.606121063" lon="35.133468628">
  <ele>192.637939</ele>
  <time>2011-10-18T04:32:15Z</time>
</trkpt>
<trkpt lat="32.606094360" lon="35.133457184">
  <ele>192.188721</ele>
  <time>2011-10-18T04:32:23Z</time>
</trkpt>
<trkpt lat="32.606082916" lon="35.133472443">
  <ele>189.473877</ele>
  <time>2011-10-18T04:32:35Z</time>
</trkpt>
<trkpt lat="32.606086731" lon="35.133460999">
  <ele>192.509033</ele>
  <time>2011-10-18T04:32:43Z</time>
</trkpt>
<trkpt lat="32.606113434" lon="35.133438110">
  <ele>192.708252</ele>
  <time>2011-10-18T04:35:11Z</time>
  <speed>0.140000</speed>
</trkpt>
<trkpt lat="32.606105804" lon="35.133411407">
  <ele>191.567627</ele>
  <time>2011-10-18T04:35:22Z</time>
  <speed>0.140000</speed>
</trkpt>
<trkpt lat="32.606079102" lon="35.133403778">
  <ele>190.442627</ele>
  <time>2011-10-18T04:35:30Z</time>
  <speed>0.120000</speed>
</trkpt>
<trkpt lat="32.606060028" lon="35.133392334">
  <ele>187.934814</ele>
  <time>2011-10-18T04:35:42Z</time>
  <speed>0.100000</speed>
</trkpt>
<trkpt lat="32.606052399" lon="35.133361816">
  <ele>188.833252</ele>
  <time>2011-10-18T04:36:09Z</time>
  <speed>0.090000</speed>
</trkpt>
<trkpt lat="32.606063843" lon="35.133365631">
  <ele>191.606689</ele>
  <time>2011-10-18T04:36:23Z</time>
  <speed>0.220000</speed>
</trkpt>
<trkpt lat="32.606082916" lon="35.133384705">
  <ele>193.887939</ele>
  <time>2011-10-18T04:36:32Z</time>
  <speed>0.260000</speed>
</trkpt>
<trkpt lat="32.606109619" lon="35.133384705">
  <ele>195.739502</ele>
  <time>2011-10-18T04:36:41Z</time>
  <speed>0.340000</speed>
</trkpt>
<trkpt lat="32.606132507" lon="35.133407593">
  <ele>195.165283</ele>
  <time>2011-10-18T04:36:46Z</time>
  <speed>0.090000</speed>
</trkpt>
<trkpt lat="32.606124878" lon="35.133407593">
  <ele>198.204346</ele>
  <time>2011-10-18T04:37:02Z</time>
  <speed>0.060000</speed>
</trkpt>
<trkpt lat="32.606124878" lon="35.133392334">
  <ele>200.969971</ele>
  <time>2011-10-18T04:37:19Z</time>
  <speed>0.120000</speed>
</trkpt>
<trkpt lat="32.606143951" lon="35.133377075">
  <ele>199.446533</ele>
  <time>2011-10-18T04:37:44Z</time>
  <speed>0.080000</speed>
</trkpt>
<trkpt lat="32.606136322" lon="35.133361816">
  <ele>196.790283</ele>
  <time>2011-10-18T04:38:00Z</time>
  <speed>0.060000</speed>
</trkpt>
<trkpt lat="32.606128693" lon="35.133384705">
  <ele>194.723877</ele>
  <time>2011-10-18T04:38:16Z</time>
  <speed>0.140000</speed>
</trkpt>
<trkpt lat="32.606124878" lon="35.133415222">
  <ele>195.555908</ele>
  <time>2011-10-18T04:39:36Z</time>
  <speed>0.350000</speed>
</trkpt>
<trkpt lat="32.606105804" lon="35.133445740">
  <ele>195.458252</ele>
  <time>2011-10-18T04:39:39Z</time>
  <speed>0.250000</speed>
</trkpt>
<trkpt lat="32.606082916" lon="35.133472443">
  <ele>194.969971</ele>
  <time>2011-10-18T04:39:43Z</time>
  <speed>0.900000</speed>
</trkpt>
<trkpt lat="32.606052399" lon="35.133502960">
  <ele>195.110596</ele>
  <time>2011-10-18T04:39:45Z</time>
  <speed>2.190000</speed>
</trkpt>
<trkpt lat="32.606014252" lon="35.133514404">
  <ele>194.997314</ele>
  <time>2011-10-18T04:39:47Z</time>
  <speed>2.030000</speed>
</trkpt>
<trkpt lat="32.605964661" lon="35.133544922">
  <ele>194.559814</ele>
  <time>2011-10-18T04:39:49Z</time>
  <speed>1.970000</speed>
</trkpt>
<trkpt lat="32.605926514" lon="35.133548737">
  <ele>193.555908</ele>
  <time>2011-10-18T04:39:51Z</time>
  <speed>1.940000</speed>
</trkpt>
<trkpt lat="32.605888367" lon="35.133541107">
  <ele>193.563721</ele>
  <time>2011-10-18T04:39:53Z</time>
  <speed>2.540000</speed>
</trkpt>
<trkpt lat="32.605857849" lon="35.133541107">
  <ele>193.481689</ele>
  <time>2011-10-18T04:39:54Z</time>
  <speed>2.640000</speed>
</trkpt>
<trkpt lat="32.605808258" lon="35.133522034">
  <ele>192.860596</ele>
  <time>2011-10-18T04:39:56Z</time>
  <speed>2.750000</speed>
</trkpt>
<trkpt lat="32.605781555" lon="35.133506775">
  <ele>193.079346</ele>
  <time>2011-10-18T04:39:57Z</time>
  <speed>2.620000</speed>
</trkpt>
<trkpt lat="32.605739594" lon="35.133502960">
  <ele>192.688721</ele>
  <time>2011-10-18T04:39:59Z</time>
  <speed>2.720000</speed>
</trkpt>
<trkpt lat="32.605682373" lon="35.133514404">
  <ele>192.634033</ele>
  <time>2011-10-18T04:40:01Z</time>
  <speed>3.470000</speed>
</trkpt>
<trkpt lat="32.605648041" lon="35.133522034">
  <ele>192.731689</ele>
  <time>2011-10-18T04:40:02Z</time>
  <speed>3.270000</speed>
</trkpt>
<trkpt lat="32.605613708" lon="35.133533478">
  <ele>192.587158</ele>
  <time>2011-10-18T04:40:03Z</time>
  <speed>3.140000</speed>
</trkpt>
<trkpt lat="32.605583191" lon="35.133544922">
  <ele>192.458252</ele>
  <time>2011-10-18T04:40:04Z</time>
  <speed>3.160000</speed>
</trkpt>
<trkpt lat="32.605552673" lon="35.133556366">
  <ele>192.907471</ele>
  <time>2011-10-18T04:40:05Z</time>
  <speed>3.270000</speed>
</trkpt>
<trkpt lat="32.605522156" lon="35.133556366">
  <ele>193.141846</ele>
  <time>2011-10-18T04:40:06Z</time>
  <speed>3.460000</speed>
</trkpt>
<trkpt lat="32.605495453" lon="35.133567810">
  <ele>193.341064</ele>
  <time>2011-10-18T04:40:07Z</time>
  <speed>3.320000</speed>
</trkpt>
<trkpt lat="32.605461121" lon="35.133575439">
  <ele>193.481689</ele>
  <time>2011-10-18T04:40:08Z</time>
  <speed>3.130000</speed>
</trkpt>
<trkpt lat="32.605430603" lon="35.133583069">
  <ele>193.645752</ele>
  <time>2011-10-18T04:40:09Z</time>
  <speed>3.270000</speed>
</trkpt>
<trkpt lat="32.605400085" lon="35.133590698">
  <ele>194.255127</ele>
  <time>2011-10-18T04:40:10Z</time>
  <speed>3.370000</speed>
</trkpt>
<trkpt lat="32.605373383" lon="35.133602142">
  <ele>194.001221</ele>
  <time>2011-10-18T04:40:11Z</time>
  <speed>3.470000</speed>
</trkpt>
<trkpt lat="32.605342865" lon="35.133613586">
  <ele>193.731689</ele>
  <time>2011-10-18T04:40:12Z</time>
  <speed>3.270000</speed>
</trkpt>
<trkpt lat="32.605312347" lon="35.133621216">
  <ele>193.712158</ele>
  <time>2011-10-18T04:40:13Z</time>
  <speed>2.890000</speed>
</trkpt>
<trkpt lat="32.605258942" lon="35.133640289">
  <ele>193.688721</ele>
  <time>2011-10-18T04:40:15Z</time>
  <speed>3.470000</speed>
</trkpt>
<trkpt lat="32.605228424" lon="35.133647919">
  <ele>193.645752</ele>
  <time>2011-10-18T04:40:16Z</time>
  <speed>2.930000</speed>
</trkpt>
<trkpt lat="32.605201721" lon="35.133647919">
  <ele>194.165283</ele>
  <time>2011-10-18T04:40:17Z</time>
  <speed>2.610000</speed>
</trkpt>
<trkpt lat="32.605175018" lon="35.133666992">
  <ele>194.712158</ele>
  <time>2011-10-18T04:40:18Z</time>
  <speed>3.010000</speed>
</trkpt>
<trkpt lat="32.605148315" lon="35.133682251">
  <ele>194.313721</ele>
  <time>2011-10-18T04:40:19Z</time>
  <speed>3.160000</speed>
</trkpt>
<trkpt lat="32.605117798" lon="35.133697510">
  <ele>194.325439</ele>
  <time>2011-10-18T04:40:20Z</time>
  <speed>3.470000</speed>
</trkpt>
<trkpt lat="32.605079651" lon="35.133708954">
  <ele>194.165283</ele>
  <time>2011-10-18T04:40:21Z</time>
  <speed>3.520000</speed>
</trkpt>
<trkpt lat="32.605049133" lon="35.133720398">
  <ele>194.536377</ele>
  <time>2011-10-18T04:40:22Z</time>
  <speed>3.220000</speed>
</trkpt>
<trkpt lat="32.605014801" lon="35.133728027">
  <ele>194.739502</ele>
  <time>2011-10-18T04:40:23Z</time>
  <speed>3.190000</speed>
</trkpt>
<trkpt lat="32.604988098" lon="35.133728027">
  <ele>195.005127</ele>
  <time>2011-10-18T04:40:24Z</time>
  <speed>3.410000</speed>
</trkpt>
<trkpt lat="32.604957581" lon="35.133728027">
  <ele>194.899658</ele>
  <time>2011-10-18T04:40:25Z</time>
  <speed>3.400000</speed>
</trkpt>
<trkpt lat="32.604923248" lon="35.133720398">
  <ele>193.895752</ele>
  <time>2011-10-18T04:40:26Z</time>
  <speed>3.040000</speed>
</trkpt>
<trkpt lat="32.604896545" lon="35.133708954">
  <ele>194.177002</ele>
  <time>2011-10-18T04:40:27Z</time>
  <speed>3.010000</speed>
</trkpt>
<trkpt lat="32.604873657" lon="35.133693695">
  <ele>193.977783</ele>
  <time>2011-10-18T04:40:28Z</time>
  <speed>2.980000</speed>
</trkpt>
<trkpt lat="32.604850769" lon="35.133674622">
  <ele>193.759033</ele>
  <time>2011-10-18T04:40:29Z</time>
  <speed>2.650000</speed>
</trkpt>
<trkpt lat="32.604827881" lon="35.133636475">
  <ele>194.298096</ele>
  <time>2011-10-18T04:40:31Z</time>
  <speed>2.050000</speed>
</trkpt>
<trkpt lat="32.604812622" lon="35.133605957">
  <ele>194.227783</ele>
  <time>2011-10-18T04:40:32Z</time>
  <speed>2.760000</speed>
</trkpt>
<trkpt lat="32.604812622" lon="35.133537292">
  <ele>194.247314</ele>
  <time>2011-10-18T04:40:34Z</time>
  <speed>3.610000</speed>
</trkpt>
<trkpt lat="32.604816437" lon="35.133491516">
  <ele>194.821533</ele>
  <time>2011-10-18T04:40:35Z</time>
  <speed>3.870000</speed>
</trkpt>
<trkpt lat="32.604824066" lon="35.133449554">
  <ele>194.903564</ele>
  <time>2011-10-18T04:40:36Z</time>
  <speed>3.660000</speed>
</trkpt>
<trkpt lat="32.604827881" lon="35.133407593">
  <ele>195.364502</ele>
  <time>2011-10-18T04:40:37Z</time>
  <speed>3.310000</speed>
</trkpt>
<trkpt lat="32.604820251" lon="35.133377075">
  <ele>195.462158</ele>
  <time>2011-10-18T04:40:38Z</time>
  <speed>2.760000</speed>
</trkpt>
<trkpt lat="32.604797363" lon="35.133354187">
  <ele>195.344971</ele>
  <time>2011-10-18T04:40:39Z</time>
  <speed>3.050000</speed>
</trkpt>
<trkpt lat="32.604766846" lon="35.133331299">
  <ele>195.087158</ele>
  <time>2011-10-18T04:40:40Z</time>
  <speed>3.400000</speed>
</trkpt>
<trkpt lat="32.604728699" lon="35.133308411">
  <ele>195.223877</ele>
  <time>2011-10-18T04:40:41Z</time>
  <speed>3.470000</speed>
</trkpt>
<trkpt lat="32.604690552" lon="35.133289337">
  <ele>195.532471</ele>
  <time>2011-10-18T04:40:42Z</time>
  <speed>3.970000</speed>
</trkpt>
<trkpt lat="32.604656219" lon="35.133266449">
  <ele>195.731689</ele>
  <time>2011-10-18T04:40:43Z</time>
  <speed>4.110000</speed>
</trkpt>
<trkpt lat="32.604621887" lon="35.133251190">
  <ele>195.352783</ele>
  <time>2011-10-18T04:40:44Z</time>
  <speed>4.120000</speed>
</trkpt>
<trkpt lat="32.604587555" lon="35.133239746">
  <ele>195.442627</ele>
  <time>2011-10-18T04:40:45Z</time>
  <speed>3.570000</speed>
</trkpt>
<trkpt lat="32.604557037" lon="35.133232117">
  <ele>195.216064</ele>
  <time>2011-10-18T04:40:46Z</time>
  <speed>2.800000</speed>
</trkpt>
<trkpt lat="32.604507446" lon="35.133205414">
  <ele>195.122314</ele>
  <time>2011-10-18T04:40:48Z</time>
  <speed>3.130000</speed>
</trkpt>
<trkpt lat="32.604488373" lon="35.133178711">
  <ele>195.380127</ele>
  <time>2011-10-18T04:40:49Z</time>
  <speed>3.060000</speed>
</trkpt>
<trkpt lat="32.604450226" lon="35.133144379">
  <ele>195.641846</ele>
  <time>2011-10-18T04:40:51Z</time>
  <speed>2.540000</speed>
</trkpt>
<trkpt lat="32.604415894" lon="35.133129120">
  <ele>195.786377</ele>
  <time>2011-10-18T04:40:53Z</time>
  <speed>1.750000</speed>
</trkpt>
<trkpt lat="32.604370117" lon="35.133117676">
  <ele>195.755127</ele>
  <time>2011-10-18T04:40:55Z</time>
  <speed>2.540000</speed>
</trkpt>
<trkpt lat="32.604331970" lon="35.133094788">
  <ele>196.677002</ele>
  <time>2011-10-18T04:40:57Z</time>
  <speed>2.160000</speed>
</trkpt>
<trkpt lat="32.604297638" lon="35.133094788">
  <ele>196.755127</ele>
  <time>2011-10-18T04:40:59Z</time>
  <speed>1.630000</speed>
</trkpt>
<trkpt lat="32.604278564" lon="35.133068085">
  <ele>197.231689</ele>
  <time>2011-10-18T04:41:01Z</time>
  <speed>1.820000</speed>
</trkpt>
<trkpt lat="32.604270935" lon="35.133029938">
  <ele>197.505127</ele>
  <time>2011-10-18T04:41:03Z</time>
  <speed>2.440000</speed>
</trkpt>
<trkpt lat="32.604286194" lon="35.132968903">
  <ele>197.798096</ele>
  <time>2011-10-18T04:41:05Z</time>
  <speed>3.220000</speed>
</trkpt>
<trkpt lat="32.604301453" lon="35.132934570">
  <ele>198.024658</ele>
  <time>2011-10-18T04:41:06Z</time>
  <speed>3.660000</speed>
</trkpt>
<trkpt lat="32.604328156" lon="35.132900238">
  <ele>198.052002</ele>
  <time>2011-10-18T04:41:07Z</time>
  <speed>4.030000</speed>
</trkpt>
<trkpt lat="32.604343414" lon="35.132862091">
  <ele>198.333252</ele>
  <time>2011-10-18T04:41:08Z</time>
  <speed>4.130000</speed>
</trkpt>
<trkpt lat="32.604354858" lon="35.132797241">
  <ele>197.997314</ele>
  <time>2011-10-18T04:41:09Z</time>
  <speed>5.350000</speed>
</trkpt>
<trkpt lat="32.604377747" lon="35.132728577">
  <ele>197.930908</ele>
  <time>2011-10-18T04:41:10Z</time>
  <speed>6.350000</speed>
</trkpt>
<trkpt lat="32.604408264" lon="35.132656097">
  <ele>197.712158</ele>
  <time>2011-10-18T04:41:11Z</time>
  <speed>6.600000</speed>
</trkpt>
<trkpt lat="32.604431152" lon="35.132583618">
  <ele>197.653564</ele>
  <time>2011-10-18T04:41:12Z</time>
  <speed>7.110000</speed>
</trkpt>
<trkpt lat="32.604457855" lon="35.132503510">
  <ele>197.743408</ele>
  <time>2011-10-18T04:41:13Z</time>
  <speed>7.870000</speed>
</trkpt>
<trkpt lat="32.604484558" lon="35.132419586">
  <ele>197.778564</ele>
  <time>2011-10-18T04:41:14Z</time>
  <speed>7.890000</speed>
</trkpt>
<trkpt lat="32.604511261" lon="35.132347107">
  <ele>197.798096</ele>
  <time>2011-10-18T04:41:15Z</time>
  <speed>7.390000</speed>
</trkpt>
<trkpt lat="32.604545593" lon="35.132282257">
  <ele>197.829346</ele>
  <time>2011-10-18T04:41:16Z</time>
  <speed>6.780000</speed>
</trkpt>
<trkpt lat="32.604579926" lon="35.132217407">
  <ele>198.001221</ele>
  <time>2011-10-18T04:41:17Z</time>
  <speed>6.770000</speed>
</trkpt>
<trkpt lat="32.604633331" lon="35.132137299">
  <ele>198.122314</ele>
  <time>2011-10-18T04:41:18Z</time>
  <speed>7.570000</speed>
</trkpt>
<trkpt lat="32.604679108" lon="35.132049561">
  <ele>198.177002</ele>
  <time>2011-10-18T04:41:19Z</time>
  <speed>7.790000</speed>
</trkpt>
<trkpt lat="32.604728699" lon="35.131980896">
  <ele>198.052002</ele>
  <time>2011-10-18T04:41:20Z</time>
  <speed>8.020000</speed>
</trkpt>
<trkpt lat="32.604770660" lon="35.131912231">
  <ele>198.048096</ele>
  <time>2011-10-18T04:41:21Z</time>
  <speed>7.560000</speed>
</trkpt>
<trkpt lat="32.604812622" lon="35.131843567">
  <ele>198.075439</ele>
  <time>2011-10-18T04:41:22Z</time>
  <speed>7.200000</speed>
</trkpt>
<trkpt lat="32.604854584" lon="35.131782532">
  <ele>198.040283</ele>
  <time>2011-10-18T04:41:23Z</time>
  <speed>6.890000</speed>
</trkpt>
<trkpt lat="32.604892731" lon="35.131725311">
  <ele>198.067627</ele>
  <time>2011-10-18T04:41:24Z</time>
  <speed>5.570000</speed>
</trkpt>
<trkpt lat="32.604923248" lon="35.131664276">
  <ele>198.208252</ele>
  <time>2011-10-18T04:41:25Z</time>
  <speed>4.980000</speed>
</trkpt>
<trkpt lat="32.604930878" lon="35.131614685">
  <ele>198.434814</ele>
  <time>2011-10-18T04:41:26Z</time>
  <speed>3.670000</speed>
</trkpt>
<trkpt lat="32.604934692" lon="35.131565094">
  <ele>198.512939</ele>
  <time>2011-10-18T04:41:27Z</time>
  <speed>3.830000</speed>
</trkpt>
<trkpt lat="32.604942322" lon="35.131526947">
  <ele>198.712158</ele>
  <time>2011-10-18T04:41:28Z</time>
  <speed>2.710000</speed>
</trkpt>
<trkpt lat="32.604949951" lon="35.131477356">
  <ele>198.891846</ele>
  <time>2011-10-18T04:41:29Z</time>
  <speed>3.170000</speed>
</trkpt>
<trkpt lat="32.604957581" lon="35.131439209">
  <ele>198.637939</ele>
  <time>2011-10-18T04:41:30Z</time>
  <speed>2.480000</speed>
</trkpt>
<trkpt lat="32.604957581" lon="35.131397247">
  <ele>198.266846</ele>
  <time>2011-10-18T04:41:31Z</time>
  <speed>2.110000</speed>
</trkpt>
<trkpt lat="32.604991913" lon="35.131347656">
  <ele>198.555908</ele>
  <time>2011-10-18T04:41:33Z</time>
  <speed>2.720000</speed>
</trkpt>
<trkpt lat="32.605007172" lon="35.131301880">
  <ele>199.200439</ele>
  <time>2011-10-18T04:41:34Z</time>
  <speed>2.970000</speed>
</trkpt>
<trkpt lat="32.605022430" lon="35.131275177">
  <ele>199.325439</ele>
  <time>2011-10-18T04:41:35Z</time>
  <speed>2.800000</speed>
</trkpt>
<trkpt lat="32.605030060" lon="35.131240845">
  <ele>199.411377</ele>
  <time>2011-10-18T04:41:36Z</time>
  <speed>2.470000</speed>
</trkpt>
<trkpt lat="32.605041504" lon="35.131210327">
  <ele>199.477783</ele>
  <time>2011-10-18T04:41:37Z</time>
  <speed>2.500000</speed>
</trkpt>
<trkpt lat="32.605068207" lon="35.131175995">
  <ele>199.583252</ele>
  <time>2011-10-18T04:41:38Z</time>
  <speed>3.020000</speed>
</trkpt>
<trkpt lat="32.605094910" lon="35.131145477">
  <ele>199.977783</ele>
  <time>2011-10-18T04:41:39Z</time>
  <speed>3.420000</speed>
</trkpt>
<trkpt lat="32.605110168" lon="35.131114960">
  <ele>199.895752</ele>
  <time>2011-10-18T04:41:40Z</time>
  <speed>2.910000</speed>
</trkpt>
<trkpt lat="32.605121613" lon="35.131084442">
  <ele>199.770752</ele>
  <time>2011-10-18T04:41:41Z</time>
  <speed>2.840000</speed>
</trkpt>
<trkpt lat="32.605148315" lon="35.131042480">
  <ele>199.591064</ele>
  <time>2011-10-18T04:41:42Z</time>
  <speed>3.170000</speed>
</trkpt>
<trkpt lat="32.605163574" lon="35.131004333">
  <ele>199.509033</ele>
  <time>2011-10-18T04:41:43Z</time>
  <speed>3.570000</speed>
</trkpt>
<trkpt lat="32.605178833" lon="35.130966187">
  <ele>198.989502</ele>
  <time>2011-10-18T04:41:44Z</time>
  <speed>3.530000</speed>
</trkpt>
<trkpt lat="32.605194092" lon="35.130912781">
  <ele>197.102783</ele>
  <time>2011-10-18T04:41:45Z</time>
  <speed>4.350000</speed>
</trkpt>
<trkpt lat="32.605186462" lon="35.130844116">
  <ele>195.321533</ele>
  <time>2011-10-18T04:41:46Z</time>
  <speed>4.450000</speed>
</trkpt>
<trkpt lat="32.605186462" lon="35.130786896">
  <ele>194.786377</ele>
  <time>2011-10-18T04:41:47Z</time>
  <speed>3.520000</speed>
</trkpt>
<trkpt lat="32.605194092" lon="35.130737305">
  <ele>193.837158</ele>
  <time>2011-10-18T04:41:48Z</time>
  <speed>3.650000</speed>
</trkpt>
<trkpt lat="32.605178833" lon="35.130687714">
  <ele>193.262939</ele>
  <time>2011-10-18T04:41:49Z</time>
  <speed>3.530000</speed>
</trkpt>
<trkpt lat="32.605167389" lon="35.130653381">
  <ele>192.766846</ele>
  <time>2011-10-18T04:41:50Z</time>
  <speed>2.780000</speed>
</trkpt>
<trkpt lat="32.605167389" lon="35.130603790">
  <ele>192.442627</ele>
  <time>2011-10-18T04:41:51Z</time>
  <speed>2.780000</speed>
</trkpt>
<trkpt lat="32.605152130" lon="35.130565643">
  <ele>191.993408</ele>
  <time>2011-10-18T04:41:52Z</time>
  <speed>2.460000</speed>
</trkpt>
<trkpt lat="32.605121613" lon="35.130538940">
  <ele>191.766846</ele>
  <time>2011-10-18T04:41:53Z</time>
  <speed>2.260000</speed>
</trkpt>
<trkpt lat="32.605083466" lon="35.130500793">
  <ele>191.173096</ele>
  <time>2011-10-18T04:41:55Z</time>
  <speed>2.430000</speed>
</trkpt>
<trkpt lat="32.605052948" lon="35.130470276">
  <ele>190.462158</ele>
  <time>2011-10-18T04:41:56Z</time>
  <speed>2.840000</speed>
</trkpt>
<trkpt lat="32.605033875" lon="35.130443573">
  <ele>189.762939</ele>
  <time>2011-10-18T04:41:57Z</time>
  <speed>2.820000</speed>
</trkpt>
<trkpt lat="32.605010986" lon="35.130420685">
  <ele>189.387939</ele>
  <time>2011-10-18T04:41:58Z</time>
  <speed>3.280000</speed>
</trkpt>
<trkpt lat="32.604991913" lon="35.130386353">
  <ele>188.805908</ele>
  <time>2011-10-18T04:41:59Z</time>
  <speed>3.150000</speed>
</trkpt>
<trkpt lat="32.604965210" lon="35.130363464">
  <ele>188.427002</ele>
  <time>2011-10-18T04:42:00Z</time>
  <speed>2.590000</speed>
</trkpt>
<trkpt lat="32.604930878" lon="35.130340576">
  <ele>188.270752</ele>
  <time>2011-10-18T04:42:01Z</time>
  <speed>3.000000</speed>
</trkpt>
<trkpt lat="32.604900360" lon="35.130325317">
  <ele>187.993408</ele>
  <time>2011-10-18T04:42:02Z</time>
  <speed>3.380000</speed>
</trkpt>
<trkpt lat="32.604858398" lon="35.130317688">
  <ele>187.259033</ele>
  <time>2011-10-18T04:42:03Z</time>
  <speed>3.420000</speed>
</trkpt>
<trkpt lat="32.604824066" lon="35.130298615">
  <ele>186.329346</ele>
  <time>2011-10-18T04:42:04Z</time>
  <speed>3.710000</speed>
</trkpt>
<trkpt lat="32.604782104" lon="35.130283356">
  <ele>185.653564</ele>
  <time>2011-10-18T04:42:05Z</time>
  <speed>3.670000</speed>
</trkpt>
<trkpt lat="32.604743958" lon="35.130271912">
  <ele>185.575439</ele>
  <time>2011-10-18T04:42:06Z</time>
  <speed>3.880000</speed>
</trkpt>
<trkpt lat="32.604713440" lon="35.130271912">
  <ele>185.552002</ele>
  <time>2011-10-18T04:42:07Z</time>
  <speed>3.440000</speed>
</trkpt>
<trkpt lat="32.604679108" lon="35.130268097">
  <ele>185.286377</ele>
  <time>2011-10-18T04:42:08Z</time>
  <speed>3.280000</speed>
</trkpt>
<trkpt lat="32.604652405" lon="35.130268097">
  <ele>184.958252</ele>
  <time>2011-10-18T04:42:09Z</time>
  <speed>3.160000</speed>
</trkpt>
<trkpt lat="32.604621887" lon="35.130264282">
  <ele>184.618408</ele>
  <time>2011-10-18T04:42:10Z</time>
  <speed>2.650000</speed>
</trkpt>
<trkpt lat="32.604595184" lon="35.130252838">
  <ele>184.313721</ele>
  <time>2011-10-18T04:42:11Z</time>
  <speed>2.800000</speed>
</trkpt>
<trkpt lat="32.604560852" lon="35.130245209">
  <ele>183.805908</ele>
  <time>2011-10-18T04:42:12Z</time>
  <speed>2.830000</speed>
</trkpt>
<trkpt lat="32.604537964" lon="35.130229950">
  <ele>183.848877</ele>
  <time>2011-10-18T04:42:13Z</time>
  <speed>2.660000</speed>
</trkpt>
<trkpt lat="32.604480743" lon="35.130191803">
  <ele>183.286377</ele>
  <time>2011-10-18T04:42:15Z</time>
  <speed>2.750000</speed>
</trkpt>
<trkpt lat="32.604457855" lon="35.130180359">
  <ele>183.180908</ele>
  <time>2011-10-18T04:42:16Z</time>
  <speed>2.720000</speed>
</trkpt>
<trkpt lat="32.604431152" lon="35.130161285">
  <ele>183.009033</ele>
  <time>2011-10-18T04:42:17Z</time>
  <speed>2.630000</speed>
</trkpt>
<trkpt lat="32.604393005" lon="35.130130768">
  <ele>182.520752</ele>
  <time>2011-10-18T04:42:19Z</time>
  <speed>2.610000</speed>
</trkpt>
<trkpt lat="32.604366302" lon="35.130115509">
  <ele>182.524658</ele>
  <time>2011-10-18T04:42:20Z</time>
  <speed>2.670000</speed>
</trkpt>
<trkpt lat="32.604347229" lon="35.130088806">
  <ele>182.716064</ele>
  <time>2011-10-18T04:42:21Z</time>
  <speed>2.890000</speed>
</trkpt>
<trkpt lat="32.604316711" lon="35.130069733">
  <ele>182.473877</ele>
  <time>2011-10-18T04:42:22Z</time>
  <speed>2.760000</speed>
</trkpt>
<trkpt lat="32.604278564" lon="35.130046844">
  <ele>181.848877</ele>
  <time>2011-10-18T04:42:23Z</time>
  <speed>2.660000</speed>
</trkpt>
<trkpt lat="32.604244232" lon="35.130031586">
  <ele>181.950439</ele>
  <time>2011-10-18T04:42:24Z</time>
  <speed>3.590000</speed>
</trkpt>
<trkpt lat="32.604209900" lon="35.130020142">
  <ele>181.352783</ele>
  <time>2011-10-18T04:42:25Z</time>
  <speed>3.650000</speed>
</trkpt>
<trkpt lat="32.604175568" lon="35.130008698">
  <ele>182.637939</ele>
  <time>2011-10-18T04:42:26Z</time>
  <speed>3.620000</speed>
</trkpt>
<trkpt lat="32.604145050" lon="35.129993439">
  <ele>182.598877</ele>
  <time>2011-10-18T04:42:27Z</time>
  <speed>3.330000</speed>
</trkpt>
<trkpt lat="32.604114532" lon="35.129974365">
  <ele>182.454346</ele>
  <time>2011-10-18T04:42:28Z</time>
  <speed>3.030000</speed>
</trkpt>
<trkpt lat="32.604087830" lon="35.129959106">
  <ele>182.454346</ele>
  <time>2011-10-18T04:42:29Z</time>
  <speed>3.540000</speed>
</trkpt>
<trkpt lat="32.604053497" lon="35.129943848">
  <ele>182.403564</ele>
  <time>2011-10-18T04:42:30Z</time>
  <speed>3.700000</speed>
</trkpt>
<trkpt lat="32.604019165" lon="35.129920959">
  <ele>182.868408</ele>
  <time>2011-10-18T04:42:31Z</time>
  <speed>3.670000</speed>
</trkpt>
<trkpt lat="32.603984833" lon="35.129905701">
  <ele>183.028564</ele>
  <time>2011-10-18T04:42:32Z</time>
  <speed>3.610000</speed>
</trkpt>
<trkpt lat="32.603958130" lon="35.129890442">
  <ele>183.290283</ele>
  <time>2011-10-18T04:42:33Z</time>
  <speed>3.430000</speed>
</trkpt>
<trkpt lat="32.603923798" lon="35.129882813">
  <ele>183.239502</ele>
  <time>2011-10-18T04:42:34Z</time>
  <speed>3.660000</speed>
</trkpt>
<trkpt lat="32.603885651" lon="35.129875183">
  <ele>183.259033</ele>
  <time>2011-10-18T04:42:35Z</time>
  <speed>3.770000</speed>
</trkpt>
<trkpt lat="32.603824615" lon="35.129852295">
  <ele>184.805908</ele>
  <time>2011-10-18T04:42:37Z</time>
  <speed>3.630000</speed>
</trkpt>
<trkpt lat="32.603786469" lon="35.129848480">
  <ele>185.844971</ele>
  <time>2011-10-18T04:42:38Z</time>
  <speed>3.600000</speed>
</trkpt>
<trkpt lat="32.603752136" lon="35.129837036">
  <ele>186.122314</ele>
  <time>2011-10-18T04:42:39Z</time>
  <speed>3.900000</speed>
</trkpt>
<trkpt lat="32.603706360" lon="35.129821777">
  <ele>185.927002</ele>
  <time>2011-10-18T04:42:40Z</time>
  <speed>4.110000</speed>
</trkpt>
<trkpt lat="32.603652954" lon="35.129798889">
  <ele>186.594971</ele>
  <time>2011-10-18T04:42:41Z</time>
  <speed>3.570000</speed>
</trkpt>
<trkpt lat="32.603618622" lon="35.129798889">
  <ele>188.118408</ele>
  <time>2011-10-18T04:42:42Z</time>
  <speed>3.810000</speed>
</trkpt>
<trkpt lat="32.603584290" lon="35.129806519">
  <ele>188.653564</ele>
  <time>2011-10-18T04:42:43Z</time>
  <speed>3.830000</speed>
</trkpt>
<trkpt lat="32.603549957" lon="35.129806519">
  <ele>189.126221</ele>
  <time>2011-10-18T04:42:44Z</time>
  <speed>3.650000</speed>
</trkpt>
<trkpt lat="32.603507996" lon="35.129787445">
  <ele>189.208252</ele>
  <time>2011-10-18T04:42:45Z</time>
  <speed>3.580000</speed>
</trkpt>
<trkpt lat="32.603477478" lon="35.129783630">
  <ele>188.653564</ele>
  <time>2011-10-18T04:42:46Z</time>
  <speed>3.810000</speed>
</trkpt>
<trkpt lat="32.603427887" lon="35.129779816">
  <ele>189.594971</ele>
  <time>2011-10-18T04:42:47Z</time>
  <speed>4.070000</speed>
</trkpt>
<trkpt lat="32.603401184" lon="35.129783630">
  <ele>189.759033</ele>
  <time>2011-10-18T04:42:48Z</time>
  <speed>3.650000</speed>
</trkpt>
<trkpt lat="32.603374481" lon="35.129787445">
  <ele>190.223877</ele>
  <time>2011-10-18T04:42:49Z</time>
  <speed>3.790000</speed>
</trkpt>
<trkpt lat="32.603336334" lon="35.129787445">
  <ele>190.430908</ele>
  <time>2011-10-18T04:42:50Z</time>
  <speed>3.780000</speed>
</trkpt>
<trkpt lat="32.603298187" lon="35.129791260">
  <ele>190.591064</ele>
  <time>2011-10-18T04:42:51Z</time>
  <speed>4.080000</speed>
</trkpt>
<trkpt lat="32.603260040" lon="35.129795074">
  <ele>190.766846</ele>
  <time>2011-10-18T04:42:52Z</time>
  <speed>3.750000</speed>
</trkpt>
<trkpt lat="32.603229523" lon="35.129798889">
  <ele>191.052002</ele>
  <time>2011-10-18T04:42:53Z</time>
  <speed>3.750000</speed>
</trkpt>
<trkpt lat="32.603202820" lon="35.129802704">
  <ele>191.387939</ele>
  <time>2011-10-18T04:42:54Z</time>
  <speed>3.610000</speed>
</trkpt>
<trkpt lat="32.603145599" lon="35.129798889">
  <ele>191.841064</ele>
  <time>2011-10-18T04:42:56Z</time>
  <speed>3.320000</speed>
</trkpt>
<trkpt lat="32.603115082" lon="35.129798889">
  <ele>191.985596</ele>
  <time>2011-10-18T04:42:57Z</time>
  <speed>3.250000</speed>
</trkpt>
<trkpt lat="32.603084564" lon="35.129795074">
  <ele>192.173096</ele>
  <time>2011-10-18T04:42:58Z</time>
  <speed>3.180000</speed>
</trkpt>
<trkpt lat="32.603057861" lon="35.129795074">
  <ele>192.329346</ele>
  <time>2011-10-18T04:42:59Z</time>
  <speed>3.050000</speed>
</trkpt>
<trkpt lat="32.603027344" lon="35.129791260">
  <ele>192.653564</ele>
  <time>2011-10-18T04:43:00Z</time>
  <speed>3.500000</speed>
</trkpt>
<trkpt lat="32.602996826" lon="35.129791260">
  <ele>192.751221</ele>
  <time>2011-10-18T04:43:01Z</time>
  <speed>3.270000</speed>
</trkpt>
<trkpt lat="32.602966309" lon="35.129795074">
  <ele>193.032471</ele>
  <time>2011-10-18T04:43:02Z</time>
  <speed>3.340000</speed>
</trkpt>
<trkpt lat="32.602928162" lon="35.129795074">
  <ele>193.387939</ele>
  <time>2011-10-18T04:43:03Z</time>
  <speed>3.160000</speed>
</trkpt>
<trkpt lat="32.602901459" lon="35.129791260">
  <ele>193.626221</ele>
  <time>2011-10-18T04:43:04Z</time>
  <speed>3.100000</speed>
</trkpt>
<trkpt lat="32.602867126" lon="35.129802704">
  <ele>194.766846</ele>
  <time>2011-10-18T04:43:05Z</time>
  <speed>3.280000</speed>
</trkpt>
<trkpt lat="32.602840424" lon="35.129795074">
  <ele>194.809814</ele>
  <time>2011-10-18T04:43:06Z</time>
  <speed>2.950000</speed>
</trkpt>
<trkpt lat="32.602813721" lon="35.129787445">
  <ele>194.876221</ele>
  <time>2011-10-18T04:43:07Z</time>
  <speed>3.280000</speed>
</trkpt>
<trkpt lat="32.602783203" lon="35.129787445">
  <ele>194.946533</ele>
  <time>2011-10-18T04:43:08Z</time>
  <speed>3.280000</speed>
</trkpt>
<trkpt lat="32.602756500" lon="35.129791260">
  <ele>195.192627</ele>
  <time>2011-10-18T04:43:09Z</time>
  <speed>3.450000</speed>
</trkpt>
<trkpt lat="32.602722168" lon="35.129791260">
  <ele>196.438721</ele>
  <time>2011-10-18T04:43:10Z</time>
  <speed>3.400000</speed>
</trkpt>
<trkpt lat="32.602691650" lon="35.129791260">
  <ele>196.766846</ele>
  <time>2011-10-18T04:43:11Z</time>
  <speed>3.200000</speed>
</trkpt>
<trkpt lat="32.602657318" lon="35.129783630">
  <ele>196.759033</ele>
  <time>2011-10-18T04:43:12Z</time>
  <speed>3.170000</speed>
</trkpt>
<trkpt lat="32.602626801" lon="35.129772186">
  <ele>197.348877</ele>
  <time>2011-10-18T04:43:13Z</time>
  <speed>3.260000</speed>
</trkpt>
<trkpt lat="32.602596283" lon="35.129768372">
  <ele>197.438721</ele>
  <time>2011-10-18T04:43:14Z</time>
  <speed>3.140000</speed>
</trkpt>
<trkpt lat="32.602565765" lon="35.129760742">
  <ele>197.598877</ele>
  <time>2011-10-18T04:43:15Z</time>
  <speed>3.200000</speed>
</trkpt>
<trkpt lat="32.602535248" lon="35.129745483">
  <ele>196.321533</ele>
  <time>2011-10-18T04:43:16Z</time>
  <speed>3.730000</speed>
</trkpt>
<trkpt lat="32.602500916" lon="35.129745483">
  <ele>196.055908</ele>
  <time>2011-10-18T04:43:17Z</time>
  <speed>3.730000</speed>
</trkpt>
<trkpt lat="32.602462769" lon="35.129730225">
  <ele>196.399658</ele>
  <time>2011-10-18T04:43:18Z</time>
  <speed>4.140000</speed>
</trkpt>
<trkpt lat="32.602428436" lon="35.129722595">
  <ele>195.614502</ele>
  <time>2011-10-18T04:43:19Z</time>
  <speed>3.570000</speed>
</trkpt>
<trkpt lat="32.602390289" lon="35.129718781">
  <ele>196.052002</ele>
  <time>2011-10-18T04:43:20Z</time>
  <speed>3.650000</speed>
</trkpt>
<trkpt lat="32.602355957" lon="35.129714966">
  <ele>196.028564</ele>
  <time>2011-10-18T04:43:21Z</time>
  <speed>3.560000</speed>
</trkpt>
<trkpt lat="32.602321625" lon="35.129711151">
  <ele>196.032471</ele>
  <time>2011-10-18T04:43:22Z</time>
  <speed>3.520000</speed>
</trkpt>
<trkpt lat="32.602291107" lon="35.129707336">
  <ele>195.903564</ele>
  <time>2011-10-18T04:43:23Z</time>
  <speed>3.660000</speed>
</trkpt>
<trkpt lat="32.602256775" lon="35.129703522">
  <ele>195.704346</ele>
  <time>2011-10-18T04:43:24Z</time>
  <speed>3.650000</speed>
</trkpt>
<trkpt lat="32.602222443" lon="35.129695892">
  <ele>195.813721</ele>
  <time>2011-10-18T04:43:25Z</time>
  <speed>3.700000</speed>
</trkpt>
<trkpt lat="32.602188110" lon="35.129688263">
  <ele>195.790283</ele>
  <time>2011-10-18T04:43:26Z</time>
  <speed>3.810000</speed>
</trkpt>
<trkpt lat="32.602149963" lon="35.129676819">
  <ele>196.055908</ele>
  <time>2011-10-18T04:43:27Z</time>
  <speed>3.410000</speed>
</trkpt>
<trkpt lat="32.602119446" lon="35.129669189">
  <ele>196.052002</ele>
  <time>2011-10-18T04:43:28Z</time>
  <speed>3.110000</speed>
</trkpt>
<trkpt lat="32.602081299" lon="35.129665375">
  <ele>196.251221</ele>
  <time>2011-10-18T04:43:29Z</time>
  <speed>3.620000</speed>
</trkpt>
<trkpt lat="32.602050781" lon="35.129673004">
  <ele>196.302002</ele>
  <time>2011-10-18T04:43:30Z</time>
  <speed>3.430000</speed>
</trkpt>
<trkpt lat="32.602012634" lon="35.129669189">
  <ele>196.509033</ele>
  <time>2011-10-18T04:43:31Z</time>
  <speed>3.090000</speed>
</trkpt>
<trkpt lat="32.601982117" lon="35.129665375">
  <ele>196.610596</ele>
  <time>2011-10-18T04:43:32Z</time>
  <speed>3.590000</speed>
</trkpt>
<trkpt lat="32.601947784" lon="35.129661560">
  <ele>196.977783</ele>
  <time>2011-10-18T04:43:33Z</time>
  <speed>3.150000</speed>
</trkpt>
<trkpt lat="32.601917267" lon="35.129653931">
  <ele>196.434814</ele>
  <time>2011-10-18T04:43:34Z</time>
  <speed>3.190000</speed>
</trkpt>
<trkpt lat="32.601890564" lon="35.129638672">
  <ele>196.524658</ele>
  <time>2011-10-18T04:43:35Z</time>
  <speed>2.900000</speed>
</trkpt>
<trkpt lat="32.601863861" lon="35.129638672">
  <ele>196.567627</ele>
  <time>2011-10-18T04:43:36Z</time>
  <speed>2.700000</speed>
</trkpt>
<trkpt lat="32.601837158" lon="35.129634857">
  <ele>196.528564</ele>
  <time>2011-10-18T04:43:37Z</time>
  <speed>2.730000</speed>
</trkpt>
<trkpt lat="32.601776123" lon="35.129619598">
  <ele>196.571533</ele>
  <time>2011-10-18T04:43:39Z</time>
  <speed>3.380000</speed>
</trkpt>
<trkpt lat="32.601741791" lon="35.129611969">
  <ele>196.555908</ele>
  <time>2011-10-18T04:43:40Z</time>
  <speed>3.290000</speed>
</trkpt>
<trkpt lat="32.601711273" lon="35.129615784">
  <ele>196.469971</ele>
  <time>2011-10-18T04:43:41Z</time>
  <speed>3.030000</speed>
</trkpt>
<trkpt lat="32.601676941" lon="35.129600525">
  <ele>197.743408</ele>
  <time>2011-10-18T04:43:42Z</time>
  <speed>3.270000</speed>
</trkpt>
<trkpt lat="32.601646423" lon="35.129592896">
  <ele>197.997314</ele>
  <time>2011-10-18T04:43:43Z</time>
  <speed>3.120000</speed>
</trkpt>
<trkpt lat="32.601596832" lon="35.129585266">
  <ele>198.282471</ele>
  <time>2011-10-18T04:43:45Z</time>
  <speed>2.870000</speed>
</trkpt>
<trkpt lat="32.601566315" lon="35.129581451">
  <ele>198.430908</ele>
  <time>2011-10-18T04:43:46Z</time>
  <speed>3.080000</speed>
</trkpt>
<trkpt lat="32.601539612" lon="35.129573822">
  <ele>198.544189</ele>
  <time>2011-10-18T04:43:47Z</time>
  <speed>2.950000</speed>
</trkpt>
<trkpt lat="32.601490021" lon="35.129558563">
  <ele>198.969971</ele>
  <time>2011-10-18T04:43:49Z</time>
  <speed>2.740000</speed>
</trkpt>
<trkpt lat="32.601444244" lon="35.129539490">
  <ele>199.485596</ele>
  <time>2011-10-18T04:43:51Z</time>
  <speed>2.490000</speed>
</trkpt>
<trkpt lat="32.601417542" lon="35.129528046">
  <ele>199.841064</ele>
  <time>2011-10-18T04:43:52Z</time>
  <speed>3.050000</speed>
</trkpt>
<trkpt lat="32.601390839" lon="35.129512787">
  <ele>200.032471</ele>
  <time>2011-10-18T04:43:53Z</time>
  <speed>2.980000</speed>
</trkpt>
<trkpt lat="32.601364136" lon="35.129489899">
  <ele>200.395752</ele>
  <time>2011-10-18T04:43:54Z</time>
  <speed>2.790000</speed>
</trkpt>
<trkpt lat="32.601337433" lon="35.129478455">
  <ele>200.317627</ele>
  <time>2011-10-18T04:43:55Z</time>
  <speed>2.700000</speed>
</trkpt>
<trkpt lat="32.601287842" lon="35.129459381">
  <ele>200.868408</ele>
  <time>2011-10-18T04:43:57Z</time>
  <speed>2.600000</speed>
</trkpt>
<trkpt lat="32.601261139" lon="35.129432678">
  <ele>201.700439</ele>
  <time>2011-10-18T04:43:58Z</time>
  <speed>2.580000</speed>
</trkpt>
<trkpt lat="32.601238251" lon="35.129413605">
  <ele>202.177002</ele>
  <time>2011-10-18T04:43:59Z</time>
  <speed>3.050000</speed>
</trkpt>
<trkpt lat="32.601211548" lon="35.129398346">
  <ele>202.567627</ele>
  <time>2011-10-18T04:44:00Z</time>
  <speed>2.860000</speed>
</trkpt>
<trkpt lat="32.601169586" lon="35.129371643">
  <ele>203.180908</ele>
  <time>2011-10-18T04:44:02Z</time>
  <speed>1.870000</speed>
</trkpt>
<trkpt lat="32.601142883" lon="35.129348755">
  <ele>203.466064</ele>
  <time>2011-10-18T04:44:04Z</time>
  <speed>1.800000</speed>
</trkpt>
<trkpt lat="32.601119995" lon="35.129310608">
  <ele>203.747314</ele>
  <time>2011-10-18T04:44:06Z</time>
  <speed>2.040000</speed>
</trkpt>
<trkpt lat="32.601100922" lon="35.129268646">
  <ele>203.575439</ele>
  <time>2011-10-18T04:44:08Z</time>
  <speed>2.060000</speed>
</trkpt>
<trkpt lat="32.601070404" lon="35.129245758">
  <ele>203.903564</ele>
  <time>2011-10-18T04:44:09Z</time>
  <speed>2.540000</speed>
</trkpt>
<trkpt lat="32.601055145" lon="35.129203796">
  <ele>204.395752</ele>
  <time>2011-10-18T04:44:11Z</time>
  <speed>2.070000</speed>
</trkpt>
<trkpt lat="32.601051331" lon="35.129169464">
  <ele>203.958252</ele>
  <time>2011-10-18T04:44:12Z</time>
  <speed>2.370000</speed>
</trkpt>
<trkpt lat="32.601051331" lon="35.129135132">
  <ele>203.341064</ele>
  <time>2011-10-18T04:44:13Z</time>
  <speed>2.030000</speed>
</trkpt>
<trkpt lat="32.601043701" lon="35.129104614">
  <ele>203.477783</ele>
  <time>2011-10-18T04:44:14Z</time>
  <speed>1.890000</speed>
</trkpt>
<trkpt lat="32.601028442" lon="35.129051208">
  <ele>203.341064</ele>
  <time>2011-10-18T04:44:16Z</time>
  <speed>1.970000</speed>
</trkpt>
<trkpt lat="32.601016998" lon="35.129001617">
  <ele>203.407471</ele>
  <time>2011-10-18T04:44:18Z</time>
  <speed>1.280000</speed>
</trkpt>
<trkpt lat="32.600997925" lon="35.128967285">
  <ele>203.950439</ele>
  <time>2011-10-18T04:44:21Z</time>
  <speed>1.610000</speed>
</trkpt>
<trkpt lat="32.600971222" lon="35.128952026">
  <ele>204.032471</ele>
  <time>2011-10-18T04:44:22Z</time>
  <speed>1.790000</speed>
</trkpt>
<trkpt lat="32.600906372" lon="35.128910065">
  <ele>205.567627</ele>
  <time>2011-10-18T04:44:24Z</time>
  <speed>1.890000</speed>
</trkpt>
<trkpt lat="32.600872040" lon="35.128890991">
  <ele>206.645752</ele>
  <time>2011-10-18T04:44:25Z</time>
  <speed>1.810000</speed>
</trkpt>
<trkpt lat="32.600845337" lon="35.128883362">
  <ele>208.673096</ele>
  <time>2011-10-18T04:44:27Z</time>
  <speed>1.290000</speed>
</trkpt>
<trkpt lat="32.600818634" lon="35.128910065">
  <ele>209.368408</ele>
  <time>2011-10-18T04:44:30Z</time>
  <speed>1.210000</speed>
</trkpt>
<trkpt lat="32.600811005" lon="35.128944397">
  <ele>210.469971</ele>
  <time>2011-10-18T04:44:32Z</time>
  <speed>0.970000</speed>
</trkpt>
<trkpt lat="32.600811005" lon="35.128982544">
  <ele>210.497314</ele>
  <time>2011-10-18T04:44:34Z</time>
  <speed>1.130000</speed>
</trkpt>
<trkpt lat="32.600807190" lon="35.129013062">
  <ele>211.501221</ele>
  <time>2011-10-18T04:44:35Z</time>
  <speed>1.700000</speed>
</trkpt>
<trkpt lat="32.600807190" lon="35.129047394">
  <ele>212.016846</ele>
  <time>2011-10-18T04:44:37Z</time>
  <speed>1.600000</speed>
</trkpt>
<trkpt lat="32.600807190" lon="35.129089355">
  <ele>212.841064</ele>
  <time>2011-10-18T04:44:39Z</time>
  <speed>1.500000</speed>
</trkpt>
<trkpt lat="32.600814819" lon="35.129123688">
  <ele>212.841064</ele>
  <time>2011-10-18T04:44:40Z</time>
  <speed>2.180000</speed>
</trkpt>
<trkpt lat="32.600818634" lon="35.129177094">
  <ele>214.165283</ele>
  <time>2011-10-18T04:44:42Z</time>
  <speed>2.290000</speed>
</trkpt>
<trkpt lat="32.600822449" lon="35.129211426">
  <ele>214.391846</ele>
  <time>2011-10-18T04:44:43Z</time>
  <speed>2.430000</speed>
</trkpt>
<trkpt lat="32.600830078" lon="35.129268646">
  <ele>214.423096</ele>
  <time>2011-10-18T04:44:45Z</time>
  <speed>1.810000</speed>
</trkpt>
<trkpt lat="32.600841522" lon="35.129318237">
  <ele>215.239502</ele>
  <time>2011-10-18T04:44:47Z</time>
  <speed>2.300000</speed>
</trkpt>
<trkpt lat="32.600872040" lon="35.129356384">
  <ele>215.583252</ele>
  <time>2011-10-18T04:44:49Z</time>
  <speed>1.830000</speed>
</trkpt>
<trkpt lat="32.600902557" lon="35.129394531">
  <ele>216.126221</ele>
  <time>2011-10-18T04:44:51Z</time>
  <speed>1.710000</speed>
</trkpt>
<trkpt lat="32.600940704" lon="35.129432678">
  <ele>216.485596</ele>
  <time>2011-10-18T04:44:53Z</time>
  <speed>2.260000</speed>
</trkpt>
<trkpt lat="32.600971222" lon="35.129455566">
  <ele>218.348877</ele>
  <time>2011-10-18T04:44:54Z</time>
  <speed>2.110000</speed>
</trkpt>
<trkpt lat="32.601001740" lon="35.129497528">
  <ele>218.798096</ele>
  <time>2011-10-18T04:44:56Z</time>
  <speed>2.560000</speed>
</trkpt>
<trkpt lat="32.601032257" lon="35.129516602">
  <ele>218.559814</ele>
  <time>2011-10-18T04:44:57Z</time>
  <speed>2.470000</speed>
</trkpt>
<trkpt lat="32.601058960" lon="35.129535675">
  <ele>218.786377</ele>
  <time>2011-10-18T04:44:58Z</time>
  <speed>2.710000</speed>
</trkpt>
<trkpt lat="32.601097107" lon="35.129596710">
  <ele>218.145752</ele>
  <time>2011-10-18T04:45:00Z</time>
  <speed>2.640000</speed>
</trkpt>
<trkpt lat="32.601112366" lon="35.129623413">
  <ele>218.696533</ele>
  <time>2011-10-18T04:45:01Z</time>
  <speed>2.700000</speed>
</trkpt>
<trkpt lat="32.601123810" lon="35.129653931">
  <ele>218.544189</ele>
  <time>2011-10-18T04:45:02Z</time>
  <speed>3.180000</speed>
</trkpt>
<trkpt lat="32.601135254" lon="35.129688263">
  <ele>218.227783</ele>
  <time>2011-10-18T04:45:03Z</time>
  <speed>3.060000</speed>
</trkpt>
<trkpt lat="32.601158142" lon="35.129714966">
  <ele>218.954346</ele>
  <time>2011-10-18T04:45:04Z</time>
  <speed>3.070000</speed>
</trkpt>
<trkpt lat="32.601161957" lon="35.129772186">
  <ele>219.626221</ele>
  <time>2011-10-18T04:45:06Z</time>
  <speed>2.230000</speed>
</trkpt>
<trkpt lat="32.601150513" lon="35.129802704">
  <ele>219.235596</ele>
  <time>2011-10-18T04:45:07Z</time>
  <speed>2.310000</speed>
</trkpt>
<trkpt lat="32.601116180" lon="35.129840851">
  <ele>218.286377</ele>
  <time>2011-10-18T04:45:09Z</time>
  <speed>1.870000</speed>
</trkpt>
<trkpt lat="32.601074219" lon="35.129844666">
  <ele>217.438721</ele>
  <time>2011-10-18T04:45:11Z</time>
  <speed>2.290000</speed>
</trkpt>
<trkpt lat="32.601032257" lon="35.129844666">
  <ele>217.548096</ele>
  <time>2011-10-18T04:45:13Z</time>
  <speed>2.040000</speed>
</trkpt>
<trkpt lat="32.600990295" lon="35.129840851">
  <ele>217.649658</ele>
  <time>2011-10-18T04:45:15Z</time>
  <speed>2.060000</speed>
</trkpt>
<trkpt lat="32.600944519" lon="35.129817963">
  <ele>217.872314</ele>
  <time>2011-10-18T04:45:17Z</time>
  <speed>2.540000</speed>
</trkpt>
<trkpt lat="32.600902557" lon="35.129783630">
  <ele>218.094971</ele>
  <time>2011-10-18T04:45:19Z</time>
  <speed>2.170000</speed>
</trkpt>
<trkpt lat="32.600868225" lon="35.129745483">
  <ele>216.798096</ele>
  <time>2011-10-18T04:45:21Z</time>
  <speed>2.210000</speed>
</trkpt>
<trkpt lat="32.600841522" lon="35.129714966">
  <ele>216.966064</ele>
  <time>2011-10-18T04:45:23Z</time>
  <speed>1.700000</speed>
</trkpt>
<trkpt lat="32.600822449" lon="35.129676819">
  <ele>216.665283</ele>
  <time>2011-10-18T04:45:25Z</time>
  <speed>1.930000</speed>
</trkpt>
<trkpt lat="32.600818634" lon="35.129638672">
  <ele>217.274658</ele>
  <time>2011-10-18T04:45:27Z</time>
  <speed>2.120000</speed>
</trkpt>
<trkpt lat="32.600795746" lon="35.129585266">
  <ele>216.594971</ele>
  <time>2011-10-18T04:45:29Z</time>
  <speed>2.180000</speed>
</trkpt>
<trkpt lat="32.600776672" lon="35.129535675">
  <ele>216.583252</ele>
  <time>2011-10-18T04:45:31Z</time>
  <speed>2.330000</speed>
</trkpt>
<trkpt lat="32.600753784" lon="35.129478455">
  <ele>216.665283</ele>
  <time>2011-10-18T04:45:33Z</time>
  <speed>2.770000</speed>
</trkpt>
<trkpt lat="32.600730896" lon="35.129428864">
  <ele>216.891846</ele>
  <time>2011-10-18T04:45:35Z</time>
  <speed>1.980000</speed>
</trkpt>
<trkpt lat="32.600719452" lon="35.129386902">
  <ele>217.001221</ele>
  <time>2011-10-18T04:45:37Z</time>
  <speed>1.830000</speed>
</trkpt>
<trkpt lat="32.600711823" lon="35.129356384">
  <ele>217.114502</ele>
  <time>2011-10-18T04:45:38Z</time>
  <speed>2.240000</speed>
</trkpt>
<trkpt lat="32.600704193" lon="35.129318237">
  <ele>216.555908</ele>
  <time>2011-10-18T04:45:39Z</time>
  <speed>2.370000</speed>
</trkpt>
<trkpt lat="32.600692749" lon="35.129283905">
  <ele>216.376221</ele>
  <time>2011-10-18T04:45:40Z</time>
  <speed>2.440000</speed>
</trkpt>
<trkpt lat="32.600677490" lon="35.129245758">
  <ele>215.782471</ele>
  <time>2011-10-18T04:45:41Z</time>
  <speed>2.610000</speed>
</trkpt>
<trkpt lat="32.600658417" lon="35.129215240">
  <ele>215.563721</ele>
  <time>2011-10-18T04:45:42Z</time>
  <speed>2.580000</speed>
</trkpt>
<trkpt lat="32.600646973" lon="35.129184723">
  <ele>215.216064</ele>
  <time>2011-10-18T04:45:43Z</time>
  <speed>2.440000</speed>
</trkpt>
<trkpt lat="32.600639343" lon="35.129154205">
  <ele>215.192627</ele>
  <time>2011-10-18T04:45:44Z</time>
  <speed>2.340000</speed>
</trkpt>
<trkpt lat="32.600624084" lon="35.129123688">
  <ele>215.192627</ele>
  <time>2011-10-18T04:45:45Z</time>
  <speed>2.410000</speed>
</trkpt>
<trkpt lat="32.600616455" lon="35.129089355">
  <ele>214.766846</ele>
  <time>2011-10-18T04:45:46Z</time>
  <speed>2.550000</speed>
</trkpt>
<trkpt lat="32.600601196" lon="35.129058838">
  <ele>214.219971</ele>
  <time>2011-10-18T04:45:47Z</time>
  <speed>2.560000</speed>
</trkpt>
<trkpt lat="32.600582123" lon="35.129001617">
  <ele>213.583252</ele>
  <time>2011-10-18T04:45:49Z</time>
  <speed>2.380000</speed>
</trkpt>
<trkpt lat="32.600578308" lon="35.128967285">
  <ele>213.188721</ele>
  <time>2011-10-18T04:45:50Z</time>
  <speed>2.120000</speed>
</trkpt>
<trkpt lat="32.600578308" lon="35.128910065">
  <ele>213.067627</ele>
  <time>2011-10-18T04:45:52Z</time>
  <speed>2.530000</speed>
</trkpt>
<trkpt lat="32.600570679" lon="35.128875732">
  <ele>212.934814</ele>
  <time>2011-10-18T04:45:53Z</time>
  <speed>2.350000</speed>
</trkpt>
<trkpt lat="32.600566864" lon="35.128818512">
  <ele>212.719971</ele>
  <time>2011-10-18T04:45:55Z</time>
  <speed>2.570000</speed>
</trkpt>
<trkpt lat="32.600555420" lon="35.128753662">
  <ele>212.751221</ele>
  <time>2011-10-18T04:45:57Z</time>
  <speed>2.760000</speed>
</trkpt>
<trkpt lat="32.600555420" lon="35.128711700">
  <ele>213.442627</ele>
  <time>2011-10-18T04:45:58Z</time>
  <speed>2.460000</speed>
</trkpt>
<trkpt lat="32.600551605" lon="35.128654480">
  <ele>213.489502</ele>
  <time>2011-10-18T04:46:00Z</time>
  <speed>2.550000</speed>
</trkpt>
<trkpt lat="32.600555420" lon="35.128608704">
  <ele>214.755127</ele>
  <time>2011-10-18T04:46:01Z</time>
  <speed>2.660000</speed>
</trkpt>
<trkpt lat="32.600559235" lon="35.128555298">
  <ele>215.239502</ele>
  <time>2011-10-18T04:46:03Z</time>
  <speed>2.290000</speed>
</trkpt>
<trkpt lat="32.600566864" lon="35.128498077">
  <ele>214.973877</ele>
  <time>2011-10-18T04:46:05Z</time>
  <speed>2.770000</speed>
</trkpt>
<trkpt lat="32.600570679" lon="35.128463745">
  <ele>215.165283</ele>
  <time>2011-10-18T04:46:06Z</time>
  <speed>2.720000</speed>
</trkpt>
<trkpt lat="32.600582123" lon="35.128406525">
  <ele>215.509033</ele>
  <time>2011-10-18T04:46:08Z</time>
  <speed>2.620000</speed>
</trkpt>
<trkpt lat="32.600585938" lon="35.128372192">
  <ele>215.997314</ele>
  <time>2011-10-18T04:46:09Z</time>
  <speed>2.530000</speed>
</trkpt>
<trkpt lat="32.600605011" lon="35.128326416">
  <ele>215.848877</ele>
  <time>2011-10-18T04:46:11Z</time>
  <speed>2.240000</speed>
</trkpt>
<trkpt lat="32.600620270" lon="35.128276825">
  <ele>216.755127</ele>
  <time>2011-10-18T04:46:13Z</time>
  <speed>2.260000</speed>
</trkpt>
<trkpt lat="32.600631714" lon="35.128223419">
  <ele>217.102783</ele>
  <time>2011-10-18T04:46:15Z</time>
  <speed>2.240000</speed>
</trkpt>
<trkpt lat="32.600654602" lon="35.128177643">
  <ele>217.762939</ele>
  <time>2011-10-18T04:46:17Z</time>
  <speed>2.170000</speed>
</trkpt>
<trkpt lat="32.600662231" lon="35.128112793">
  <ele>218.321533</ele>
  <time>2011-10-18T04:46:19Z</time>
  <speed>2.440000</speed>
</trkpt>
<trkpt lat="32.600669861" lon="35.128082275">
  <ele>218.653564</ele>
  <time>2011-10-18T04:46:20Z</time>
  <speed>2.260000</speed>
</trkpt>
<trkpt lat="32.600681305" lon="35.128051758">
  <ele>219.098877</ele>
  <time>2011-10-18T04:46:21Z</time>
  <speed>2.480000</speed>
</trkpt>
<trkpt lat="32.600704193" lon="35.127998352">
  <ele>220.653564</ele>
  <time>2011-10-18T04:46:23Z</time>
  <speed>2.510000</speed>
</trkpt>
<trkpt lat="32.600723267" lon="35.127929688">
  <ele>221.641846</ele>
  <time>2011-10-18T04:46:25Z</time>
  <speed>3.090000</speed>
</trkpt>
<trkpt lat="32.600730896" lon="35.127895355">
  <ele>221.821533</ele>
  <time>2011-10-18T04:46:26Z</time>
  <speed>3.000000</speed>
</trkpt>
<trkpt lat="32.600746155" lon="35.127834320">
  <ele>222.833252</ele>
  <time>2011-10-18T04:46:28Z</time>
  <speed>2.790000</speed>
</trkpt>
<trkpt lat="32.600749969" lon="35.127803802">
  <ele>223.645752</ele>
  <time>2011-10-18T04:46:29Z</time>
  <speed>2.600000</speed>
</trkpt>
<trkpt lat="32.600765228" lon="35.127754211">
  <ele>224.384033</ele>
  <time>2011-10-18T04:46:31Z</time>
  <speed>2.370000</speed>
</trkpt>
<trkpt lat="32.600769043" lon="35.127708435">
  <ele>224.852783</ele>
  <time>2011-10-18T04:46:33Z</time>
  <speed>2.080000</speed>
</trkpt>
<trkpt lat="32.600761414" lon="35.127674103">
  <ele>225.266846</ele>
  <time>2011-10-18T04:46:34Z</time>
  <speed>2.340000</speed>
</trkpt>
<trkpt lat="32.600749969" lon="35.127620697">
  <ele>225.251221</ele>
  <time>2011-10-18T04:46:36Z</time>
  <speed>2.280000</speed>
</trkpt>
<trkpt lat="32.600727081" lon="35.127578735">
  <ele>225.993408</ele>
  <time>2011-10-18T04:46:38Z</time>
  <speed>2.370000</speed>
</trkpt>
<trkpt lat="32.600704193" lon="35.127540588">
  <ele>226.626221</ele>
  <time>2011-10-18T04:46:40Z</time>
  <speed>1.810000</speed>
</trkpt>
<trkpt lat="32.600669861" lon="35.127506256">
  <ele>227.341064</ele>
  <time>2011-10-18T04:46:42Z</time>
  <speed>2.540000</speed>
</trkpt>
<trkpt lat="32.600639343" lon="35.127471924">
  <ele>228.102783</ele>
  <time>2011-10-18T04:46:44Z</time>
  <speed>1.750000</speed>
</trkpt>
<trkpt lat="32.600612640" lon="35.127441406">
  <ele>229.134033</ele>
  <time>2011-10-18T04:46:46Z</time>
  <speed>1.760000</speed>
</trkpt>
<trkpt lat="32.600589752" lon="35.127410889">
  <ele>230.028564</ele>
  <time>2011-10-18T04:46:48Z</time>
  <speed>1.730000</speed>
</trkpt>
<trkpt lat="32.600563049" lon="35.127388000">
  <ele>230.755127</ele>
  <time>2011-10-18T04:46:50Z</time>
  <speed>1.630000</speed>
</trkpt>
<trkpt lat="32.600528717" lon="35.127365112">
  <ele>231.173096</ele>
  <time>2011-10-18T04:46:52Z</time>
  <speed>1.610000</speed>
</trkpt>
<trkpt lat="32.600486755" lon="35.127330780">
  <ele>232.407471</ele>
  <time>2011-10-18T04:46:54Z</time>
  <speed>1.640000</speed>
</trkpt>
<trkpt lat="32.600444794" lon="35.127319336">
  <ele>232.946533</ele>
  <time>2011-10-18T04:46:56Z</time>
  <speed>2.210000</speed>
</trkpt>
<trkpt lat="32.600410461" lon="35.127326965">
  <ele>234.122314</ele>
  <time>2011-10-18T04:46:58Z</time>
  <speed>2.180000</speed>
</trkpt>
<trkpt lat="32.600376129" lon="35.127342224">
  <ele>234.341064</ele>
  <time>2011-10-18T04:47:00Z</time>
  <speed>1.960000</speed>
</trkpt>
<trkpt lat="32.600353241" lon="35.127368927">
  <ele>234.544189</ele>
  <time>2011-10-18T04:47:02Z</time>
  <speed>1.650000</speed>
</trkpt>
<trkpt lat="32.600334167" lon="35.127395630">
  <ele>234.989502</ele>
  <time>2011-10-18T04:47:04Z</time>
  <speed>1.600000</speed>
</trkpt>
<trkpt lat="32.600307465" lon="35.127429962">
  <ele>235.083252</ele>
  <time>2011-10-18T04:47:06Z</time>
  <speed>1.530000</speed>
</trkpt>
<trkpt lat="32.600284576" lon="35.127468109">
  <ele>235.298096</ele>
  <time>2011-10-18T04:47:08Z</time>
  <speed>1.640000</speed>
</trkpt>
<trkpt lat="32.600265503" lon="35.127490997">
  <ele>235.766846</ele>
  <time>2011-10-18T04:47:10Z</time>
  <speed>1.840000</speed>
</trkpt>
<trkpt lat="32.600250244" lon="35.127532959">
  <ele>236.587158</ele>
  <time>2011-10-18T04:47:12Z</time>
  <speed>1.660000</speed>
</trkpt>
<trkpt lat="32.600227356" lon="35.127559662">
  <ele>236.903564</ele>
  <time>2011-10-18T04:47:14Z</time>
  <speed>1.680000</speed>
</trkpt>
<trkpt lat="32.600204468" lon="35.127586365">
  <ele>237.184814</ele>
  <time>2011-10-18T04:47:16Z</time>
  <speed>1.500000</speed>
</trkpt>
<trkpt lat="32.600185394" lon="35.127620697">
  <ele>237.501221</ele>
  <time>2011-10-18T04:47:18Z</time>
  <speed>1.400000</speed>
</trkpt>
<trkpt lat="32.600158691" lon="35.127643585">
  <ele>237.469971</ele>
  <time>2011-10-18T04:47:20Z</time>
  <speed>1.460000</speed>
</trkpt>
<trkpt lat="32.600139618" lon="35.127674103">
  <ele>237.427002</ele>
  <time>2011-10-18T04:47:22Z</time>
  <speed>1.580000</speed>
</trkpt>
<trkpt lat="32.600120544" lon="35.127719879">
  <ele>237.348877</ele>
  <time>2011-10-18T04:47:24Z</time>
  <speed>1.750000</speed>
</trkpt>
<trkpt lat="32.600093842" lon="35.127750397">
  <ele>237.329346</ele>
  <time>2011-10-18T04:47:26Z</time>
  <speed>1.720000</speed>
</trkpt>
<trkpt lat="32.600074768" lon="35.127784729">
  <ele>237.462158</ele>
  <time>2011-10-18T04:47:28Z</time>
  <speed>1.580000</speed>
</trkpt>
<trkpt lat="32.600044250" lon="35.127811432">
  <ele>237.653564</ele>
  <time>2011-10-18T04:47:30Z</time>
  <speed>1.610000</speed>
</trkpt>
<trkpt lat="32.600013733" lon="35.127838135">
  <ele>238.294189</ele>
  <time>2011-10-18T04:47:32Z</time>
  <speed>1.800000</speed>
</trkpt>
<trkpt lat="32.599994659" lon="35.127876282">
  <ele>238.169189</ele>
  <time>2011-10-18T04:47:34Z</time>
  <speed>1.820000</speed>
</trkpt>
<trkpt lat="32.599975586" lon="35.127910614">
  <ele>238.235596</ele>
  <time>2011-10-18T04:47:36Z</time>
  <speed>1.470000</speed>
</trkpt>
<trkpt lat="32.599952698" lon="35.127941132">
  <ele>238.391846</ele>
  <time>2011-10-18T04:47:38Z</time>
  <speed>1.680000</speed>
</trkpt>
<trkpt lat="32.599922180" lon="35.127960205">
  <ele>238.524658</ele>
  <time>2011-10-18T04:47:40Z</time>
  <speed>1.580000</speed>
</trkpt>
<trkpt lat="32.599899292" lon="35.127994537">
  <ele>238.552002</ele>
  <time>2011-10-18T04:47:42Z</time>
  <speed>1.240000</speed>
</trkpt>
<trkpt lat="32.599872589" lon="35.128017426">
  <ele>238.598877</ele>
  <time>2011-10-18T04:47:44Z</time>
  <speed>1.410000</speed>
</trkpt>
<trkpt lat="32.599845886" lon="35.128040314">
  <ele>238.665283</ele>
  <time>2011-10-18T04:47:46Z</time>
  <speed>1.480000</speed>
</trkpt>
<trkpt lat="32.599822998" lon="35.128082275">
  <ele>239.712158</ele>
  <time>2011-10-18T04:47:48Z</time>
  <speed>1.620000</speed>
</trkpt>
<trkpt lat="32.599803925" lon="35.128116608">
  <ele>240.251221</ele>
  <time>2011-10-18T04:47:50Z</time>
  <speed>1.360000</speed>
</trkpt>
<trkpt lat="32.599777222" lon="35.128135681">
  <ele>240.669189</ele>
  <time>2011-10-18T04:47:52Z</time>
  <speed>1.690000</speed>
</trkpt>
<trkpt lat="32.599754333" lon="35.128154755">
  <ele>240.887939</ele>
  <time>2011-10-18T04:47:54Z</time>
  <speed>1.200000</speed>
</trkpt>
<trkpt lat="32.599731445" lon="35.128185272">
  <ele>241.751221</ele>
  <time>2011-10-18T04:47:56Z</time>
  <speed>1.660000</speed>
</trkpt>
<trkpt lat="32.599712372" lon="35.128211975">
  <ele>242.669189</ele>
  <time>2011-10-18T04:47:58Z</time>
  <speed>1.220000</speed>
</trkpt>
<trkpt lat="32.599681854" lon="35.128223419">
  <ele>244.005127</ele>
  <time>2011-10-18T04:48:00Z</time>
  <speed>1.450000</speed>
</trkpt>
<trkpt lat="32.599655151" lon="35.128231049">
  <ele>244.969971</ele>
  <time>2011-10-18T04:48:02Z</time>
  <speed>0.960000</speed>
</trkpt>
<trkpt lat="32.599617004" lon="35.128234863">
  <ele>245.766846</ele>
  <time>2011-10-18T04:48:04Z</time>
  <speed>1.150000</speed>
</trkpt>
<trkpt lat="32.599586487" lon="35.128231049">
  <ele>247.290283</ele>
  <time>2011-10-18T04:48:06Z</time>
  <speed>1.310000</speed>
</trkpt>
<trkpt lat="32.599555969" lon="35.128227234">
  <ele>247.723877</ele>
  <time>2011-10-18T04:48:08Z</time>
  <speed>1.630000</speed>
</trkpt>
<trkpt lat="32.599525452" lon="35.128215790">
  <ele>247.653564</ele>
  <time>2011-10-18T04:48:10Z</time>
  <speed>1.610000</speed>
</trkpt>
<trkpt lat="32.599498749" lon="35.128208160">
  <ele>248.512939</ele>
  <time>2011-10-18T04:48:12Z</time>
  <speed>1.580000</speed>
</trkpt>
<trkpt lat="32.599472046" lon="35.128189087">
  <ele>248.145752</ele>
  <time>2011-10-18T04:48:14Z</time>
  <speed>1.540000</speed>
</trkpt>
<trkpt lat="32.599441528" lon="35.128170013">
  <ele>248.173096</ele>
  <time>2011-10-18T04:48:17Z</time>
  <speed>1.460000</speed>
</trkpt>
<trkpt lat="32.599414825" lon="35.128158569">
  <ele>248.040283</ele>
  <time>2011-10-18T04:48:20Z</time>
  <speed>1.320000</speed>
</trkpt>
<trkpt lat="32.599380493" lon="35.128139496">
  <ele>247.942627</ele>
  <time>2011-10-18T04:48:23Z</time>
  <speed>1.230000</speed>
</trkpt>
<trkpt lat="32.599342346" lon="35.128131866">
  <ele>248.208252</ele>
  <time>2011-10-18T04:48:26Z</time>
  <speed>0.820000</speed>
</trkpt>
<trkpt lat="32.599327087" lon="35.128170013">
  <ele>248.532471</ele>
  <time>2011-10-18T04:48:30Z</time>
  <speed>1.240000</speed>
</trkpt>
<trkpt lat="32.599296570" lon="35.128173828">
  <ele>249.063721</ele>
  <time>2011-10-18T04:48:36Z</time>
  <speed>0.220000</speed>
</trkpt>
<trkpt lat="32.599327087" lon="35.128192902">
  <ele>249.712158</ele>
  <time>2011-10-18T04:49:12Z</time>
  <speed>0.450000</speed>
</trkpt>
<trkpt lat="32.599353790" lon="35.128189087">
  <ele>250.927002</ele>
  <time>2011-10-18T04:49:16Z</time>
  <speed>0.110000</speed>
</trkpt>
<trkpt lat="32.599372864" lon="35.128162384">
  <ele>251.055908</ele>
  <time>2011-10-18T04:49:33Z</time>
  <speed>0.170000</speed>
</trkpt>
<trkpt lat="32.599388123" lon="35.128135681">
  <ele>251.188721</ele>
  <time>2011-10-18T04:49:48Z</time>
  <speed>0.190000</speed>
</trkpt>
<trkpt lat="32.599391937" lon="35.128105164">
  <ele>251.446533</ele>
  <time>2011-10-18T04:50:02Z</time>
  <speed>0.100000</speed>
</trkpt>
<trkpt lat="32.599391937" lon="35.128082275">
  <ele>253.684814</ele>
  <time>2011-10-18T04:50:47Z</time>
  <speed>0.140000</speed>
</trkpt>
<trkpt lat="32.599388123" lon="35.128070831">
  <ele>256.627441</ele>
  <time>2011-10-18T04:51:00Z</time>
  <speed>0.050000</speed>
</trkpt>
<trkpt lat="32.599395752" lon="35.128063202">
  <ele>259.549316</ele>
  <time>2011-10-18T04:51:15Z</time>
  <speed>0.090000</speed>
</trkpt>
<trkpt lat="32.599403381" lon="35.128055573">
  <ele>262.385254</ele>
  <time>2011-10-18T04:51:27Z</time>
  <speed>0.090000</speed>
</trkpt>
<trkpt lat="32.599407196" lon="35.128067017">
  <ele>265.307129</ele>
  <time>2011-10-18T04:51:46Z</time>
  <speed>0.070000</speed>
</trkpt>
<trkpt lat="32.599414825" lon="35.128063202">
  <ele>268.236816</ele>
  <time>2011-10-18T04:52:00Z</time>
  <speed>0.110000</speed>
</trkpt>
<trkpt lat="32.599426270" lon="35.128051758">
  <ele>271.010254</ele>
  <time>2011-10-18T04:52:10Z</time>
  <speed>0.200000</speed>
</trkpt>
<trkpt lat="32.599433899" lon="35.128032684">
  <ele>273.479004</ele>
  <time>2011-10-18T04:52:22Z</time>
  <speed>0.050000</speed>
</trkpt>
<trkpt lat="32.599437714" lon="35.128059387">
  <ele>275.205566</ele>
  <time>2011-10-18T04:52:37Z</time>
  <speed>0.170000</speed>
</trkpt>
<trkpt lat="32.599437714" lon="35.128086090">
  <ele>276.885254</ele>
  <time>2011-10-18T04:52:53Z</time>
  <speed>0.080000</speed>
</trkpt>
<trkpt lat="32.599422455" lon="35.128124237">
  <ele>275.877441</ele>
  <time>2011-10-18T04:53:46Z</time>
  <speed>0.390000</speed>
</trkpt>
<trkpt lat="32.599414825" lon="35.128150940">
  <ele>273.979004</ele>
  <time>2011-10-18T04:53:50Z</time>
  <speed>0.460000</speed>
</trkpt>
<trkpt lat="32.599391937" lon="35.128170013">
  <ele>273.104004</ele>
  <time>2011-10-18T04:53:52Z</time>
  <speed>0.920000</speed>
</trkpt>
<trkpt lat="32.599365234" lon="35.128200531">
  <ele>271.869629</ele>
  <time>2011-10-18T04:53:54Z</time>
  <speed>1.910000</speed>
</trkpt>
<trkpt lat="32.599323273" lon="35.128215790">
  <ele>271.322754</ele>
  <time>2011-10-18T04:53:56Z</time>
  <speed>1.760000</speed>
</trkpt>
<trkpt lat="32.599273682" lon="35.128250122">
  <ele>270.314941</ele>
  <time>2011-10-18T04:53:58Z</time>
  <speed>2.430000</speed>
</trkpt>
<trkpt lat="32.599243164" lon="35.128253937">
  <ele>270.049316</ele>
  <time>2011-10-18T04:53:59Z</time>
  <speed>1.730000</speed>
</trkpt>
<trkpt lat="32.599227905" lon="35.128292084">
  <ele>270.174316</ele>
  <time>2011-10-18T04:54:01Z</time>
  <speed>1.330000</speed>
</trkpt>
<trkpt lat="32.599216461" lon="35.128334045">
  <ele>270.057129</ele>
  <time>2011-10-18T04:54:03Z</time>
  <speed>1.500000</speed>
</trkpt>
<trkpt lat="32.599178314" lon="35.128372192">
  <ele>268.791504</ele>
  <time>2011-10-18T04:54:05Z</time>
  <speed>1.620000</speed>
</trkpt>
<trkpt lat="32.599147797" lon="35.128395081">
  <ele>267.799316</ele>
  <time>2011-10-18T04:54:07Z</time>
  <speed>1.140000</speed>
</trkpt>
<trkpt lat="32.599128723" lon="35.128425598">
  <ele>267.104004</ele>
  <time>2011-10-18T04:54:09Z</time>
  <speed>1.220000</speed>
</trkpt>
<trkpt lat="32.599113464" lon="35.128467560">
  <ele>266.479004</ele>
  <time>2011-10-18T04:54:11Z</time>
  <speed>1.670000</speed>
</trkpt>
<trkpt lat="32.599090576" lon="35.128520966">
  <ele>267.361816</ele>
  <time>2011-10-18T04:54:12Z</time>
  <speed>2.190000</speed>
</trkpt>
<trkpt lat="32.599090576" lon="35.128562927">
  <ele>268.018066</ele>
  <time>2011-10-18T04:54:14Z</time>
  <speed>1.200000</speed>
</trkpt>
<trkpt lat="32.599094391" lon="35.128597260">
  <ele>268.244629</ele>
  <time>2011-10-18T04:54:16Z</time>
  <speed>1.220000</speed>
</trkpt>
<trkpt lat="32.599079132" lon="35.128635406">
  <ele>268.736816</ele>
  <time>2011-10-18T04:54:17Z</time>
  <speed>1.840000</speed>
</trkpt>
<trkpt lat="32.599094391" lon="35.128681183">
  <ele>268.533691</ele>
  <time>2011-10-18T04:54:19Z</time>
  <speed>1.200000</speed>
</trkpt>
<trkpt lat="32.599082947" lon="35.128719330">
  <ele>268.314941</ele>
  <time>2011-10-18T04:54:21Z</time>
  <speed>1.410000</speed>
</trkpt>
<trkpt lat="32.599060059" lon="35.128753662">
  <ele>267.830566</ele>
  <time>2011-10-18T04:54:24Z</time>
  <speed>1.220000</speed>
</trkpt>
<trkpt lat="32.599025726" lon="35.128780365">
  <ele>268.221191</ele>
  <time>2011-10-18T04:54:26Z</time>
  <speed>1.370000</speed>
</trkpt>
<trkpt lat="32.598991394" lon="35.128787994">
  <ele>267.455566</ele>
  <time>2011-10-18T04:54:28Z</time>
  <speed>1.680000</speed>
</trkpt>
<trkpt lat="32.598957062" lon="35.128810883">
  <ele>266.432129</ele>
  <time>2011-10-18T04:54:30Z</time>
  <speed>1.100000</speed>
</trkpt>
<trkpt lat="32.598918915" lon="35.128807068">
  <ele>266.525879</ele>
  <time>2011-10-18T04:54:32Z</time>
  <speed>2.080000</speed>
</trkpt>
<trkpt lat="32.598884583" lon="35.128803253">
  <ele>265.854004</ele>
  <time>2011-10-18T04:54:34Z</time>
  <speed>1.710000</speed>
</trkpt>
<trkpt lat="32.598854065" lon="35.128795624">
  <ele>264.588379</ele>
  <time>2011-10-18T04:54:36Z</time>
  <speed>1.240000</speed>
</trkpt>
<trkpt lat="32.598819733" lon="35.128795624">
  <ele>263.510254</ele>
  <time>2011-10-18T04:54:38Z</time>
  <speed>1.770000</speed>
</trkpt>
<trkpt lat="32.598789215" lon="35.128795624">
  <ele>263.072754</ele>
  <time>2011-10-18T04:54:42Z</time>
  <speed>0.750000</speed>
</trkpt>
<trkpt lat="32.598777771" lon="35.128841400">
  <ele>263.314941</ele>
  <time>2011-10-18T04:54:45Z</time>
  <speed>1.080000</speed>
</trkpt>
<trkpt lat="32.598758698" lon="35.128883362">
  <ele>264.666504</ele>
  <time>2011-10-18T04:54:47Z</time>
  <speed>1.470000</speed>
</trkpt>
<trkpt lat="32.598743439" lon="35.128917694">
  <ele>264.768066</ele>
  <time>2011-10-18T04:54:48Z</time>
  <speed>1.570000</speed>
</trkpt>
<trkpt lat="32.598739624" lon="35.128955841">
  <ele>265.275879</ele>
  <time>2011-10-18T04:54:50Z</time>
  <speed>1.320000</speed>
</trkpt>
<trkpt lat="32.598743439" lon="35.128993988">
  <ele>265.072754</ele>
  <time>2011-10-18T04:54:52Z</time>
  <speed>1.410000</speed>
</trkpt>
<trkpt lat="32.598735809" lon="35.129039764">
  <ele>264.893066</ele>
  <time>2011-10-18T04:54:54Z</time>
  <speed>2.200000</speed>
</trkpt>
<trkpt lat="32.598728180" lon="35.129077911">
  <ele>264.143066</ele>
  <time>2011-10-18T04:54:56Z</time>
  <speed>1.320000</speed>
</trkpt>
<trkpt lat="32.598716736" lon="35.129119873">
  <ele>264.072754</ele>
  <time>2011-10-18T04:54:58Z</time>
  <speed>1.650000</speed>
</trkpt>
<trkpt lat="32.598701477" lon="35.129161835">
  <ele>264.291504</ele>
  <time>2011-10-18T04:55:00Z</time>
  <speed>1.670000</speed>
</trkpt>
<trkpt lat="32.598682404" lon="35.129211426">
  <ele>264.143066</ele>
  <time>2011-10-18T04:55:03Z</time>
  <speed>1.240000</speed>
</trkpt>
<trkpt lat="32.598682404" lon="35.129253387">
  <ele>263.791504</ele>
  <time>2011-10-18T04:55:05Z</time>
  <speed>1.800000</speed>
</trkpt>
<trkpt lat="32.598682404" lon="35.129287720">
  <ele>263.799316</ele>
  <time>2011-10-18T04:55:07Z</time>
  <speed>2.060000</speed>
</trkpt>
<trkpt lat="32.598674774" lon="35.129325867">
  <ele>263.689941</ele>
  <time>2011-10-18T04:55:09Z</time>
  <speed>2.140000</speed>
</trkpt>
<trkpt lat="32.598670959" lon="35.129383087">
  <ele>261.924316</ele>
  <time>2011-10-18T04:55:11Z</time>
  <speed>2.430000</speed>
</trkpt>
<trkpt lat="32.598663330" lon="35.129440308">
  <ele>261.564941</ele>
  <time>2011-10-18T04:55:13Z</time>
  <speed>2.370000</speed>
</trkpt>
<trkpt lat="32.598648071" lon="35.129474640">
  <ele>261.104004</ele>
  <time>2011-10-18T04:55:14Z</time>
  <speed>2.550000</speed>
</trkpt>
<trkpt lat="32.598644257" lon="35.129520416">
  <ele>260.385254</ele>
  <time>2011-10-18T04:55:15Z</time>
  <speed>2.800000</speed>
</trkpt>
<trkpt lat="32.598644257" lon="35.129562378">
  <ele>259.283691</ele>
  <time>2011-10-18T04:55:16Z</time>
  <speed>3.240000</speed>
</trkpt>
<trkpt lat="32.598644257" lon="35.129615784">
  <ele>259.096191</ele>
  <time>2011-10-18T04:55:17Z</time>
  <speed>3.720000</speed>
</trkpt>
<trkpt lat="32.598613739" lon="35.129650116">
  <ele>258.955566</ele>
  <time>2011-10-18T04:55:18Z</time>
  <speed>2.990000</speed>
</trkpt>
<trkpt lat="32.598583221" lon="35.129661560">
  <ele>258.643066</ele>
  <time>2011-10-18T04:55:19Z</time>
  <speed>3.070000</speed>
</trkpt>
<trkpt lat="32.598548889" lon="35.129676819">
  <ele>258.447754</ele>
  <time>2011-10-18T04:55:20Z</time>
  <speed>2.750000</speed>
</trkpt>
<trkpt lat="32.598522186" lon="35.129676819">
  <ele>258.025879</ele>
  <time>2011-10-18T04:55:21Z</time>
  <speed>2.810000</speed>
</trkpt>
<trkpt lat="32.598472595" lon="35.129684448">
  <ele>257.205566</ele>
  <time>2011-10-18T04:55:23Z</time>
  <speed>2.400000</speed>
</trkpt>
<trkpt lat="32.598442078" lon="35.129684448">
  <ele>256.658691</ele>
  <time>2011-10-18T04:55:24Z</time>
  <speed>2.460000</speed>
</trkpt>
<trkpt lat="32.598411560" lon="35.129699707">
  <ele>256.189941</ele>
  <time>2011-10-18T04:55:25Z</time>
  <speed>2.500000</speed>
</trkpt>
<trkpt lat="32.598373413" lon="35.129714966">
  <ele>255.348877</ele>
  <time>2011-10-18T04:55:26Z</time>
  <speed>2.640000</speed>
</trkpt>
<trkpt lat="32.598346710" lon="35.129730225">
  <ele>255.005127</ele>
  <time>2011-10-18T04:55:27Z</time>
  <speed>2.320000</speed>
</trkpt>
<trkpt lat="32.598312378" lon="35.129756927">
  <ele>255.036377</ele>
  <time>2011-10-18T04:55:28Z</time>
  <speed>2.430000</speed>
</trkpt>
<trkpt lat="32.598285675" lon="35.129772186">
  <ele>254.731689</ele>
  <time>2011-10-18T04:55:29Z</time>
  <speed>2.370000</speed>
</trkpt>
<trkpt lat="32.598236084" lon="35.129802704">
  <ele>254.196533</ele>
  <time>2011-10-18T04:55:30Z</time>
  <speed>2.340000</speed>
</trkpt>
<trkpt lat="32.598186493" lon="35.129798889">
  <ele>254.294189</ele>
  <time>2011-10-18T04:55:32Z</time>
  <speed>1.880000</speed>
</trkpt>
<trkpt lat="32.598140717" lon="35.129795074">
  <ele>253.969971</ele>
  <time>2011-10-18T04:55:34Z</time>
  <speed>1.730000</speed>
</trkpt>
<trkpt lat="32.598102570" lon="35.129802704">
  <ele>253.837158</ele>
  <time>2011-10-18T04:55:36Z</time>
  <speed>1.820000</speed>
</trkpt>
<trkpt lat="32.598068237" lon="35.129798889">
  <ele>254.442627</ele>
  <time>2011-10-18T04:55:38Z</time>
  <speed>1.550000</speed>
</trkpt>
<trkpt lat="32.598033905" lon="35.129802704">
  <ele>255.305908</ele>
  <time>2011-10-18T04:55:40Z</time>
  <speed>1.620000</speed>
</trkpt>
<trkpt lat="32.598011017" lon="35.129776001">
  <ele>254.989502</ele>
  <time>2011-10-18T04:55:42Z</time>
  <speed>1.980000</speed>
</trkpt>
<trkpt lat="32.597995758" lon="35.129745483">
  <ele>254.997314</ele>
  <time>2011-10-18T04:55:44Z</time>
  <speed>1.180000</speed>
</trkpt>
<trkpt lat="32.598026276" lon="35.129776001">
  <ele>254.848877</ele>
  <time>2011-10-18T04:55:48Z</time>
  <speed>1.950000</speed>
</trkpt>
<trkpt lat="32.597999573" lon="35.129837036">
  <ele>254.192627</ele>
  <time>2011-10-18T04:55:50Z</time>
  <speed>3.540000</speed>
</trkpt>
<trkpt lat="32.597984314" lon="35.129871368">
  <ele>254.016846</ele>
  <time>2011-10-18T04:55:51Z</time>
  <speed>3.050000</speed>
</trkpt>
<trkpt lat="32.597976685" lon="35.129909515">
  <ele>254.079346</ele>
  <time>2011-10-18T04:55:52Z</time>
  <speed>3.250000</speed>
</trkpt>
<trkpt lat="32.597969055" lon="35.129955292">
  <ele>253.692627</ele>
  <time>2011-10-18T04:55:53Z</time>
  <speed>3.270000</speed>
</trkpt>
<trkpt lat="32.597957611" lon="35.129985809">
  <ele>253.485596</ele>
  <time>2011-10-18T04:55:54Z</time>
  <speed>3.250000</speed>
</trkpt>
<trkpt lat="32.597938538" lon="35.130012512">
  <ele>253.134033</ele>
  <time>2011-10-18T04:55:55Z</time>
  <speed>3.270000</speed>
</trkpt>
<trkpt lat="32.597919464" lon="35.130035400">
  <ele>252.934814</ele>
  <time>2011-10-18T04:55:56Z</time>
  <speed>2.560000</speed>
</trkpt>
<trkpt lat="32.597885132" lon="35.130084991">
  <ele>252.841064</ele>
  <time>2011-10-18T04:55:58Z</time>
  <speed>2.970000</speed>
</trkpt>
<trkpt lat="32.597866058" lon="35.130107880">
  <ele>252.173096</ele>
  <time>2011-10-18T04:55:59Z</time>
  <speed>2.810000</speed>
</trkpt>
<trkpt lat="32.597843170" lon="35.130134583">
  <ele>252.114502</ele>
  <time>2011-10-18T04:56:00Z</time>
  <speed>2.820000</speed>
</trkpt>
<trkpt lat="32.597816467" lon="35.130157471">
  <ele>251.716064</ele>
  <time>2011-10-18T04:56:01Z</time>
  <speed>3.040000</speed>
</trkpt>
<trkpt lat="32.597801208" lon="35.130187988">
  <ele>250.727783</ele>
  <time>2011-10-18T04:56:02Z</time>
  <speed>2.800000</speed>
</trkpt>
<trkpt lat="32.597778320" lon="35.130233765">
  <ele>250.520752</ele>
  <time>2011-10-18T04:56:03Z</time>
  <speed>3.570000</speed>
</trkpt>
<trkpt lat="32.597751617" lon="35.130268097">
  <ele>250.751221</ele>
  <time>2011-10-18T04:56:04Z</time>
  <speed>3.420000</speed>
</trkpt>
<trkpt lat="32.597736359" lon="35.130302429">
  <ele>248.829346</ele>
  <time>2011-10-18T04:56:05Z</time>
  <speed>3.510000</speed>
</trkpt>
<trkpt lat="32.597724915" lon="35.130344391">
  <ele>248.130127</ele>
  <time>2011-10-18T04:56:06Z</time>
  <speed>4.250000</speed>
</trkpt>
<trkpt lat="32.597717285" lon="35.130382538">
  <ele>247.610596</ele>
  <time>2011-10-18T04:56:07Z</time>
  <speed>3.480000</speed>
</trkpt>
<trkpt lat="32.597713470" lon="35.130447388">
  <ele>248.235596</ele>
  <time>2011-10-18T04:56:08Z</time>
  <speed>4.190000</speed>
</trkpt>
<trkpt lat="32.597709656" lon="35.130489349">
  <ele>248.524658</ele>
  <time>2011-10-18T04:56:09Z</time>
  <speed>3.900000</speed>
</trkpt>
<trkpt lat="32.597690582" lon="35.130535126">
  <ele>248.805908</ele>
  <time>2011-10-18T04:56:10Z</time>
  <speed>3.110000</speed>
</trkpt>
<trkpt lat="32.597644806" lon="35.130550385">
  <ele>249.938721</ele>
  <time>2011-10-18T04:56:12Z</time>
  <speed>3.200000</speed>
</trkpt>
<trkpt lat="32.597614288" lon="35.130546570">
  <ele>250.434814</ele>
  <time>2011-10-18T04:56:13Z</time>
  <speed>2.860000</speed>
</trkpt>
<trkpt lat="32.597568512" lon="35.130535126">
  <ele>250.938721</ele>
  <time>2011-10-18T04:56:15Z</time>
  <speed>2.030000</speed>
</trkpt>
<trkpt lat="32.597530365" lon="35.130516052">
  <ele>251.950439</ele>
  <time>2011-10-18T04:56:17Z</time>
  <speed>2.380000</speed>
</trkpt>
<trkpt lat="32.597492218" lon="35.130523682">
  <ele>253.106689</ele>
  <time>2011-10-18T04:56:19Z</time>
  <speed>2.030000</speed>
</trkpt>
<trkpt lat="32.597454071" lon="35.130535126">
  <ele>253.114502</ele>
  <time>2011-10-18T04:56:21Z</time>
  <speed>2.270000</speed>
</trkpt>
<trkpt lat="32.597419739" lon="35.130546570">
  <ele>254.071533</ele>
  <time>2011-10-18T04:56:23Z</time>
  <speed>1.450000</speed>
</trkpt>
<trkpt lat="32.597385406" lon="35.130554199">
  <ele>254.387939</ele>
  <time>2011-10-18T04:56:25Z</time>
  <speed>1.400000</speed>
</trkpt>
<trkpt lat="32.597354889" lon="35.130561829">
  <ele>255.368408</ele>
  <time>2011-10-18T04:56:27Z</time>
  <speed>1.680000</speed>
</trkpt>
<trkpt lat="32.597332001" lon="35.130577087">
  <ele>256.619629</ele>
  <time>2011-10-18T04:56:28Z</time>
  <speed>1.930000</speed>
</trkpt>
<trkpt lat="32.597293854" lon="35.130588531">
  <ele>256.979004</ele>
  <time>2011-10-18T04:56:30Z</time>
  <speed>1.810000</speed>
</trkpt>
<trkpt lat="32.597263336" lon="35.130596161">
  <ele>257.150879</ele>
  <time>2011-10-18T04:56:32Z</time>
  <speed>1.710000</speed>
</trkpt>
<trkpt lat="32.597225189" lon="35.130615234">
  <ele>258.596191</ele>
  <time>2011-10-18T04:56:34Z</time>
  <speed>1.760000</speed>
</trkpt>
<trkpt lat="32.597198486" lon="35.130603790">
  <ele>258.369629</ele>
  <time>2011-10-18T04:56:36Z</time>
  <speed>1.570000</speed>
</trkpt>
<trkpt lat="32.597156525" lon="35.130599976">
  <ele>259.143066</ele>
  <time>2011-10-18T04:56:38Z</time>
  <speed>1.810000</speed>
</trkpt>
<trkpt lat="32.597129822" lon="35.130592346">
  <ele>259.393066</ele>
  <time>2011-10-18T04:56:40Z</time>
  <speed>1.520000</speed>
</trkpt>
<trkpt lat="32.597091675" lon="35.130592346">
  <ele>258.994629</ele>
  <time>2011-10-18T04:56:42Z</time>
  <speed>1.640000</speed>
</trkpt>
<trkpt lat="32.597064972" lon="35.130596161">
  <ele>259.205566</ele>
  <time>2011-10-18T04:56:44Z</time>
  <speed>1.350000</speed>
</trkpt>
<trkpt lat="32.597034454" lon="35.130596161">
  <ele>259.541504</ele>
  <time>2011-10-18T04:56:46Z</time>
  <speed>0.890000</speed>
</trkpt>
<trkpt lat="32.596996307" lon="35.130634308">
  <ele>262.557129</ele>
  <time>2011-10-18T04:56:49Z</time>
  <speed>1.250000</speed>
</trkpt>
<trkpt lat="32.596969604" lon="35.130657196">
  <ele>263.018066</ele>
  <time>2011-10-18T04:56:51Z</time>
  <speed>1.650000</speed>
</trkpt>
<trkpt lat="32.596939087" lon="35.130687714">
  <ele>263.893066</ele>
  <time>2011-10-18T04:56:53Z</time>
  <speed>1.770000</speed>
</trkpt>
<trkpt lat="32.596916199" lon="35.130706787">
  <ele>263.713379</ele>
  <time>2011-10-18T04:56:55Z</time>
  <speed>1.480000</speed>
</trkpt>
<trkpt lat="32.596885681" lon="35.130725861">
  <ele>263.932129</ele>
  <time>2011-10-18T04:56:57Z</time>
  <speed>1.540000</speed>
</trkpt>
<trkpt lat="32.596858978" lon="35.130733490">
  <ele>264.260254</ele>
  <time>2011-10-18T04:56:59Z</time>
  <speed>1.560000</speed>
</trkpt>
<trkpt lat="32.596828461" lon="35.130744934">
  <ele>265.049316</ele>
  <time>2011-10-18T04:57:01Z</time>
  <speed>1.630000</speed>
</trkpt>
<trkpt lat="32.596797943" lon="35.130767822">
  <ele>265.557129</ele>
  <time>2011-10-18T04:57:03Z</time>
  <speed>1.640000</speed>
</trkpt>
<trkpt lat="32.596767426" lon="35.130783081">
  <ele>265.486816</ele>
  <time>2011-10-18T04:57:05Z</time>
  <speed>1.660000</speed>
</trkpt>
<trkpt lat="32.596733093" lon="35.130798340">
  <ele>265.322754</ele>
  <time>2011-10-18T04:57:07Z</time>
  <speed>1.490000</speed>
</trkpt>
<trkpt lat="32.596702576" lon="35.130821228">
  <ele>266.064941</ele>
  <time>2011-10-18T04:57:09Z</time>
  <speed>1.900000</speed>
</trkpt>
<trkpt lat="32.596672058" lon="35.130859375">
  <ele>266.814941</ele>
  <time>2011-10-18T04:57:11Z</time>
  <speed>1.760000</speed>
</trkpt>
<trkpt lat="32.596641541" lon="35.130889893">
  <ele>267.049316</ele>
  <time>2011-10-18T04:57:13Z</time>
  <speed>1.920000</speed>
</trkpt>
<trkpt lat="32.596618652" lon="35.130920410">
  <ele>267.643066</ele>
  <time>2011-10-18T04:57:15Z</time>
  <speed>1.870000</speed>
</trkpt>
<trkpt lat="32.596588135" lon="35.130947113">
  <ele>267.572754</ele>
  <time>2011-10-18T04:57:17Z</time>
  <speed>2.150000</speed>
</trkpt>
<trkpt lat="32.596565247" lon="35.130977631">
  <ele>267.893066</ele>
  <time>2011-10-18T04:57:19Z</time>
  <speed>2.100000</speed>
</trkpt>
<trkpt lat="32.596534729" lon="35.131011963">
  <ele>268.002441</ele>
  <time>2011-10-18T04:57:21Z</time>
  <speed>1.990000</speed>
</trkpt>
<trkpt lat="32.596511841" lon="35.131046295">
  <ele>267.525879</ele>
  <time>2011-10-18T04:57:23Z</time>
  <speed>1.980000</speed>
</trkpt>
<trkpt lat="32.596485138" lon="35.131076813">
  <ele>267.658691</ele>
  <time>2011-10-18T04:57:25Z</time>
  <speed>2.170000</speed>
</trkpt>
<trkpt lat="32.596454620" lon="35.131111145">
  <ele>267.854004</ele>
  <time>2011-10-18T04:57:27Z</time>
  <speed>2.220000</speed>
</trkpt>
<trkpt lat="32.596416473" lon="35.131137848">
  <ele>268.104004</ele>
  <time>2011-10-18T04:57:29Z</time>
  <speed>2.220000</speed>
</trkpt>
<trkpt lat="32.596374512" lon="35.131160736">
  <ele>268.143066</ele>
  <time>2011-10-18T04:57:31Z</time>
  <speed>2.210000</speed>
</trkpt>
<trkpt lat="32.596351624" lon="35.131168365">
  <ele>269.486816</ele>
  <time>2011-10-18T04:57:32Z</time>
  <speed>2.260000</speed>
</trkpt>
<trkpt lat="32.596317291" lon="35.131179810">
  <ele>269.369629</ele>
  <time>2011-10-18T04:57:34Z</time>
  <speed>1.840000</speed>
</trkpt>
<trkpt lat="32.596279144" lon="35.131183624">
  <ele>269.275879</ele>
  <time>2011-10-18T04:57:36Z</time>
  <speed>2.280000</speed>
</trkpt>
<trkpt lat="32.596237183" lon="35.131187439">
  <ele>269.182129</ele>
  <time>2011-10-18T04:57:38Z</time>
  <speed>2.430000</speed>
</trkpt>
<trkpt lat="32.596199036" lon="35.131202698">
  <ele>269.432129</ele>
  <time>2011-10-18T04:57:40Z</time>
  <speed>1.740000</speed>
</trkpt>
<trkpt lat="32.596160889" lon="35.131210327">
  <ele>269.682129</ele>
  <time>2011-10-18T04:57:42Z</time>
  <speed>2.220000</speed>
</trkpt>
<trkpt lat="32.596111298" lon="35.131237030">
  <ele>271.236816</ele>
  <time>2011-10-18T04:57:44Z</time>
  <speed>2.490000</speed>
</trkpt>
<trkpt lat="32.596073151" lon="35.131256104">
  <ele>271.236816</ele>
  <time>2011-10-18T04:57:46Z</time>
  <speed>2.260000</speed>
</trkpt>
<trkpt lat="32.596046448" lon="35.131282806">
  <ele>270.799316</ele>
  <time>2011-10-18T04:57:48Z</time>
  <speed>2.090000</speed>
</trkpt>
<trkpt lat="32.596012115" lon="35.131313324">
  <ele>271.119629</ele>
  <time>2011-10-18T04:57:50Z</time>
  <speed>2.150000</speed>
</trkpt>
<trkpt lat="32.595977783" lon="35.131332397">
  <ele>271.572754</ele>
  <time>2011-10-18T04:57:52Z</time>
  <speed>1.760000</speed>
</trkpt>
<trkpt lat="32.595958710" lon="35.131351471">
  <ele>272.627441</ele>
  <time>2011-10-18T04:57:53Z</time>
  <speed>2.170000</speed>
</trkpt>
<trkpt lat="32.595924377" lon="35.131370544">
  <ele>272.463379</ele>
  <time>2011-10-18T04:57:55Z</time>
  <speed>2.180000</speed>
</trkpt>
<trkpt lat="32.595893860" lon="35.131378174">
  <ele>273.260254</ele>
  <time>2011-10-18T04:57:57Z</time>
  <speed>1.760000</speed>
</trkpt>
<trkpt lat="32.595851898" lon="35.131401062">
  <ele>273.549316</ele>
  <time>2011-10-18T04:57:59Z</time>
  <speed>2.130000</speed>
</trkpt>
<trkpt lat="32.595813751" lon="35.131423950">
  <ele>274.189941</ele>
  <time>2011-10-18T04:58:01Z</time>
  <speed>2.000000</speed>
</trkpt>
<trkpt lat="32.595783234" lon="35.131454468">
  <ele>274.932129</ele>
  <time>2011-10-18T04:58:03Z</time>
  <speed>2.250000</speed>
</trkpt>
<trkpt lat="32.595748901" lon="35.131469727">
  <ele>274.713379</ele>
  <time>2011-10-18T04:58:05Z</time>
  <speed>1.960000</speed>
</trkpt>
<trkpt lat="32.595703125" lon="35.131462097">
  <ele>275.088379</ele>
  <time>2011-10-18T04:58:07Z</time>
  <speed>2.170000</speed>
</trkpt>
<trkpt lat="32.595668793" lon="35.131465912">
  <ele>275.768066</ele>
  <time>2011-10-18T04:58:09Z</time>
  <speed>2.110000</speed>
</trkpt>
<trkpt lat="32.595630646" lon="35.131465912">
  <ele>276.010254</ele>
  <time>2011-10-18T04:58:11Z</time>
  <speed>2.160000</speed>
</trkpt>
<trkpt lat="32.595596313" lon="35.131473541">
  <ele>276.104004</ele>
  <time>2011-10-18T04:58:13Z</time>
  <speed>2.000000</speed>
</trkpt>
<trkpt lat="32.595561981" lon="35.131492615">
  <ele>275.900879</ele>
  <time>2011-10-18T04:58:15Z</time>
  <speed>1.750000</speed>
</trkpt>
<trkpt lat="32.595531464" lon="35.131519318">
  <ele>276.424316</ele>
  <time>2011-10-18T04:58:17Z</time>
  <speed>2.360000</speed>
</trkpt>
<trkpt lat="32.595500946" lon="35.131526947">
  <ele>276.807129</ele>
  <time>2011-10-18T04:58:18Z</time>
  <speed>2.140000</speed>
</trkpt>
<trkpt lat="32.595470428" lon="35.131553650">
  <ele>275.971191</ele>
  <time>2011-10-18T04:58:20Z</time>
  <speed>1.730000</speed>
</trkpt>
<trkpt lat="32.595443726" lon="35.131576538">
  <ele>276.213379</ele>
  <time>2011-10-18T04:58:22Z</time>
  <speed>2.130000</speed>
</trkpt>
<trkpt lat="32.595397949" lon="35.131595612">
  <ele>276.822754</ele>
  <time>2011-10-18T04:58:24Z</time>
  <speed>2.380000</speed>
</trkpt>
<trkpt lat="32.595363617" lon="35.131603241">
  <ele>277.033691</ele>
  <time>2011-10-18T04:58:26Z</time>
  <speed>1.700000</speed>
</trkpt>
<trkpt lat="32.595329285" lon="35.131614685">
  <ele>277.385254</ele>
  <time>2011-10-18T04:58:28Z</time>
  <speed>2.380000</speed>
</trkpt>
<trkpt lat="32.595287323" lon="35.131626129">
  <ele>278.033691</ele>
  <time>2011-10-18T04:58:30Z</time>
  <speed>1.900000</speed>
</trkpt>
<trkpt lat="32.595256805" lon="35.131633759">
  <ele>278.104004</ele>
  <time>2011-10-18T04:58:32Z</time>
  <speed>1.620000</speed>
</trkpt>
<trkpt lat="32.595218658" lon="35.131649017">
  <ele>278.408691</ele>
  <time>2011-10-18T04:58:34Z</time>
  <speed>2.040000</speed>
</trkpt>
<trkpt lat="32.595188141" lon="35.131664276">
  <ele>279.002441</ele>
  <time>2011-10-18T04:58:36Z</time>
  <speed>2.040000</speed>
</trkpt>
<trkpt lat="32.595157623" lon="35.131683350">
  <ele>279.291504</ele>
  <time>2011-10-18T04:58:38Z</time>
  <speed>1.940000</speed>
</trkpt>
<trkpt lat="32.595130920" lon="35.131710052">
  <ele>279.674316</ele>
  <time>2011-10-18T04:58:40Z</time>
  <speed>1.290000</speed>
</trkpt>
<trkpt lat="32.595108032" lon="35.131736755">
  <ele>279.424316</ele>
  <time>2011-10-18T04:58:42Z</time>
  <speed>1.960000</speed>
</trkpt>
<trkpt lat="32.595073700" lon="35.131763458">
  <ele>280.518066</ele>
  <time>2011-10-18T04:58:44Z</time>
  <speed>2.340000</speed>
</trkpt>
<trkpt lat="32.595039368" lon="35.131786346">
  <ele>280.143066</ele>
  <time>2011-10-18T04:58:46Z</time>
  <speed>1.710000</speed>
</trkpt>
<trkpt lat="32.595001221" lon="35.131805420">
  <ele>280.471191</ele>
  <time>2011-10-18T04:58:48Z</time>
  <speed>1.910000</speed>
</trkpt>
<trkpt lat="32.594974518" lon="35.131820679">
  <ele>280.377441</ele>
  <time>2011-10-18T04:58:49Z</time>
  <speed>2.070000</speed>
</trkpt>
<trkpt lat="32.594940186" lon="35.131839752">
  <ele>279.486816</ele>
  <time>2011-10-18T04:58:51Z</time>
  <speed>2.110000</speed>
</trkpt>
<trkpt lat="32.594905853" lon="35.131862640">
  <ele>279.580566</ele>
  <time>2011-10-18T04:58:53Z</time>
  <speed>2.020000</speed>
</trkpt>
<trkpt lat="32.594879150" lon="35.131874084">
  <ele>278.979004</ele>
  <time>2011-10-18T04:58:55Z</time>
  <speed>2.280000</speed>
</trkpt>
<trkpt lat="32.594841003" lon="35.131881714">
  <ele>278.471191</ele>
  <time>2011-10-18T04:58:57Z</time>
  <speed>2.100000</speed>
</trkpt>
<trkpt lat="32.594799042" lon="35.131896973">
  <ele>278.619629</ele>
  <time>2011-10-18T04:58:59Z</time>
  <speed>1.700000</speed>
</trkpt>
<trkpt lat="32.594757080" lon="35.131896973">
  <ele>278.572754</ele>
  <time>2011-10-18T04:59:01Z</time>
  <speed>2.100000</speed>
</trkpt>
<trkpt lat="32.594711304" lon="35.131912231">
  <ele>277.830566</ele>
  <time>2011-10-18T04:59:03Z</time>
  <speed>2.300000</speed>
</trkpt>
<trkpt lat="32.594669342" lon="35.131931305">
  <ele>278.361816</ele>
  <time>2011-10-18T04:59:05Z</time>
  <speed>2.300000</speed>
</trkpt>
<trkpt lat="32.594627380" lon="35.131950378">
  <ele>279.018066</ele>
  <time>2011-10-18T04:59:07Z</time>
  <speed>2.110000</speed>
</trkpt>
<trkpt lat="32.594596863" lon="35.131950378">
  <ele>278.408691</ele>
  <time>2011-10-18T04:59:09Z</time>
  <speed>2.420000</speed>
</trkpt>
<trkpt lat="32.594554901" lon="35.131965637">
  <ele>278.979004</ele>
  <time>2011-10-18T04:59:11Z</time>
  <speed>2.040000</speed>
</trkpt>
<trkpt lat="32.594516754" lon="35.131988525">
  <ele>279.479004</ele>
  <time>2011-10-18T04:59:13Z</time>
  <speed>2.180000</speed>
</trkpt>
<trkpt lat="32.594478607" lon="35.132011414">
  <ele>279.846191</ele>
  <time>2011-10-18T04:59:15Z</time>
  <speed>2.030000</speed>
</trkpt>
<trkpt lat="32.594448090" lon="35.132022858">
  <ele>278.713379</ele>
  <time>2011-10-18T04:59:17Z</time>
  <speed>1.770000</speed>
</trkpt>
<trkpt lat="32.594409943" lon="35.132045746">
  <ele>280.463379</ele>
  <time>2011-10-18T04:59:19Z</time>
  <speed>2.020000</speed>
</trkpt>
<trkpt lat="32.594375610" lon="35.132061005">
  <ele>280.861816</ele>
  <time>2011-10-18T04:59:21Z</time>
  <speed>1.900000</speed>
</trkpt>
<trkpt lat="32.594345093" lon="35.132049561">
  <ele>280.447754</ele>
  <time>2011-10-18T04:59:23Z</time>
  <speed>1.920000</speed>
</trkpt>
<trkpt lat="32.594310760" lon="35.132061005">
  <ele>280.877441</ele>
  <time>2011-10-18T04:59:25Z</time>
  <speed>2.090000</speed>
</trkpt>
<trkpt lat="32.594268799" lon="35.132072449">
  <ele>281.291504</ele>
  <time>2011-10-18T04:59:27Z</time>
  <speed>2.420000</speed>
</trkpt>
<trkpt lat="32.594219208" lon="35.132087708">
  <ele>281.705566</ele>
  <time>2011-10-18T04:59:29Z</time>
  <speed>2.530000</speed>
</trkpt>
<trkpt lat="32.594184875" lon="35.132102966">
  <ele>282.025879</ele>
  <time>2011-10-18T04:59:31Z</time>
  <speed>1.950000</speed>
</trkpt>
<trkpt lat="32.594146729" lon="35.132106781">
  <ele>282.244629</ele>
  <time>2011-10-18T04:59:33Z</time>
  <speed>2.320000</speed>
</trkpt>
<trkpt lat="32.594112396" lon="35.132110596">
  <ele>282.439941</ele>
  <time>2011-10-18T04:59:35Z</time>
  <speed>1.580000</speed>
</trkpt>
<trkpt lat="32.594066620" lon="35.132114410">
  <ele>281.877441</ele>
  <time>2011-10-18T04:59:38Z</time>
  <speed>1.850000</speed>
</trkpt>
<trkpt lat="32.594024658" lon="35.132118225">
  <ele>281.096191</ele>
  <time>2011-10-18T04:59:40Z</time>
  <speed>2.060000</speed>
</trkpt>
<trkpt lat="32.593994141" lon="35.132125854">
  <ele>280.580566</ele>
  <time>2011-10-18T04:59:42Z</time>
  <speed>1.630000</speed>
</trkpt>
<trkpt lat="32.593955994" lon="35.132144928">
  <ele>279.713379</ele>
  <time>2011-10-18T04:59:44Z</time>
  <speed>1.930000</speed>
</trkpt>
<trkpt lat="32.593925476" lon="35.132156372">
  <ele>279.760254</ele>
  <time>2011-10-18T04:59:46Z</time>
  <speed>2.050000</speed>
</trkpt>
<trkpt lat="32.593906403" lon="35.132179260">
  <ele>279.963379</ele>
  <time>2011-10-18T04:59:47Z</time>
  <speed>2.280000</speed>
</trkpt>
<trkpt lat="32.593875885" lon="35.132198334">
  <ele>279.424316</ele>
  <time>2011-10-18T04:59:49Z</time>
  <speed>1.990000</speed>
</trkpt>
<trkpt lat="32.593830109" lon="35.132209778">
  <ele>279.682129</ele>
  <time>2011-10-18T04:59:51Z</time>
  <speed>1.950000</speed>
</trkpt>
<trkpt lat="32.593795776" lon="35.132225037">
  <ele>279.338379</ele>
  <time>2011-10-18T04:59:53Z</time>
  <speed>2.450000</speed>
</trkpt>
<trkpt lat="32.593757629" lon="35.132247925">
  <ele>279.432129</ele>
  <time>2011-10-18T04:59:55Z</time>
  <speed>2.710000</speed>
</trkpt>
<trkpt lat="32.593715668" lon="35.132278442">
  <ele>279.955566</ele>
  <time>2011-10-18T04:59:57Z</time>
  <speed>2.700000</speed>
</trkpt>
<trkpt lat="32.593692780" lon="35.132297516">
  <ele>279.541504</ele>
  <time>2011-10-18T04:59:58Z</time>
  <speed>2.840000</speed>
</trkpt>
<trkpt lat="32.593666077" lon="35.132320404">
  <ele>280.182129</ele>
  <time>2011-10-18T04:59:59Z</time>
  <speed>2.490000</speed>
</trkpt>
<trkpt lat="32.593631744" lon="35.132354736">
  <ele>279.424316</ele>
  <time>2011-10-18T05:00:01Z</time>
  <speed>2.320000</speed>
</trkpt>
<trkpt lat="32.593589783" lon="35.132362366">
  <ele>279.283691</ele>
  <time>2011-10-18T05:00:03Z</time>
  <speed>2.470000</speed>
</trkpt>
<trkpt lat="32.593559265" lon="35.132389069">
  <ele>280.463379</ele>
  <time>2011-10-18T05:00:04Z</time>
  <speed>2.240000</speed>
</trkpt>
<trkpt lat="32.593513489" lon="35.132408142">
  <ele>280.697754</ele>
  <time>2011-10-18T05:00:06Z</time>
  <speed>2.690000</speed>
</trkpt>
<trkpt lat="32.593486786" lon="35.132419586">
  <ele>280.877441</ele>
  <time>2011-10-18T05:00:07Z</time>
  <speed>3.440000</speed>
</trkpt>
<trkpt lat="32.593460083" lon="35.132431030">
  <ele>280.596191</ele>
  <time>2011-10-18T05:00:08Z</time>
  <speed>3.170000</speed>
</trkpt>
<trkpt lat="32.593429565" lon="35.132438660">
  <ele>281.033691</ele>
  <time>2011-10-18T05:00:09Z</time>
  <speed>3.300000</speed>
</trkpt>
<trkpt lat="32.593399048" lon="35.132442474">
  <ele>280.674316</ele>
  <time>2011-10-18T05:00:10Z</time>
  <speed>3.150000</speed>
</trkpt>
<trkpt lat="32.593372345" lon="35.132453918">
  <ele>280.877441</ele>
  <time>2011-10-18T05:00:11Z</time>
  <speed>3.040000</speed>
</trkpt>
<trkpt lat="32.593345642" lon="35.132465363">
  <ele>281.080566</ele>
  <time>2011-10-18T05:00:12Z</time>
  <speed>3.510000</speed>
</trkpt>
<trkpt lat="32.593315125" lon="35.132472992">
  <ele>281.307129</ele>
  <time>2011-10-18T05:00:13Z</time>
  <speed>3.120000</speed>
</trkpt>
<trkpt lat="32.593284607" lon="35.132461548">
  <ele>281.838379</ele>
  <time>2011-10-18T05:00:14Z</time>
  <speed>3.120000</speed>
</trkpt>
<trkpt lat="32.593254089" lon="35.132446289">
  <ele>281.189941</ele>
  <time>2011-10-18T05:00:15Z</time>
  <speed>3.120000</speed>
</trkpt>
<trkpt lat="32.593208313" lon="35.132423401">
  <ele>281.064941</ele>
  <time>2011-10-18T05:00:17Z</time>
  <speed>2.930000</speed>
</trkpt>
<trkpt lat="32.593177795" lon="35.132427216">
  <ele>282.143066</ele>
  <time>2011-10-18T05:00:18Z</time>
  <speed>2.730000</speed>
</trkpt>
<trkpt lat="32.593151093" lon="35.132427216">
  <ele>281.994629</ele>
  <time>2011-10-18T05:00:19Z</time>
  <speed>3.150000</speed>
</trkpt>
<trkpt lat="32.593124390" lon="35.132423401">
  <ele>282.213379</ele>
  <time>2011-10-18T05:00:20Z</time>
  <speed>3.250000</speed>
</trkpt>
<trkpt lat="32.593101501" lon="35.132404327">
  <ele>282.822754</ele>
  <time>2011-10-18T05:00:21Z</time>
  <speed>2.940000</speed>
</trkpt>
<trkpt lat="32.593074799" lon="35.132369995">
  <ele>283.010254</ele>
  <time>2011-10-18T05:00:23Z</time>
  <speed>1.560000</speed>
</trkpt>
<trkpt lat="32.593048096" lon="35.132358551">
  <ele>283.627441</ele>
  <time>2011-10-18T05:00:25Z</time>
  <speed>1.880000</speed>
</trkpt>
<trkpt lat="32.593013763" lon="35.132339478">
  <ele>284.252441</ele>
  <time>2011-10-18T05:00:27Z</time>
  <speed>1.730000</speed>
</trkpt>
<trkpt lat="32.592983246" lon="35.132320404">
  <ele>285.010254</ele>
  <time>2011-10-18T05:00:29Z</time>
  <speed>2.030000</speed>
</trkpt>
<trkpt lat="32.592952728" lon="35.132293701">
  <ele>285.619629</ele>
  <time>2011-10-18T05:00:31Z</time>
  <speed>2.120000</speed>
</trkpt>
<trkpt lat="32.592929840" lon="35.132263184">
  <ele>285.307129</ele>
  <time>2011-10-18T05:00:34Z</time>
  <speed>1.000000</speed>
</trkpt>
<trkpt lat="32.592906952" lon="35.132240295">
  <ele>284.502441</ele>
  <time>2011-10-18T05:00:38Z</time>
  <speed>0.820000</speed>
</trkpt>
<trkpt lat="32.592880249" lon="35.132213593">
  <ele>284.330566</ele>
  <time>2011-10-18T05:00:42Z</time>
  <speed>1.040000</speed>
</trkpt>
<trkpt lat="32.592853546" lon="35.132190704">
  <ele>284.221191</ele>
  <time>2011-10-18T05:00:44Z</time>
  <speed>1.790000</speed>
</trkpt>
<trkpt lat="32.592811584" lon="35.132167816">
  <ele>284.791504</ele>
  <time>2011-10-18T05:00:46Z</time>
  <speed>2.880000</speed>
</trkpt>
<trkpt lat="32.592784882" lon="35.132160187">
  <ele>285.205566</ele>
  <time>2011-10-18T05:00:47Z</time>
  <speed>3.250000</speed>
</trkpt>
<trkpt lat="32.592750549" lon="35.132156372">
  <ele>285.119629</ele>
  <time>2011-10-18T05:00:48Z</time>
  <speed>3.580000</speed>
</trkpt>
<trkpt lat="32.592716217" lon="35.132144928">
  <ele>285.002441</ele>
  <time>2011-10-18T05:00:49Z</time>
  <speed>3.520000</speed>
</trkpt>
<trkpt lat="32.592681885" lon="35.132125854">
  <ele>284.932129</ele>
  <time>2011-10-18T05:00:50Z</time>
  <speed>4.180000</speed>
</trkpt>
<trkpt lat="32.592647552" lon="35.132110596">
  <ele>284.674316</ele>
  <time>2011-10-18T05:00:51Z</time>
  <speed>3.790000</speed>
</trkpt>
<trkpt lat="32.592609406" lon="35.132099152">
  <ele>284.494629</ele>
  <time>2011-10-18T05:00:52Z</time>
  <speed>4.010000</speed>
</trkpt>
<trkpt lat="32.592571259" lon="35.132099152">
  <ele>284.049316</ele>
  <time>2011-10-18T05:00:53Z</time>
  <speed>3.520000</speed>
</trkpt>
<trkpt lat="32.592536926" lon="35.132106781">
  <ele>283.369629</ele>
  <time>2011-10-18T05:00:54Z</time>
  <speed>4.140000</speed>
</trkpt>
<trkpt lat="32.592502594" lon="35.132129669">
  <ele>282.861816</ele>
  <time>2011-10-18T05:00:55Z</time>
  <speed>3.710000</speed>
</trkpt>
<trkpt lat="32.592468262" lon="35.132156372">
  <ele>282.775879</ele>
  <time>2011-10-18T05:00:56Z</time>
  <speed>4.430000</speed>
</trkpt>
<trkpt lat="32.592437744" lon="35.132194519">
  <ele>282.385254</ele>
  <time>2011-10-18T05:00:57Z</time>
  <speed>4.500000</speed>
</trkpt>
<trkpt lat="32.592411041" lon="35.132228851">
  <ele>281.994629</ele>
  <time>2011-10-18T05:00:58Z</time>
  <speed>4.320000</speed>
</trkpt>
<trkpt lat="32.592376709" lon="35.132255554">
  <ele>281.244629</ele>
  <time>2011-10-18T05:00:59Z</time>
  <speed>4.460000</speed>
</trkpt>
<trkpt lat="32.592338562" lon="35.132282257">
  <ele>280.697754</ele>
  <time>2011-10-18T05:01:00Z</time>
  <speed>4.030000</speed>
</trkpt>
<trkpt lat="32.592304230" lon="35.132293701">
  <ele>280.463379</ele>
  <time>2011-10-18T05:01:01Z</time>
  <speed>3.320000</speed>
</trkpt>
<trkpt lat="32.592273712" lon="35.132312775">
  <ele>280.307129</ele>
  <time>2011-10-18T05:01:02Z</time>
  <speed>3.190000</speed>
</trkpt>
<trkpt lat="32.592243195" lon="35.132343292">
  <ele>279.604004</ele>
  <time>2011-10-18T05:01:03Z</time>
  <speed>3.450000</speed>
</trkpt>
<trkpt lat="32.592216492" lon="35.132377625">
  <ele>279.393066</ele>
  <time>2011-10-18T05:01:04Z</time>
  <speed>3.320000</speed>
</trkpt>
<trkpt lat="32.592185974" lon="35.132411957">
  <ele>278.939941</ele>
  <time>2011-10-18T05:01:05Z</time>
  <speed>3.910000</speed>
</trkpt>
<trkpt lat="32.592147827" lon="35.132453918">
  <ele>278.369629</ele>
  <time>2011-10-18T05:01:06Z</time>
  <speed>4.060000</speed>
</trkpt>
<trkpt lat="32.592113495" lon="35.132484436">
  <ele>278.041504</ele>
  <time>2011-10-18T05:01:07Z</time>
  <speed>4.370000</speed>
</trkpt>
<trkpt lat="32.592075348" lon="35.132534027">
  <ele>277.900879</ele>
  <time>2011-10-18T05:01:08Z</time>
  <speed>4.390000</speed>
</trkpt>
<trkpt lat="32.592044830" lon="35.132572174">
  <ele>277.619629</ele>
  <time>2011-10-18T05:01:09Z</time>
  <speed>4.020000</speed>
</trkpt>
<trkpt lat="32.592014313" lon="35.132602692">
  <ele>276.994629</ele>
  <time>2011-10-18T05:01:10Z</time>
  <speed>3.900000</speed>
</trkpt>
<trkpt lat="32.591979980" lon="35.132640839">
  <ele>276.307129</ele>
  <time>2011-10-18T05:01:11Z</time>
  <speed>3.890000</speed>
</trkpt>
<trkpt lat="32.591949463" lon="35.132671356">
  <ele>275.447754</ele>
  <time>2011-10-18T05:01:12Z</time>
  <speed>3.400000</speed>
</trkpt>
<trkpt lat="32.591922760" lon="35.132694244">
  <ele>274.830566</ele>
  <time>2011-10-18T05:01:13Z</time>
  <speed>2.360000</speed>
</trkpt>
<trkpt lat="32.591899872" lon="35.132709503">
  <ele>274.182129</ele>
  <time>2011-10-18T05:01:14Z</time>
  <speed>2.380000</speed>
</trkpt>
<trkpt lat="32.591865540" lon="35.132743835">
  <ele>273.494629</ele>
  <time>2011-10-18T05:01:15Z</time>
  <speed>3.080000</speed>
</trkpt>
<trkpt lat="32.591827393" lon="35.132766724">
  <ele>272.744629</ele>
  <time>2011-10-18T05:01:16Z</time>
  <speed>3.770000</speed>
</trkpt>
<trkpt lat="32.591793060" lon="35.132793427">
  <ele>272.338379</ele>
  <time>2011-10-18T05:01:17Z</time>
  <speed>3.960000</speed>
</trkpt>
<trkpt lat="32.591754913" lon="35.132820129">
  <ele>271.885254</ele>
  <time>2011-10-18T05:01:18Z</time>
  <speed>4.420000</speed>
</trkpt>
<trkpt lat="32.591709137" lon="35.132850647">
  <ele>271.689941</ele>
  <time>2011-10-18T05:01:19Z</time>
  <speed>4.600000</speed>
</trkpt>
<trkpt lat="32.591640472" lon="35.132881165">
  <ele>271.619629</ele>
  <time>2011-10-18T05:01:20Z</time>
  <speed>4.720000</speed>
</trkpt>
<trkpt lat="32.591579437" lon="35.132907867">
  <ele>270.822754</ele>
  <time>2011-10-18T05:01:21Z</time>
  <speed>4.400000</speed>
</trkpt>
<trkpt lat="32.591533661" lon="35.132957458">
  <ele>270.002441</ele>
  <time>2011-10-18T05:01:22Z</time>
  <speed>3.160000</speed>
</trkpt>
<trkpt lat="32.591506958" lon="35.132987976">
  <ele>269.244629</ele>
  <time>2011-10-18T05:01:23Z</time>
  <speed>2.780000</speed>
</trkpt>
<trkpt lat="32.591491699" lon="35.133018494">
  <ele>268.463379</ele>
  <time>2011-10-18T05:01:24Z</time>
  <speed>2.610000</speed>
</trkpt>
<trkpt lat="32.591464996" lon="35.133045197">
  <ele>268.025879</ele>
  <time>2011-10-18T05:01:25Z</time>
  <speed>2.620000</speed>
</trkpt>
<trkpt lat="32.591445923" lon="35.133071899">
  <ele>267.799316</ele>
  <time>2011-10-18T05:01:26Z</time>
  <speed>2.840000</speed>
</trkpt>
<trkpt lat="32.591430664" lon="35.133106232">
  <ele>267.604004</ele>
  <time>2011-10-18T05:01:27Z</time>
  <speed>2.960000</speed>
</trkpt>
<trkpt lat="32.591411591" lon="35.133152008">
  <ele>268.143066</ele>
  <time>2011-10-18T05:01:28Z</time>
  <speed>3.630000</speed>
</trkpt>
<trkpt lat="32.591392517" lon="35.133186340">
  <ele>267.955566</ele>
  <time>2011-10-18T05:01:29Z</time>
  <speed>3.520000</speed>
</trkpt>
<trkpt lat="32.591362000" lon="35.133201599">
  <ele>267.479004</ele>
  <time>2011-10-18T05:01:30Z</time>
  <speed>3.510000</speed>
</trkpt>
<trkpt lat="32.591316223" lon="35.133216858">
  <ele>266.807129</ele>
  <time>2011-10-18T05:01:31Z</time>
  <speed>4.420000</speed>
</trkpt>
<trkpt lat="32.591259003" lon="35.133243561">
  <ele>267.439941</ele>
  <time>2011-10-18T05:01:32Z</time>
  <speed>4.730000</speed>
</trkpt>
<trkpt lat="32.591201782" lon="35.133274078">
  <ele>268.729004</ele>
  <time>2011-10-18T05:01:33Z</time>
  <speed>5.210000</speed>
</trkpt>
<trkpt lat="32.591144562" lon="35.133258820">
  <ele>267.893066</ele>
  <time>2011-10-18T05:01:34Z</time>
  <speed>6.050000</speed>
</trkpt>
<trkpt lat="32.591087341" lon="35.133243561">
  <ele>267.596191</ele>
  <time>2011-10-18T05:01:35Z</time>
  <speed>6.160000</speed>
</trkpt>
<trkpt lat="32.591030121" lon="35.133247375">
  <ele>268.182129</ele>
  <time>2011-10-18T05:01:36Z</time>
  <speed>5.840000</speed>
</trkpt>
<trkpt lat="32.590972900" lon="35.133247375">
  <ele>267.604004</ele>
  <time>2011-10-18T05:01:37Z</time>
  <speed>6.510000</speed>
</trkpt>
<trkpt lat="32.590904236" lon="35.133243561">
  <ele>267.596191</ele>
  <time>2011-10-18T05:01:38Z</time>
  <speed>7.080000</speed>
</trkpt>
<trkpt lat="32.590839386" lon="35.133239746">
  <ele>266.838379</ele>
  <time>2011-10-18T05:01:39Z</time>
  <speed>6.970000</speed>
</trkpt>
<trkpt lat="32.590778351" lon="35.133232117">
  <ele>266.416504</ele>
  <time>2011-10-18T05:01:40Z</time>
  <speed>6.560000</speed>
</trkpt>
<trkpt lat="32.590705872" lon="35.133216858">
  <ele>266.072754</ele>
  <time>2011-10-18T05:01:41Z</time>
  <speed>7.350000</speed>
</trkpt>
<trkpt lat="32.590587616" lon="35.133193970">
  <ele>266.869629</ele>
  <time>2011-10-18T05:01:42Z</time>
  <speed>7.650000</speed>
</trkpt>
<trkpt lat="32.590530396" lon="35.133167267">
  <ele>267.268066</ele>
  <time>2011-10-18T05:01:43Z</time>
  <speed>6.640000</speed>
</trkpt>
<trkpt lat="32.590480804" lon="35.133125305">
  <ele>267.197754</ele>
  <time>2011-10-18T05:01:44Z</time>
  <speed>6.540000</speed>
</trkpt>
<trkpt lat="32.590435028" lon="35.133083344">
  <ele>267.221191</ele>
  <time>2011-10-18T05:01:45Z</time>
  <speed>5.760000</speed>
</trkpt>
<trkpt lat="32.590389252" lon="35.133056641">
  <ele>267.783691</ele>
  <time>2011-10-18T05:01:46Z</time>
  <speed>5.720000</speed>
</trkpt>
<trkpt lat="32.590347290" lon="35.133022308">
  <ele>268.205566</ele>
  <time>2011-10-18T05:01:47Z</time>
  <speed>5.570000</speed>
</trkpt>
<trkpt lat="32.590312958" lon="35.132980347">
  <ele>268.322754</ele>
  <time>2011-10-18T05:01:48Z</time>
  <speed>5.200000</speed>
</trkpt>
<trkpt lat="32.590286255" lon="35.132942200">
  <ele>267.924316</ele>
  <time>2011-10-18T05:01:49Z</time>
  <speed>4.630000</speed>
</trkpt>
<trkpt lat="32.590248108" lon="35.132911682">
  <ele>268.119629</ele>
  <time>2011-10-18T05:01:50Z</time>
  <speed>3.970000</speed>
</trkpt>
<trkpt lat="32.590229034" lon="35.132877350">
  <ele>268.955566</ele>
  <time>2011-10-18T05:01:51Z</time>
  <speed>3.360000</speed>
</trkpt>
<trkpt lat="32.590217590" lon="35.132850647">
  <ele>268.408691</ele>
  <time>2011-10-18T05:01:52Z</time>
  <speed>2.550000</speed>
</trkpt>
<trkpt lat="32.590209961" lon="35.132820129">
  <ele>269.400879</ele>
  <time>2011-10-18T05:01:53Z</time>
  <speed>2.370000</speed>
</trkpt>
<trkpt lat="32.590179443" lon="35.132781982">
  <ele>269.736816</ele>
  <time>2011-10-18T05:01:54Z</time>
  <speed>3.480000</speed>
</trkpt>
<trkpt lat="32.590156555" lon="35.132743835">
  <ele>269.635254</ele>
  <time>2011-10-18T05:01:55Z</time>
  <speed>3.360000</speed>
</trkpt>
<trkpt lat="32.590137482" lon="35.132713318">
  <ele>269.729004</ele>
  <time>2011-10-18T05:01:56Z</time>
  <speed>3.800000</speed>
</trkpt>
<trkpt lat="32.590122223" lon="35.132675171">
  <ele>270.143066</ele>
  <time>2011-10-18T05:01:57Z</time>
  <speed>3.360000</speed>
</trkpt>
<trkpt lat="32.590103149" lon="35.132644653">
  <ele>270.307129</ele>
  <time>2011-10-18T05:01:58Z</time>
  <speed>3.160000</speed>
</trkpt>
<trkpt lat="32.590080261" lon="35.132610321">
  <ele>270.252441</ele>
  <time>2011-10-18T05:01:59Z</time>
  <speed>2.950000</speed>
</trkpt>
<trkpt lat="32.590057373" lon="35.132575989">
  <ele>269.471191</ele>
  <time>2011-10-18T05:02:00Z</time>
  <speed>3.160000</speed>
</trkpt>
<trkpt lat="32.590042114" lon="35.132545471">
  <ele>269.674316</ele>
  <time>2011-10-18T05:02:01Z</time>
  <speed>2.690000</speed>
</trkpt>
<trkpt lat="32.590011597" lon="35.132499695">
  <ele>271.064941</ele>
  <time>2011-10-18T05:02:03Z</time>
  <speed>2.430000</speed>
</trkpt>
<trkpt lat="32.589988708" lon="35.132453918">
  <ele>271.838379</ele>
  <time>2011-10-18T05:02:05Z</time>
  <speed>2.360000</speed>
</trkpt>
<trkpt lat="32.589973450" lon="35.132404327">
  <ele>272.869629</ele>
  <time>2011-10-18T05:02:07Z</time>
  <speed>1.640000</speed>
</trkpt>
<trkpt lat="32.589962006" lon="35.132366180">
  <ele>273.463379</ele>
  <time>2011-10-18T05:02:09Z</time>
  <speed>2.080000</speed>
</trkpt>
<trkpt lat="32.589950562" lon="35.132324219">
  <ele>274.033691</ele>
  <time>2011-10-18T05:02:11Z</time>
  <speed>2.240000</speed>
</trkpt>
<trkpt lat="32.589931488" lon="35.132278442">
  <ele>274.854004</ele>
  <time>2011-10-18T05:02:13Z</time>
  <speed>2.090000</speed>
</trkpt>
<trkpt lat="32.589904785" lon="35.132240295">
  <ele>276.330566</ele>
  <time>2011-10-18T05:02:15Z</time>
  <speed>1.710000</speed>
</trkpt>
<trkpt lat="32.589885712" lon="35.132198334">
  <ele>277.314941</ele>
  <time>2011-10-18T05:02:18Z</time>
  <speed>1.450000</speed>
</trkpt>
<trkpt lat="32.589862823" lon="35.132167816">
  <ele>277.697754</ele>
  <time>2011-10-18T05:02:20Z</time>
  <speed>1.590000</speed>
</trkpt>
<trkpt lat="32.589847565" lon="35.132137299">
  <ele>278.002441</ele>
  <time>2011-10-18T05:02:22Z</time>
  <speed>1.920000</speed>
</trkpt>
<trkpt lat="32.589832306" lon="35.132091522">
  <ele>278.775879</ele>
  <time>2011-10-18T05:02:24Z</time>
  <speed>1.750000</speed>
</trkpt>
<trkpt lat="32.589813232" lon="35.132057190">
  <ele>279.494629</ele>
  <time>2011-10-18T05:02:26Z</time>
  <speed>1.350000</speed>
</trkpt>
<trkpt lat="32.589801788" lon="35.132015228">
  <ele>280.385254</ele>
  <time>2011-10-18T05:02:29Z</time>
  <speed>1.120000</speed>
</trkpt>
<trkpt lat="32.589782715" lon="35.131980896">
  <ele>280.674316</ele>
  <time>2011-10-18T05:02:31Z</time>
  <speed>1.080000</speed>
</trkpt>
<trkpt lat="32.589767456" lon="35.131958008">
  <ele>282.033691</ele>
  <time>2011-10-18T05:02:33Z</time>
  <speed>1.240000</speed>
</trkpt>
<trkpt lat="32.589756012" lon="35.131916046">
  <ele>282.580566</ele>
  <time>2011-10-18T05:02:35Z</time>
  <speed>1.610000</speed>
</trkpt>
<trkpt lat="32.589740753" lon="35.131881714">
  <ele>282.979004</ele>
  <time>2011-10-18T05:02:37Z</time>
  <speed>1.380000</speed>
</trkpt>
<trkpt lat="32.589717865" lon="35.131862640">
  <ele>282.799316</ele>
  <time>2011-10-18T05:02:38Z</time>
  <speed>1.480000</speed>
</trkpt>
<trkpt lat="32.589698792" lon="35.131839752">
  <ele>283.596191</ele>
  <time>2011-10-18T05:02:39Z</time>
  <speed>1.800000</speed>
</trkpt>
<trkpt lat="32.589668274" lon="35.131805420">
  <ele>284.150879</ele>
  <time>2011-10-18T05:02:41Z</time>
  <speed>1.690000</speed>
</trkpt>
<trkpt lat="32.589653015" lon="35.131778717">
  <ele>284.502441</ele>
  <time>2011-10-18T05:02:43Z</time>
  <speed>1.940000</speed>
</trkpt>
<trkpt lat="32.589633942" lon="35.131732941">
  <ele>284.721191</ele>
  <time>2011-10-18T05:02:45Z</time>
  <speed>1.230000</speed>
</trkpt>
<trkpt lat="32.589622498" lon="35.131694794">
  <ele>285.557129</ele>
  <time>2011-10-18T05:02:47Z</time>
  <speed>1.280000</speed>
</trkpt>
<trkpt lat="32.589603424" lon="35.131656647">
  <ele>286.869629</ele>
  <time>2011-10-18T05:02:49Z</time>
  <speed>1.410000</speed>
</trkpt>
<trkpt lat="32.589588165" lon="35.131626129">
  <ele>287.533691</ele>
  <time>2011-10-18T05:02:51Z</time>
  <speed>1.430000</speed>
</trkpt>
<trkpt lat="32.589565277" lon="35.131603241">
  <ele>286.924316</ele>
  <time>2011-10-18T05:02:53Z</time>
  <speed>0.850000</speed>
</trkpt>
<trkpt lat="32.589546204" lon="35.131576538">
  <ele>287.424316</ele>
  <time>2011-10-18T05:02:55Z</time>
  <speed>0.950000</speed>
</trkpt>
<trkpt lat="32.589519501" lon="35.131530762">
  <ele>288.721191</ele>
  <time>2011-10-18T05:02:58Z</time>
  <speed>1.340000</speed>
</trkpt>
<trkpt lat="32.589492798" lon="35.131504059">
  <ele>289.322754</ele>
  <time>2011-10-18T05:03:00Z</time>
  <speed>1.920000</speed>
</trkpt>
<trkpt lat="32.589469910" lon="35.131465912">
  <ele>289.885254</ele>
  <time>2011-10-18T05:03:02Z</time>
  <speed>1.470000</speed>
</trkpt>
<trkpt lat="32.589450836" lon="35.131439209">
  <ele>290.549316</ele>
  <time>2011-10-18T05:03:04Z</time>
  <speed>1.410000</speed>
</trkpt>
<trkpt lat="32.589435577" lon="35.131401062">
  <ele>290.596191</ele>
  <time>2011-10-18T05:03:06Z</time>
  <speed>1.810000</speed>
</trkpt>
<trkpt lat="32.589420319" lon="35.131355286">
  <ele>290.580566</ele>
  <time>2011-10-18T05:03:08Z</time>
  <speed>2.350000</speed>
</trkpt>
<trkpt lat="32.589401245" lon="35.131332397">
  <ele>290.557129</ele>
  <time>2011-10-18T05:03:09Z</time>
  <speed>2.590000</speed>
</trkpt>
<trkpt lat="32.589382172" lon="35.131309509">
  <ele>290.736816</ele>
  <time>2011-10-18T05:03:10Z</time>
  <speed>2.640000</speed>
</trkpt>
<trkpt lat="32.589363098" lon="35.131282806">
  <ele>290.619629</ele>
  <time>2011-10-18T05:03:11Z</time>
  <speed>2.450000</speed>
</trkpt>
<trkpt lat="32.589347839" lon="35.131256104">
  <ele>290.002441</ele>
  <time>2011-10-18T05:03:12Z</time>
  <speed>2.370000</speed>
</trkpt>
<trkpt lat="32.589317322" lon="35.131214142">
  <ele>290.189941</ele>
  <time>2011-10-18T05:03:14Z</time>
  <speed>2.650000</speed>
</trkpt>
<trkpt lat="32.589294434" lon="35.131187439">
  <ele>289.119629</ele>
  <time>2011-10-18T05:03:15Z</time>
  <speed>2.890000</speed>
</trkpt>
<trkpt lat="32.589275360" lon="35.131164551">
  <ele>288.658691</ele>
  <time>2011-10-18T05:03:16Z</time>
  <speed>2.750000</speed>
</trkpt>
<trkpt lat="32.589248657" lon="35.131149292">
  <ele>288.939941</ele>
  <time>2011-10-18T05:03:17Z</time>
  <speed>3.140000</speed>
</trkpt>
<trkpt lat="32.589202881" lon="35.131118774">
  <ele>287.424316</ele>
  <time>2011-10-18T05:03:18Z</time>
  <speed>3.320000</speed>
</trkpt>
<trkpt lat="32.589164734" lon="35.131099701">
  <ele>287.486816</ele>
  <time>2011-10-18T05:03:19Z</time>
  <speed>3.590000</speed>
</trkpt>
<trkpt lat="32.589134216" lon="35.131088257">
  <ele>287.619629</ele>
  <time>2011-10-18T05:03:20Z</time>
  <speed>3.590000</speed>
</trkpt>
<trkpt lat="32.589107513" lon="35.131069183">
  <ele>287.572754</ele>
  <time>2011-10-18T05:03:21Z</time>
  <speed>3.710000</speed>
</trkpt>
<trkpt lat="32.589080811" lon="35.131046295">
  <ele>287.924316</ele>
  <time>2011-10-18T05:03:22Z</time>
  <speed>3.870000</speed>
</trkpt>
<trkpt lat="32.589054108" lon="35.131027222">
  <ele>288.486816</ele>
  <time>2011-10-18T05:03:23Z</time>
  <speed>3.700000</speed>
</trkpt>
<trkpt lat="32.589027405" lon="35.131008148">
  <ele>288.768066</ele>
  <time>2011-10-18T05:03:24Z</time>
  <speed>3.530000</speed>
</trkpt>
<trkpt lat="32.588996887" lon="35.130985260">
  <ele>289.127441</ele>
  <time>2011-10-18T05:03:25Z</time>
  <speed>3.620000</speed>
</trkpt>
<trkpt lat="32.588966370" lon="35.130970001">
  <ele>289.455566</ele>
  <time>2011-10-18T05:03:26Z</time>
  <speed>3.340000</speed>
</trkpt>
<trkpt lat="32.588935852" lon="35.130950928">
  <ele>289.041504</ele>
  <time>2011-10-18T05:03:27Z</time>
  <speed>3.230000</speed>
</trkpt>
<trkpt lat="32.588909149" lon="35.130931854">
  <ele>289.346191</ele>
  <time>2011-10-18T05:03:28Z</time>
  <speed>2.950000</speed>
</trkpt>
<trkpt lat="32.588882446" lon="35.130916595">
  <ele>289.533691</ele>
  <time>2011-10-18T05:03:29Z</time>
  <speed>2.940000</speed>
</trkpt>
<trkpt lat="32.588836670" lon="35.130882263">
  <ele>290.080566</ele>
  <time>2011-10-18T05:03:31Z</time>
  <speed>3.150000</speed>
</trkpt>
<trkpt lat="32.588813782" lon="35.130863190">
  <ele>290.299316</ele>
  <time>2011-10-18T05:03:32Z</time>
  <speed>3.160000</speed>
</trkpt>
<trkpt lat="32.588787079" lon="35.130844116">
  <ele>291.072754</ele>
  <time>2011-10-18T05:03:33Z</time>
  <speed>3.260000</speed>
</trkpt>
<trkpt lat="32.588764191" lon="35.130825043">
  <ele>291.174316</ele>
  <time>2011-10-18T05:03:34Z</time>
  <speed>3.220000</speed>
</trkpt>
<trkpt lat="32.588741302" lon="35.130805969">
  <ele>291.299316</ele>
  <time>2011-10-18T05:03:35Z</time>
  <speed>3.260000</speed>
</trkpt>
<trkpt lat="32.588710785" lon="35.130786896">
  <ele>291.744629</ele>
  <time>2011-10-18T05:03:36Z</time>
  <speed>3.440000</speed>
</trkpt>
<trkpt lat="32.588687897" lon="35.130767822">
  <ele>291.682129</ele>
  <time>2011-10-18T05:03:37Z</time>
  <speed>3.060000</speed>
</trkpt>
<trkpt lat="32.588642120" lon="35.130741119">
  <ele>290.955566</ele>
  <time>2011-10-18T05:03:39Z</time>
  <speed>2.980000</speed>
</trkpt>
<trkpt lat="32.588611603" lon="35.130729675">
  <ele>290.564941</ele>
  <time>2011-10-18T05:03:40Z</time>
  <speed>2.780000</speed>
</trkpt>
<trkpt lat="32.588565826" lon="35.130722046">
  <ele>290.354004</ele>
  <time>2011-10-18T05:03:42Z</time>
  <speed>2.700000</speed>
</trkpt>
<trkpt lat="32.588520050" lon="35.130710602">
  <ele>290.986816</ele>
  <time>2011-10-18T05:03:44Z</time>
  <speed>2.510000</speed>
</trkpt>
<trkpt lat="32.588474274" lon="35.130699158">
  <ele>291.283691</ele>
  <time>2011-10-18T05:03:46Z</time>
  <speed>2.660000</speed>
</trkpt>
<trkpt lat="32.588432312" lon="35.130672455">
  <ele>289.994629</ele>
  <time>2011-10-18T05:03:48Z</time>
  <speed>2.960000</speed>
</trkpt>
<trkpt lat="32.588382721" lon="35.130645752">
  <ele>290.572754</ele>
  <time>2011-10-18T05:03:50Z</time>
  <speed>2.700000</speed>
</trkpt>
<trkpt lat="32.588348389" lon="35.130626678">
  <ele>291.744629</ele>
  <time>2011-10-18T05:03:52Z</time>
  <speed>2.030000</speed>
</trkpt>
<trkpt lat="32.588317871" lon="35.130619049">
  <ele>292.775879</ele>
  <time>2011-10-18T05:03:54Z</time>
  <speed>1.670000</speed>
</trkpt>
<trkpt lat="32.588287354" lon="35.130607605">
  <ele>293.877441</ele>
  <time>2011-10-18T05:03:56Z</time>
  <speed>1.680000</speed>
</trkpt>
<trkpt lat="32.588260651" lon="35.130599976">
  <ele>295.486816</ele>
  <time>2011-10-18T05:03:58Z</time>
  <speed>1.710000</speed>
</trkpt>
<trkpt lat="32.588222504" lon="35.130599976">
  <ele>296.885254</ele>
  <time>2011-10-18T05:04:00Z</time>
  <speed>1.460000</speed>
</trkpt>
<trkpt lat="32.588195801" lon="35.130611420">
  <ele>297.205566</ele>
  <time>2011-10-18T05:04:03Z</time>
  <speed>0.820000</speed>
</trkpt>
<trkpt lat="32.588172913" lon="35.130630493">
  <ele>298.150879</ele>
  <time>2011-10-18T05:04:07Z</time>
  <speed>0.330000</speed>
</trkpt>
<trkpt lat="32.588150024" lon="35.130626678">
  <ele>299.283691</ele>
  <time>2011-10-18T05:04:34Z</time>
  <speed>0.020000</speed>
</trkpt>
<trkpt lat="32.588134766" lon="35.130645752">
  <ele>301.189941</ele>
  <time>2011-10-18T05:05:20Z</time>
  <speed>0.130000</speed>
</trkpt>
<trkpt lat="32.588130951" lon="35.130668640">
  <ele>303.330566</ele>
  <time>2011-10-18T05:05:31Z</time>
  <speed>0.090000</speed>
</trkpt>
<trkpt lat="32.588134766" lon="35.130680084">
  <ele>306.229004</ele>
  <time>2011-10-18T05:05:45Z</time>
  <speed>0.070000</speed>
</trkpt>
<trkpt lat="32.588142395" lon="35.130683899">
  <ele>309.143066</ele>
  <time>2011-10-18T05:05:58Z</time>
  <speed>0.060000</speed>
</trkpt>
<trkpt lat="32.588142395" lon="35.130691528">
  <ele>312.111816</ele>
  <time>2011-10-18T05:06:09Z</time>
  <speed>0.040000</speed>
</trkpt>
<trkpt lat="32.588157654" lon="35.130691528">
  <ele>314.799316</ele>
  <time>2011-10-18T05:06:28Z</time>
  <speed>0.120000</speed>
</trkpt>
<trkpt lat="32.588172913" lon="35.130683899">
  <ele>317.174316</ele>
  <time>2011-10-18T05:06:43Z</time>
  <speed>0.070000</speed>
</trkpt>
<trkpt lat="32.588169098" lon="35.130691528">
  <ele>319.986816</ele>
  <time>2011-10-18T05:07:09Z</time>
  <speed>0.090000</speed>
</trkpt>
<trkpt lat="32.588157654" lon="35.130714417">
  <ele>322.049316</ele>
  <time>2011-10-18T05:07:28Z</time>
  <speed>0.170000</speed>
</trkpt>
<trkpt lat="32.588150024" lon="35.130741119">
  <ele>323.518066</ele>
  <time>2011-10-18T05:07:44Z</time>
  <speed>0.160000</speed>
</trkpt>
<trkpt lat="32.588138580" lon="35.130756378">
  <ele>320.314941</ele>
  <time>2011-10-18T05:08:01Z</time>
  <speed>1.970000</speed>
</trkpt>
<trkpt lat="32.588092804" lon="35.130798340">
  <ele>318.033691</ele>
  <time>2011-10-18T05:08:03Z</time>
  <speed>5.230000</speed>
</trkpt>
<trkpt lat="32.588062286" lon="35.130844116">
  <ele>317.330566</ele>
  <time>2011-10-18T05:08:04Z</time>
  <speed>5.580000</speed>
</trkpt>
<trkpt lat="32.588027954" lon="35.130882263">
  <ele>316.736816</ele>
  <time>2011-10-18T05:08:05Z</time>
  <speed>5.200000</speed>
</trkpt>
<trkpt lat="32.587982178" lon="35.130920410">
  <ele>315.994629</ele>
  <time>2011-10-18T05:08:06Z</time>
  <speed>5.320000</speed>
</trkpt>
<trkpt lat="32.587944031" lon="35.130947113">
  <ele>315.275879</ele>
  <time>2011-10-18T05:08:07Z</time>
  <speed>4.620000</speed>
</trkpt>
<trkpt lat="32.587902069" lon="35.130970001">
  <ele>314.744629</ele>
  <time>2011-10-18T05:08:08Z</time>
  <speed>5.210000</speed>
</trkpt>
<trkpt lat="32.587848663" lon="35.130989075">
  <ele>312.314941</ele>
  <time>2011-10-18T05:08:09Z</time>
  <speed>4.080000</speed>
</trkpt>
<trkpt lat="32.587814331" lon="35.131000519">
  <ele>311.916504</ele>
  <time>2011-10-18T05:08:10Z</time>
  <speed>3.570000</speed>
</trkpt>
<trkpt lat="32.587779999" lon="35.131015778">
  <ele>311.533691</ele>
  <time>2011-10-18T05:08:11Z</time>
  <speed>3.560000</speed>
</trkpt>
<trkpt lat="32.587745667" lon="35.131046295">
  <ele>310.955566</ele>
  <time>2011-10-18T05:08:12Z</time>
  <speed>3.760000</speed>
</trkpt>
<trkpt lat="32.587703705" lon="35.131061554">
  <ele>309.572754</ele>
  <time>2011-10-18T05:08:13Z</time>
  <speed>4.030000</speed>
</trkpt>
<trkpt lat="32.587677002" lon="35.131072998">
  <ele>308.885254</ele>
  <time>2011-10-18T05:08:14Z</time>
  <speed>2.880000</speed>
</trkpt>
<trkpt lat="32.587646484" lon="35.131080627">
  <ele>307.588379</ele>
  <time>2011-10-18T05:08:15Z</time>
  <speed>3.440000</speed>
</trkpt>
<trkpt lat="32.587608337" lon="35.131099701">
  <ele>307.307129</ele>
  <time>2011-10-18T05:08:16Z</time>
  <speed>3.450000</speed>
</trkpt>
<trkpt lat="32.587577820" lon="35.131122589">
  <ele>306.838379</ele>
  <time>2011-10-18T05:08:17Z</time>
  <speed>3.730000</speed>
</trkpt>
<trkpt lat="32.587543488" lon="35.131149292">
  <ele>306.330566</ele>
  <time>2011-10-18T05:08:18Z</time>
  <speed>4.660000</speed>
</trkpt>
<trkpt lat="32.587501526" lon="35.131179810">
  <ele>306.189941</ele>
  <time>2011-10-18T05:08:19Z</time>
  <speed>4.630000</speed>
</trkpt>
<trkpt lat="32.587448120" lon="35.131202698">
  <ele>304.158691</ele>
  <time>2011-10-18T05:08:20Z</time>
  <speed>4.540000</speed>
</trkpt>
<trkpt lat="32.587409973" lon="35.131217957">
  <ele>303.924316</ele>
  <time>2011-10-18T05:08:21Z</time>
  <speed>4.120000</speed>
</trkpt>
<trkpt lat="32.587360382" lon="35.131229401">
  <ele>301.752441</ele>
  <time>2011-10-18T05:08:22Z</time>
  <speed>4.470000</speed>
</trkpt>
<trkpt lat="32.587326050" lon="35.131237030">
  <ele>301.338379</ele>
  <time>2011-10-18T05:08:23Z</time>
  <speed>3.400000</speed>
</trkpt>
<trkpt lat="32.587299347" lon="35.131240845">
  <ele>301.033691</ele>
  <time>2011-10-18T05:08:24Z</time>
  <speed>3.140000</speed>
</trkpt>
<trkpt lat="32.587268829" lon="35.131244659">
  <ele>300.799316</ele>
  <time>2011-10-18T05:08:25Z</time>
  <speed>3.010000</speed>
</trkpt>
<trkpt lat="32.587234497" lon="35.131256104">
  <ele>300.463379</ele>
  <time>2011-10-18T05:08:26Z</time>
  <speed>2.750000</speed>
</trkpt>
<trkpt lat="32.587188721" lon="35.131278992">
  <ele>299.768066</ele>
  <time>2011-10-18T05:08:28Z</time>
  <speed>1.670000</speed>
</trkpt>
<trkpt lat="32.587158203" lon="35.131286621">
  <ele>299.814941</ele>
  <time>2011-10-18T05:08:29Z</time>
  <speed>1.950000</speed>
</trkpt>
<trkpt lat="32.587104797" lon="35.131278992">
  <ele>297.947754</ele>
  <time>2011-10-18T05:08:31Z</time>
  <speed>2.750000</speed>
</trkpt>
<trkpt lat="32.587059021" lon="35.131290436">
  <ele>297.322754</ele>
  <time>2011-10-18T05:08:33Z</time>
  <speed>2.190000</speed>
</trkpt>
<trkpt lat="32.587017059" lon="35.131309509">
  <ele>296.627441</ele>
  <time>2011-10-18T05:08:35Z</time>
  <speed>2.040000</speed>
</trkpt>
<trkpt lat="32.586956024" lon="35.131320953">
  <ele>296.189941</ele>
  <time>2011-10-18T05:08:37Z</time>
  <speed>3.070000</speed>
</trkpt>
<trkpt lat="32.586921692" lon="35.131340027">
  <ele>295.791504</ele>
  <time>2011-10-18T05:08:38Z</time>
  <speed>2.990000</speed>
</trkpt>
<trkpt lat="32.586879730" lon="35.131359100">
  <ele>295.963379</ele>
  <time>2011-10-18T05:08:39Z</time>
  <speed>3.230000</speed>
</trkpt>
<trkpt lat="32.586837769" lon="35.131381989">
  <ele>295.924316</ele>
  <time>2011-10-18T05:08:40Z</time>
  <speed>3.250000</speed>
</trkpt>
<trkpt lat="32.586807251" lon="35.131385803">
  <ele>295.588379</ele>
  <time>2011-10-18T05:08:41Z</time>
  <speed>3.240000</speed>
</trkpt>
<trkpt lat="32.586769104" lon="35.131393433">
  <ele>295.268066</ele>
  <time>2011-10-18T05:08:42Z</time>
  <speed>3.150000</speed>
</trkpt>
<trkpt lat="32.586734772" lon="35.131397247">
  <ele>294.361816</ele>
  <time>2011-10-18T05:08:43Z</time>
  <speed>3.140000</speed>
</trkpt>
<trkpt lat="32.586696625" lon="35.131408691">
  <ele>294.393066</ele>
  <time>2011-10-18T05:08:44Z</time>
  <speed>3.500000</speed>
</trkpt>
<trkpt lat="32.586654663" lon="35.131420135">
  <ele>293.861816</ele>
  <time>2011-10-18T05:08:45Z</time>
  <speed>3.290000</speed>
</trkpt>
<trkpt lat="32.586620331" lon="35.131431580">
  <ele>293.572754</ele>
  <time>2011-10-18T05:08:46Z</time>
  <speed>3.280000</speed>
</trkpt>
<trkpt lat="32.586589813" lon="35.131439209">
  <ele>293.236816</ele>
  <time>2011-10-18T05:08:47Z</time>
  <speed>3.030000</speed>
</trkpt>
<trkpt lat="32.586555481" lon="35.131443024">
  <ele>293.666504</ele>
  <time>2011-10-18T05:08:48Z</time>
  <speed>3.160000</speed>
</trkpt>
<trkpt lat="32.586513519" lon="35.131443024">
  <ele>293.260254</ele>
  <time>2011-10-18T05:08:49Z</time>
  <speed>3.300000</speed>
</trkpt>
<trkpt lat="32.586479187" lon="35.131458282">
  <ele>292.205566</ele>
  <time>2011-10-18T05:08:50Z</time>
  <speed>2.470000</speed>
</trkpt>
<trkpt lat="32.586414337" lon="35.131462097">
  <ele>291.768066</ele>
  <time>2011-10-18T05:08:52Z</time>
  <speed>3.240000</speed>
</trkpt>
<trkpt lat="32.586380005" lon="35.131458282">
  <ele>290.971191</ele>
  <time>2011-10-18T05:08:53Z</time>
  <speed>3.110000</speed>
</trkpt>
<trkpt lat="32.586341858" lon="35.131450653">
  <ele>290.416504</ele>
  <time>2011-10-18T05:08:54Z</time>
  <speed>3.060000</speed>
</trkpt>
<trkpt lat="32.586303711" lon="35.131443024">
  <ele>290.400879</ele>
  <time>2011-10-18T05:08:55Z</time>
  <speed>3.000000</speed>
</trkpt>
<trkpt lat="32.586273193" lon="35.131435394">
  <ele>291.018066</ele>
  <time>2011-10-18T05:08:56Z</time>
  <speed>3.130000</speed>
</trkpt>
<trkpt lat="32.586238861" lon="35.131431580">
  <ele>290.408691</ele>
  <time>2011-10-18T05:08:57Z</time>
  <speed>3.250000</speed>
</trkpt>
<trkpt lat="32.586204529" lon="35.131423950">
  <ele>290.127441</ele>
  <time>2011-10-18T05:08:58Z</time>
  <speed>2.910000</speed>
</trkpt>
<trkpt lat="32.586143494" lon="35.131408691">
  <ele>289.564941</ele>
  <time>2011-10-18T05:09:00Z</time>
  <speed>2.870000</speed>
</trkpt>
<trkpt lat="32.586105347" lon="35.131416321">
  <ele>288.533691</ele>
  <time>2011-10-18T05:09:01Z</time>
  <speed>3.010000</speed>
</trkpt>
<trkpt lat="32.586071014" lon="35.131420135">
  <ele>288.596191</ele>
  <time>2011-10-18T05:09:02Z</time>
  <speed>3.010000</speed>
</trkpt>
<trkpt lat="32.586032867" lon="35.131416321">
  <ele>289.674316</ele>
  <time>2011-10-18T05:09:03Z</time>
  <speed>3.510000</speed>
</trkpt>
<trkpt lat="32.586002350" lon="35.131412506">
  <ele>289.924316</ele>
  <time>2011-10-18T05:09:04Z</time>
  <speed>2.470000</speed>
</trkpt>
<trkpt lat="32.585975647" lon="35.131401062">
  <ele>289.018066</ele>
  <time>2011-10-18T05:09:05Z</time>
  <speed>3.040000</speed>
</trkpt>
<trkpt lat="32.585945129" lon="35.131397247">
  <ele>289.307129</ele>
  <time>2011-10-18T05:09:06Z</time>
  <speed>3.090000</speed>
</trkpt>
<trkpt lat="32.585914612" lon="35.131389618">
  <ele>289.299316</ele>
  <time>2011-10-18T05:09:07Z</time>
  <speed>2.940000</speed>
</trkpt>
<trkpt lat="32.585884094" lon="35.131389618">
  <ele>290.455566</ele>
  <time>2011-10-18T05:09:08Z</time>
  <speed>3.070000</speed>
</trkpt>
<trkpt lat="32.585849762" lon="35.131393433">
  <ele>290.111816</ele>
  <time>2011-10-18T05:09:09Z</time>
  <speed>2.990000</speed>
</trkpt>
<trkpt lat="32.585819244" lon="35.131412506">
  <ele>290.830566</ele>
  <time>2011-10-18T05:09:10Z</time>
  <speed>3.790000</speed>
</trkpt>
<trkpt lat="32.585781097" lon="35.131423950">
  <ele>289.721191</ele>
  <time>2011-10-18T05:09:11Z</time>
  <speed>4.890000</speed>
</trkpt>
<trkpt lat="32.585739136" lon="35.131443024">
  <ele>289.510254</ele>
  <time>2011-10-18T05:09:12Z</time>
  <speed>4.600000</speed>
</trkpt>
<trkpt lat="32.585697174" lon="35.131469727">
  <ele>288.354004</ele>
  <time>2011-10-18T05:09:13Z</time>
  <speed>3.810000</speed>
</trkpt>
<trkpt lat="32.585662842" lon="35.131504059">
  <ele>288.846191</ele>
  <time>2011-10-18T05:09:14Z</time>
  <speed>4.180000</speed>
</trkpt>
<trkpt lat="32.585636139" lon="35.131542206">
  <ele>287.900879</ele>
  <time>2011-10-18T05:09:15Z</time>
  <speed>4.230000</speed>
</trkpt>
<trkpt lat="32.585609436" lon="35.131614685">
  <ele>289.893066</ele>
  <time>2011-10-18T05:09:16Z</time>
  <speed>5.440000</speed>
</trkpt>
<trkpt lat="32.585594177" lon="35.131690979">
  <ele>292.588379</ele>
  <time>2011-10-18T05:09:17Z</time>
  <speed>5.460000</speed>
</trkpt>
<trkpt lat="32.585578918" lon="35.131763458">
  <ele>293.197754</ele>
  <time>2011-10-18T05:09:18Z</time>
  <speed>5.570000</speed>
</trkpt>
<trkpt lat="32.585556030" lon="35.131828308">
  <ele>294.525879</ele>
  <time>2011-10-18T05:09:19Z</time>
  <speed>5.560000</speed>
</trkpt>
<trkpt lat="32.585529327" lon="35.131881714">
  <ele>295.416504</ele>
  <time>2011-10-18T05:09:20Z</time>
  <speed>5.990000</speed>
</trkpt>
<trkpt lat="32.585498810" lon="35.131935120">
  <ele>295.369629</ele>
  <time>2011-10-18T05:09:21Z</time>
  <speed>5.510000</speed>
</trkpt>
<trkpt lat="32.585468292" lon="35.131973267">
  <ele>294.869629</ele>
  <time>2011-10-18T05:09:22Z</time>
  <speed>5.370000</speed>
</trkpt>
<trkpt lat="32.585437775" lon="35.132011414">
  <ele>293.408691</ele>
  <time>2011-10-18T05:09:23Z</time>
  <speed>4.870000</speed>
</trkpt>
<trkpt lat="32.585407257" lon="35.132041931">
  <ele>292.533691</ele>
  <time>2011-10-18T05:09:24Z</time>
  <speed>4.390000</speed>
</trkpt>
<trkpt lat="32.585369110" lon="35.132064819">
  <ele>292.939941</ele>
  <time>2011-10-18T05:09:25Z</time>
  <speed>4.300000</speed>
</trkpt>
<trkpt lat="32.585334778" lon="35.132091522">
  <ele>293.791504</ele>
  <time>2011-10-18T05:09:26Z</time>
  <speed>4.290000</speed>
</trkpt>
<trkpt lat="32.585300446" lon="35.132114410">
  <ele>293.861816</ele>
  <time>2011-10-18T05:09:27Z</time>
  <speed>4.280000</speed>
</trkpt>
<trkpt lat="32.585262299" lon="35.132133484">
  <ele>294.541504</ele>
  <time>2011-10-18T05:09:28Z</time>
  <speed>4.360000</speed>
</trkpt>
<trkpt lat="32.585224152" lon="35.132152557">
  <ele>294.330566</ele>
  <time>2011-10-18T05:09:29Z</time>
  <speed>4.440000</speed>
</trkpt>
<trkpt lat="32.585189819" lon="35.132167816">
  <ele>294.268066</ele>
  <time>2011-10-18T05:09:30Z</time>
  <speed>4.390000</speed>
</trkpt>
<trkpt lat="32.585151672" lon="35.132179260">
  <ele>294.150879</ele>
  <time>2011-10-18T05:09:31Z</time>
  <speed>4.690000</speed>
</trkpt>
<trkpt lat="32.585109711" lon="35.132186890">
  <ele>293.768066</ele>
  <time>2011-10-18T05:09:32Z</time>
  <speed>4.320000</speed>
</trkpt>
<trkpt lat="32.585071564" lon="35.132190704">
  <ele>293.439941</ele>
  <time>2011-10-18T05:09:33Z</time>
  <speed>4.520000</speed>
</trkpt>
<trkpt lat="32.585033417" lon="35.132194519">
  <ele>293.447754</ele>
  <time>2011-10-18T05:09:34Z</time>
  <speed>4.580000</speed>
</trkpt>
<trkpt lat="32.584995270" lon="35.132194519">
  <ele>293.424316</ele>
  <time>2011-10-18T05:09:35Z</time>
  <speed>4.380000</speed>
</trkpt>
<trkpt lat="32.584957123" lon="35.132190704">
  <ele>292.963379</ele>
  <time>2011-10-18T05:09:36Z</time>
  <speed>4.360000</speed>
</trkpt>
<trkpt lat="32.584918976" lon="35.132183075">
  <ele>293.307129</ele>
  <time>2011-10-18T05:09:37Z</time>
  <speed>4.390000</speed>
</trkpt>
<trkpt lat="32.584873199" lon="35.132186890">
  <ele>294.096191</ele>
  <time>2011-10-18T05:09:38Z</time>
  <speed>4.550000</speed>
</trkpt>
<trkpt lat="32.584835052" lon="35.132171631">
  <ele>293.330566</ele>
  <time>2011-10-18T05:09:39Z</time>
  <speed>4.620000</speed>
</trkpt>
<trkpt lat="32.584793091" lon="35.132167816">
  <ele>292.830566</ele>
  <time>2011-10-18T05:09:40Z</time>
  <speed>4.730000</speed>
</trkpt>
<trkpt lat="32.584754944" lon="35.132171631">
  <ele>292.697754</ele>
  <time>2011-10-18T05:09:41Z</time>
  <speed>4.360000</speed>
</trkpt>
<trkpt lat="32.584712982" lon="35.132160187">
  <ele>292.643066</ele>
  <time>2011-10-18T05:09:42Z</time>
  <speed>4.120000</speed>
</trkpt>
<trkpt lat="32.584678650" lon="35.132148743">
  <ele>292.236816</ele>
  <time>2011-10-18T05:09:43Z</time>
  <speed>4.190000</speed>
</trkpt>
<trkpt lat="32.584640503" lon="35.132141113">
  <ele>292.588379</ele>
  <time>2011-10-18T05:09:44Z</time>
  <speed>4.180000</speed>
</trkpt>
<trkpt lat="32.584606171" lon="35.132129669">
  <ele>292.127441</ele>
  <time>2011-10-18T05:09:45Z</time>
  <speed>4.180000</speed>
</trkpt>
<trkpt lat="32.584564209" lon="35.132114410">
  <ele>292.033691</ele>
  <time>2011-10-18T05:09:46Z</time>
  <speed>4.080000</speed>
</trkpt>
<trkpt lat="32.584529877" lon="35.132106781">
  <ele>291.518066</ele>
  <time>2011-10-18T05:09:47Z</time>
  <speed>3.920000</speed>
</trkpt>
<trkpt lat="32.584495544" lon="35.132099152">
  <ele>291.260254</ele>
  <time>2011-10-18T05:09:48Z</time>
  <speed>4.050000</speed>
</trkpt>
<trkpt lat="32.584461212" lon="35.132091522">
  <ele>291.369629</ele>
  <time>2011-10-18T05:09:49Z</time>
  <speed>3.910000</speed>
</trkpt>
<trkpt lat="32.584423065" lon="35.132083893">
  <ele>291.502441</ele>
  <time>2011-10-18T05:09:50Z</time>
  <speed>3.590000</speed>
</trkpt>
<trkpt lat="32.584392548" lon="35.132072449">
  <ele>292.330566</ele>
  <time>2011-10-18T05:09:51Z</time>
  <speed>3.760000</speed>
</trkpt>
<trkpt lat="32.584358215" lon="35.132061005">
  <ele>291.924316</ele>
  <time>2011-10-18T05:09:52Z</time>
  <speed>3.750000</speed>
</trkpt>
<trkpt lat="32.584323883" lon="35.132053375">
  <ele>292.596191</ele>
  <time>2011-10-18T05:09:53Z</time>
  <speed>3.830000</speed>
</trkpt>
<trkpt lat="32.584293365" lon="35.132049561">
  <ele>292.838379</ele>
  <time>2011-10-18T05:09:54Z</time>
  <speed>3.760000</speed>
</trkpt>
<trkpt lat="32.584262848" lon="35.132045746">
  <ele>292.760254</ele>
  <time>2011-10-18T05:09:55Z</time>
  <speed>3.840000</speed>
</trkpt>
<trkpt lat="32.584228516" lon="35.132038116">
  <ele>293.072754</ele>
  <time>2011-10-18T05:09:56Z</time>
  <speed>3.640000</speed>
</trkpt>
<trkpt lat="32.584190369" lon="35.132034302">
  <ele>292.463379</ele>
  <time>2011-10-18T05:09:57Z</time>
  <speed>3.830000</speed>
</trkpt>
<trkpt lat="32.584163666" lon="35.132030487">
  <ele>293.174316</ele>
  <time>2011-10-18T05:09:58Z</time>
  <speed>4.020000</speed>
</trkpt>
<trkpt lat="32.584129333" lon="35.132030487">
  <ele>293.354004</ele>
  <time>2011-10-18T05:09:59Z</time>
  <speed>3.750000</speed>
</trkpt>
<trkpt lat="32.584095001" lon="35.132026672">
  <ele>293.674316</ele>
  <time>2011-10-18T05:10:00Z</time>
  <speed>3.610000</speed>
</trkpt>
<trkpt lat="32.584068298" lon="35.132026672">
  <ele>294.143066</ele>
  <time>2011-10-18T05:10:01Z</time>
  <speed>3.560000</speed>
</trkpt>
<trkpt lat="32.584037781" lon="35.132026672">
  <ele>294.205566</ele>
  <time>2011-10-18T05:10:02Z</time>
  <speed>3.620000</speed>
</trkpt>
<trkpt lat="32.584003448" lon="35.132026672">
  <ele>294.025879</ele>
  <time>2011-10-18T05:10:03Z</time>
  <speed>3.570000</speed>
</trkpt>
<trkpt lat="32.583972931" lon="35.132026672">
  <ele>294.213379</ele>
  <time>2011-10-18T05:10:04Z</time>
  <speed>3.290000</speed>
</trkpt>
<trkpt lat="32.583938599" lon="35.132038116">
  <ele>294.432129</ele>
  <time>2011-10-18T05:10:05Z</time>
  <speed>3.640000</speed>
</trkpt>
<trkpt lat="32.583908081" lon="35.132045746">
  <ele>294.447754</ele>
  <time>2011-10-18T05:10:06Z</time>
  <speed>3.550000</speed>
</trkpt>
<trkpt lat="32.583877563" lon="35.132045746">
  <ele>294.369629</ele>
  <time>2011-10-18T05:10:07Z</time>
  <speed>3.380000</speed>
</trkpt>
<trkpt lat="32.583847046" lon="35.132049561">
  <ele>294.393066</ele>
  <time>2011-10-18T05:10:08Z</time>
  <speed>3.550000</speed>
</trkpt>
<trkpt lat="32.583816528" lon="35.132057190">
  <ele>294.119629</ele>
  <time>2011-10-18T05:10:09Z</time>
  <speed>3.620000</speed>
</trkpt>
<trkpt lat="32.583782196" lon="35.132064819">
  <ele>294.760254</ele>
  <time>2011-10-18T05:10:10Z</time>
  <speed>3.460000</speed>
</trkpt>
<trkpt lat="32.583751678" lon="35.132080078">
  <ele>295.010254</ele>
  <time>2011-10-18T05:10:11Z</time>
  <speed>3.390000</speed>
</trkpt>
<trkpt lat="32.583724976" lon="35.132095337">
  <ele>294.643066</ele>
  <time>2011-10-18T05:10:12Z</time>
  <speed>3.460000</speed>
</trkpt>
<trkpt lat="32.583694458" lon="35.132102966">
  <ele>294.299316</ele>
  <time>2011-10-18T05:10:13Z</time>
  <speed>3.220000</speed>
</trkpt>
<trkpt lat="32.583667755" lon="35.132118225">
  <ele>293.971191</ele>
  <time>2011-10-18T05:10:14Z</time>
  <speed>3.360000</speed>
</trkpt>
<trkpt lat="32.583641052" lon="35.132133484">
  <ele>293.939941</ele>
  <time>2011-10-18T05:10:15Z</time>
  <speed>3.020000</speed>
</trkpt>
<trkpt lat="32.583621979" lon="35.132156372">
  <ele>295.354004</ele>
  <time>2011-10-18T05:10:16Z</time>
  <speed>2.370000</speed>
</trkpt>
<trkpt lat="32.583595276" lon="35.132198334">
  <ele>296.143066</ele>
  <time>2011-10-18T05:10:18Z</time>
  <speed>1.920000</speed>
</trkpt>
<trkpt lat="32.583580017" lon="35.132251740">
  <ele>297.158691</ele>
  <time>2011-10-18T05:10:20Z</time>
  <speed>2.480000</speed>
</trkpt>
<trkpt lat="32.583583832" lon="35.132301331">
  <ele>296.971191</ele>
  <time>2011-10-18T05:10:22Z</time>
  <speed>1.980000</speed>
</trkpt>
<trkpt lat="32.583580017" lon="35.132350922">
  <ele>297.705566</ele>
  <time>2011-10-18T05:10:24Z</time>
  <speed>2.250000</speed>
</trkpt>
<trkpt lat="32.583583832" lon="35.132408142">
  <ele>299.275879</ele>
  <time>2011-10-18T05:10:26Z</time>
  <speed>2.190000</speed>
</trkpt>
<trkpt lat="32.583576202" lon="35.132453918">
  <ele>300.549316</ele>
  <time>2011-10-18T05:10:28Z</time>
  <speed>1.960000</speed>
</trkpt>
<trkpt lat="32.583564758" lon="35.132499695">
  <ele>301.588379</ele>
  <time>2011-10-18T05:10:30Z</time>
  <speed>2.240000</speed>
</trkpt>
<trkpt lat="32.583557129" lon="35.132549286">
  <ele>302.064941</ele>
  <time>2011-10-18T05:10:32Z</time>
  <speed>2.300000</speed>
</trkpt>
<trkpt lat="32.583545685" lon="35.132591248">
  <ele>303.057129</ele>
  <time>2011-10-18T05:10:34Z</time>
  <speed>2.110000</speed>
</trkpt>
<trkpt lat="32.583530426" lon="35.132637024">
  <ele>302.510254</ele>
  <time>2011-10-18T05:10:36Z</time>
  <speed>2.140000</speed>
</trkpt>
<trkpt lat="32.583522797" lon="35.132682800">
  <ele>303.330566</ele>
  <time>2011-10-18T05:10:38Z</time>
  <speed>2.170000</speed>
</trkpt>
<trkpt lat="32.583515167" lon="35.132728577">
  <ele>303.854004</ele>
  <time>2011-10-18T05:10:40Z</time>
  <speed>2.240000</speed>
</trkpt>
<trkpt lat="32.583503723" lon="35.132774353">
  <ele>305.104004</ele>
  <time>2011-10-18T05:10:42Z</time>
  <speed>1.970000</speed>
</trkpt>
<trkpt lat="32.583507538" lon="35.132816315">
  <ele>304.314941</ele>
  <time>2011-10-18T05:10:44Z</time>
  <speed>1.870000</speed>
</trkpt>
<trkpt lat="32.583515167" lon="35.132858276">
  <ele>303.111816</ele>
  <time>2011-10-18T05:10:46Z</time>
  <speed>1.720000</speed>
</trkpt>
<trkpt lat="32.583534241" lon="35.132900238">
  <ele>303.439941</ele>
  <time>2011-10-18T05:10:48Z</time>
  <speed>1.680000</speed>
</trkpt>
<trkpt lat="32.583557129" lon="35.132930756">
  <ele>305.002441</ele>
  <time>2011-10-18T05:10:50Z</time>
  <speed>2.060000</speed>
</trkpt>
<trkpt lat="32.583591461" lon="35.132953644">
  <ele>304.838379</ele>
  <time>2011-10-18T05:10:52Z</time>
  <speed>2.000000</speed>
</trkpt>
<trkpt lat="32.583625793" lon="35.132968903">
  <ele>304.604004</ele>
  <time>2011-10-18T05:10:54Z</time>
  <speed>2.120000</speed>
</trkpt>
<trkpt lat="32.583660126" lon="35.132984161">
  <ele>304.049316</ele>
  <time>2011-10-18T05:10:56Z</time>
  <speed>2.140000</speed>
</trkpt>
<trkpt lat="32.583694458" lon="35.133007050">
  <ele>302.752441</ele>
  <time>2011-10-18T05:10:58Z</time>
  <speed>2.040000</speed>
</trkpt>
<trkpt lat="32.583721161" lon="35.133033752">
  <ele>302.830566</ele>
  <time>2011-10-18T05:11:00Z</time>
  <speed>1.790000</speed>
</trkpt>
<trkpt lat="32.583747864" lon="35.133056641">
  <ele>303.088379</ele>
  <time>2011-10-18T05:11:02Z</time>
  <speed>1.860000</speed>
</trkpt>
<trkpt lat="32.583774567" lon="35.133083344">
  <ele>303.525879</ele>
  <time>2011-10-18T05:11:04Z</time>
  <speed>2.520000</speed>
</trkpt>
<trkpt lat="32.583801270" lon="35.133106232">
  <ele>303.666504</ele>
  <time>2011-10-18T05:11:06Z</time>
  <speed>2.240000</speed>
</trkpt>
<trkpt lat="32.583839417" lon="35.133136749">
  <ele>303.971191</ele>
  <time>2011-10-18T05:11:08Z</time>
  <speed>2.360000</speed>
</trkpt>
<trkpt lat="32.583877563" lon="35.133163452">
  <ele>303.838379</ele>
  <time>2011-10-18T05:11:10Z</time>
  <speed>2.320000</speed>
</trkpt>
<trkpt lat="32.583908081" lon="35.133171082">
  <ele>303.885254</ele>
  <time>2011-10-18T05:11:11Z</time>
  <speed>2.390000</speed>
</trkpt>
<trkpt lat="32.583938599" lon="35.133205414">
  <ele>304.502441</ele>
  <time>2011-10-18T05:11:13Z</time>
  <speed>2.270000</speed>
</trkpt>
<trkpt lat="32.583965302" lon="35.133247375">
  <ele>305.854004</ele>
  <time>2011-10-18T05:11:15Z</time>
  <speed>2.520000</speed>
</trkpt>
<trkpt lat="32.583988190" lon="35.133293152">
  <ele>306.775879</ele>
  <time>2011-10-18T05:11:17Z</time>
  <speed>2.490000</speed>
</trkpt>
<trkpt lat="32.584014893" lon="35.133338928">
  <ele>306.713379</ele>
  <time>2011-10-18T05:11:19Z</time>
  <speed>2.630000</speed>
</trkpt>
<trkpt lat="32.584033966" lon="35.133384705">
  <ele>306.908691</ele>
  <time>2011-10-18T05:11:21Z</time>
  <speed>2.280000</speed>
</trkpt>
<trkpt lat="32.584049225" lon="35.133430481">
  <ele>306.307129</ele>
  <time>2011-10-18T05:11:23Z</time>
  <speed>1.990000</speed>
</trkpt>
<trkpt lat="32.584072113" lon="35.133476257">
  <ele>306.205566</ele>
  <time>2011-10-18T05:11:25Z</time>
  <speed>2.600000</speed>
</trkpt>
<trkpt lat="32.584091187" lon="35.133518219">
  <ele>306.408691</ele>
  <time>2011-10-18T05:11:27Z</time>
  <speed>2.330000</speed>
</trkpt>
<trkpt lat="32.584106445" lon="35.133567810">
  <ele>307.182129</ele>
  <time>2011-10-18T05:11:29Z</time>
  <speed>2.320000</speed>
</trkpt>
<trkpt lat="32.584106445" lon="35.133613586">
  <ele>307.557129</ele>
  <time>2011-10-18T05:11:31Z</time>
  <speed>2.250000</speed>
</trkpt>
<trkpt lat="32.584110260" lon="35.133659363">
  <ele>307.494629</ele>
  <time>2011-10-18T05:11:33Z</time>
  <speed>2.480000</speed>
</trkpt>
<trkpt lat="32.584098816" lon="35.133701324">
  <ele>306.885254</ele>
  <time>2011-10-18T05:11:35Z</time>
  <speed>1.650000</speed>
</trkpt>
<trkpt lat="32.584068298" lon="35.133716583">
  <ele>307.635254</ele>
  <time>2011-10-18T05:11:37Z</time>
  <speed>2.170000</speed>
</trkpt>
<trkpt lat="32.584030151" lon="35.133743286">
  <ele>308.533691</ele>
  <time>2011-10-18T05:11:39Z</time>
  <speed>2.070000</speed>
</trkpt>
<trkpt lat="32.584003448" lon="35.133762360">
  <ele>307.385254</ele>
  <time>2011-10-18T05:11:41Z</time>
  <speed>1.530000</speed>
</trkpt>
<trkpt lat="32.583972931" lon="35.133773804">
  <ele>307.963379</ele>
  <time>2011-10-18T05:11:43Z</time>
  <speed>1.610000</speed>
</trkpt>
<trkpt lat="32.583946228" lon="35.133785248">
  <ele>308.729004</ele>
  <time>2011-10-18T05:11:45Z</time>
  <speed>1.500000</speed>
</trkpt>
<trkpt lat="32.583915710" lon="35.133789063">
  <ele>309.025879</ele>
  <time>2011-10-18T05:11:47Z</time>
  <speed>1.820000</speed>
</trkpt>
<trkpt lat="32.583889008" lon="35.133808136">
  <ele>309.361816</ele>
  <time>2011-10-18T05:11:49Z</time>
  <speed>1.840000</speed>
</trkpt>
<trkpt lat="32.583866119" lon="35.133831024">
  <ele>310.197754</ele>
  <time>2011-10-18T05:11:51Z</time>
  <speed>1.310000</speed>
</trkpt>
<trkpt lat="32.583835602" lon="35.133827209">
  <ele>310.838379</ele>
  <time>2011-10-18T05:11:54Z</time>
  <speed>1.000000</speed>
</trkpt>
<trkpt lat="32.583827972" lon="35.133842468">
  <ele>313.338379</ele>
  <time>2011-10-18T05:11:59Z</time>
  <speed>0.080000</speed>
</trkpt>
<trkpt lat="32.583854675" lon="35.133819580">
  <ele>313.244629</ele>
  <time>2011-10-18T05:15:40Z</time>
  <speed>1.660000</speed>
</trkpt>
<trkpt lat="32.583877563" lon="35.133804321">
  <ele>312.775879</ele>
  <time>2011-10-18T05:15:41Z</time>
  <speed>3.420000</speed>
</trkpt>
<trkpt lat="32.583915710" lon="35.133785248">
  <ele>312.439941</ele>
  <time>2011-10-18T05:15:42Z</time>
  <speed>4.740000</speed>
</trkpt>
<trkpt lat="32.583965302" lon="35.133758545">
  <ele>312.494629</ele>
  <time>2011-10-18T05:15:43Z</time>
  <speed>5.550000</speed>
</trkpt>
<trkpt lat="32.584014893" lon="35.133724213">
  <ele>312.189941</ele>
  <time>2011-10-18T05:15:44Z</time>
  <speed>5.980000</speed>
</trkpt>
<trkpt lat="32.584068298" lon="35.133686066">
  <ele>311.604004</ele>
  <time>2011-10-18T05:15:45Z</time>
  <speed>6.910000</speed>
</trkpt>
<trkpt lat="32.584133148" lon="35.133647919">
  <ele>311.182129</ele>
  <time>2011-10-18T05:15:46Z</time>
  <speed>7.390000</speed>
</trkpt>
<trkpt lat="32.584201813" lon="35.133617401">
  <ele>310.260254</ele>
  <time>2011-10-18T05:15:47Z</time>
  <speed>7.340000</speed>
</trkpt>
<trkpt lat="32.584270477" lon="35.133579254">
  <ele>309.236816</ele>
  <time>2011-10-18T05:15:48Z</time>
  <speed>7.910000</speed>
</trkpt>
<trkpt lat="32.584350586" lon="35.133548737">
  <ele>308.072754</ele>
  <time>2011-10-18T05:15:49Z</time>
  <speed>7.840000</speed>
</trkpt>
<trkpt lat="32.584419250" lon="35.133510590">
  <ele>307.010254</ele>
  <time>2011-10-18T05:15:50Z</time>
  <speed>8.320000</speed>
</trkpt>
<trkpt lat="32.584491730" lon="35.133468628">
  <ele>306.119629</ele>
  <time>2011-10-18T05:15:51Z</time>
  <speed>8.550000</speed>
</trkpt>
<trkpt lat="32.584564209" lon="35.133426666">
  <ele>305.635254</ele>
  <time>2011-10-18T05:15:52Z</time>
  <speed>8.990000</speed>
</trkpt>
<trkpt lat="32.584632874" lon="35.133373260">
  <ele>305.330566</ele>
  <time>2011-10-18T05:15:53Z</time>
  <speed>8.850000</speed>
</trkpt>
<trkpt lat="32.584701538" lon="35.133319855">
  <ele>304.893066</ele>
  <time>2011-10-18T05:15:54Z</time>
  <speed>8.850000</speed>
</trkpt>
<trkpt lat="32.584777832" lon="35.133274078">
  <ele>304.822754</ele>
  <time>2011-10-18T05:15:55Z</time>
  <speed>9.160000</speed>
</trkpt>
<trkpt lat="32.584854126" lon="35.133228302">
  <ele>303.916504</ele>
  <time>2011-10-18T05:15:56Z</time>
  <speed>9.450000</speed>
</trkpt>
<trkpt lat="32.584930420" lon="35.133182526">
  <ele>303.385254</ele>
  <time>2011-10-18T05:15:57Z</time>
  <speed>9.340000</speed>
</trkpt>
<trkpt lat="32.585006714" lon="35.133132935">
  <ele>303.432129</ele>
  <time>2011-10-18T05:15:58Z</time>
  <speed>9.370000</speed>
</trkpt>
<trkpt lat="32.585071564" lon="35.133075714">
  <ele>301.963379</ele>
  <time>2011-10-18T05:15:59Z</time>
  <speed>9.150000</speed>
</trkpt>
<trkpt lat="32.585136414" lon="35.133022308">
  <ele>300.893066</ele>
  <time>2011-10-18T05:16:00Z</time>
  <speed>8.000000</speed>
</trkpt>
<trkpt lat="32.585189819" lon="35.132961273">
  <ele>301.916504</ele>
  <time>2011-10-18T05:16:01Z</time>
  <speed>7.600000</speed>
</trkpt>
<trkpt lat="32.585239410" lon="35.132900238">
  <ele>301.135254</ele>
  <time>2011-10-18T05:16:02Z</time>
  <speed>7.850000</speed>
</trkpt>
<trkpt lat="32.585304260" lon="35.132850647">
  <ele>298.369629</ele>
  <time>2011-10-18T05:16:03Z</time>
  <speed>8.450000</speed>
</trkpt>
<trkpt lat="32.585369110" lon="35.132812500">
  <ele>297.244629</ele>
  <time>2011-10-18T05:16:04Z</time>
  <speed>8.580000</speed>
</trkpt>
<trkpt lat="32.585437775" lon="35.132759094">
  <ele>296.088379</ele>
  <time>2011-10-18T05:16:05Z</time>
  <speed>8.510000</speed>
</trkpt>
<trkpt lat="32.585502625" lon="35.132713318">
  <ele>294.635254</ele>
  <time>2011-10-18T05:16:06Z</time>
  <speed>8.700000</speed>
</trkpt>
<trkpt lat="32.585571289" lon="35.132667542">
  <ele>294.010254</ele>
  <time>2011-10-18T05:16:07Z</time>
  <speed>8.780000</speed>
</trkpt>
<trkpt lat="32.585643768" lon="35.132621765">
  <ele>293.361816</ele>
  <time>2011-10-18T05:16:08Z</time>
  <speed>7.930000</speed>
</trkpt>
<trkpt lat="32.585708618" lon="35.132591248">
  <ele>293.275879</ele>
  <time>2011-10-18T05:16:09Z</time>
  <speed>8.060000</speed>
</trkpt>
<trkpt lat="32.585773468" lon="35.132553101">
  <ele>292.822754</ele>
  <time>2011-10-18T05:16:10Z</time>
  <speed>7.920000</speed>
</trkpt>
<trkpt lat="32.585834503" lon="35.132503510">
  <ele>292.385254</ele>
  <time>2011-10-18T05:16:11Z</time>
  <speed>8.330000</speed>
</trkpt>
<trkpt lat="32.585884094" lon="35.132442474">
  <ele>291.830566</ele>
  <time>2011-10-18T05:16:12Z</time>
  <speed>8.230000</speed>
</trkpt>
<trkpt lat="32.585945129" lon="35.132389069">
  <ele>291.697754</ele>
  <time>2011-10-18T05:16:13Z</time>
  <speed>8.550000</speed>
</trkpt>
<trkpt lat="32.586002350" lon="35.132335663">
  <ele>290.971191</ele>
  <time>2011-10-18T05:16:14Z</time>
  <speed>8.190000</speed>
</trkpt>
<trkpt lat="32.586059570" lon="35.132286072">
  <ele>290.510254</ele>
  <time>2011-10-18T05:16:15Z</time>
  <speed>7.770000</speed>
</trkpt>
<trkpt lat="32.586116791" lon="35.132247925">
  <ele>290.236816</ele>
  <time>2011-10-18T05:16:16Z</time>
  <speed>6.890000</speed>
</trkpt>
<trkpt lat="32.586177826" lon="35.132221222">
  <ele>289.893066</ele>
  <time>2011-10-18T05:16:17Z</time>
  <speed>7.340000</speed>
</trkpt>
<trkpt lat="32.586238861" lon="35.132194519">
  <ele>288.760254</ele>
  <time>2011-10-18T05:16:18Z</time>
  <speed>7.730000</speed>
</trkpt>
<trkpt lat="32.586303711" lon="35.132171631">
  <ele>287.408691</ele>
  <time>2011-10-18T05:16:19Z</time>
  <speed>7.860000</speed>
</trkpt>
<trkpt lat="32.586353302" lon="35.132160187">
  <ele>287.775879</ele>
  <time>2011-10-18T05:16:20Z</time>
  <speed>4.060000</speed>
</trkpt>
<trkpt lat="32.586380005" lon="35.132171631">
  <ele>287.033691</ele>
  <time>2011-10-18T05:16:21Z</time>
  <speed>2.270000</speed>
</trkpt>
<trkpt lat="32.586383820" lon="35.132202148">
  <ele>287.658691</ele>
  <time>2011-10-18T05:16:26Z</time>
  <speed>0.080000</speed>
</trkpt>
<trkpt lat="32.586387634" lon="35.132232666">
  <ele>288.439941</ele>
  <time>2011-10-18T05:16:50Z</time>
  <speed>0.010000</speed>
</trkpt>
<trkpt lat="32.586399078" lon="35.132247925">
  <ele>285.924316</ele>
  <time>2011-10-18T05:16:55Z</time>
  <speed>0.010000</speed>
</trkpt>
<trkpt lat="32.586410522" lon="35.132255554">
  <ele>283.166504</ele>
  <time>2011-10-18T05:17:02Z</time>
  <speed>1.590000</speed>
</trkpt>
<trkpt lat="32.586425781" lon="35.132282257">
  <ele>282.557129</ele>
  <time>2011-10-18T05:17:06Z</time>
  <speed>0.330000</speed>
</trkpt>
<trkpt lat="32.586452484" lon="35.132293701">
  <ele>282.041504</ele>
  <time>2011-10-18T05:17:16Z</time>
  <speed>2.150000</speed>
</trkpt>
<trkpt lat="32.586509705" lon="35.132301331">
  <ele>282.057129</ele>
  <time>2011-10-18T05:17:18Z</time>
  <speed>3.090000</speed>
</trkpt>
<trkpt lat="32.586540222" lon="35.132301331">
  <ele>282.291504</ele>
  <time>2011-10-18T05:17:19Z</time>
  <speed>3.750000</speed>
</trkpt>
<trkpt lat="32.586582184" lon="35.132297516">
  <ele>282.119629</ele>
  <time>2011-10-18T05:17:20Z</time>
  <speed>5.140000</speed>
</trkpt>
<trkpt lat="32.586635590" lon="35.132305145">
  <ele>281.385254</ele>
  <time>2011-10-18T05:17:21Z</time>
  <speed>6.410000</speed>
</trkpt>
<trkpt lat="32.586704254" lon="35.132312775">
  <ele>280.682129</ele>
  <time>2011-10-18T05:17:22Z</time>
  <speed>7.560000</speed>
</trkpt>
<trkpt lat="32.586776733" lon="35.132324219">
  <ele>279.885254</ele>
  <time>2011-10-18T05:17:23Z</time>
  <speed>8.160000</speed>
</trkpt>
<trkpt lat="32.586856842" lon="35.132339478">
  <ele>279.213379</ele>
  <time>2011-10-18T05:17:24Z</time>
  <speed>8.880000</speed>
</trkpt>
<trkpt lat="32.586940765" lon="35.132362366">
  <ele>278.689941</ele>
  <time>2011-10-18T05:17:25Z</time>
  <speed>9.350000</speed>
</trkpt>
<trkpt lat="32.587020874" lon="35.132381439">
  <ele>278.166504</ele>
  <time>2011-10-18T05:17:26Z</time>
  <speed>9.260000</speed>
</trkpt>
<trkpt lat="32.587112427" lon="35.132408142">
  <ele>277.471191</ele>
  <time>2011-10-18T05:17:27Z</time>
  <speed>9.580000</speed>
</trkpt>
<trkpt lat="32.587200165" lon="35.132434845">
  <ele>276.924316</ele>
  <time>2011-10-18T05:17:28Z</time>
  <speed>9.699999</speed>
</trkpt>
<trkpt lat="32.587284088" lon="35.132461548">
  <ele>276.486816</ele>
  <time>2011-10-18T05:17:29Z</time>
  <speed>9.730000</speed>
</trkpt>
<trkpt lat="32.587364197" lon="35.132488251">
  <ele>276.111816</ele>
  <time>2011-10-18T05:17:30Z</time>
  <speed>8.680000</speed>
</trkpt>
<trkpt lat="32.587429047" lon="35.132511139">
  <ele>275.705566</ele>
  <time>2011-10-18T05:17:31Z</time>
  <speed>6.350000</speed>
</trkpt>
<trkpt lat="32.587482452" lon="35.132514954">
  <ele>274.775879</ele>
  <time>2011-10-18T05:17:32Z</time>
  <speed>6.080000</speed>
</trkpt>
<trkpt lat="32.587520599" lon="35.132537842">
  <ele>274.744629</ele>
  <time>2011-10-18T05:17:33Z</time>
  <speed>4.850000</speed>
</trkpt>
<trkpt lat="32.587554932" lon="35.132564545">
  <ele>273.596191</ele>
  <time>2011-10-18T05:17:34Z</time>
  <speed>4.160000</speed>
</trkpt>
<trkpt lat="32.587585449" lon="35.132595062">
  <ele>272.627441</ele>
  <time>2011-10-18T05:17:35Z</time>
  <speed>3.670000</speed>
</trkpt>
<trkpt lat="32.587604523" lon="35.132629395">
  <ele>272.471191</ele>
  <time>2011-10-18T05:17:36Z</time>
  <speed>3.110000</speed>
</trkpt>
<trkpt lat="32.587631226" lon="35.132686615">
  <ele>272.689941</ele>
  <time>2011-10-18T05:17:38Z</time>
  <speed>3.320000</speed>
</trkpt>
<trkpt lat="32.587650299" lon="35.132717133">
  <ele>272.354004</ele>
  <time>2011-10-18T05:17:39Z</time>
  <speed>3.780000</speed>
</trkpt>
<trkpt lat="32.587680817" lon="35.132747650">
  <ele>272.135254</ele>
  <time>2011-10-18T05:17:40Z</time>
  <speed>4.820000</speed>
</trkpt>
<trkpt lat="32.587715149" lon="35.132785797">
  <ele>271.971191</ele>
  <time>2011-10-18T05:17:41Z</time>
  <speed>5.170000</speed>
</trkpt>
<trkpt lat="32.587749481" lon="35.132827759">
  <ele>272.104004</ele>
  <time>2011-10-18T05:17:42Z</time>
  <speed>5.720000</speed>
</trkpt>
<trkpt lat="32.587791443" lon="35.132877350">
  <ele>271.736816</ele>
  <time>2011-10-18T05:17:43Z</time>
  <speed>6.000000</speed>
</trkpt>
<trkpt lat="32.587829590" lon="35.132923126">
  <ele>271.682129</ele>
  <time>2011-10-18T05:17:44Z</time>
  <speed>5.940000</speed>
</trkpt>
<trkpt lat="32.587860107" lon="35.132972717">
  <ele>272.158691</ele>
  <time>2011-10-18T05:17:45Z</time>
  <speed>6.060000</speed>
</trkpt>
<trkpt lat="32.587902069" lon="35.133033752">
  <ele>271.346191</ele>
  <time>2011-10-18T05:17:46Z</time>
  <speed>6.340000</speed>
</trkpt>
<trkpt lat="32.587917328" lon="35.133090973">
  <ele>271.689941</ele>
  <time>2011-10-18T05:17:47Z</time>
  <speed>4.050000</speed>
</trkpt>
<trkpt lat="32.587944031" lon="35.133125305">
  <ele>272.479004</ele>
  <time>2011-10-18T05:17:48Z</time>
  <speed>4.000000</speed>
</trkpt>
<trkpt lat="32.587959290" lon="35.133171082">
  <ele>272.932129</ele>
  <time>2011-10-18T05:17:49Z</time>
  <speed>4.560000</speed>
</trkpt>
<trkpt lat="32.587970734" lon="35.133224487">
  <ele>273.510254</ele>
  <time>2011-10-18T05:17:50Z</time>
  <speed>4.760000</speed>
</trkpt>
<trkpt lat="32.587989807" lon="35.133281708">
  <ele>274.150879</ele>
  <time>2011-10-18T05:17:51Z</time>
  <speed>5.170000</speed>
</trkpt>
<trkpt lat="32.587997437" lon="35.133335114">
  <ele>274.354004</ele>
  <time>2011-10-18T05:17:52Z</time>
  <speed>5.210000</speed>
</trkpt>
<trkpt lat="32.588008881" lon="35.133384705">
  <ele>274.354004</ele>
  <time>2011-10-18T05:17:53Z</time>
  <speed>4.280000</speed>
</trkpt>
<trkpt lat="32.588016510" lon="35.133430481">
  <ele>274.244629</ele>
  <time>2011-10-18T05:17:54Z</time>
  <speed>4.020000</speed>
</trkpt>
<trkpt lat="32.588027954" lon="35.133472443">
  <ele>274.791504</ele>
  <time>2011-10-18T05:17:55Z</time>
  <speed>3.750000</speed>
</trkpt>
<trkpt lat="32.588039398" lon="35.133514404">
  <ele>275.096191</ele>
  <time>2011-10-18T05:17:56Z</time>
  <speed>3.790000</speed>
</trkpt>
<trkpt lat="32.588050842" lon="35.133552551">
  <ele>275.189941</ele>
  <time>2011-10-18T05:17:57Z</time>
  <speed>3.890000</speed>
</trkpt>
<trkpt lat="32.588066101" lon="35.133590698">
  <ele>275.908691</ele>
  <time>2011-10-18T05:17:58Z</time>
  <speed>4.040000</speed>
</trkpt>
<trkpt lat="32.588096619" lon="35.133625031">
  <ele>275.822754</ele>
  <time>2011-10-18T05:17:59Z</time>
  <speed>3.960000</speed>
</trkpt>
<trkpt lat="32.588111877" lon="35.133663177">
  <ele>275.885254</ele>
  <time>2011-10-18T05:18:00Z</time>
  <speed>3.580000</speed>
</trkpt>
<trkpt lat="32.588127136" lon="35.133701324">
  <ele>276.158691</ele>
  <time>2011-10-18T05:18:01Z</time>
  <speed>3.720000</speed>
</trkpt>
<trkpt lat="32.588142395" lon="35.133735657">
  <ele>276.580566</ele>
  <time>2011-10-18T05:18:02Z</time>
  <speed>3.390000</speed>
</trkpt>
<trkpt lat="32.588161469" lon="35.133762360">
  <ele>277.338379</ele>
  <time>2011-10-18T05:18:03Z</time>
  <speed>2.890000</speed>
</trkpt>
<trkpt lat="32.588184357" lon="35.133785248">
  <ele>278.299316</ele>
  <time>2011-10-18T05:18:04Z</time>
  <speed>2.520000</speed>
</trkpt>
<trkpt lat="32.588214874" lon="35.133827209">
  <ele>278.877441</ele>
  <time>2011-10-18T05:18:06Z</time>
  <speed>2.550000</speed>
</trkpt>
<trkpt lat="32.588230133" lon="35.133872986">
  <ele>279.096191</ele>
  <time>2011-10-18T05:18:08Z</time>
  <speed>2.200000</speed>
</trkpt>
<trkpt lat="32.588237762" lon="35.133934021">
  <ele>279.768066</ele>
  <time>2011-10-18T05:18:10Z</time>
  <speed>3.570000</speed>
</trkpt>
<trkpt lat="32.588264465" lon="35.133960724">
  <ele>279.846191</ele>
  <time>2011-10-18T05:18:11Z</time>
  <speed>3.670000</speed>
</trkpt>
<trkpt lat="32.588283539" lon="35.133995056">
  <ele>280.822754</ele>
  <time>2011-10-18T05:18:12Z</time>
  <speed>4.110000</speed>
</trkpt>
<trkpt lat="32.588298798" lon="35.134025574">
  <ele>280.455566</ele>
  <time>2011-10-18T05:18:13Z</time>
  <speed>3.040000</speed>
</trkpt>
<trkpt lat="32.588302612" lon="35.134059906">
  <ele>279.947754</ele>
  <time>2011-10-18T05:18:14Z</time>
  <speed>3.120000</speed>
</trkpt>
<trkpt lat="32.588310242" lon="35.134094238">
  <ele>280.135254</ele>
  <time>2011-10-18T05:18:15Z</time>
  <speed>3.820000</speed>
</trkpt>
<trkpt lat="32.588329315" lon="35.134136200">
  <ele>280.088379</ele>
  <time>2011-10-18T05:18:16Z</time>
  <speed>4.060000</speed>
</trkpt>
<trkpt lat="32.588356018" lon="35.134178162">
  <ele>279.564941</ele>
  <time>2011-10-18T05:18:17Z</time>
  <speed>4.050000</speed>
</trkpt>
<trkpt lat="32.588375092" lon="35.134212494">
  <ele>279.268066</ele>
  <time>2011-10-18T05:18:18Z</time>
  <speed>3.960000</speed>
</trkpt>
<trkpt lat="32.588390350" lon="35.134250641">
  <ele>279.010254</ele>
  <time>2011-10-18T05:18:19Z</time>
  <speed>4.030000</speed>
</trkpt>
<trkpt lat="32.588420868" lon="35.134292603">
  <ele>277.939941</ele>
  <time>2011-10-18T05:18:20Z</time>
  <speed>4.220000</speed>
</trkpt>
<trkpt lat="32.588447571" lon="35.134330750">
  <ele>278.260254</ele>
  <time>2011-10-18T05:18:21Z</time>
  <speed>4.420000</speed>
</trkpt>
<trkpt lat="32.588470459" lon="35.134368896">
  <ele>278.088379</ele>
  <time>2011-10-18T05:18:22Z</time>
  <speed>4.500000</speed>
</trkpt>
<trkpt lat="32.588497162" lon="35.134407043">
  <ele>277.611816</ele>
  <time>2011-10-18T05:18:23Z</time>
  <speed>4.640000</speed>
</trkpt>
<trkpt lat="32.588523865" lon="35.134449005">
  <ele>277.416504</ele>
  <time>2011-10-18T05:18:24Z</time>
  <speed>4.930000</speed>
</trkpt>
<trkpt lat="32.588546753" lon="35.134490967">
  <ele>277.229004</ele>
  <time>2011-10-18T05:18:25Z</time>
  <speed>5.050000</speed>
</trkpt>
<trkpt lat="32.588581085" lon="35.134529114">
  <ele>276.893066</ele>
  <time>2011-10-18T05:18:26Z</time>
  <speed>5.180000</speed>
</trkpt>
<trkpt lat="32.588619232" lon="35.134563446">
  <ele>277.572754</ele>
  <time>2011-10-18T05:18:27Z</time>
  <speed>5.030000</speed>
</trkpt>
<trkpt lat="32.588661194" lon="35.134601593">
  <ele>278.064941</ele>
  <time>2011-10-18T05:18:28Z</time>
  <speed>4.880000</speed>
</trkpt>
<trkpt lat="32.588687897" lon="35.134643555">
  <ele>278.150879</ele>
  <time>2011-10-18T05:18:29Z</time>
  <speed>4.660000</speed>
</trkpt>
<trkpt lat="32.588706970" lon="35.134685516">
  <ele>277.963379</ele>
  <time>2011-10-18T05:18:30Z</time>
  <speed>4.800000</speed>
</trkpt>
<trkpt lat="32.588722229" lon="35.134735107">
  <ele>277.416504</ele>
  <time>2011-10-18T05:18:31Z</time>
  <speed>5.130000</speed>
</trkpt>
<trkpt lat="32.588737488" lon="35.134788513">
  <ele>277.338379</ele>
  <time>2011-10-18T05:18:32Z</time>
  <speed>5.140000</speed>
</trkpt>
<trkpt lat="32.588756561" lon="35.134830475">
  <ele>277.893066</ele>
  <time>2011-10-18T05:18:33Z</time>
  <speed>4.940000</speed>
</trkpt>
<trkpt lat="32.588790894" lon="35.134868622">
  <ele>277.627441</ele>
  <time>2011-10-18T05:18:34Z</time>
  <speed>5.280000</speed>
</trkpt>
<trkpt lat="32.588821411" lon="35.134925842">
  <ele>277.518066</ele>
  <time>2011-10-18T05:18:35Z</time>
  <speed>5.980000</speed>
</trkpt>
<trkpt lat="32.588836670" lon="35.134994507">
  <ele>277.174316</ele>
  <time>2011-10-18T05:18:36Z</time>
  <speed>6.490000</speed>
</trkpt>
<trkpt lat="32.588855743" lon="35.135066986">
  <ele>276.408691</ele>
  <time>2011-10-18T05:18:37Z</time>
  <speed>6.530000</speed>
</trkpt>
<trkpt lat="32.588878632" lon="35.135131836">
  <ele>276.057129</ele>
  <time>2011-10-18T05:18:38Z</time>
  <speed>6.870000</speed>
</trkpt>
<trkpt lat="32.588905334" lon="35.135200500">
  <ele>275.354004</ele>
  <time>2011-10-18T05:18:39Z</time>
  <speed>6.950000</speed>
</trkpt>
<trkpt lat="32.588939667" lon="35.135250092">
  <ele>275.182129</ele>
  <time>2011-10-18T05:18:40Z</time>
  <speed>6.160000</speed>
</trkpt>
<trkpt lat="32.588981628" lon="35.135292053">
  <ele>274.822754</ele>
  <time>2011-10-18T05:18:41Z</time>
  <speed>6.220000</speed>
</trkpt>
<trkpt lat="32.589004517" lon="35.135353088">
  <ele>275.057129</ele>
  <time>2011-10-18T05:18:42Z</time>
  <speed>6.210000</speed>
</trkpt>
<trkpt lat="32.589008331" lon="35.135433197">
  <ele>275.572754</ele>
  <time>2011-10-18T05:18:43Z</time>
  <speed>6.960000</speed>
</trkpt>
<trkpt lat="32.589027405" lon="35.135490417">
  <ele>275.846191</ele>
  <time>2011-10-18T05:18:44Z</time>
  <speed>6.510000</speed>
</trkpt>
<trkpt lat="32.589057922" lon="35.135555267">
  <ele>275.846191</ele>
  <time>2011-10-18T05:18:45Z</time>
  <speed>6.080000</speed>
</trkpt>
<trkpt lat="32.589076996" lon="35.135612488">
  <ele>276.072754</ele>
  <time>2011-10-18T05:18:46Z</time>
  <speed>6.240000</speed>
</trkpt>
<trkpt lat="32.589099884" lon="35.135681152">
  <ele>276.213379</ele>
  <time>2011-10-18T05:18:47Z</time>
  <speed>6.610000</speed>
</trkpt>
<trkpt lat="32.589122772" lon="35.135749817">
  <ele>275.955566</ele>
  <time>2011-10-18T05:18:48Z</time>
  <speed>6.550000</speed>
</trkpt>
<trkpt lat="32.589138031" lon="35.135814667">
  <ele>276.104004</ele>
  <time>2011-10-18T05:18:49Z</time>
  <speed>6.340000</speed>
</trkpt>
<trkpt lat="32.589160919" lon="35.135879517">
  <ele>276.064941</ele>
  <time>2011-10-18T05:18:50Z</time>
  <speed>6.660000</speed>
</trkpt>
<trkpt lat="32.589195251" lon="35.135936737">
  <ele>274.877441</ele>
  <time>2011-10-18T05:18:51Z</time>
  <speed>6.920000</speed>
</trkpt>
<trkpt lat="32.589214325" lon="35.135997772">
  <ele>274.080566</ele>
  <time>2011-10-18T05:18:52Z</time>
  <speed>6.570000</speed>
</trkpt>
<trkpt lat="32.589237213" lon="35.136066437">
  <ele>272.557129</ele>
  <time>2011-10-18T05:18:53Z</time>
  <speed>6.840000</speed>
</trkpt>
<trkpt lat="32.589233398" lon="35.136142731">
  <ele>272.377441</ele>
  <time>2011-10-18T05:18:54Z</time>
  <speed>7.560000</speed>
</trkpt>
<trkpt lat="32.589237213" lon="35.136234283">
  <ele>272.322754</ele>
  <time>2011-10-18T05:18:55Z</time>
  <speed>7.740000</speed>
</trkpt>
<trkpt lat="32.589263916" lon="35.136310577">
  <ele>271.791504</ele>
  <time>2011-10-18T05:18:56Z</time>
  <speed>7.610000</speed>
</trkpt>
<trkpt lat="32.589298248" lon="35.136367798">
  <ele>271.447754</ele>
  <time>2011-10-18T05:18:57Z</time>
  <speed>5.260000</speed>
</trkpt>
<trkpt lat="32.589332581" lon="35.136398315">
  <ele>269.588379</ele>
  <time>2011-10-18T05:18:58Z</time>
  <speed>5.200000</speed>
</trkpt>
<trkpt lat="32.589370728" lon="35.136440277">
  <ele>269.174316</ele>
  <time>2011-10-18T05:18:59Z</time>
  <speed>5.710000</speed>
</trkpt>
<trkpt lat="32.589408875" lon="35.136486053">
  <ele>268.158691</ele>
  <time>2011-10-18T05:19:00Z</time>
  <speed>6.680000</speed>
</trkpt>
<trkpt lat="32.589454651" lon="35.136535645">
  <ele>267.861816</ele>
  <time>2011-10-18T05:19:01Z</time>
  <speed>6.330000</speed>
</trkpt>
<trkpt lat="32.589496613" lon="35.136581421">
  <ele>268.244629</ele>
  <time>2011-10-18T05:19:02Z</time>
  <speed>6.290000</speed>
</trkpt>
<trkpt lat="32.589534760" lon="35.136627197">
  <ele>267.846191</ele>
  <time>2011-10-18T05:19:03Z</time>
  <speed>6.180000</speed>
</trkpt>
<trkpt lat="32.589561462" lon="35.136680603">
  <ele>267.768066</ele>
  <time>2011-10-18T05:19:04Z</time>
  <speed>6.230000</speed>
</trkpt>
<trkpt lat="32.589584351" lon="35.136745453">
  <ele>267.674316</ele>
  <time>2011-10-18T05:19:05Z</time>
  <speed>6.440000</speed>
</trkpt>
<trkpt lat="32.589618683" lon="35.136802673">
  <ele>266.377441</ele>
  <time>2011-10-18T05:19:06Z</time>
  <speed>5.890000</speed>
</trkpt>
<trkpt lat="32.589664459" lon="35.136848450">
  <ele>265.783691</ele>
  <time>2011-10-18T05:19:07Z</time>
  <speed>6.620000</speed>
</trkpt>
<trkpt lat="32.589702606" lon="35.136901855">
  <ele>265.283691</ele>
  <time>2011-10-18T05:19:08Z</time>
  <speed>6.470000</speed>
</trkpt>
<trkpt lat="32.589744568" lon="35.136951447">
  <ele>264.236816</ele>
  <time>2011-10-18T05:19:09Z</time>
  <speed>6.550000</speed>
</trkpt>
<trkpt lat="32.589801788" lon="35.136993408">
  <ele>263.885254</ele>
  <time>2011-10-18T05:19:10Z</time>
  <speed>6.480000</speed>
</trkpt>
<trkpt lat="32.589859009" lon="35.137031555">
  <ele>262.260254</ele>
  <time>2011-10-18T05:19:11Z</time>
  <speed>6.470000</speed>
</trkpt>
<trkpt lat="32.589904785" lon="35.137077332">
  <ele>262.400879</ele>
  <time>2011-10-18T05:19:12Z</time>
  <speed>6.590000</speed>
</trkpt>
<trkpt lat="32.589946747" lon="35.137126923">
  <ele>261.955566</ele>
  <time>2011-10-18T05:19:13Z</time>
  <speed>6.990000</speed>
</trkpt>
<trkpt lat="32.589988708" lon="35.137168884">
  <ele>260.736816</ele>
  <time>2011-10-18T05:19:14Z</time>
  <speed>4.130000</speed>
</trkpt>
<trkpt lat="32.590030670" lon="35.137180328">
  <ele>261.486816</ele>
  <time>2011-10-18T05:19:15Z</time>
  <speed>5.270000</speed>
</trkpt>
<trkpt lat="32.590076447" lon="35.137176514">
  <ele>260.400879</ele>
  <time>2011-10-18T05:19:16Z</time>
  <speed>4.790000</speed>
</trkpt>
<trkpt lat="32.590126038" lon="35.137184143">
  <ele>258.330566</ele>
  <time>2011-10-18T05:19:17Z</time>
  <speed>5.600000</speed>
</trkpt>
<trkpt lat="32.590187073" lon="35.137191772">
  <ele>257.393066</ele>
  <time>2011-10-18T05:19:18Z</time>
  <speed>7.040000</speed>
</trkpt>
<trkpt lat="32.590251923" lon="35.137199402">
  <ele>256.424316</ele>
  <time>2011-10-18T05:19:19Z</time>
  <speed>7.030000</speed>
</trkpt>
<trkpt lat="32.590324402" lon="35.137210846">
  <ele>255.364502</ele>
  <time>2011-10-18T05:19:20Z</time>
  <speed>7.240000</speed>
</trkpt>
<trkpt lat="32.590393066" lon="35.137222290">
  <ele>254.602783</ele>
  <time>2011-10-18T05:19:21Z</time>
  <speed>7.320000</speed>
</trkpt>
<trkpt lat="32.590457916" lon="35.137229919">
  <ele>253.844971</ele>
  <time>2011-10-18T05:19:22Z</time>
  <speed>7.810000</speed>
</trkpt>
<trkpt lat="32.590538025" lon="35.137233734">
  <ele>253.087158</ele>
  <time>2011-10-18T05:19:23Z</time>
  <speed>8.130000</speed>
</trkpt>
<trkpt lat="32.590614319" lon="35.137229919">
  <ele>251.923096</ele>
  <time>2011-10-18T05:19:24Z</time>
  <speed>8.570000</speed>
</trkpt>
<trkpt lat="32.590702057" lon="35.137222290">
  <ele>249.774658</ele>
  <time>2011-10-18T05:19:25Z</time>
  <speed>8.830000</speed>
</trkpt>
<trkpt lat="32.590774536" lon="35.137241364">
  <ele>248.755127</ele>
  <time>2011-10-18T05:19:26Z</time>
  <speed>7.040000</speed>
</trkpt>
<trkpt lat="32.590827942" lon="35.137287140">
  <ele>247.512939</ele>
  <time>2011-10-18T05:19:27Z</time>
  <speed>7.420000</speed>
</trkpt>
<trkpt lat="32.590862274" lon="35.137355804">
  <ele>245.739502</ele>
  <time>2011-10-18T05:19:28Z</time>
  <speed>6.890000</speed>
</trkpt>
<trkpt lat="32.590885162" lon="35.137428284">
  <ele>245.364502</ele>
  <time>2011-10-18T05:19:29Z</time>
  <speed>7.100000</speed>
</trkpt>
<trkpt lat="32.590908051" lon="35.137500763">
  <ele>244.559814</ele>
  <time>2011-10-18T05:19:30Z</time>
  <speed>7.030000</speed>
</trkpt>
<trkpt lat="32.590927124" lon="35.137580872">
  <ele>243.481689</ele>
  <time>2011-10-18T05:19:31Z</time>
  <speed>7.300000</speed>
</trkpt>
<trkpt lat="32.590953827" lon="35.137649536">
  <ele>242.626221</ele>
  <time>2011-10-18T05:19:32Z</time>
  <speed>6.840000</speed>
</trkpt>
<trkpt lat="32.590995789" lon="35.137706757">
  <ele>241.583252</ele>
  <time>2011-10-18T05:19:33Z</time>
  <speed>7.040000</speed>
</trkpt>
<trkpt lat="32.591049194" lon="35.137752533">
  <ele>241.091064</ele>
  <time>2011-10-18T05:19:34Z</time>
  <speed>7.100000</speed>
</trkpt>
<trkpt lat="32.591110229" lon="35.137779236">
  <ele>241.243408</ele>
  <time>2011-10-18T05:19:35Z</time>
  <speed>6.750000</speed>
</trkpt>
<trkpt lat="32.591167450" lon="35.137802124">
  <ele>240.262939</ele>
  <time>2011-10-18T05:19:36Z</time>
  <speed>6.940000</speed>
</trkpt>
<trkpt lat="32.591220856" lon="35.137832642">
  <ele>240.602783</ele>
  <time>2011-10-18T05:19:37Z</time>
  <speed>5.510000</speed>
</trkpt>
<trkpt lat="32.591259003" lon="35.137859344">
  <ele>239.981689</ele>
  <time>2011-10-18T05:19:38Z</time>
  <speed>3.560000</speed>
</trkpt>
<trkpt lat="32.591270447" lon="35.137901306">
  <ele>240.360596</ele>
  <time>2011-10-18T05:19:40Z</time>
  <speed>1.530000</speed>
</trkpt>
<trkpt lat="32.591239929" lon="35.137924194">
  <ele>239.966064</ele>
  <time>2011-10-18T05:22:54Z</time>
  <speed>2.920000</speed>
</trkpt>
<trkpt lat="32.591220856" lon="35.137958527">
  <ele>240.106689</ele>
  <time>2011-10-18T05:22:55Z</time>
  <speed>3.780000</speed>
</trkpt>
<trkpt lat="32.591201782" lon="35.138000488">
  <ele>240.196533</ele>
  <time>2011-10-18T05:22:56Z</time>
  <speed>4.260000</speed>
</trkpt>
<trkpt lat="32.591186523" lon="35.138050079">
  <ele>240.259033</ele>
  <time>2011-10-18T05:22:57Z</time>
  <speed>5.360000</speed>
</trkpt>
<trkpt lat="32.591171265" lon="35.138114929">
  <ele>239.848877</ele>
  <time>2011-10-18T05:22:58Z</time>
  <speed>6.100000</speed>
</trkpt>
<trkpt lat="32.591163635" lon="35.138179779">
  <ele>239.048096</ele>
  <time>2011-10-18T05:22:59Z</time>
  <speed>5.940000</speed>
</trkpt>
<trkpt lat="32.591159821" lon="35.138248444">
  <ele>238.118408</ele>
  <time>2011-10-18T05:23:00Z</time>
  <speed>6.500000</speed>
</trkpt>
<trkpt lat="32.591163635" lon="35.138320923">
  <ele>237.071533</ele>
  <time>2011-10-18T05:23:01Z</time>
  <speed>6.570000</speed>
</trkpt>
<trkpt lat="32.591178894" lon="35.138401031">
  <ele>237.262939</ele>
  <time>2011-10-18T05:23:02Z</time>
  <speed>6.740000</speed>
</trkpt>
<trkpt lat="32.591197968" lon="35.138481140">
  <ele>237.794189</ele>
  <time>2011-10-18T05:23:03Z</time>
  <speed>6.870000</speed>
</trkpt>
<trkpt lat="32.591220856" lon="35.138557434">
  <ele>237.317627</ele>
  <time>2011-10-18T05:23:04Z</time>
  <speed>6.880000</speed>
</trkpt>
<trkpt lat="32.591228485" lon="35.138629913">
  <ele>237.778564</ele>
  <time>2011-10-18T05:23:05Z</time>
  <speed>6.760000</speed>
</trkpt>
<trkpt lat="32.591220856" lon="35.138698578">
  <ele>236.759033</ele>
  <time>2011-10-18T05:23:06Z</time>
  <speed>6.300000</speed>
</trkpt>
<trkpt lat="32.591205597" lon="35.138763428">
  <ele>236.223877</ele>
  <time>2011-10-18T05:23:07Z</time>
  <speed>6.120000</speed>
</trkpt>
<trkpt lat="32.591201782" lon="35.138832092">
  <ele>235.977783</ele>
  <time>2011-10-18T05:23:08Z</time>
  <speed>6.300000</speed>
</trkpt>
<trkpt lat="32.591201782" lon="35.138900757">
  <ele>236.173096</ele>
  <time>2011-10-18T05:23:09Z</time>
  <speed>6.190000</speed>
</trkpt>
<trkpt lat="32.591205597" lon="35.138973236">
  <ele>235.571533</ele>
  <time>2011-10-18T05:23:10Z</time>
  <speed>6.190000</speed>
</trkpt>
<trkpt lat="32.591220856" lon="35.139034271">
  <ele>236.067627</ele>
  <time>2011-10-18T05:23:11Z</time>
  <speed>6.010000</speed>
</trkpt>
<trkpt lat="32.591247559" lon="35.139106750">
  <ele>236.317627</ele>
  <time>2011-10-18T05:23:12Z</time>
  <speed>6.220000</speed>
</trkpt>
<trkpt lat="32.591251373" lon="35.139160156">
  <ele>236.063721</ele>
  <time>2011-10-18T05:23:13Z</time>
  <speed>5.230000</speed>
</trkpt>
<trkpt lat="32.591232300" lon="35.139213562">
  <ele>236.602783</ele>
  <time>2011-10-18T05:23:14Z</time>
  <speed>5.250000</speed>
</trkpt>
<trkpt lat="32.591213226" lon="35.139266968">
  <ele>235.887939</ele>
  <time>2011-10-18T05:23:15Z</time>
  <speed>5.720000</speed>
</trkpt>
<trkpt lat="32.591201782" lon="35.139331818">
  <ele>235.419189</ele>
  <time>2011-10-18T05:23:16Z</time>
  <speed>6.080000</speed>
</trkpt>
<trkpt lat="32.591205597" lon="35.139400482">
  <ele>234.723877</ele>
  <time>2011-10-18T05:23:17Z</time>
  <speed>6.420000</speed>
</trkpt>
<trkpt lat="32.591213226" lon="35.139469147">
  <ele>233.989502</ele>
  <time>2011-10-18T05:23:18Z</time>
  <speed>6.100000</speed>
</trkpt>
<trkpt lat="32.591217041" lon="35.139526367">
  <ele>233.372314</ele>
  <time>2011-10-18T05:23:19Z</time>
  <speed>5.710000</speed>
</trkpt>
<trkpt lat="32.591220856" lon="35.139591217">
  <ele>233.407471</ele>
  <time>2011-10-18T05:23:20Z</time>
  <speed>5.690000</speed>
</trkpt>
<trkpt lat="32.591232300" lon="35.139648438">
  <ele>232.704346</ele>
  <time>2011-10-18T05:23:21Z</time>
  <speed>5.120000</speed>
</trkpt>
<trkpt lat="32.591239929" lon="35.139705658">
  <ele>232.083252</ele>
  <time>2011-10-18T05:23:22Z</time>
  <speed>5.550000</speed>
</trkpt>
<trkpt lat="32.591259003" lon="35.139770508">
  <ele>231.544189</ele>
  <time>2011-10-18T05:23:23Z</time>
  <speed>6.450000</speed>
</trkpt>
<trkpt lat="32.591266632" lon="35.139831543">
  <ele>230.305908</ele>
  <time>2011-10-18T05:23:24Z</time>
  <speed>5.660000</speed>
</trkpt>
<trkpt lat="32.591266632" lon="35.139896393">
  <ele>229.544189</ele>
  <time>2011-10-18T05:23:25Z</time>
  <speed>6.600000</speed>
</trkpt>
<trkpt lat="32.591270447" lon="35.139972687">
  <ele>227.930908</ele>
  <time>2011-10-18T05:23:26Z</time>
  <speed>7.680000</speed>
</trkpt>
<trkpt lat="32.591270447" lon="35.140068054">
  <ele>227.395752</ele>
  <time>2011-10-18T05:23:27Z</time>
  <speed>7.840000</speed>
</trkpt>
<trkpt lat="32.591281891" lon="35.140151978">
  <ele>226.344971</ele>
  <time>2011-10-18T05:23:28Z</time>
  <speed>7.590000</speed>
</trkpt>
<trkpt lat="32.591293335" lon="35.140232086">
  <ele>225.384033</ele>
  <time>2011-10-18T05:23:29Z</time>
  <speed>7.460000</speed>
</trkpt>
<trkpt lat="32.591297150" lon="35.140312195">
  <ele>224.762939</ele>
  <time>2011-10-18T05:23:30Z</time>
  <speed>7.630000</speed>
</trkpt>
<trkpt lat="32.591297150" lon="35.140392303">
  <ele>223.911377</ele>
  <time>2011-10-18T05:23:31Z</time>
  <speed>7.260000</speed>
</trkpt>
<trkpt lat="32.591285706" lon="35.140468597">
  <ele>223.067627</ele>
  <time>2011-10-18T05:23:32Z</time>
  <speed>7.290000</speed>
</trkpt>
<trkpt lat="32.591274261" lon="35.140548706">
  <ele>223.313721</ele>
  <time>2011-10-18T05:23:33Z</time>
  <speed>7.020000</speed>
</trkpt>
<trkpt lat="32.591293335" lon="35.140613556">
  <ele>223.610596</ele>
  <time>2011-10-18T05:23:34Z</time>
  <speed>5.240000</speed>
</trkpt>
<trkpt lat="32.591316223" lon="35.140659332">
  <ele>223.282471</ele>
  <time>2011-10-18T05:23:35Z</time>
  <speed>4.820000</speed>
</trkpt>
<trkpt lat="32.591331482" lon="35.140705109">
  <ele>222.692627</ele>
  <time>2011-10-18T05:23:36Z</time>
  <speed>3.490000</speed>
</trkpt>
<trkpt lat="32.591327667" lon="35.140747070">
  <ele>221.895752</ele>
  <time>2011-10-18T05:23:37Z</time>
  <speed>3.530000</speed>
</trkpt>
<trkpt lat="32.591320038" lon="35.140785217">
  <ele>222.907471</ele>
  <time>2011-10-18T05:23:38Z</time>
  <speed>4.060000</speed>
</trkpt>
<trkpt lat="32.591308594" lon="35.140834808">
  <ele>223.200439</ele>
  <time>2011-10-18T05:23:39Z</time>
  <speed>5.160000</speed>
</trkpt>
<trkpt lat="32.591300964" lon="35.140892029">
  <ele>222.770752</ele>
  <time>2011-10-18T05:23:40Z</time>
  <speed>5.670000</speed>
</trkpt>
<trkpt lat="32.591293335" lon="35.140960693">
  <ele>222.868408</ele>
  <time>2011-10-18T05:23:41Z</time>
  <speed>6.590000</speed>
</trkpt>
<trkpt lat="32.591297150" lon="35.141033173">
  <ele>222.118408</ele>
  <time>2011-10-18T05:23:42Z</time>
  <speed>6.660000</speed>
</trkpt>
<trkpt lat="32.591320038" lon="35.141109467">
  <ele>222.895752</ele>
  <time>2011-10-18T05:23:43Z</time>
  <speed>6.730000</speed>
</trkpt>
<trkpt lat="32.591358185" lon="35.141170502">
  <ele>221.973877</ele>
  <time>2011-10-18T05:23:44Z</time>
  <speed>6.710000</speed>
</trkpt>
<trkpt lat="32.591384888" lon="35.141235352">
  <ele>221.454346</ele>
  <time>2011-10-18T05:23:45Z</time>
  <speed>6.460000</speed>
</trkpt>
<trkpt lat="32.591411591" lon="35.141300201">
  <ele>221.997314</ele>
  <time>2011-10-18T05:23:46Z</time>
  <speed>6.250000</speed>
</trkpt>
<trkpt lat="32.591442108" lon="35.141361237">
  <ele>223.290283</ele>
  <time>2011-10-18T05:23:47Z</time>
  <speed>5.580000</speed>
</trkpt>
<trkpt lat="32.591468811" lon="35.141410828">
  <ele>223.848877</ele>
  <time>2011-10-18T05:23:48Z</time>
  <speed>5.330000</speed>
</trkpt>
<trkpt lat="32.591506958" lon="35.141426086">
  <ele>222.450439</ele>
  <time>2011-10-18T05:23:49Z</time>
  <speed>4.070000</speed>
</trkpt>
<trkpt lat="32.591552734" lon="35.141422272">
  <ele>222.005127</ele>
  <time>2011-10-18T05:23:50Z</time>
  <speed>4.660000</speed>
</trkpt>
<trkpt lat="32.591602325" lon="35.141429901">
  <ele>220.528564</ele>
  <time>2011-10-18T05:23:51Z</time>
  <speed>5.270000</speed>
</trkpt>
<trkpt lat="32.591648102" lon="35.141452789">
  <ele>218.548096</ele>
  <time>2011-10-18T05:23:52Z</time>
  <speed>5.260000</speed>
</trkpt>
<trkpt lat="32.591686249" lon="35.141490936">
  <ele>217.141846</ele>
  <time>2011-10-18T05:23:53Z</time>
  <speed>5.790000</speed>
</trkpt>
<trkpt lat="32.591732025" lon="35.141529083">
  <ele>216.005127</ele>
  <time>2011-10-18T05:23:54Z</time>
  <speed>6.070000</speed>
</trkpt>
<trkpt lat="32.591770172" lon="35.141567230">
  <ele>215.481689</ele>
  <time>2011-10-18T05:23:55Z</time>
  <speed>5.180000</speed>
</trkpt>
<trkpt lat="32.591796875" lon="35.141616821">
  <ele>214.075439</ele>
  <time>2011-10-18T05:23:56Z</time>
  <speed>5.430000</speed>
</trkpt>
<trkpt lat="32.591835022" lon="35.141666412">
  <ele>212.356689</ele>
  <time>2011-10-18T05:23:57Z</time>
  <speed>6.080000</speed>
</trkpt>
<trkpt lat="32.591880798" lon="35.141719818">
  <ele>211.180908</ele>
  <time>2011-10-18T05:23:58Z</time>
  <speed>6.350000</speed>
</trkpt>
<trkpt lat="32.591918945" lon="35.141773224">
  <ele>209.555908</ele>
  <time>2011-10-18T05:23:59Z</time>
  <speed>6.590000</speed>
</trkpt>
<trkpt lat="32.591941833" lon="35.141838074">
  <ele>209.200439</ele>
  <time>2011-10-18T05:24:00Z</time>
  <speed>6.470000</speed>
</trkpt>
<trkpt lat="32.591945648" lon="35.141902924">
  <ele>209.055908</ele>
  <time>2011-10-18T05:24:01Z</time>
  <speed>5.760000</speed>
</trkpt>
<trkpt lat="32.591934204" lon="35.141952515">
  <ele>209.493408</ele>
  <time>2011-10-18T05:24:02Z</time>
  <speed>4.240000</speed>
</trkpt>
<trkpt lat="32.591915131" lon="35.141998291">
  <ele>208.985596</ele>
  <time>2011-10-18T05:24:03Z</time>
  <speed>4.520000</speed>
</trkpt>
<trkpt lat="32.591899872" lon="35.142040253">
  <ele>209.052002</ele>
  <time>2011-10-18T05:24:04Z</time>
  <speed>3.950000</speed>
</trkpt>
<trkpt lat="32.591892242" lon="35.142078400">
  <ele>208.141846</ele>
  <time>2011-10-18T05:24:05Z</time>
  <speed>3.670000</speed>
</trkpt>
<trkpt lat="32.591884613" lon="35.142120361">
  <ele>206.915283</ele>
  <time>2011-10-18T05:24:06Z</time>
  <speed>3.780000</speed>
</trkpt>
<trkpt lat="32.591896057" lon="35.142158508">
  <ele>206.157471</ele>
  <time>2011-10-18T05:24:07Z</time>
  <speed>3.690000</speed>
</trkpt>
<trkpt lat="32.591915131" lon="35.142196655">
  <ele>206.235596</ele>
  <time>2011-10-18T05:24:08Z</time>
  <speed>4.330000</speed>
</trkpt>
<trkpt lat="32.591938019" lon="35.142238617">
  <ele>206.079346</ele>
  <time>2011-10-18T05:24:09Z</time>
  <speed>4.960000</speed>
</trkpt>
<trkpt lat="32.591957092" lon="35.142288208">
  <ele>204.966064</ele>
  <time>2011-10-18T05:24:10Z</time>
  <speed>5.120000</speed>
</trkpt>
<trkpt lat="32.591976166" lon="35.142341614">
  <ele>204.634033</ele>
  <time>2011-10-18T05:24:11Z</time>
  <speed>5.220000</speed>
</trkpt>
<trkpt lat="32.591999054" lon="35.142387390">
  <ele>204.727783</ele>
  <time>2011-10-18T05:24:12Z</time>
  <speed>5.290000</speed>
</trkpt>
<trkpt lat="32.592029572" lon="35.142433167">
  <ele>203.751221</ele>
  <time>2011-10-18T05:24:13Z</time>
  <speed>4.970000</speed>
</trkpt>
<trkpt lat="32.592056274" lon="35.142475128">
  <ele>203.751221</ele>
  <time>2011-10-18T05:24:14Z</time>
  <speed>5.300000</speed>
</trkpt>
<trkpt lat="32.592090607" lon="35.142528534">
  <ele>204.337158</ele>
  <time>2011-10-18T05:24:15Z</time>
  <speed>5.740000</speed>
</trkpt>
<trkpt lat="32.592121124" lon="35.142578125">
  <ele>204.153564</ele>
  <time>2011-10-18T05:24:16Z</time>
  <speed>5.680000</speed>
</trkpt>
<trkpt lat="32.592136383" lon="35.142623901">
  <ele>203.286377</ele>
  <time>2011-10-18T05:24:17Z</time>
  <speed>4.680000</speed>
</trkpt>
<trkpt lat="32.592132568" lon="35.142673492">
  <ele>202.540283</ele>
  <time>2011-10-18T05:24:18Z</time>
  <speed>4.970000</speed>
</trkpt>
<trkpt lat="32.592121124" lon="35.142730713">
  <ele>201.177002</ele>
  <time>2011-10-18T05:24:19Z</time>
  <speed>5.780000</speed>
</trkpt>
<trkpt lat="32.592117310" lon="35.142791748">
  <ele>201.489502</ele>
  <time>2011-10-18T05:24:20Z</time>
  <speed>5.670000</speed>
</trkpt>
<trkpt lat="32.592136383" lon="35.142837524">
  <ele>200.985596</ele>
  <time>2011-10-18T05:24:21Z</time>
  <speed>4.060000</speed>
</trkpt>
<trkpt lat="32.592166901" lon="35.142856598">
  <ele>199.864502</ele>
  <time>2011-10-18T05:24:22Z</time>
  <speed>3.620000</speed>
</trkpt>
<trkpt lat="32.592205048" lon="35.142868042">
  <ele>199.962158</ele>
  <time>2011-10-18T05:24:23Z</time>
  <speed>4.270000</speed>
</trkpt>
<trkpt lat="32.592247009" lon="35.142864227">
  <ele>199.477783</ele>
  <time>2011-10-18T05:24:24Z</time>
  <speed>5.190000</speed>
</trkpt>
<trkpt lat="32.592296600" lon="35.142856598">
  <ele>198.887939</ele>
  <time>2011-10-18T05:24:25Z</time>
  <speed>5.670000</speed>
</trkpt>
<trkpt lat="32.592346191" lon="35.142845154">
  <ele>198.243408</ele>
  <time>2011-10-18T05:24:26Z</time>
  <speed>5.000000</speed>
</trkpt>
<trkpt lat="32.592388153" lon="35.142822266">
  <ele>198.141846</ele>
  <time>2011-10-18T05:24:27Z</time>
  <speed>4.910000</speed>
</trkpt>
<trkpt lat="32.592437744" lon="35.142807007">
  <ele>196.966064</ele>
  <time>2011-10-18T05:24:28Z</time>
  <speed>5.170000</speed>
</trkpt>
<trkpt lat="32.592483521" lon="35.142803192">
  <ele>196.126221</ele>
  <time>2011-10-18T05:24:29Z</time>
  <speed>5.230000</speed>
</trkpt>
<trkpt lat="32.592529297" lon="35.142784119">
  <ele>196.423096</ele>
  <time>2011-10-18T05:24:30Z</time>
  <speed>5.070000</speed>
</trkpt>
<trkpt lat="32.592567444" lon="35.142749786">
  <ele>196.692627</ele>
  <time>2011-10-18T05:24:31Z</time>
  <speed>5.080000</speed>
</trkpt>
<trkpt lat="32.592601776" lon="35.142711639">
  <ele>195.794189</ele>
  <time>2011-10-18T05:24:32Z</time>
  <speed>5.290000</speed>
</trkpt>
<trkpt lat="32.592647552" lon="35.142681122">
  <ele>194.032471</ele>
  <time>2011-10-18T05:24:33Z</time>
  <speed>4.630000</speed>
</trkpt>
<trkpt lat="32.592681885" lon="35.142692566">
  <ele>193.321533</ele>
  <time>2011-10-18T05:24:34Z</time>
  <speed>4.260000</speed>
</trkpt>
<trkpt lat="32.592697144" lon="35.142730713">
  <ele>193.919189</ele>
  <time>2011-10-18T05:24:35Z</time>
  <speed>4.300000</speed>
</trkpt>
<trkpt lat="32.592697144" lon="35.142780304">
  <ele>193.372314</ele>
  <time>2011-10-18T05:24:36Z</time>
  <speed>4.540000</speed>
</trkpt>
<trkpt lat="32.592689514" lon="35.142826080">
  <ele>193.235596</ele>
  <time>2011-10-18T05:24:37Z</time>
  <speed>4.700000</speed>
</trkpt>
<trkpt lat="32.592693329" lon="35.142883301">
  <ele>194.567627</ele>
  <time>2011-10-18T05:24:38Z</time>
  <speed>4.520000</speed>
</trkpt>
<trkpt lat="32.592704773" lon="35.142932892">
  <ele>192.915283</ele>
  <time>2011-10-18T05:24:39Z</time>
  <speed>5.420000</speed>
</trkpt>
<trkpt lat="32.592727661" lon="35.142993927">
  <ele>192.391846</ele>
  <time>2011-10-18T05:24:40Z</time>
  <speed>5.740000</speed>
</trkpt>
<trkpt lat="32.592754364" lon="35.143051147">
  <ele>191.813721</ele>
  <time>2011-10-18T05:24:41Z</time>
  <speed>5.950000</speed>
</trkpt>
<trkpt lat="32.592781067" lon="35.143104553">
  <ele>192.407471</ele>
  <time>2011-10-18T05:24:42Z</time>
  <speed>5.140000</speed>
</trkpt>
<trkpt lat="32.592807770" lon="35.143135071">
  <ele>190.419189</ele>
  <time>2011-10-18T05:24:43Z</time>
  <speed>2.860000</speed>
</trkpt>
<trkpt lat="32.592830658" lon="35.143157959">
  <ele>190.376221</ele>
  <time>2011-10-18T05:24:44Z</time>
  <speed>3.080000</speed>
</trkpt>
<trkpt lat="32.592861176" lon="35.143180847">
  <ele>190.634033</ele>
  <time>2011-10-18T05:24:45Z</time>
  <speed>4.410000</speed>
</trkpt>
<trkpt lat="32.592899323" lon="35.143199921">
  <ele>190.594971</ele>
  <time>2011-10-18T05:24:46Z</time>
  <speed>5.070000</speed>
</trkpt>
<trkpt lat="32.592945099" lon="35.143222809">
  <ele>191.200439</ele>
  <time>2011-10-18T05:24:47Z</time>
  <speed>5.900000</speed>
</trkpt>
<trkpt lat="32.592994690" lon="35.143249512">
  <ele>192.020752</ele>
  <time>2011-10-18T05:24:48Z</time>
  <speed>6.330000</speed>
</trkpt>
<trkpt lat="32.593048096" lon="35.143287659">
  <ele>191.727783</ele>
  <time>2011-10-18T05:24:49Z</time>
  <speed>6.350000</speed>
</trkpt>
<trkpt lat="32.593097687" lon="35.143321991">
  <ele>191.759033</ele>
  <time>2011-10-18T05:24:50Z</time>
  <speed>5.960000</speed>
</trkpt>
<trkpt lat="32.593139648" lon="35.143352509">
  <ele>191.989502</ele>
  <time>2011-10-18T05:24:51Z</time>
  <speed>5.160000</speed>
</trkpt>
<trkpt lat="32.593181610" lon="35.143379211">
  <ele>191.536377</ele>
  <time>2011-10-18T05:24:52Z</time>
  <speed>5.350000</speed>
</trkpt>
<trkpt lat="32.593212128" lon="35.143421173">
  <ele>191.821533</ele>
  <time>2011-10-18T05:24:53Z</time>
  <speed>4.900000</speed>
</trkpt>
<trkpt lat="32.593242645" lon="35.143463135">
  <ele>191.094971</ele>
  <time>2011-10-18T05:24:54Z</time>
  <speed>5.040000</speed>
</trkpt>
<trkpt lat="32.593284607" lon="35.143493652">
  <ele>190.438721</ele>
  <time>2011-10-18T05:24:55Z</time>
  <speed>5.590000</speed>
</trkpt>
<trkpt lat="32.593334198" lon="35.143512726">
  <ele>190.126221</ele>
  <time>2011-10-18T05:24:56Z</time>
  <speed>5.400000</speed>
</trkpt>
<trkpt lat="32.593383789" lon="35.143524170">
  <ele>188.579346</ele>
  <time>2011-10-18T05:24:57Z</time>
  <speed>5.390000</speed>
</trkpt>
<trkpt lat="32.593429565" lon="35.143535614">
  <ele>188.528564</ele>
  <time>2011-10-18T05:24:58Z</time>
  <speed>5.350000</speed>
</trkpt>
<trkpt lat="32.593471527" lon="35.143562317">
  <ele>187.841064</ele>
  <time>2011-10-18T05:24:59Z</time>
  <speed>5.320000</speed>
</trkpt>
<trkpt lat="32.593509674" lon="35.143600464">
  <ele>187.208252</ele>
  <time>2011-10-18T05:25:00Z</time>
  <speed>5.490000</speed>
</trkpt>
<trkpt lat="32.593532562" lon="35.143650055">
  <ele>186.899658</ele>
  <time>2011-10-18T05:25:01Z</time>
  <speed>4.920000</speed>
</trkpt>
<trkpt lat="32.593574524" lon="35.143680573">
  <ele>185.622314</ele>
  <time>2011-10-18T05:25:02Z</time>
  <speed>5.560000</speed>
</trkpt>
<trkpt lat="32.593627930" lon="35.143703461">
  <ele>185.044189</ele>
  <time>2011-10-18T05:25:03Z</time>
  <speed>6.080000</speed>
</trkpt>
<trkpt lat="32.593677521" lon="35.143730164">
  <ele>183.899658</ele>
  <time>2011-10-18T05:25:04Z</time>
  <speed>5.240000</speed>
</trkpt>
<trkpt lat="32.593715668" lon="35.143768311">
  <ele>183.161377</ele>
  <time>2011-10-18T05:25:05Z</time>
  <speed>5.900000</speed>
</trkpt>
<trkpt lat="32.593746185" lon="35.143825531">
  <ele>183.231689</ele>
  <time>2011-10-18T05:25:06Z</time>
  <speed>5.840000</speed>
</trkpt>
<trkpt lat="32.593772888" lon="35.143882751">
  <ele>183.200439</ele>
  <time>2011-10-18T05:25:07Z</time>
  <speed>6.070000</speed>
</trkpt>
<trkpt lat="32.593807220" lon="35.143939972">
  <ele>183.665283</ele>
  <time>2011-10-18T05:25:08Z</time>
  <speed>6.350000</speed>
</trkpt>
<trkpt lat="32.593849182" lon="35.143985748">
  <ele>182.055908</ele>
  <time>2011-10-18T05:25:09Z</time>
  <speed>6.270000</speed>
</trkpt>
<trkpt lat="32.593887329" lon="35.144035339">
  <ele>181.555908</ele>
  <time>2011-10-18T05:25:10Z</time>
  <speed>6.320000</speed>
</trkpt>
<trkpt lat="32.593929291" lon="35.144092560">
  <ele>181.473877</ele>
  <time>2011-10-18T05:25:11Z</time>
  <speed>6.440000</speed>
</trkpt>
<trkpt lat="32.593963623" lon="35.144145966">
  <ele>181.298096</ele>
  <time>2011-10-18T05:25:12Z</time>
  <speed>6.020000</speed>
</trkpt>
<trkpt lat="32.594005585" lon="35.144187927">
  <ele>181.141846</ele>
  <time>2011-10-18T05:25:13Z</time>
  <speed>6.190000</speed>
</trkpt>
<trkpt lat="32.594051361" lon="35.144222260">
  <ele>180.196533</ele>
  <time>2011-10-18T05:25:14Z</time>
  <speed>5.520000</speed>
</trkpt>
<trkpt lat="32.594081879" lon="35.144252777">
  <ele>180.102783</ele>
  <time>2011-10-18T05:25:15Z</time>
  <speed>4.080000</speed>
</trkpt>
<trkpt lat="32.594108582" lon="35.144294739">
  <ele>179.376221</ele>
  <time>2011-10-18T05:25:16Z</time>
  <speed>4.700000</speed>
</trkpt>
<trkpt lat="32.594123840" lon="35.144336700">
  <ele>178.817627</ele>
  <time>2011-10-18T05:25:17Z</time>
  <speed>5.360000</speed>
</trkpt>
<trkpt lat="32.594158173" lon="35.144382477">
  <ele>178.157471</ele>
  <time>2011-10-18T05:25:18Z</time>
  <speed>5.240000</speed>
</trkpt>
<trkpt lat="32.594188690" lon="35.144428253">
  <ele>178.161377</ele>
  <time>2011-10-18T05:25:19Z</time>
  <speed>4.980000</speed>
</trkpt>
<trkpt lat="32.594223022" lon="35.144470215">
  <ele>178.294189</ele>
  <time>2011-10-18T05:25:20Z</time>
  <speed>5.770000</speed>
</trkpt>
<trkpt lat="32.594264984" lon="35.144515991">
  <ele>177.977783</ele>
  <time>2011-10-18T05:25:21Z</time>
  <speed>5.940000</speed>
</trkpt>
<trkpt lat="32.594310760" lon="35.144554138">
  <ele>177.305908</ele>
  <time>2011-10-18T05:25:22Z</time>
  <speed>5.760000</speed>
</trkpt>
<trkpt lat="32.594352722" lon="35.144577026">
  <ele>176.098877</ele>
  <time>2011-10-18T05:25:23Z</time>
  <speed>4.760000</speed>
</trkpt>
<trkpt lat="32.594383240" lon="35.144588470">
  <ele>175.567627</ele>
  <time>2011-10-18T05:25:24Z</time>
  <speed>2.700000</speed>
</trkpt>
<trkpt lat="32.594409943" lon="35.144611359">
  <ele>175.591064</ele>
  <time>2011-10-18T05:25:25Z</time>
  <speed>2.810000</speed>
</trkpt>
<trkpt lat="32.594432831" lon="35.144638062">
  <ele>174.411377</ele>
  <time>2011-10-18T05:25:26Z</time>
  <speed>4.030000</speed>
</trkpt>
<trkpt lat="32.594459534" lon="35.144676208">
  <ele>174.661377</ele>
  <time>2011-10-18T05:25:27Z</time>
  <speed>4.670000</speed>
</trkpt>
<trkpt lat="32.594493866" lon="35.144714355">
  <ele>174.290283</ele>
  <time>2011-10-18T05:25:28Z</time>
  <speed>4.640000</speed>
</trkpt>
<trkpt lat="32.594532013" lon="35.144741058">
  <ele>173.969971</ele>
  <time>2011-10-18T05:25:29Z</time>
  <speed>5.300000</speed>
</trkpt>
<trkpt lat="32.594573975" lon="35.144775391">
  <ele>172.333252</ele>
  <time>2011-10-18T05:25:30Z</time>
  <speed>5.670000</speed>
</trkpt>
<trkpt lat="32.594604492" lon="35.144824982">
  <ele>171.341064</ele>
  <time>2011-10-18T05:25:31Z</time>
  <speed>5.910000</speed>
</trkpt>
<trkpt lat="32.594642639" lon="35.144866943">
  <ele>170.942627</ele>
  <time>2011-10-18T05:25:32Z</time>
  <speed>5.560000</speed>
</trkpt>
<trkpt lat="32.594696045" lon="35.144893646">
  <ele>170.079346</ele>
  <time>2011-10-18T05:25:33Z</time>
  <speed>6.510000</speed>
</trkpt>
<trkpt lat="32.594757080" lon="35.144908905">
  <ele>169.055908</ele>
  <time>2011-10-18T05:25:34Z</time>
  <speed>6.730000</speed>
</trkpt>
<trkpt lat="32.594818115" lon="35.144927979">
  <ele>168.348877</ele>
  <time>2011-10-18T05:25:35Z</time>
  <speed>7.440000</speed>
</trkpt>
<trkpt lat="32.594886780" lon="35.144947052">
  <ele>167.766846</ele>
  <time>2011-10-18T05:25:36Z</time>
  <speed>7.740000</speed>
</trkpt>
<trkpt lat="32.594963074" lon="35.144966125">
  <ele>166.606689</ele>
  <time>2011-10-18T05:25:37Z</time>
  <speed>7.100000</speed>
</trkpt>
<trkpt lat="32.595027924" lon="35.144958496">
  <ele>166.212158</ele>
  <time>2011-10-18T05:25:38Z</time>
  <speed>6.500000</speed>
</trkpt>
<trkpt lat="32.595085144" lon="35.144943237">
  <ele>165.423096</ele>
  <time>2011-10-18T05:25:39Z</time>
  <speed>7.130000</speed>
</trkpt>
<trkpt lat="32.595157623" lon="35.144916534">
  <ele>164.485596</ele>
  <time>2011-10-18T05:25:40Z</time>
  <speed>7.730000</speed>
</trkpt>
<trkpt lat="32.595222473" lon="35.144882202">
  <ele>163.079346</ele>
  <time>2011-10-18T05:25:41Z</time>
  <speed>7.660000</speed>
</trkpt>
<trkpt lat="32.595283508" lon="35.144870758">
  <ele>161.442627</ele>
  <time>2011-10-18T05:25:42Z</time>
  <speed>6.260000</speed>
</trkpt>
<trkpt lat="32.595329285" lon="35.144897461">
  <ele>160.837158</ele>
  <time>2011-10-18T05:25:43Z</time>
  <speed>5.410000</speed>
</trkpt>
<trkpt lat="32.595371246" lon="35.144920349">
  <ele>159.802002</ele>
  <time>2011-10-18T05:25:44Z</time>
  <speed>4.730000</speed>
</trkpt>
<trkpt lat="32.595417023" lon="35.144939423">
  <ele>159.020752</ele>
  <time>2011-10-18T05:25:45Z</time>
  <speed>4.380000</speed>
</trkpt>
<trkpt lat="32.595458984" lon="35.144950867">
  <ele>158.938721</ele>
  <time>2011-10-18T05:25:46Z</time>
  <speed>4.570000</speed>
</trkpt>
<trkpt lat="32.595500946" lon="35.144954681">
  <ele>158.126221</ele>
  <time>2011-10-18T05:25:47Z</time>
  <speed>4.410000</speed>
</trkpt>
<trkpt lat="32.595542908" lon="35.144950867">
  <ele>158.005127</ele>
  <time>2011-10-18T05:25:48Z</time>
  <speed>4.390000</speed>
</trkpt>
<trkpt lat="32.595577240" lon="35.144950867">
  <ele>158.403564</ele>
  <time>2011-10-18T05:25:49Z</time>
  <speed>3.680000</speed>
</trkpt>
<trkpt lat="32.595611572" lon="35.144950867">
  <ele>157.688721</ele>
  <time>2011-10-18T05:25:50Z</time>
  <speed>3.950000</speed>
</trkpt>
<trkpt lat="32.595649719" lon="35.144950867">
  <ele>157.598877</ele>
  <time>2011-10-18T05:25:51Z</time>
  <speed>4.070000</speed>
</trkpt>
<trkpt lat="32.595687866" lon="35.144947052">
  <ele>157.212158</ele>
  <time>2011-10-18T05:25:52Z</time>
  <speed>4.220000</speed>
</trkpt>
<trkpt lat="32.595722198" lon="35.144939423">
  <ele>156.325439</ele>
  <time>2011-10-18T05:25:53Z</time>
  <speed>4.340000</speed>
</trkpt>
<trkpt lat="32.595760345" lon="35.144924164">
  <ele>156.962158</ele>
  <time>2011-10-18T05:25:54Z</time>
  <speed>4.250000</speed>
</trkpt>
<trkpt lat="32.595794678" lon="35.144908905">
  <ele>156.302002</ele>
  <time>2011-10-18T05:25:55Z</time>
  <speed>4.420000</speed>
</trkpt>
<trkpt lat="32.595825195" lon="35.144897461">
  <ele>156.137939</ele>
  <time>2011-10-18T05:25:56Z</time>
  <speed>3.990000</speed>
</trkpt>
<trkpt lat="32.595855713" lon="35.144882202">
  <ele>157.395752</ele>
  <time>2011-10-18T05:25:57Z</time>
  <speed>4.570000</speed>
</trkpt>
<trkpt lat="32.595893860" lon="35.144874573">
  <ele>157.673096</ele>
  <time>2011-10-18T05:25:58Z</time>
  <speed>4.580000</speed>
</trkpt>
<trkpt lat="32.595935822" lon="35.144859314">
  <ele>158.634033</ele>
  <time>2011-10-18T05:25:59Z</time>
  <speed>4.860000</speed>
</trkpt>
<trkpt lat="32.595981598" lon="35.144832611">
  <ele>158.106689</ele>
  <time>2011-10-18T05:26:00Z</time>
  <speed>4.590000</speed>
</trkpt>
<trkpt lat="32.596015930" lon="35.144805908">
  <ele>157.774658</ele>
  <time>2011-10-18T05:26:01Z</time>
  <speed>4.430000</speed>
</trkpt>
<trkpt lat="32.596050262" lon="35.144771576">
  <ele>158.247314</ele>
  <time>2011-10-18T05:26:02Z</time>
  <speed>3.980000</speed>
</trkpt>
<trkpt lat="32.596076965" lon="35.144744873">
  <ele>158.173096</ele>
  <time>2011-10-18T05:26:03Z</time>
  <speed>3.780000</speed>
</trkpt>
<trkpt lat="32.596096039" lon="35.144710541">
  <ele>158.903564</ele>
  <time>2011-10-18T05:26:04Z</time>
  <speed>3.530000</speed>
</trkpt>
<trkpt lat="32.596122742" lon="35.144680023">
  <ele>159.805908</ele>
  <time>2011-10-18T05:26:05Z</time>
  <speed>4.020000</speed>
</trkpt>
<trkpt lat="32.596157074" lon="35.144657135">
  <ele>159.712158</ele>
  <time>2011-10-18T05:26:06Z</time>
  <speed>4.290000</speed>
</trkpt>
<trkpt lat="32.596191406" lon="35.144626617">
  <ele>160.309814</ele>
  <time>2011-10-18T05:26:07Z</time>
  <speed>4.530000</speed>
</trkpt>
<trkpt lat="32.596225739" lon="35.144592285">
  <ele>160.067627</ele>
  <time>2011-10-18T05:26:08Z</time>
  <speed>5.120000</speed>
</trkpt>
<trkpt lat="32.596260071" lon="35.144554138">
  <ele>159.579346</ele>
  <time>2011-10-18T05:26:09Z</time>
  <speed>5.010000</speed>
</trkpt>
<trkpt lat="32.596294403" lon="35.144523621">
  <ele>160.137939</ele>
  <time>2011-10-18T05:26:10Z</time>
  <speed>5.070000</speed>
</trkpt>
<trkpt lat="32.596332550" lon="35.144489288">
  <ele>161.020752</ele>
  <time>2011-10-18T05:26:11Z</time>
  <speed>4.910000</speed>
</trkpt>
<trkpt lat="32.596366882" lon="35.144454956">
  <ele>160.559814</ele>
  <time>2011-10-18T05:26:12Z</time>
  <speed>4.610000</speed>
</trkpt>
<trkpt lat="32.596401215" lon="35.144428253">
  <ele>160.352783</ele>
  <time>2011-10-18T05:26:13Z</time>
  <speed>4.580000</speed>
</trkpt>
<trkpt lat="32.596435547" lon="35.144401550">
  <ele>159.919189</ele>
  <time>2011-10-18T05:26:14Z</time>
  <speed>4.450000</speed>
</trkpt>
<trkpt lat="32.596466064" lon="35.144371033">
  <ele>159.473877</ele>
  <time>2011-10-18T05:26:15Z</time>
  <speed>4.180000</speed>
</trkpt>
<trkpt lat="32.596496582" lon="35.144344330">
  <ele>159.630127</ele>
  <time>2011-10-18T05:26:16Z</time>
  <speed>4.150000</speed>
</trkpt>
<trkpt lat="32.596530914" lon="35.144317627">
  <ele>159.966064</ele>
  <time>2011-10-18T05:26:17Z</time>
  <speed>4.160000</speed>
</trkpt>
<trkpt lat="32.596557617" lon="35.144283295">
  <ele>160.161377</ele>
  <time>2011-10-18T05:26:18Z</time>
  <speed>4.310000</speed>
</trkpt>
<trkpt lat="32.596580505" lon="35.144248962">
  <ele>161.251221</ele>
  <time>2011-10-18T05:26:19Z</time>
  <speed>4.230000</speed>
</trkpt>
<trkpt lat="32.596607208" lon="35.144218445">
  <ele>160.677002</ele>
  <time>2011-10-18T05:26:20Z</time>
  <speed>4.020000</speed>
</trkpt>
<trkpt lat="32.596633911" lon="35.144187927">
  <ele>160.317627</ele>
  <time>2011-10-18T05:26:21Z</time>
  <speed>3.930000</speed>
</trkpt>
<trkpt lat="32.596656799" lon="35.144157410">
  <ele>160.860596</ele>
  <time>2011-10-18T05:26:22Z</time>
  <speed>3.710000</speed>
</trkpt>
<trkpt lat="32.596683502" lon="35.144126892">
  <ele>160.145752</ele>
  <time>2011-10-18T05:26:23Z</time>
  <speed>3.610000</speed>
</trkpt>
<trkpt lat="32.596706390" lon="35.144104004">
  <ele>159.985596</ele>
  <time>2011-10-18T05:26:24Z</time>
  <speed>3.370000</speed>
</trkpt>
<trkpt lat="32.596733093" lon="35.144077301">
  <ele>159.501221</ele>
  <time>2011-10-18T05:26:25Z</time>
  <speed>3.250000</speed>
</trkpt>
<trkpt lat="32.596752167" lon="35.144054413">
  <ele>160.153564</ele>
  <time>2011-10-18T05:26:26Z</time>
  <speed>3.390000</speed>
</trkpt>
<trkpt lat="32.596775055" lon="35.144031525">
  <ele>160.427002</ele>
  <time>2011-10-18T05:26:27Z</time>
  <speed>3.370000</speed>
</trkpt>
<trkpt lat="32.596805573" lon="35.144004822">
  <ele>159.575439</ele>
  <time>2011-10-18T05:26:28Z</time>
  <speed>3.920000</speed>
</trkpt>
<trkpt lat="32.596828461" lon="35.143978119">
  <ele>159.587158</ele>
  <time>2011-10-18T05:26:29Z</time>
  <speed>4.010000</speed>
</trkpt>
<trkpt lat="32.596862793" lon="35.143955231">
  <ele>159.282471</ele>
  <time>2011-10-18T05:26:30Z</time>
  <speed>4.310000</speed>
</trkpt>
<trkpt lat="32.596897125" lon="35.143924713">
  <ele>158.981689</ele>
  <time>2011-10-18T05:26:31Z</time>
  <speed>4.370000</speed>
</trkpt>
<trkpt lat="32.596920013" lon="35.143894196">
  <ele>159.204346</ele>
  <time>2011-10-18T05:26:32Z</time>
  <speed>3.880000</speed>
</trkpt>
<trkpt lat="32.596942902" lon="35.143863678">
  <ele>159.024658</ele>
  <time>2011-10-18T05:26:33Z</time>
  <speed>3.590000</speed>
</trkpt>
<trkpt lat="32.596961975" lon="35.143833160">
  <ele>158.868408</ele>
  <time>2011-10-18T05:26:34Z</time>
  <speed>3.390000</speed>
</trkpt>
<trkpt lat="32.596973419" lon="35.143810272">
  <ele>160.716064</ele>
  <time>2011-10-18T05:26:35Z</time>
  <speed>2.320000</speed>
</trkpt>
<trkpt lat="32.596988678" lon="35.143787384">
  <ele>162.930908</ele>
  <time>2011-10-18T05:26:38Z</time>
  <speed>0.260000</speed>
</trkpt>
<trkpt lat="32.597038269" lon="35.143795013">
  <ele>164.114502</ele>
  <time>2011-10-18T05:27:41Z</time>
  <speed>3.000000</speed>
</trkpt>
<trkpt lat="32.597064972" lon="35.143810272">
  <ele>164.751221</ele>
  <time>2011-10-18T05:27:42Z</time>
  <speed>3.390000</speed>
</trkpt>
<trkpt lat="32.597103119" lon="35.143825531">
  <ele>165.044189</ele>
  <time>2011-10-18T05:27:43Z</time>
  <speed>4.260000</speed>
</trkpt>
<trkpt lat="32.597152710" lon="35.143840790">
  <ele>164.778564</ele>
  <time>2011-10-18T05:27:44Z</time>
  <speed>4.800000</speed>
</trkpt>
<trkpt lat="32.597198486" lon="35.143852234">
  <ele>164.341064</ele>
  <time>2011-10-18T05:27:45Z</time>
  <speed>4.820000</speed>
</trkpt>
<trkpt lat="32.597240448" lon="35.143859863">
  <ele>163.958252</ele>
  <time>2011-10-18T05:27:46Z</time>
  <speed>4.620000</speed>
</trkpt>
<trkpt lat="32.597282410" lon="35.143863678">
  <ele>163.270752</ele>
  <time>2011-10-18T05:27:47Z</time>
  <speed>4.820000</speed>
</trkpt>
<trkpt lat="32.597324371" lon="35.143859863">
  <ele>162.977783</ele>
  <time>2011-10-18T05:27:48Z</time>
  <speed>4.540000</speed>
</trkpt>
<trkpt lat="32.597373962" lon="35.143852234">
  <ele>162.337158</ele>
  <time>2011-10-18T05:27:49Z</time>
  <speed>4.370000</speed>
</trkpt>
<trkpt lat="32.597419739" lon="35.143856049">
  <ele>161.938721</ele>
  <time>2011-10-18T05:27:50Z</time>
  <speed>4.590000</speed>
</trkpt>
<trkpt lat="32.597461700" lon="35.143859863">
  <ele>162.188721</ele>
  <time>2011-10-18T05:27:51Z</time>
  <speed>4.660000</speed>
</trkpt>
<trkpt lat="32.597499847" lon="35.143863678">
  <ele>161.950439</ele>
  <time>2011-10-18T05:27:52Z</time>
  <speed>4.340000</speed>
</trkpt>
<trkpt lat="32.597541809" lon="35.143871307">
  <ele>161.337158</ele>
  <time>2011-10-18T05:27:53Z</time>
  <speed>4.190000</speed>
</trkpt>
<trkpt lat="32.597579956" lon="35.143875122">
  <ele>161.305908</ele>
  <time>2011-10-18T05:27:54Z</time>
  <speed>4.140000</speed>
</trkpt>
<trkpt lat="32.597614288" lon="35.143886566">
  <ele>160.684814</ele>
  <time>2011-10-18T05:27:55Z</time>
  <speed>3.980000</speed>
</trkpt>
<trkpt lat="32.597656250" lon="35.143894196">
  <ele>159.501221</ele>
  <time>2011-10-18T05:27:56Z</time>
  <speed>4.230000</speed>
</trkpt>
<trkpt lat="32.597694397" lon="35.143909454">
  <ele>159.028564</ele>
  <time>2011-10-18T05:27:57Z</time>
  <speed>4.500000</speed>
</trkpt>
<trkpt lat="32.597732544" lon="35.143924713">
  <ele>158.708252</ele>
  <time>2011-10-18T05:27:58Z</time>
  <speed>4.260000</speed>
</trkpt>
<trkpt lat="32.597766876" lon="35.143947601">
  <ele>158.239502</ele>
  <time>2011-10-18T05:27:59Z</time>
  <speed>4.290000</speed>
</trkpt>
<trkpt lat="32.597797394" lon="35.143970490">
  <ele>157.809814</ele>
  <time>2011-10-18T05:28:00Z</time>
  <speed>4.660000</speed>
</trkpt>
<trkpt lat="32.597835541" lon="35.144004822">
  <ele>157.602783</ele>
  <time>2011-10-18T05:28:01Z</time>
  <speed>4.990000</speed>
</trkpt>
<trkpt lat="32.597881317" lon="35.144035339">
  <ele>157.290283</ele>
  <time>2011-10-18T05:28:02Z</time>
  <speed>5.390000</speed>
</trkpt>
<trkpt lat="32.597919464" lon="35.144077301">
  <ele>157.649658</ele>
  <time>2011-10-18T05:28:03Z</time>
  <speed>5.550000</speed>
</trkpt>
<trkpt lat="32.597965240" lon="35.144107819">
  <ele>156.962158</ele>
  <time>2011-10-18T05:28:04Z</time>
  <speed>4.880000</speed>
</trkpt>
<trkpt lat="32.598003387" lon="35.144134521">
  <ele>156.173096</ele>
  <time>2011-10-18T05:28:05Z</time>
  <speed>4.840000</speed>
</trkpt>
<trkpt lat="32.598045349" lon="35.144149780">
  <ele>155.848877</ele>
  <time>2011-10-18T05:28:06Z</time>
  <speed>4.540000</speed>
</trkpt>
<trkpt lat="32.598083496" lon="35.144157410">
  <ele>155.153564</ele>
  <time>2011-10-18T05:28:07Z</time>
  <speed>4.600000</speed>
</trkpt>
<trkpt lat="32.598125458" lon="35.144157410">
  <ele>154.446533</ele>
  <time>2011-10-18T05:28:08Z</time>
  <speed>4.820000</speed>
</trkpt>
<trkpt lat="32.598171234" lon="35.144153595">
  <ele>154.360596</ele>
  <time>2011-10-18T05:28:09Z</time>
  <speed>5.240000</speed>
</trkpt>
<trkpt lat="32.598217010" lon="35.144161224">
  <ele>154.005127</ele>
  <time>2011-10-18T05:28:10Z</time>
  <speed>5.280000</speed>
</trkpt>
<trkpt lat="32.598255157" lon="35.144165039">
  <ele>154.411377</ele>
  <time>2011-10-18T05:28:11Z</time>
  <speed>4.300000</speed>
</trkpt>
<trkpt lat="32.598297119" lon="35.144165039">
  <ele>153.364502</ele>
  <time>2011-10-18T05:28:12Z</time>
  <speed>3.870000</speed>
</trkpt>
<trkpt lat="32.598331451" lon="35.144161224">
  <ele>152.059814</ele>
  <time>2011-10-18T05:28:13Z</time>
  <speed>3.620000</speed>
</trkpt>
<trkpt lat="32.598361969" lon="35.144153595">
  <ele>151.575439</ele>
  <time>2011-10-18T05:28:14Z</time>
  <speed>3.670000</speed>
</trkpt>
<trkpt lat="32.598415375" lon="35.144134521">
  <ele>152.016846</ele>
  <time>2011-10-18T05:28:16Z</time>
  <speed>3.900000</speed>
</trkpt>
<trkpt lat="32.598449707" lon="35.144115448">
  <ele>151.802002</ele>
  <time>2011-10-18T05:28:17Z</time>
  <speed>3.930000</speed>
</trkpt>
<trkpt lat="32.598484039" lon="35.144104004">
  <ele>151.848877</ele>
  <time>2011-10-18T05:28:18Z</time>
  <speed>3.750000</speed>
</trkpt>
<trkpt lat="32.598514557" lon="35.144092560">
  <ele>152.372314</ele>
  <time>2011-10-18T05:28:19Z</time>
  <speed>3.750000</speed>
</trkpt>
<trkpt lat="32.598545074" lon="35.144092560">
  <ele>152.634033</ele>
  <time>2011-10-18T05:28:20Z</time>
  <speed>3.600000</speed>
</trkpt>
<trkpt lat="32.598579407" lon="35.144084930">
  <ele>152.270752</ele>
  <time>2011-10-18T05:28:21Z</time>
  <speed>3.360000</speed>
</trkpt>
<trkpt lat="32.598632813" lon="35.144077301">
  <ele>153.255127</ele>
  <time>2011-10-18T05:28:23Z</time>
  <speed>2.920000</speed>
</trkpt>
<trkpt lat="32.598659515" lon="35.144069672">
  <ele>153.540283</ele>
  <time>2011-10-18T05:28:24Z</time>
  <speed>3.290000</speed>
</trkpt>
<trkpt lat="32.598690033" lon="35.144062042">
  <ele>153.294189</ele>
  <time>2011-10-18T05:28:25Z</time>
  <speed>3.400000</speed>
</trkpt>
<trkpt lat="32.598720551" lon="35.144046783">
  <ele>153.473877</ele>
  <time>2011-10-18T05:28:26Z</time>
  <speed>3.480000</speed>
</trkpt>
<trkpt lat="32.598751068" lon="35.144039154">
  <ele>154.708252</ele>
  <time>2011-10-18T05:28:27Z</time>
  <speed>3.240000</speed>
</trkpt>
<trkpt lat="32.598777771" lon="35.144027710">
  <ele>155.180908</ele>
  <time>2011-10-18T05:28:28Z</time>
  <speed>3.230000</speed>
</trkpt>
<trkpt lat="32.598808289" lon="35.144020081">
  <ele>155.493408</ele>
  <time>2011-10-18T05:28:29Z</time>
  <speed>3.320000</speed>
</trkpt>
<trkpt lat="32.598834991" lon="35.144020081">
  <ele>155.688721</ele>
  <time>2011-10-18T05:28:30Z</time>
  <speed>3.160000</speed>
</trkpt>
<trkpt lat="32.598869324" lon="35.144012451">
  <ele>156.391846</ele>
  <time>2011-10-18T05:28:31Z</time>
  <speed>3.060000</speed>
</trkpt>
<trkpt lat="32.598884583" lon="35.143997192">
  <ele>158.739502</ele>
  <time>2011-10-18T05:28:32Z</time>
  <speed>2.900000</speed>
</trkpt>
<trkpt lat="32.598911285" lon="35.143981934">
  <ele>158.934814</ele>
  <time>2011-10-18T05:28:33Z</time>
  <speed>3.270000</speed>
</trkpt>
<trkpt lat="32.598937988" lon="35.143970490">
  <ele>158.841064</ele>
  <time>2011-10-18T05:28:34Z</time>
  <speed>2.880000</speed>
</trkpt>
<trkpt lat="32.598964691" lon="35.143962860">
  <ele>158.071533</ele>
  <time>2011-10-18T05:28:35Z</time>
  <speed>2.940000</speed>
</trkpt>
<trkpt lat="32.598991394" lon="35.143951416">
  <ele>158.688721</ele>
  <time>2011-10-18T05:28:36Z</time>
  <speed>3.230000</speed>
</trkpt>
<trkpt lat="32.599025726" lon="35.143936157">
  <ele>158.680908</ele>
  <time>2011-10-18T05:28:37Z</time>
  <speed>3.270000</speed>
</trkpt>
<trkpt lat="32.599052429" lon="35.143920898">
  <ele>158.594971</ele>
  <time>2011-10-18T05:28:38Z</time>
  <speed>3.220000</speed>
</trkpt>
<trkpt lat="32.599082947" lon="35.143913269">
  <ele>159.329346</ele>
  <time>2011-10-18T05:28:39Z</time>
  <speed>3.240000</speed>
</trkpt>
<trkpt lat="32.599113464" lon="35.143905640">
  <ele>159.661377</ele>
  <time>2011-10-18T05:28:40Z</time>
  <speed>3.230000</speed>
</trkpt>
<trkpt lat="32.599140167" lon="35.143894196">
  <ele>159.594971</ele>
  <time>2011-10-18T05:28:41Z</time>
  <speed>3.440000</speed>
</trkpt>
<trkpt lat="32.599166870" lon="35.143882751">
  <ele>159.544189</ele>
  <time>2011-10-18T05:28:42Z</time>
  <speed>3.100000</speed>
</trkpt>
<trkpt lat="32.599193573" lon="35.143871307">
  <ele>159.903564</ele>
  <time>2011-10-18T05:28:43Z</time>
  <speed>3.090000</speed>
</trkpt>
<trkpt lat="32.599243164" lon="35.143856049">
  <ele>159.415283</ele>
  <time>2011-10-18T05:28:45Z</time>
  <speed>3.300000</speed>
</trkpt>
<trkpt lat="32.599269867" lon="35.143833160">
  <ele>159.684814</ele>
  <time>2011-10-18T05:28:46Z</time>
  <speed>3.320000</speed>
</trkpt>
<trkpt lat="32.599296570" lon="35.143817902">
  <ele>159.274658</ele>
  <time>2011-10-18T05:28:47Z</time>
  <speed>3.090000</speed>
</trkpt>
<trkpt lat="32.599323273" lon="35.143806458">
  <ele>159.044189</ele>
  <time>2011-10-18T05:28:48Z</time>
  <speed>3.040000</speed>
</trkpt>
<trkpt lat="32.599346161" lon="35.143791199">
  <ele>159.973877</ele>
  <time>2011-10-18T05:28:49Z</time>
  <speed>2.990000</speed>
</trkpt>
<trkpt lat="32.599372864" lon="35.143775940">
  <ele>158.473877</ele>
  <time>2011-10-18T05:28:50Z</time>
  <speed>3.090000</speed>
</trkpt>
<trkpt lat="32.599395752" lon="35.143756866">
  <ele>159.555908</ele>
  <time>2011-10-18T05:28:51Z</time>
  <speed>3.080000</speed>
</trkpt>
<trkpt lat="32.599441528" lon="35.143730164">
  <ele>160.118408</ele>
  <time>2011-10-18T05:28:53Z</time>
  <speed>3.330000</speed>
</trkpt>
<trkpt lat="32.599491119" lon="35.143692017">
  <ele>158.696533</ele>
  <time>2011-10-18T05:28:55Z</time>
  <speed>3.370000</speed>
</trkpt>
<trkpt lat="32.599514008" lon="35.143672943">
  <ele>159.012939</ele>
  <time>2011-10-18T05:28:56Z</time>
  <speed>3.180000</speed>
</trkpt>
<trkpt lat="32.599544525" lon="35.143661499">
  <ele>159.594971</ele>
  <time>2011-10-18T05:28:57Z</time>
  <speed>3.180000</speed>
</trkpt>
<trkpt lat="32.599571228" lon="35.143642426">
  <ele>159.712158</ele>
  <time>2011-10-18T05:28:58Z</time>
  <speed>3.150000</speed>
</trkpt>
<trkpt lat="32.599597931" lon="35.143630981">
  <ele>158.552002</ele>
  <time>2011-10-18T05:28:59Z</time>
  <speed>2.510000</speed>
</trkpt>
<trkpt lat="32.599639893" lon="35.143615723">
  <ele>158.891846</ele>
  <time>2011-10-18T05:29:01Z</time>
  <speed>2.780000</speed>
</trkpt>
<trkpt lat="32.599681854" lon="35.143581390">
  <ele>158.887939</ele>
  <time>2011-10-18T05:29:03Z</time>
  <speed>2.760000</speed>
</trkpt>
<trkpt lat="32.599723816" lon="35.143558502">
  <ele>160.219971</ele>
  <time>2011-10-18T05:29:05Z</time>
  <speed>2.520000</speed>
</trkpt>
<trkpt lat="32.599765778" lon="35.143539429">
  <ele>161.165283</ele>
  <time>2011-10-18T05:29:07Z</time>
  <speed>2.360000</speed>
</trkpt>
<trkpt lat="32.599815369" lon="35.143524170">
  <ele>161.282471</ele>
  <time>2011-10-18T05:29:09Z</time>
  <speed>2.680000</speed>
</trkpt>
<trkpt lat="32.599857330" lon="35.143505096">
  <ele>162.430908</ele>
  <time>2011-10-18T05:29:11Z</time>
  <speed>2.570000</speed>
</trkpt>
<trkpt lat="32.599884033" lon="35.143497467">
  <ele>160.481689</ele>
  <time>2011-10-18T05:29:12Z</time>
  <speed>2.800000</speed>
</trkpt>
<trkpt lat="32.599918365" lon="35.143478394">
  <ele>162.520752</ele>
  <time>2011-10-18T05:29:14Z</time>
  <speed>2.090000</speed>
</trkpt>
<trkpt lat="32.599952698" lon="35.143459320">
  <ele>164.520752</ele>
  <time>2011-10-18T05:29:16Z</time>
  <speed>2.580000</speed>
</trkpt>
<trkpt lat="32.599994659" lon="35.143444061">
  <ele>165.087158</ele>
  <time>2011-10-18T05:29:18Z</time>
  <speed>2.270000</speed>
</trkpt>
<trkpt lat="32.600025177" lon="35.143424988">
  <ele>165.899658</ele>
  <time>2011-10-18T05:29:20Z</time>
  <speed>2.200000</speed>
</trkpt>
<trkpt lat="32.600055695" lon="35.143398285">
  <ele>165.923096</ele>
  <time>2011-10-18T05:29:22Z</time>
  <speed>2.060000</speed>
</trkpt>
<trkpt lat="32.600074768" lon="35.143375397">
  <ele>167.727783</ele>
  <time>2011-10-18T05:29:24Z</time>
  <speed>1.670000</speed>
</trkpt>
<trkpt lat="32.600101471" lon="35.143352509">
  <ele>168.782471</ele>
  <time>2011-10-18T05:29:26Z</time>
  <speed>1.840000</speed>
</trkpt>
<trkpt lat="32.600131989" lon="35.143329620">
  <ele>168.868408</ele>
  <time>2011-10-18T05:29:28Z</time>
  <speed>1.630000</speed>
</trkpt>
<trkpt lat="32.600154877" lon="35.143306732">
  <ele>169.333252</ele>
  <time>2011-10-18T05:29:30Z</time>
  <speed>1.610000</speed>
</trkpt>
<trkpt lat="32.600177765" lon="35.143287659">
  <ele>171.059814</ele>
  <time>2011-10-18T05:29:32Z</time>
  <speed>1.480000</speed>
</trkpt>
<trkpt lat="32.600200653" lon="35.143257141">
  <ele>171.618408</ele>
  <time>2011-10-18T05:29:34Z</time>
  <speed>1.870000</speed>
</trkpt>
<trkpt lat="32.600223541" lon="35.143226624">
  <ele>172.259033</ele>
  <time>2011-10-18T05:29:36Z</time>
  <speed>1.840000</speed>
</trkpt>
<trkpt lat="32.600246429" lon="35.143192291">
  <ele>172.981689</ele>
  <time>2011-10-18T05:29:38Z</time>
  <speed>1.760000</speed>
</trkpt>
<trkpt lat="32.600257874" lon="35.143157959">
  <ele>172.969971</ele>
  <time>2011-10-18T05:29:40Z</time>
  <speed>1.450000</speed>
</trkpt>
<trkpt lat="32.600280762" lon="35.143123627">
  <ele>172.466064</ele>
  <time>2011-10-18T05:29:42Z</time>
  <speed>1.640000</speed>
</trkpt>
<trkpt lat="32.600292206" lon="35.143093109">
  <ele>172.052002</ele>
  <time>2011-10-18T05:29:44Z</time>
  <speed>1.430000</speed>
</trkpt>
<trkpt lat="32.600307465" lon="35.143047333">
  <ele>171.985596</ele>
  <time>2011-10-18T05:29:47Z</time>
  <speed>1.590000</speed>
</trkpt>
<trkpt lat="32.600318909" lon="35.143016815">
  <ele>173.067627</ele>
  <time>2011-10-18T05:29:49Z</time>
  <speed>1.530000</speed>
</trkpt>
<trkpt lat="32.600334167" lon="35.142990112">
  <ele>173.231689</ele>
  <time>2011-10-18T05:29:51Z</time>
  <speed>1.440000</speed>
</trkpt>
<trkpt lat="32.600341797" lon="35.142955780">
  <ele>173.200439</ele>
  <time>2011-10-18T05:29:53Z</time>
  <speed>1.540000</speed>
</trkpt>
<trkpt lat="32.600349426" lon="35.142921448">
  <ele>174.450439</ele>
  <time>2011-10-18T05:29:55Z</time>
  <speed>1.440000</speed>
</trkpt>
<trkpt lat="32.600360870" lon="35.142883301">
  <ele>174.993408</ele>
  <time>2011-10-18T05:29:58Z</time>
  <speed>1.600000</speed>
</trkpt>
<trkpt lat="32.600360870" lon="35.142848969">
  <ele>175.927002</ele>
  <time>2011-10-18T05:30:00Z</time>
  <speed>1.550000</speed>
</trkpt>
<trkpt lat="32.600364685" lon="35.142814636">
  <ele>176.333252</ele>
  <time>2011-10-18T05:30:02Z</time>
  <speed>1.400000</speed>
</trkpt>
<trkpt lat="32.600364685" lon="35.142776489">
  <ele>176.352783</ele>
  <time>2011-10-18T05:30:05Z</time>
  <speed>1.250000</speed>
</trkpt>
<trkpt lat="32.600364685" lon="35.142730713">
  <ele>177.094971</ele>
  <time>2011-10-18T05:30:08Z</time>
  <speed>1.500000</speed>
</trkpt>
<trkpt lat="32.600364685" lon="35.142684937">
  <ele>177.329346</ele>
  <time>2011-10-18T05:30:11Z</time>
  <speed>1.370000</speed>
</trkpt>
<trkpt lat="32.600357056" lon="35.142642975">
  <ele>177.778564</ele>
  <time>2011-10-18T05:30:14Z</time>
  <speed>1.530000</speed>
</trkpt>
<trkpt lat="32.600353241" lon="35.142604828">
  <ele>178.040283</ele>
  <time>2011-10-18T05:30:16Z</time>
  <speed>1.330000</speed>
</trkpt>
<trkpt lat="32.600349426" lon="35.142574310">
  <ele>178.356689</ele>
  <time>2011-10-18T05:30:18Z</time>
  <speed>1.470000</speed>
</trkpt>
<trkpt lat="32.600345612" lon="35.142528534">
  <ele>178.364502</ele>
  <time>2011-10-18T05:30:21Z</time>
  <speed>1.420000</speed>
</trkpt>
<trkpt lat="32.600345612" lon="35.142490387">
  <ele>178.477783</ele>
  <time>2011-10-18T05:30:23Z</time>
  <speed>1.500000</speed>
</trkpt>
<trkpt lat="32.600341797" lon="35.142452240">
  <ele>179.446533</ele>
  <time>2011-10-18T05:30:26Z</time>
  <speed>1.420000</speed>
</trkpt>
<trkpt lat="32.600341797" lon="35.142414093">
  <ele>178.856689</ele>
  <time>2011-10-18T05:30:28Z</time>
  <speed>1.340000</speed>
</trkpt>
<trkpt lat="32.600334167" lon="35.142383575">
  <ele>179.079346</ele>
  <time>2011-10-18T05:30:30Z</time>
  <speed>1.520000</speed>
</trkpt>
<trkpt lat="32.600341797" lon="35.142349243">
  <ele>179.501221</ele>
  <time>2011-10-18T05:30:32Z</time>
  <speed>1.380000</speed>
</trkpt>
<trkpt lat="32.600334167" lon="35.142314911">
  <ele>178.848877</ele>
  <time>2011-10-18T05:30:34Z</time>
  <speed>1.670000</speed>
</trkpt>
<trkpt lat="32.600318909" lon="35.142284393">
  <ele>179.036377</ele>
  <time>2011-10-18T05:30:36Z</time>
  <speed>1.650000</speed>
</trkpt>
<trkpt lat="32.600318909" lon="35.142234802">
  <ele>179.727783</ele>
  <time>2011-10-18T05:30:39Z</time>
  <speed>1.540000</speed>
</trkpt>
<trkpt lat="32.600326538" lon="35.142204285">
  <ele>179.759033</ele>
  <time>2011-10-18T05:30:41Z</time>
  <speed>1.590000</speed>
</trkpt>
<trkpt lat="32.600318909" lon="35.142169952">
  <ele>180.137939</ele>
  <time>2011-10-18T05:30:43Z</time>
  <speed>1.750000</speed>
</trkpt>
<trkpt lat="32.600315094" lon="35.142139435">
  <ele>181.020752</ele>
  <time>2011-10-18T05:30:45Z</time>
  <speed>1.810000</speed>
</trkpt>
<trkpt lat="32.600318909" lon="35.142101288">
  <ele>180.540283</ele>
  <time>2011-10-18T05:30:47Z</time>
  <speed>1.610000</speed>
</trkpt>
<trkpt lat="32.600318909" lon="35.142055511">
  <ele>179.903564</ele>
  <time>2011-10-18T05:30:49Z</time>
  <speed>1.850000</speed>
</trkpt>
<trkpt lat="32.600326538" lon="35.142017365">
  <ele>179.618408</ele>
  <time>2011-10-18T05:30:51Z</time>
  <speed>2.070000</speed>
</trkpt>
<trkpt lat="32.600334167" lon="35.141979218">
  <ele>179.403564</ele>
  <time>2011-10-18T05:30:53Z</time>
  <speed>1.990000</speed>
</trkpt>
<trkpt lat="32.600337982" lon="35.141933441">
  <ele>180.024658</ele>
  <time>2011-10-18T05:30:55Z</time>
  <speed>2.080000</speed>
</trkpt>
<trkpt lat="32.600337982" lon="35.141883850">
  <ele>179.864502</ele>
  <time>2011-10-18T05:30:57Z</time>
  <speed>2.900000</speed>
</trkpt>
<trkpt lat="32.600337982" lon="35.141849518">
  <ele>179.657471</ele>
  <time>2011-10-18T05:30:58Z</time>
  <speed>3.070000</speed>
</trkpt>
<trkpt lat="32.600341797" lon="35.141815186">
  <ele>179.798096</ele>
  <time>2011-10-18T05:30:59Z</time>
  <speed>3.350000</speed>
</trkpt>
<trkpt lat="32.600349426" lon="35.141780853">
  <ele>179.805908</ele>
  <time>2011-10-18T05:31:00Z</time>
  <speed>3.430000</speed>
</trkpt>
<trkpt lat="32.600360870" lon="35.141746521">
  <ele>179.216064</ele>
  <time>2011-10-18T05:31:01Z</time>
  <speed>3.580000</speed>
</trkpt>
<trkpt lat="32.600368500" lon="35.141704559">
  <ele>179.137939</ele>
  <time>2011-10-18T05:31:02Z</time>
  <speed>3.400000</speed>
</trkpt>
<trkpt lat="32.600379944" lon="35.141674042">
  <ele>179.223877</ele>
  <time>2011-10-18T05:31:03Z</time>
  <speed>3.470000</speed>
</trkpt>
<trkpt lat="32.600391388" lon="35.141639709">
  <ele>178.899658</ele>
  <time>2011-10-18T05:31:04Z</time>
  <speed>3.660000</speed>
</trkpt>
<trkpt lat="32.600399017" lon="35.141597748">
  <ele>179.173096</ele>
  <time>2011-10-18T05:31:05Z</time>
  <speed>3.820000</speed>
</trkpt>
<trkpt lat="32.600402832" lon="35.141555786">
  <ele>180.173096</ele>
  <time>2011-10-18T05:31:06Z</time>
  <speed>3.870000</speed>
</trkpt>
<trkpt lat="32.600410461" lon="35.141510010">
  <ele>180.266846</ele>
  <time>2011-10-18T05:31:07Z</time>
  <speed>3.730000</speed>
</trkpt>
<trkpt lat="32.600406647" lon="35.141468048">
  <ele>180.149658</ele>
  <time>2011-10-18T05:31:08Z</time>
  <speed>3.570000</speed>
</trkpt>
<trkpt lat="32.600395203" lon="35.141441345">
  <ele>180.962158</ele>
  <time>2011-10-18T05:31:09Z</time>
  <speed>2.940000</speed>
</trkpt>
<trkpt lat="32.600368500" lon="35.141403198">
  <ele>180.192627</ele>
  <time>2011-10-18T05:31:11Z</time>
  <speed>2.280000</speed>
</trkpt>
<trkpt lat="32.600337982" lon="35.141365051">
  <ele>180.329346</ele>
  <time>2011-10-18T05:31:13Z</time>
  <speed>2.610000</speed>
</trkpt>
<trkpt lat="32.600296021" lon="35.141334534">
  <ele>181.966064</ele>
  <time>2011-10-18T05:31:15Z</time>
  <speed>2.640000</speed>
</trkpt>
<trkpt lat="32.600261688" lon="35.141304016">
  <ele>182.563721</ele>
  <time>2011-10-18T05:31:17Z</time>
  <speed>2.100000</speed>
</trkpt>
<trkpt lat="32.600223541" lon="35.141281128">
  <ele>183.567627</ele>
  <time>2011-10-18T05:31:19Z</time>
  <speed>2.780000</speed>
</trkpt>
<trkpt lat="32.600185394" lon="35.141250610">
  <ele>182.809814</ele>
  <time>2011-10-18T05:31:21Z</time>
  <speed>2.370000</speed>
</trkpt>
<trkpt lat="32.600147247" lon="35.141227722">
  <ele>184.579346</ele>
  <time>2011-10-18T05:31:23Z</time>
  <speed>2.250000</speed>
</trkpt>
<trkpt lat="32.600109100" lon="35.141216278">
  <ele>185.173096</ele>
  <time>2011-10-18T05:31:25Z</time>
  <speed>1.970000</speed>
</trkpt>
<trkpt lat="32.600078583" lon="35.141185760">
  <ele>185.528564</ele>
  <time>2011-10-18T05:31:27Z</time>
  <speed>2.070000</speed>
</trkpt>
<trkpt lat="32.600044250" lon="35.141162872">
  <ele>186.739502</ele>
  <time>2011-10-18T05:31:29Z</time>
  <speed>2.080000</speed>
</trkpt>
<trkpt lat="32.600009918" lon="35.141139984">
  <ele>186.946533</ele>
  <time>2011-10-18T05:31:31Z</time>
  <speed>1.930000</speed>
</trkpt>
<trkpt lat="32.599979401" lon="35.141120911">
  <ele>188.063721</ele>
  <time>2011-10-18T05:31:33Z</time>
  <speed>1.920000</speed>
</trkpt>
<trkpt lat="32.599945068" lon="35.141105652">
  <ele>188.571533</ele>
  <time>2011-10-18T05:31:35Z</time>
  <speed>2.280000</speed>
</trkpt>
<trkpt lat="32.599906921" lon="35.141094208">
  <ele>189.200439</ele>
  <time>2011-10-18T05:31:37Z</time>
  <speed>2.140000</speed>
</trkpt>
<trkpt lat="32.599876404" lon="35.141075134">
  <ele>188.950439</ele>
  <time>2011-10-18T05:31:39Z</time>
  <speed>1.980000</speed>
</trkpt>
<trkpt lat="32.599845886" lon="35.141059875">
  <ele>189.505127</ele>
  <time>2011-10-18T05:31:41Z</time>
  <speed>1.840000</speed>
</trkpt>
<trkpt lat="32.599815369" lon="35.141044617">
  <ele>189.833252</ele>
  <time>2011-10-18T05:31:43Z</time>
  <speed>1.930000</speed>
</trkpt>
<trkpt lat="32.599777222" lon="35.141033173">
  <ele>190.688721</ele>
  <time>2011-10-18T05:31:45Z</time>
  <speed>1.810000</speed>
</trkpt>
<trkpt lat="32.599750519" lon="35.141021729">
  <ele>192.052002</ele>
  <time>2011-10-18T05:31:47Z</time>
  <speed>1.890000</speed>
</trkpt>
<trkpt lat="32.599720001" lon="35.140995026">
  <ele>192.309814</ele>
  <time>2011-10-18T05:31:49Z</time>
  <speed>1.980000</speed>
</trkpt>
<trkpt lat="32.599689484" lon="35.140975952">
  <ele>192.907471</ele>
  <time>2011-10-18T05:31:51Z</time>
  <speed>1.850000</speed>
</trkpt>
<trkpt lat="32.599662781" lon="35.140956879">
  <ele>192.856689</ele>
  <time>2011-10-18T05:31:53Z</time>
  <speed>1.710000</speed>
</trkpt>
<trkpt lat="32.599632263" lon="35.140941620">
  <ele>193.755127</ele>
  <time>2011-10-18T05:31:55Z</time>
  <speed>1.910000</speed>
</trkpt>
<trkpt lat="32.599605560" lon="35.140926361">
  <ele>193.782471</ele>
  <time>2011-10-18T05:31:57Z</time>
  <speed>1.730000</speed>
</trkpt>
<trkpt lat="32.599571228" lon="35.140903473">
  <ele>194.790283</ele>
  <time>2011-10-18T05:31:59Z</time>
  <speed>1.930000</speed>
</trkpt>
<trkpt lat="32.599540710" lon="35.140888214">
  <ele>195.009033</ele>
  <time>2011-10-18T05:32:01Z</time>
  <speed>2.000000</speed>
</trkpt>
<trkpt lat="32.599514008" lon="35.140876770">
  <ele>195.329346</ele>
  <time>2011-10-18T05:32:03Z</time>
  <speed>1.950000</speed>
</trkpt>
<trkpt lat="32.599483490" lon="35.140865326">
  <ele>194.825439</ele>
  <time>2011-10-18T05:32:05Z</time>
  <speed>1.840000</speed>
</trkpt>
<trkpt lat="32.599452972" lon="35.140850067">
  <ele>195.579346</ele>
  <time>2011-10-18T05:32:07Z</time>
  <speed>1.630000</speed>
</trkpt>
<trkpt lat="32.599426270" lon="35.140834808">
  <ele>195.247314</ele>
  <time>2011-10-18T05:32:09Z</time>
  <speed>1.840000</speed>
</trkpt>
<trkpt lat="32.599391937" lon="35.140815735">
  <ele>196.407471</ele>
  <time>2011-10-18T05:32:11Z</time>
  <speed>1.610000</speed>
</trkpt>
<trkpt lat="32.599357605" lon="35.140808105">
  <ele>196.438721</ele>
  <time>2011-10-18T05:32:13Z</time>
  <speed>1.720000</speed>
</trkpt>
<trkpt lat="32.599327087" lon="35.140808105">
  <ele>196.536377</ele>
  <time>2011-10-18T05:32:15Z</time>
  <speed>1.760000</speed>
</trkpt>
<trkpt lat="32.599288940" lon="35.140800476">
  <ele>195.384033</ele>
  <time>2011-10-18T05:32:17Z</time>
  <speed>1.970000</speed>
</trkpt>
<trkpt lat="32.599262238" lon="35.140796661">
  <ele>195.583252</ele>
  <time>2011-10-18T05:32:19Z</time>
  <speed>1.810000</speed>
</trkpt>
<trkpt lat="32.599227905" lon="35.140792847">
  <ele>195.520752</ele>
  <time>2011-10-18T05:32:21Z</time>
  <speed>1.640000</speed>
</trkpt>
<trkpt lat="32.599197388" lon="35.140792847">
  <ele>194.747314</ele>
  <time>2011-10-18T05:32:23Z</time>
  <speed>1.770000</speed>
</trkpt>
<trkpt lat="32.599159241" lon="35.140804291">
  <ele>195.485596</ele>
  <time>2011-10-18T05:32:25Z</time>
  <speed>1.820000</speed>
</trkpt>
<trkpt lat="32.599124908" lon="35.140811920">
  <ele>196.161377</ele>
  <time>2011-10-18T05:32:27Z</time>
  <speed>1.870000</speed>
</trkpt>
<trkpt lat="32.599090576" lon="35.140808105">
  <ele>195.868408</ele>
  <time>2011-10-18T05:32:29Z</time>
  <speed>1.940000</speed>
</trkpt>
<trkpt lat="32.599056244" lon="35.140811920">
  <ele>196.005127</ele>
  <time>2011-10-18T05:32:31Z</time>
  <speed>1.580000</speed>
</trkpt>
<trkpt lat="32.599025726" lon="35.140819550">
  <ele>195.723877</ele>
  <time>2011-10-18T05:32:33Z</time>
  <speed>1.620000</speed>
</trkpt>
<trkpt lat="32.598995209" lon="35.140830994">
  <ele>196.325439</ele>
  <time>2011-10-18T05:32:35Z</time>
  <speed>1.600000</speed>
</trkpt>
<trkpt lat="32.598964691" lon="35.140827179">
  <ele>196.899658</ele>
  <time>2011-10-18T05:32:37Z</time>
  <speed>1.770000</speed>
</trkpt>
<trkpt lat="32.598934174" lon="35.140838623">
  <ele>198.637939</ele>
  <time>2011-10-18T05:32:39Z</time>
  <speed>1.660000</speed>
</trkpt>
<trkpt lat="32.598907471" lon="35.140846252">
  <ele>199.739502</ele>
  <time>2011-10-18T05:32:41Z</time>
  <speed>1.300000</speed>
</trkpt>
<trkpt lat="32.598876953" lon="35.140842438">
  <ele>199.837158</ele>
  <time>2011-10-18T05:32:43Z</time>
  <speed>1.120000</speed>
</trkpt>
<trkpt lat="32.598842621" lon="35.140842438">
  <ele>200.454346</ele>
  <time>2011-10-18T05:32:46Z</time>
  <speed>1.280000</speed>
</trkpt>
<trkpt lat="32.598808289" lon="35.140846252">
  <ele>201.927002</ele>
  <time>2011-10-18T05:32:48Z</time>
  <speed>1.420000</speed>
</trkpt>
<trkpt lat="32.598770142" lon="35.140846252">
  <ele>202.419189</ele>
  <time>2011-10-18T05:32:51Z</time>
  <speed>1.440000</speed>
</trkpt>
<trkpt lat="32.598743439" lon="35.140846252">
  <ele>203.641846</ele>
  <time>2011-10-18T05:32:53Z</time>
  <speed>1.230000</speed>
</trkpt>
<trkpt lat="32.598716736" lon="35.140846252">
  <ele>204.950439</ele>
  <time>2011-10-18T05:32:55Z</time>
  <speed>1.200000</speed>
</trkpt>
<trkpt lat="32.598682404" lon="35.140842438">
  <ele>205.083252</ele>
  <time>2011-10-18T05:32:58Z</time>
  <speed>1.580000</speed>
</trkpt>
<trkpt lat="32.598655701" lon="35.140830994">
  <ele>204.325439</ele>
  <time>2011-10-18T05:33:00Z</time>
  <speed>1.560000</speed>
</trkpt>
<trkpt lat="32.598632813" lon="35.140811920">
  <ele>204.071533</ele>
  <time>2011-10-18T05:33:02Z</time>
  <speed>1.500000</speed>
</trkpt>
<trkpt lat="32.598598480" lon="35.140804291">
  <ele>203.946533</ele>
  <time>2011-10-18T05:33:05Z</time>
  <speed>1.410000</speed>
</trkpt>
<trkpt lat="32.598560333" lon="35.140796661">
  <ele>203.434814</ele>
  <time>2011-10-18T05:33:08Z</time>
  <speed>1.440000</speed>
</trkpt>
<trkpt lat="32.598537445" lon="35.140781403">
  <ele>203.923096</ele>
  <time>2011-10-18T05:33:10Z</time>
  <speed>1.240000</speed>
</trkpt>
<trkpt lat="32.598499298" lon="35.140773773">
  <ele>204.407471</ele>
  <time>2011-10-18T05:33:13Z</time>
  <speed>1.400000</speed>
</trkpt>
<trkpt lat="32.598476410" lon="35.140758514">
  <ele>205.528564</ele>
  <time>2011-10-18T05:33:15Z</time>
  <speed>1.560000</speed>
</trkpt>
<trkpt lat="32.598445892" lon="35.140739441">
  <ele>206.251221</ele>
  <time>2011-10-18T05:33:18Z</time>
  <speed>1.360000</speed>
</trkpt>
<trkpt lat="32.598411560" lon="35.140716553">
  <ele>206.262939</ele>
  <time>2011-10-18T05:33:21Z</time>
  <speed>1.300000</speed>
</trkpt>
<trkpt lat="32.598384857" lon="35.140686035">
  <ele>206.895752</ele>
  <time>2011-10-18T05:33:24Z</time>
  <speed>1.650000</speed>
</trkpt>
<trkpt lat="32.598358154" lon="35.140670776">
  <ele>206.497314</ele>
  <time>2011-10-18T05:33:26Z</time>
  <speed>1.570000</speed>
</trkpt>
<trkpt lat="32.598339081" lon="35.140647888">
  <ele>206.634033</ele>
  <time>2011-10-18T05:33:28Z</time>
  <speed>1.430000</speed>
</trkpt>
<trkpt lat="32.598300934" lon="35.140625000">
  <ele>207.294189</ele>
  <time>2011-10-18T05:33:31Z</time>
  <speed>1.580000</speed>
</trkpt>
<trkpt lat="32.598278046" lon="35.140605927">
  <ele>207.137939</ele>
  <time>2011-10-18T05:33:33Z</time>
  <speed>1.750000</speed>
</trkpt>
<trkpt lat="32.598258972" lon="35.140583038">
  <ele>207.489502</ele>
  <time>2011-10-18T05:33:35Z</time>
  <speed>1.500000</speed>
</trkpt>
<trkpt lat="32.598228455" lon="35.140563965">
  <ele>207.427002</ele>
  <time>2011-10-18T05:33:37Z</time>
  <speed>1.860000</speed>
</trkpt>
<trkpt lat="32.598197937" lon="35.140533447">
  <ele>207.680908</ele>
  <time>2011-10-18T05:33:39Z</time>
  <speed>2.140000</speed>
</trkpt>
<trkpt lat="32.598163605" lon="35.140510559">
  <ele>208.036377</ele>
  <time>2011-10-18T05:33:41Z</time>
  <speed>1.870000</speed>
</trkpt>
<trkpt lat="32.598136902" lon="35.140483856">
  <ele>207.856689</ele>
  <time>2011-10-18T05:33:43Z</time>
  <speed>1.820000</speed>
</trkpt>
<trkpt lat="32.598106384" lon="35.140460968">
  <ele>208.344971</ele>
  <time>2011-10-18T05:33:45Z</time>
  <speed>1.670000</speed>
</trkpt>
<trkpt lat="32.598083496" lon="35.140441895">
  <ele>208.622314</ele>
  <time>2011-10-18T05:33:47Z</time>
  <speed>1.820000</speed>
</trkpt>
<trkpt lat="32.598052979" lon="35.140422821">
  <ele>209.423096</ele>
  <time>2011-10-18T05:33:49Z</time>
  <speed>1.840000</speed>
</trkpt>
<trkpt lat="32.598018646" lon="35.140415192">
  <ele>209.915283</ele>
  <time>2011-10-18T05:33:51Z</time>
  <speed>1.840000</speed>
</trkpt>
<trkpt lat="32.597980499" lon="35.140407562">
  <ele>210.188721</ele>
  <time>2011-10-18T05:33:53Z</time>
  <speed>1.950000</speed>
</trkpt>
<trkpt lat="32.597949982" lon="35.140396118">
  <ele>210.380127</ele>
  <time>2011-10-18T05:33:55Z</time>
  <speed>2.040000</speed>
</trkpt>
<trkpt lat="32.597908020" lon="35.140392303">
  <ele>210.212158</ele>
  <time>2011-10-18T05:33:57Z</time>
  <speed>2.230000</speed>
</trkpt>
<trkpt lat="32.597869873" lon="35.140392303">
  <ele>209.880127</ele>
  <time>2011-10-18T05:33:59Z</time>
  <speed>1.900000</speed>
</trkpt>
<trkpt lat="32.597831726" lon="35.140384674">
  <ele>209.524658</ele>
  <time>2011-10-18T05:34:01Z</time>
  <speed>2.050000</speed>
</trkpt>
<trkpt lat="32.597793579" lon="35.140377045">
  <ele>208.583252</ele>
  <time>2011-10-18T05:34:03Z</time>
  <speed>2.500000</speed>
</trkpt>
<trkpt lat="32.597770691" lon="35.140365601">
  <ele>207.719971</ele>
  <time>2011-10-18T05:34:04Z</time>
  <speed>2.860000</speed>
</trkpt>
<trkpt lat="32.597743988" lon="35.140357971">
  <ele>208.485596</ele>
  <time>2011-10-18T05:34:05Z</time>
  <speed>2.850000</speed>
</trkpt>
<trkpt lat="32.597698212" lon="35.140342712">
  <ele>209.372314</ele>
  <time>2011-10-18T05:34:07Z</time>
  <speed>2.690000</speed>
</trkpt>
<trkpt lat="32.597660065" lon="35.140312195">
  <ele>209.770752</ele>
  <time>2011-10-18T05:34:09Z</time>
  <speed>2.370000</speed>
</trkpt>
<trkpt lat="32.597625732" lon="35.140277863">
  <ele>209.993408</ele>
  <time>2011-10-18T05:34:11Z</time>
  <speed>2.730000</speed>
</trkpt>
<trkpt lat="32.597591400" lon="35.140239716">
  <ele>209.473877</ele>
  <time>2011-10-18T05:34:13Z</time>
  <speed>2.740000</speed>
</trkpt>
<trkpt lat="32.597549438" lon="35.140213013">
  <ele>211.485596</ele>
  <time>2011-10-18T05:34:15Z</time>
  <speed>2.850000</speed>
</trkpt>
<trkpt lat="32.597511292" lon="35.140193939">
  <ele>210.856689</ele>
  <time>2011-10-18T05:34:17Z</time>
  <speed>2.470000</speed>
</trkpt>
<trkpt lat="32.597465515" lon="35.140174866">
  <ele>211.766846</ele>
  <time>2011-10-18T05:34:19Z</time>
  <speed>2.490000</speed>
</trkpt>
<trkpt lat="32.597423553" lon="35.140159607">
  <ele>212.966064</ele>
  <time>2011-10-18T05:34:21Z</time>
  <speed>2.560000</speed>
</trkpt>
<trkpt lat="32.597377777" lon="35.140148163">
  <ele>213.360596</ele>
  <time>2011-10-18T05:34:23Z</time>
  <speed>2.620000</speed>
</trkpt>
<trkpt lat="32.597332001" lon="35.140132904">
  <ele>212.446533</ele>
  <time>2011-10-18T05:34:25Z</time>
  <speed>2.620000</speed>
</trkpt>
<trkpt lat="32.597286224" lon="35.140117645">
  <ele>212.848877</ele>
  <time>2011-10-18T05:34:27Z</time>
  <speed>2.700000</speed>
</trkpt>
<trkpt lat="32.597240448" lon="35.140102386">
  <ele>210.731689</ele>
  <time>2011-10-18T05:34:29Z</time>
  <speed>2.810000</speed>
</trkpt>
<trkpt lat="32.597194672" lon="35.140090942">
  <ele>210.829346</ele>
  <time>2011-10-18T05:34:31Z</time>
  <speed>2.900000</speed>
</trkpt>
<trkpt lat="32.597141266" lon="35.140075684">
  <ele>210.884033</ele>
  <time>2011-10-18T05:34:33Z</time>
  <speed>2.840000</speed>
</trkpt>
<trkpt lat="32.597114563" lon="35.140068054">
  <ele>210.708252</ele>
  <time>2011-10-18T05:34:34Z</time>
  <speed>2.740000</speed>
</trkpt>
<trkpt lat="32.597068787" lon="35.140056610">
  <ele>209.946533</ele>
  <time>2011-10-18T05:34:36Z</time>
  <speed>2.860000</speed>
</trkpt>
<trkpt lat="32.597042084" lon="35.140052795">
  <ele>210.969971</ele>
  <time>2011-10-18T05:34:37Z</time>
  <speed>2.690000</speed>
</trkpt>
<trkpt lat="32.597000122" lon="35.140041351">
  <ele>211.145752</ele>
  <time>2011-10-18T05:34:39Z</time>
  <speed>2.580000</speed>
</trkpt>
<trkpt lat="32.596973419" lon="35.140033722">
  <ele>212.313721</ele>
  <time>2011-10-18T05:34:40Z</time>
  <speed>2.520000</speed>
</trkpt>
<trkpt lat="32.596920013" lon="35.140022278">
  <ele>212.743408</ele>
  <time>2011-10-18T05:34:42Z</time>
  <speed>3.190000</speed>
</trkpt>
<trkpt lat="32.596893311" lon="35.140014648">
  <ele>213.262939</ele>
  <time>2011-10-18T05:34:43Z</time>
  <speed>3.270000</speed>
</trkpt>
<trkpt lat="32.596839905" lon="35.140007019">
  <ele>212.180908</ele>
  <time>2011-10-18T05:34:45Z</time>
  <speed>3.000000</speed>
</trkpt>
<trkpt lat="32.596813202" lon="35.140007019">
  <ele>213.122314</ele>
  <time>2011-10-18T05:34:46Z</time>
  <speed>3.020000</speed>
</trkpt>
<trkpt lat="32.596786499" lon="35.140003204">
  <ele>213.606689</ele>
  <time>2011-10-18T05:34:47Z</time>
  <speed>3.100000</speed>
</trkpt>
<trkpt lat="32.596759796" lon="35.139999390">
  <ele>212.962158</ele>
  <time>2011-10-18T05:34:48Z</time>
  <speed>2.970000</speed>
</trkpt>
<trkpt lat="32.596729279" lon="35.139991760">
  <ele>211.895752</ele>
  <time>2011-10-18T05:34:49Z</time>
  <speed>3.010000</speed>
</trkpt>
<trkpt lat="32.596675873" lon="35.139995575">
  <ele>213.110596</ele>
  <time>2011-10-18T05:34:51Z</time>
  <speed>2.920000</speed>
</trkpt>
<trkpt lat="32.596649170" lon="35.139987946">
  <ele>213.634033</ele>
  <time>2011-10-18T05:34:52Z</time>
  <speed>2.970000</speed>
</trkpt>
<trkpt lat="32.596622467" lon="35.139984131">
  <ele>213.489502</ele>
  <time>2011-10-18T05:34:53Z</time>
  <speed>2.940000</speed>
</trkpt>
<trkpt lat="32.596572876" lon="35.139976501">
  <ele>212.661377</ele>
  <time>2011-10-18T05:34:55Z</time>
  <speed>2.940000</speed>
</trkpt>
<trkpt lat="32.596546173" lon="35.139972687">
  <ele>212.856689</ele>
  <time>2011-10-18T05:34:56Z</time>
  <speed>2.900000</speed>
</trkpt>
<trkpt lat="32.596500397" lon="35.139961243">
  <ele>212.364502</ele>
  <time>2011-10-18T05:34:58Z</time>
  <speed>2.940000</speed>
</trkpt>
<trkpt lat="32.596473694" lon="35.139957428">
  <ele>210.969971</ele>
  <time>2011-10-18T05:34:59Z</time>
  <speed>2.720000</speed>
</trkpt>
<trkpt lat="32.596443176" lon="35.139957428">
  <ele>211.634033</ele>
  <time>2011-10-18T05:35:00Z</time>
  <speed>2.950000</speed>
</trkpt>
<trkpt lat="32.596385956" lon="35.139961243">
  <ele>213.817627</ele>
  <time>2011-10-18T05:35:02Z</time>
  <speed>2.990000</speed>
</trkpt>
<trkpt lat="32.596332550" lon="35.139949799">
  <ele>212.731689</ele>
  <time>2011-10-18T05:35:04Z</time>
  <speed>2.990000</speed>
</trkpt>
<trkpt lat="32.596305847" lon="35.139945984">
  <ele>212.864502</ele>
  <time>2011-10-18T05:35:05Z</time>
  <speed>2.980000</speed>
</trkpt>
<trkpt lat="32.596279144" lon="35.139934540">
  <ele>213.016846</ele>
  <time>2011-10-18T05:35:06Z</time>
  <speed>3.180000</speed>
</trkpt>
<trkpt lat="32.596248627" lon="35.139926910">
  <ele>212.634033</ele>
  <time>2011-10-18T05:35:07Z</time>
  <speed>3.240000</speed>
</trkpt>
<trkpt lat="32.596206665" lon="35.139904022">
  <ele>212.134033</ele>
  <time>2011-10-18T05:35:09Z</time>
  <speed>2.690000</speed>
</trkpt>
<trkpt lat="32.596160889" lon="35.139881134">
  <ele>211.290283</ele>
  <time>2011-10-18T05:35:11Z</time>
  <speed>2.940000</speed>
</trkpt>
<trkpt lat="32.596107483" lon="35.139865875">
  <ele>212.782471</ele>
  <time>2011-10-18T05:35:13Z</time>
  <speed>2.990000</speed>
</trkpt>
<trkpt lat="32.596057892" lon="35.139858246">
  <ele>213.673096</ele>
  <time>2011-10-18T05:35:15Z</time>
  <speed>2.980000</speed>
</trkpt>
<trkpt lat="32.596027374" lon="35.139854431">
  <ele>215.145752</ele>
  <time>2011-10-18T05:35:16Z</time>
  <speed>2.860000</speed>
</trkpt>
<trkpt lat="32.596000671" lon="35.139842987">
  <ele>215.887939</ele>
  <time>2011-10-18T05:35:17Z</time>
  <speed>2.850000</speed>
</trkpt>
<trkpt lat="32.595962524" lon="35.139820099">
  <ele>215.212158</ele>
  <time>2011-10-18T05:35:19Z</time>
  <speed>2.660000</speed>
</trkpt>
<trkpt lat="32.595928192" lon="35.139781952">
  <ele>214.731689</ele>
  <time>2011-10-18T05:35:21Z</time>
  <speed>2.300000</speed>
</trkpt>
<trkpt lat="32.595890045" lon="35.139762878">
  <ele>215.993408</ele>
  <time>2011-10-18T05:35:23Z</time>
  <speed>2.190000</speed>
</trkpt>
<trkpt lat="32.595851898" lon="35.139762878">
  <ele>217.786377</ele>
  <time>2011-10-18T05:35:25Z</time>
  <speed>2.350000</speed>
</trkpt>
<trkpt lat="32.595825195" lon="35.139755249">
  <ele>218.759033</ele>
  <time>2011-10-18T05:35:26Z</time>
  <speed>2.610000</speed>
</trkpt>
<trkpt lat="32.595794678" lon="35.139736176">
  <ele>218.247314</ele>
  <time>2011-10-18T05:35:28Z</time>
  <speed>2.310000</speed>
</trkpt>
<trkpt lat="32.595752716" lon="35.139724731">
  <ele>218.407471</ele>
  <time>2011-10-18T05:35:30Z</time>
  <speed>2.570000</speed>
</trkpt>
<trkpt lat="32.595706940" lon="35.139720917">
  <ele>218.618408</ele>
  <time>2011-10-18T05:35:32Z</time>
  <speed>2.470000</speed>
</trkpt>
<trkpt lat="32.595657349" lon="35.139720917">
  <ele>219.005127</ele>
  <time>2011-10-18T05:35:34Z</time>
  <speed>2.720000</speed>
</trkpt>
<trkpt lat="32.595630646" lon="35.139717102">
  <ele>218.762939</ele>
  <time>2011-10-18T05:35:35Z</time>
  <speed>2.710000</speed>
</trkpt>
<trkpt lat="32.595581055" lon="35.139713287">
  <ele>218.614502</ele>
  <time>2011-10-18T05:35:37Z</time>
  <speed>2.560000</speed>
</trkpt>
<trkpt lat="32.595539093" lon="35.139698029">
  <ele>217.430908</ele>
  <time>2011-10-18T05:35:39Z</time>
  <speed>2.620000</speed>
</trkpt>
<trkpt lat="32.595493317" lon="35.139678955">
  <ele>217.954346</ele>
  <time>2011-10-18T05:35:41Z</time>
  <speed>2.530000</speed>
</trkpt>
<trkpt lat="32.595447540" lon="35.139659882">
  <ele>219.583252</ele>
  <time>2011-10-18T05:35:43Z</time>
  <speed>2.480000</speed>
</trkpt>
<trkpt lat="32.595409393" lon="35.139633179">
  <ele>220.516846</ele>
  <time>2011-10-18T05:35:45Z</time>
  <speed>2.440000</speed>
</trkpt>
<trkpt lat="32.595375061" lon="35.139598846">
  <ele>219.876221</ele>
  <time>2011-10-18T05:35:47Z</time>
  <speed>2.660000</speed>
</trkpt>
<trkpt lat="32.595336914" lon="35.139560699">
  <ele>218.899658</ele>
  <time>2011-10-18T05:35:49Z</time>
  <speed>2.770000</speed>
</trkpt>
<trkpt lat="32.595298767" lon="35.139530182">
  <ele>217.618408</ele>
  <time>2011-10-18T05:35:51Z</time>
  <speed>2.550000</speed>
</trkpt>
<trkpt lat="32.595256805" lon="35.139499664">
  <ele>217.282471</ele>
  <time>2011-10-18T05:35:53Z</time>
  <speed>2.650000</speed>
</trkpt>
<trkpt lat="32.595214844" lon="35.139484406">
  <ele>216.196533</ele>
  <time>2011-10-18T05:35:55Z</time>
  <speed>2.480000</speed>
</trkpt>
<trkpt lat="32.595169067" lon="35.139465332">
  <ele>215.587158</ele>
  <time>2011-10-18T05:35:57Z</time>
  <speed>2.500000</speed>
</trkpt>
<trkpt lat="32.595119476" lon="35.139461517">
  <ele>215.997314</ele>
  <time>2011-10-18T05:35:59Z</time>
  <speed>2.570000</speed>
</trkpt>
<trkpt lat="32.595069885" lon="35.139450073">
  <ele>216.524658</ele>
  <time>2011-10-18T05:36:01Z</time>
  <speed>2.860000</speed>
</trkpt>
<trkpt lat="32.595020294" lon="35.139442444">
  <ele>216.227783</ele>
  <time>2011-10-18T05:36:03Z</time>
  <speed>3.010000</speed>
</trkpt>
<trkpt lat="32.594970703" lon="35.139419556">
  <ele>216.091064</ele>
  <time>2011-10-18T05:36:05Z</time>
  <speed>3.140000</speed>
</trkpt>
<trkpt lat="32.594944000" lon="35.139408112">
  <ele>216.755127</ele>
  <time>2011-10-18T05:36:06Z</time>
  <speed>3.040000</speed>
</trkpt>
<trkpt lat="32.594917297" lon="35.139400482">
  <ele>218.716064</ele>
  <time>2011-10-18T05:36:07Z</time>
  <speed>2.980000</speed>
</trkpt>
<trkpt lat="32.594890594" lon="35.139396667">
  <ele>220.118408</ele>
  <time>2011-10-18T05:36:08Z</time>
  <speed>2.900000</speed>
</trkpt>
<trkpt lat="32.594863892" lon="35.139381409">
  <ele>220.321533</ele>
  <time>2011-10-18T05:36:09Z</time>
  <speed>2.990000</speed>
</trkpt>
<trkpt lat="32.594818115" lon="35.139347076">
  <ele>219.645752</ele>
  <time>2011-10-18T05:36:11Z</time>
  <speed>2.950000</speed>
</trkpt>
<trkpt lat="32.594791412" lon="35.139335632">
  <ele>220.626221</ele>
  <time>2011-10-18T05:36:12Z</time>
  <speed>2.690000</speed>
</trkpt>
<trkpt lat="32.594753265" lon="35.139305115">
  <ele>220.899658</ele>
  <time>2011-10-18T05:36:14Z</time>
  <speed>2.890000</speed>
</trkpt>
<trkpt lat="32.594730377" lon="35.139282227">
  <ele>219.923096</ele>
  <time>2011-10-18T05:36:15Z</time>
  <speed>2.990000</speed>
</trkpt>
<trkpt lat="32.594688416" lon="35.139251709">
  <ele>220.680908</ele>
  <time>2011-10-18T05:36:17Z</time>
  <speed>2.840000</speed>
</trkpt>
<trkpt lat="32.594642639" lon="35.139225006">
  <ele>222.208252</ele>
  <time>2011-10-18T05:36:19Z</time>
  <speed>2.740000</speed>
</trkpt>
<trkpt lat="32.594596863" lon="35.139194489">
  <ele>221.927002</ele>
  <time>2011-10-18T05:36:21Z</time>
  <speed>2.760000</speed>
</trkpt>
<trkpt lat="32.594554901" lon="35.139167786">
  <ele>223.454346</ele>
  <time>2011-10-18T05:36:23Z</time>
  <speed>2.710000</speed>
</trkpt>
<trkpt lat="32.594509125" lon="35.139141083">
  <ele>225.161377</ele>
  <time>2011-10-18T05:36:25Z</time>
  <speed>2.560000</speed>
</trkpt>
<trkpt lat="32.594474792" lon="35.139114380">
  <ele>226.071533</ele>
  <time>2011-10-18T05:36:27Z</time>
  <speed>2.590000</speed>
</trkpt>
<trkpt lat="32.594436646" lon="35.139080048">
  <ele>225.770752</ele>
  <time>2011-10-18T05:36:29Z</time>
  <speed>2.750000</speed>
</trkpt>
<trkpt lat="32.594398499" lon="35.139049530">
  <ele>227.286377</ele>
  <time>2011-10-18T05:36:31Z</time>
  <speed>2.570000</speed>
</trkpt>
<trkpt lat="32.594364166" lon="35.139022827">
  <ele>226.696533</ele>
  <time>2011-10-18T05:36:33Z</time>
  <speed>2.760000</speed>
</trkpt>
<trkpt lat="32.594322205" lon="35.138999939">
  <ele>227.766846</ele>
  <time>2011-10-18T05:36:35Z</time>
  <speed>2.410000</speed>
</trkpt>
<trkpt lat="32.594284058" lon="35.138977051">
  <ele>229.071533</ele>
  <time>2011-10-18T05:36:37Z</time>
  <speed>2.230000</speed>
</trkpt>
<trkpt lat="32.594253540" lon="35.138957977">
  <ele>229.180908</ele>
  <time>2011-10-18T05:36:39Z</time>
  <speed>2.170000</speed>
</trkpt>
<trkpt lat="32.594215393" lon="35.138931274">
  <ele>231.505127</ele>
  <time>2011-10-18T05:36:41Z</time>
  <speed>2.240000</speed>
</trkpt>
<trkpt lat="32.594184875" lon="35.138900757">
  <ele>230.602783</ele>
  <time>2011-10-18T05:36:43Z</time>
  <speed>2.100000</speed>
</trkpt>
<trkpt lat="32.594150543" lon="35.138874054">
  <ele>230.255127</ele>
  <time>2011-10-18T05:36:45Z</time>
  <speed>2.340000</speed>
</trkpt>
<trkpt lat="32.594112396" lon="35.138851166">
  <ele>230.716064</ele>
  <time>2011-10-18T05:36:47Z</time>
  <speed>2.130000</speed>
</trkpt>
<trkpt lat="32.594081879" lon="35.138820648">
  <ele>230.583252</ele>
  <time>2011-10-18T05:36:49Z</time>
  <speed>2.280000</speed>
</trkpt>
<trkpt lat="32.594047546" lon="35.138793945">
  <ele>230.821533</ele>
  <time>2011-10-18T05:36:51Z</time>
  <speed>2.090000</speed>
</trkpt>
<trkpt lat="32.594013214" lon="35.138763428">
  <ele>230.727783</ele>
  <time>2011-10-18T05:36:53Z</time>
  <speed>2.250000</speed>
</trkpt>
<trkpt lat="32.593982697" lon="35.138736725">
  <ele>230.153564</ele>
  <time>2011-10-18T05:36:55Z</time>
  <speed>2.260000</speed>
</trkpt>
<trkpt lat="32.593952179" lon="35.138713837">
  <ele>230.614502</ele>
  <time>2011-10-18T05:36:57Z</time>
  <speed>2.090000</speed>
</trkpt>
<trkpt lat="32.593917847" lon="35.138690948">
  <ele>231.032471</ele>
  <time>2011-10-18T05:36:59Z</time>
  <speed>2.120000</speed>
</trkpt>
<trkpt lat="32.593891144" lon="35.138660431">
  <ele>229.485596</ele>
  <time>2011-10-18T05:37:01Z</time>
  <speed>1.880000</speed>
</trkpt>
<trkpt lat="32.593860626" lon="35.138629913">
  <ele>231.208252</ele>
  <time>2011-10-18T05:37:03Z</time>
  <speed>2.230000</speed>
</trkpt>
<trkpt lat="32.593833923" lon="35.138599396">
  <ele>231.278564</ele>
  <time>2011-10-18T05:37:05Z</time>
  <speed>2.240000</speed>
</trkpt>
<trkpt lat="32.593811035" lon="35.138568878">
  <ele>231.798096</ele>
  <time>2011-10-18T05:37:07Z</time>
  <speed>2.050000</speed>
</trkpt>
<trkpt lat="32.593791962" lon="35.138530731">
  <ele>231.259033</ele>
  <time>2011-10-18T05:37:09Z</time>
  <speed>2.120000</speed>
</trkpt>
<trkpt lat="32.593776703" lon="35.138496399">
  <ele>230.602783</ele>
  <time>2011-10-18T05:37:11Z</time>
  <speed>1.750000</speed>
</trkpt>
<trkpt lat="32.593761444" lon="35.138450623">
  <ele>230.282471</ele>
  <time>2011-10-18T05:37:13Z</time>
  <speed>2.330000</speed>
</trkpt>
<trkpt lat="32.593738556" lon="35.138416290">
  <ele>230.376221</ele>
  <time>2011-10-18T05:37:15Z</time>
  <speed>1.540000</speed>
</trkpt>
<trkpt lat="32.593719482" lon="35.138374329">
  <ele>230.895752</ele>
  <time>2011-10-18T05:37:18Z</time>
  <speed>1.940000</speed>
</trkpt>
<trkpt lat="32.593704224" lon="35.138336182">
  <ele>231.583252</ele>
  <time>2011-10-18T05:37:20Z</time>
  <speed>1.850000</speed>
</trkpt>
<trkpt lat="32.593692780" lon="35.138301849">
  <ele>231.286377</ele>
  <time>2011-10-18T05:37:22Z</time>
  <speed>1.980000</speed>
</trkpt>
<trkpt lat="32.593681335" lon="35.138252258">
  <ele>231.700439</ele>
  <time>2011-10-18T05:37:24Z</time>
  <speed>2.280000</speed>
</trkpt>
<trkpt lat="32.593673706" lon="35.138210297">
  <ele>232.587158</ele>
  <time>2011-10-18T05:37:26Z</time>
  <speed>1.920000</speed>
</trkpt>
<trkpt lat="32.593669891" lon="35.138172150">
  <ele>232.505127</ele>
  <time>2011-10-18T05:37:28Z</time>
  <speed>2.110000</speed>
</trkpt>
<trkpt lat="32.593650818" lon="35.138137817">
  <ele>233.009033</ele>
  <time>2011-10-18T05:37:30Z</time>
  <speed>1.980000</speed>
</trkpt>
<trkpt lat="32.593635559" lon="35.138107300">
  <ele>232.645752</ele>
  <time>2011-10-18T05:37:32Z</time>
  <speed>1.820000</speed>
</trkpt>
<trkpt lat="32.593616486" lon="35.138069153">
  <ele>232.473877</ele>
  <time>2011-10-18T05:37:34Z</time>
  <speed>2.160000</speed>
</trkpt>
<trkpt lat="32.593601227" lon="35.138038635">
  <ele>232.239502</ele>
  <time>2011-10-18T05:37:36Z</time>
  <speed>1.680000</speed>
</trkpt>
<trkpt lat="32.593585968" lon="35.137992859">
  <ele>232.923096</ele>
  <time>2011-10-18T05:37:39Z</time>
  <speed>2.000000</speed>
</trkpt>
<trkpt lat="32.593570709" lon="35.137958527">
  <ele>233.341064</ele>
  <time>2011-10-18T05:37:41Z</time>
  <speed>1.800000</speed>
</trkpt>
<trkpt lat="32.593559265" lon="35.137916565">
  <ele>233.313721</ele>
  <time>2011-10-18T05:37:43Z</time>
  <speed>1.770000</speed>
</trkpt>
<trkpt lat="32.593551636" lon="35.137882233">
  <ele>232.774658</ele>
  <time>2011-10-18T05:37:45Z</time>
  <speed>1.400000</speed>
</trkpt>
<trkpt lat="32.593536377" lon="35.137855530">
  <ele>233.692627</ele>
  <time>2011-10-18T05:37:47Z</time>
  <speed>1.600000</speed>
</trkpt>
<trkpt lat="32.593528748" lon="35.137821198">
  <ele>233.348877</ele>
  <time>2011-10-18T05:37:49Z</time>
  <speed>1.830000</speed>
</trkpt>
<trkpt lat="32.593517303" lon="35.137786865">
  <ele>233.708252</ele>
  <time>2011-10-18T05:37:51Z</time>
  <speed>1.780000</speed>
</trkpt>
<trkpt lat="32.593505859" lon="35.137760162">
  <ele>234.298096</ele>
  <time>2011-10-18T05:37:53Z</time>
  <speed>1.820000</speed>
</trkpt>
<trkpt lat="32.593490601" lon="35.137722015">
  <ele>234.485596</ele>
  <time>2011-10-18T05:37:55Z</time>
  <speed>1.680000</speed>
</trkpt>
<trkpt lat="32.593475342" lon="35.137687683">
  <ele>234.899658</ele>
  <time>2011-10-18T05:37:57Z</time>
  <speed>1.710000</speed>
</trkpt>
<trkpt lat="32.593456268" lon="35.137657166">
  <ele>234.891846</ele>
  <time>2011-10-18T05:37:59Z</time>
  <speed>1.770000</speed>
</trkpt>
<trkpt lat="32.593433380" lon="35.137630463">
  <ele>234.751221</ele>
  <time>2011-10-18T05:38:01Z</time>
  <speed>1.550000</speed>
</trkpt>
<trkpt lat="32.593414307" lon="35.137607574">
  <ele>234.704346</ele>
  <time>2011-10-18T05:38:03Z</time>
  <speed>1.630000</speed>
</trkpt>
<trkpt lat="32.593391418" lon="35.137588501">
  <ele>235.532471</ele>
  <time>2011-10-18T05:38:05Z</time>
  <speed>1.610000</speed>
</trkpt>
<trkpt lat="32.593360901" lon="35.137561798">
  <ele>236.364502</ele>
  <time>2011-10-18T05:38:07Z</time>
  <speed>1.770000</speed>
</trkpt>
<trkpt lat="32.593330383" lon="35.137538910">
  <ele>237.477783</ele>
  <time>2011-10-18T05:38:09Z</time>
  <speed>1.770000</speed>
</trkpt>
<trkpt lat="32.593299866" lon="35.137519836">
  <ele>238.634033</ele>
  <time>2011-10-18T05:38:11Z</time>
  <speed>1.770000</speed>
</trkpt>
<trkpt lat="32.593273163" lon="35.137504578">
  <ele>240.114502</ele>
  <time>2011-10-18T05:38:13Z</time>
  <speed>1.930000</speed>
</trkpt>
<trkpt lat="32.593238831" lon="35.137489319">
  <ele>240.977783</ele>
  <time>2011-10-18T05:38:15Z</time>
  <speed>1.620000</speed>
</trkpt>
<trkpt lat="32.593212128" lon="35.137470245">
  <ele>241.286377</ele>
  <time>2011-10-18T05:38:17Z</time>
  <speed>1.880000</speed>
</trkpt>
<trkpt lat="32.593185425" lon="35.137447357">
  <ele>241.657471</ele>
  <time>2011-10-18T05:38:19Z</time>
  <speed>1.650000</speed>
</trkpt>
<trkpt lat="32.593166351" lon="35.137420654">
  <ele>241.380127</ele>
  <time>2011-10-18T05:38:23Z</time>
  <speed>0.730000</speed>
</trkpt>
<trkpt lat="32.593132019" lon="35.137443542">
  <ele>242.169189</ele>
  <time>2011-10-18T05:38:28Z</time>
  <speed>1.420000</speed>
</trkpt>
<trkpt lat="32.593109131" lon="35.137439728">
  <ele>240.751221</ele>
  <time>2011-10-18T05:38:31Z</time>
  <speed>1.180000</speed>
</trkpt>
<trkpt lat="32.593070984" lon="35.137443542">
  <ele>240.770752</ele>
  <time>2011-10-18T05:38:34Z</time>
  <speed>1.180000</speed>
</trkpt>
<trkpt lat="32.593032837" lon="35.137443542">
  <ele>239.856689</ele>
  <time>2011-10-18T05:38:37Z</time>
  <speed>1.580000</speed>
</trkpt>
<trkpt lat="32.593006134" lon="35.137435913">
  <ele>240.548096</ele>
  <time>2011-10-18T05:38:39Z</time>
  <speed>1.750000</speed>
</trkpt>
<trkpt lat="32.592971802" lon="35.137416840">
  <ele>240.731689</ele>
  <time>2011-10-18T05:38:41Z</time>
  <speed>2.070000</speed>
</trkpt>
<trkpt lat="32.592945099" lon="35.137393951">
  <ele>240.704346</ele>
  <time>2011-10-18T05:38:43Z</time>
  <speed>1.850000</speed>
</trkpt>
<trkpt lat="32.592918396" lon="35.137367249">
  <ele>241.091064</ele>
  <time>2011-10-18T05:38:45Z</time>
  <speed>1.930000</speed>
</trkpt>
<trkpt lat="32.592887878" lon="35.137351990">
  <ele>240.903564</ele>
  <time>2011-10-18T05:38:47Z</time>
  <speed>1.880000</speed>
</trkpt>
<trkpt lat="32.592857361" lon="35.137329102">
  <ele>241.677002</ele>
  <time>2011-10-18T05:38:49Z</time>
  <speed>1.960000</speed>
</trkpt>
<trkpt lat="32.592826843" lon="35.137317657">
  <ele>242.618408</ele>
  <time>2011-10-18T05:38:51Z</time>
  <speed>1.690000</speed>
</trkpt>
<trkpt lat="32.592800140" lon="35.137298584">
  <ele>242.993408</ele>
  <time>2011-10-18T05:38:53Z</time>
  <speed>1.810000</speed>
</trkpt>
<trkpt lat="32.592777252" lon="35.137264252">
  <ele>242.969971</ele>
  <time>2011-10-18T05:38:55Z</time>
  <speed>1.740000</speed>
</trkpt>
<trkpt lat="32.592765808" lon="35.137229919">
  <ele>242.305908</ele>
  <time>2011-10-18T05:38:57Z</time>
  <speed>1.540000</speed>
</trkpt>
<trkpt lat="32.592739105" lon="35.137203217">
  <ele>242.735596</ele>
  <time>2011-10-18T05:38:59Z</time>
  <speed>1.690000</speed>
</trkpt>
<trkpt lat="32.592712402" lon="35.137176514">
  <ele>242.938721</ele>
  <time>2011-10-18T05:39:01Z</time>
  <speed>1.660000</speed>
</trkpt>
<trkpt lat="32.592685699" lon="35.137149811">
  <ele>243.704346</ele>
  <time>2011-10-18T05:39:03Z</time>
  <speed>1.830000</speed>
</trkpt>
<trkpt lat="32.592666626" lon="35.137130737">
  <ele>243.891846</ele>
  <time>2011-10-18T05:39:05Z</time>
  <speed>1.480000</speed>
</trkpt>
<trkpt lat="32.592643738" lon="35.137096405">
  <ele>244.052002</ele>
  <time>2011-10-18T05:39:07Z</time>
  <speed>1.610000</speed>
</trkpt>
<trkpt lat="32.592617035" lon="35.137073517">
  <ele>244.876221</ele>
  <time>2011-10-18T05:39:09Z</time>
  <speed>1.740000</speed>
</trkpt>
<trkpt lat="32.592590332" lon="35.137046814">
  <ele>244.860596</ele>
  <time>2011-10-18T05:39:11Z</time>
  <speed>1.790000</speed>
</trkpt>
<trkpt lat="32.592567444" lon="35.137020111">
  <ele>245.466064</ele>
  <time>2011-10-18T05:39:13Z</time>
  <speed>1.780000</speed>
</trkpt>
<trkpt lat="32.592536926" lon="35.136993408">
  <ele>245.907471</ele>
  <time>2011-10-18T05:39:15Z</time>
  <speed>1.850000</speed>
</trkpt>
<trkpt lat="32.592514038" lon="35.136970520">
  <ele>246.012939</ele>
  <time>2011-10-18T05:39:17Z</time>
  <speed>1.660000</speed>
</trkpt>
<trkpt lat="32.592491150" lon="35.136951447">
  <ele>246.118408</ele>
  <time>2011-10-18T05:39:19Z</time>
  <speed>1.580000</speed>
</trkpt>
<trkpt lat="32.592468262" lon="35.136932373">
  <ele>245.122314</ele>
  <time>2011-10-18T05:39:21Z</time>
  <speed>1.770000</speed>
</trkpt>
<trkpt lat="32.592445374" lon="35.136913300">
  <ele>245.028564</ele>
  <time>2011-10-18T05:39:23Z</time>
  <speed>1.900000</speed>
</trkpt>
<trkpt lat="32.592414856" lon="35.136886597">
  <ele>245.141846</ele>
  <time>2011-10-18T05:39:25Z</time>
  <speed>1.790000</speed>
</trkpt>
<trkpt lat="32.592391968" lon="35.136859894">
  <ele>244.794189</ele>
  <time>2011-10-18T05:39:27Z</time>
  <speed>1.580000</speed>
</trkpt>
<trkpt lat="32.592372894" lon="35.136833191">
  <ele>244.837158</ele>
  <time>2011-10-18T05:39:29Z</time>
  <speed>1.610000</speed>
</trkpt>
<trkpt lat="32.592353821" lon="35.136814117">
  <ele>245.762939</ele>
  <time>2011-10-18T05:39:31Z</time>
  <speed>1.530000</speed>
</trkpt>
<trkpt lat="32.592327118" lon="35.136798859">
  <ele>246.380127</ele>
  <time>2011-10-18T05:39:33Z</time>
  <speed>1.730000</speed>
</trkpt>
<trkpt lat="32.592308044" lon="35.136772156">
  <ele>246.884033</ele>
  <time>2011-10-18T05:39:35Z</time>
  <speed>1.770000</speed>
</trkpt>
<trkpt lat="32.592281342" lon="35.136749268">
  <ele>247.442627</ele>
  <time>2011-10-18T05:39:37Z</time>
  <speed>1.930000</speed>
</trkpt>
<trkpt lat="32.592254639" lon="35.136734009">
  <ele>247.477783</ele>
  <time>2011-10-18T05:39:39Z</time>
  <speed>1.640000</speed>
</trkpt>
<trkpt lat="32.592235565" lon="35.136707306">
  <ele>247.563721</ele>
  <time>2011-10-18T05:39:41Z</time>
  <speed>1.820000</speed>
</trkpt>
<trkpt lat="32.592208862" lon="35.136684418">
  <ele>248.216064</ele>
  <time>2011-10-18T05:39:43Z</time>
  <speed>1.620000</speed>
</trkpt>
<trkpt lat="32.592182159" lon="35.136657715">
  <ele>248.966064</ele>
  <time>2011-10-18T05:39:45Z</time>
  <speed>1.920000</speed>
</trkpt>
<trkpt lat="32.592155457" lon="35.136634827">
  <ele>249.884033</ele>
  <time>2011-10-18T05:39:47Z</time>
  <speed>1.680000</speed>
</trkpt>
<trkpt lat="32.592128754" lon="35.136604309">
  <ele>251.216064</ele>
  <time>2011-10-18T05:39:49Z</time>
  <speed>1.810000</speed>
</trkpt>
<trkpt lat="32.592105865" lon="35.136581421">
  <ele>252.399658</ele>
  <time>2011-10-18T05:39:51Z</time>
  <speed>1.530000</speed>
</trkpt>
<trkpt lat="32.592075348" lon="35.136562347">
  <ele>252.708252</ele>
  <time>2011-10-18T05:39:53Z</time>
  <speed>1.620000</speed>
</trkpt>
<trkpt lat="32.592052460" lon="35.136547089">
  <ele>253.368408</ele>
  <time>2011-10-18T05:39:55Z</time>
  <speed>1.820000</speed>
</trkpt>
<trkpt lat="32.592014313" lon="35.136531830">
  <ele>253.040283</ele>
  <time>2011-10-18T05:39:58Z</time>
  <speed>1.300000</speed>
</trkpt>
<trkpt lat="32.591983795" lon="35.136524200">
  <ele>252.786377</ele>
  <time>2011-10-18T05:40:00Z</time>
  <speed>2.270000</speed>
</trkpt>
<trkpt lat="32.591953278" lon="35.136516571">
  <ele>252.677002</ele>
  <time>2011-10-18T05:40:02Z</time>
  <speed>1.450000</speed>
</trkpt>
<trkpt lat="32.591922760" lon="35.136512756">
  <ele>252.380127</ele>
  <time>2011-10-18T05:40:04Z</time>
  <speed>1.680000</speed>
</trkpt>
<trkpt lat="32.591888428" lon="35.136501312">
  <ele>253.282471</ele>
  <time>2011-10-18T05:40:06Z</time>
  <speed>1.950000</speed>
</trkpt>
<trkpt lat="32.591854095" lon="35.136493683">
  <ele>253.958252</ele>
  <time>2011-10-18T05:40:08Z</time>
  <speed>1.820000</speed>
</trkpt>
<trkpt lat="32.591823578" lon="35.136478424">
  <ele>253.614502</ele>
  <time>2011-10-18T05:40:10Z</time>
  <speed>1.940000</speed>
</trkpt>
<trkpt lat="32.591793060" lon="35.136463165">
  <ele>253.352783</ele>
  <time>2011-10-18T05:40:12Z</time>
  <speed>1.890000</speed>
</trkpt>
<trkpt lat="32.591758728" lon="35.136447906">
  <ele>253.802002</ele>
  <time>2011-10-18T05:40:14Z</time>
  <speed>1.850000</speed>
</trkpt>
<trkpt lat="32.591732025" lon="35.136432648">
  <ele>253.126221</ele>
  <time>2011-10-18T05:40:16Z</time>
  <speed>2.050000</speed>
</trkpt>
<trkpt lat="32.591697693" lon="35.136413574">
  <ele>253.501221</ele>
  <time>2011-10-18T05:40:18Z</time>
  <speed>1.900000</speed>
</trkpt>
<trkpt lat="32.591663361" lon="35.136402130">
  <ele>254.270752</ele>
  <time>2011-10-18T05:40:20Z</time>
  <speed>1.770000</speed>
</trkpt>
<trkpt lat="32.591632843" lon="35.136383057">
  <ele>254.786377</ele>
  <time>2011-10-18T05:40:22Z</time>
  <speed>1.780000</speed>
</trkpt>
<trkpt lat="32.591609955" lon="35.136363983">
  <ele>255.395752</ele>
  <time>2011-10-18T05:40:24Z</time>
  <speed>1.670000</speed>
</trkpt>
<trkpt lat="32.591579437" lon="35.136348724">
  <ele>255.821533</ele>
  <time>2011-10-18T05:40:26Z</time>
  <speed>2.020000</speed>
</trkpt>
<trkpt lat="32.591552734" lon="35.136329651">
  <ele>256.033691</ele>
  <time>2011-10-18T05:40:28Z</time>
  <speed>1.680000</speed>
</trkpt>
<trkpt lat="32.591518402" lon="35.136310577">
  <ele>256.775879</ele>
  <time>2011-10-18T05:40:30Z</time>
  <speed>1.870000</speed>
</trkpt>
<trkpt lat="32.591491699" lon="35.136295319">
  <ele>256.939941</ele>
  <time>2011-10-18T05:40:32Z</time>
  <speed>1.520000</speed>
</trkpt>
<trkpt lat="32.591468811" lon="35.136276245">
  <ele>256.729004</ele>
  <time>2011-10-18T05:40:34Z</time>
  <speed>1.330000</speed>
</trkpt>
<trkpt lat="32.591445923" lon="35.136257172">
  <ele>257.025879</ele>
  <time>2011-10-18T05:40:36Z</time>
  <speed>2.180000</speed>
</trkpt>
<trkpt lat="32.591415405" lon="35.136222839">
  <ele>257.361816</ele>
  <time>2011-10-18T05:40:38Z</time>
  <speed>1.940000</speed>
</trkpt>
<trkpt lat="32.591392517" lon="35.136196136">
  <ele>258.268066</ele>
  <time>2011-10-18T05:40:40Z</time>
  <speed>1.460000</speed>
</trkpt>
<trkpt lat="32.591365814" lon="35.136180878">
  <ele>259.236816</ele>
  <time>2011-10-18T05:40:42Z</time>
  <speed>1.450000</speed>
</trkpt>
<trkpt lat="32.591342926" lon="35.136161804">
  <ele>259.689941</ele>
  <time>2011-10-18T05:40:44Z</time>
  <speed>1.420000</speed>
</trkpt>
<trkpt lat="32.591320038" lon="35.136127472">
  <ele>259.854004</ele>
  <time>2011-10-18T05:40:47Z</time>
  <speed>1.450000</speed>
</trkpt>
<trkpt lat="32.591297150" lon="35.136112213">
  <ele>260.432129</ele>
  <time>2011-10-18T05:40:49Z</time>
  <speed>1.430000</speed>
</trkpt>
<trkpt lat="32.591266632" lon="35.136081696">
  <ele>260.127441</ele>
  <time>2011-10-18T05:40:52Z</time>
  <speed>1.370000</speed>
</trkpt>
<trkpt lat="32.591243744" lon="35.136058807">
  <ele>259.861816</ele>
  <time>2011-10-18T05:40:54Z</time>
  <speed>1.500000</speed>
</trkpt>
<trkpt lat="32.591217041" lon="35.136039734">
  <ele>260.369629</ele>
  <time>2011-10-18T05:40:56Z</time>
  <speed>1.570000</speed>
</trkpt>
<trkpt lat="32.591190338" lon="35.136024475">
  <ele>260.697754</ele>
  <time>2011-10-18T05:40:58Z</time>
  <speed>1.550000</speed>
</trkpt>
<trkpt lat="32.591163635" lon="35.136013031">
  <ele>261.119629</ele>
  <time>2011-10-18T05:41:00Z</time>
  <speed>1.480000</speed>
</trkpt>
<trkpt lat="32.591140747" lon="35.135993958">
  <ele>261.502441</ele>
  <time>2011-10-18T05:41:02Z</time>
  <speed>1.540000</speed>
</trkpt>
<trkpt lat="32.591110229" lon="35.135986328">
  <ele>261.822754</ele>
  <time>2011-10-18T05:41:04Z</time>
  <speed>1.630000</speed>
</trkpt>
<trkpt lat="32.591075897" lon="35.135967255">
  <ele>262.010254</ele>
  <time>2011-10-18T05:41:07Z</time>
  <speed>1.570000</speed>
</trkpt>
<trkpt lat="32.591049194" lon="35.135955811">
  <ele>262.658691</ele>
  <time>2011-10-18T05:41:09Z</time>
  <speed>1.580000</speed>
</trkpt>
<trkpt lat="32.591018677" lon="35.135944366">
  <ele>263.018066</ele>
  <time>2011-10-18T05:41:11Z</time>
  <speed>1.650000</speed>
</trkpt>
<trkpt lat="32.590995789" lon="35.135925293">
  <ele>263.260254</ele>
  <time>2011-10-18T05:41:13Z</time>
  <speed>1.610000</speed>
</trkpt>
<trkpt lat="32.590984344" lon="35.135890961">
  <ele>263.135254</ele>
  <time>2011-10-18T05:41:15Z</time>
  <speed>1.630000</speed>
</trkpt>
<trkpt lat="32.590961456" lon="35.135856628">
  <ele>262.924316</ele>
  <time>2011-10-18T05:41:18Z</time>
  <speed>1.640000</speed>
</trkpt>
<trkpt lat="32.590934753" lon="35.135845184">
  <ele>263.252441</ele>
  <time>2011-10-18T05:41:20Z</time>
  <speed>1.330000</speed>
</trkpt>
<trkpt lat="32.590900421" lon="35.135845184">
  <ele>262.744629</ele>
  <time>2011-10-18T05:41:23Z</time>
  <speed>1.110000</speed>
</trkpt>
<trkpt lat="32.590881348" lon="35.135826111">
  <ele>261.283691</ele>
  <time>2011-10-18T05:43:42Z</time>
</trkpt>
<trkpt lat="32.590881348" lon="35.135768890">
  <ele>260.736816</ele>
  <time>2011-10-18T05:46:36Z</time>
  <speed>2.510000</speed>
</trkpt>
<trkpt lat="32.590877533" lon="35.135715485">
  <ele>261.393066</ele>
  <time>2011-10-18T05:46:38Z</time>
  <speed>2.750000</speed>
</trkpt>
<trkpt lat="32.590869904" lon="35.135654449">
  <ele>261.479004</ele>
  <time>2011-10-18T05:46:40Z</time>
  <speed>2.530000</speed>
</trkpt>
<trkpt lat="32.590847015" lon="35.135608673">
  <ele>263.197754</ele>
  <time>2011-10-18T05:46:42Z</time>
  <speed>2.380000</speed>
</trkpt>
<trkpt lat="32.590824127" lon="35.135559082">
  <ele>263.908691</ele>
  <time>2011-10-18T05:46:44Z</time>
  <speed>2.290000</speed>
</trkpt>
<trkpt lat="32.590808868" lon="35.135509491">
  <ele>264.135254</ele>
  <time>2011-10-18T05:46:46Z</time>
  <speed>2.220000</speed>
</trkpt>
<trkpt lat="32.590797424" lon="35.135456085">
  <ele>264.260254</ele>
  <time>2011-10-18T05:46:48Z</time>
  <speed>2.570000</speed>
</trkpt>
<trkpt lat="32.590793610" lon="35.135421753">
  <ele>264.158691</ele>
  <time>2011-10-18T05:46:49Z</time>
  <speed>2.130000</speed>
</trkpt>
<trkpt lat="32.590785980" lon="35.135368347">
  <ele>263.986816</ele>
  <time>2011-10-18T05:46:51Z</time>
  <speed>2.360000</speed>
</trkpt>
<trkpt lat="32.590778351" lon="35.135318756">
  <ele>264.314941</ele>
  <time>2011-10-18T05:46:53Z</time>
  <speed>2.280000</speed>
</trkpt>
<trkpt lat="32.590782166" lon="35.135269165">
  <ele>263.822754</ele>
  <time>2011-10-18T05:46:55Z</time>
  <speed>2.200000</speed>
</trkpt>
<trkpt lat="32.590785980" lon="35.135215759">
  <ele>262.791504</ele>
  <time>2011-10-18T05:46:57Z</time>
  <speed>2.220000</speed>
</trkpt>
<trkpt lat="32.590793610" lon="35.135162354">
  <ele>262.939941</ele>
  <time>2011-10-18T05:46:59Z</time>
  <speed>2.070000</speed>
</trkpt>
<trkpt lat="32.590801239" lon="35.135112762">
  <ele>263.291504</ele>
  <time>2011-10-18T05:47:01Z</time>
  <speed>2.250000</speed>
</trkpt>
<trkpt lat="32.590808868" lon="35.135066986">
  <ele>262.689941</ele>
  <time>2011-10-18T05:47:03Z</time>
  <speed>2.200000</speed>
</trkpt>
<trkpt lat="32.590812683" lon="35.135025024">
  <ele>262.760254</ele>
  <time>2011-10-18T05:47:05Z</time>
  <speed>1.740000</speed>
</trkpt>
<trkpt lat="32.590812683" lon="35.134983063">
  <ele>262.744629</ele>
  <time>2011-10-18T05:47:07Z</time>
  <speed>2.010000</speed>
</trkpt>
<trkpt lat="32.590816498" lon="35.134948730">
  <ele>263.291504</ele>
  <time>2011-10-18T05:47:09Z</time>
  <speed>1.890000</speed>
</trkpt>
<trkpt lat="32.590820313" lon="35.134910583">
  <ele>263.611816</ele>
  <time>2011-10-18T05:47:11Z</time>
  <speed>1.650000</speed>
</trkpt>
<trkpt lat="32.590824127" lon="35.134868622">
  <ele>263.900879</ele>
  <time>2011-10-18T05:47:13Z</time>
  <speed>1.940000</speed>
</trkpt>
<trkpt lat="32.590827942" lon="35.134830475">
  <ele>264.744629</ele>
  <time>2011-10-18T05:47:15Z</time>
  <speed>2.100000</speed>
</trkpt>
<trkpt lat="32.590831757" lon="35.134784698">
  <ele>265.604004</ele>
  <time>2011-10-18T05:47:17Z</time>
  <speed>1.890000</speed>
</trkpt>
<trkpt lat="32.590835571" lon="35.134742737">
  <ele>264.986816</ele>
  <time>2011-10-18T05:47:19Z</time>
  <speed>1.730000</speed>
</trkpt>
<trkpt lat="32.590839386" lon="35.134700775">
  <ele>265.682129</ele>
  <time>2011-10-18T05:47:21Z</time>
  <speed>2.270000</speed>
</trkpt>
<trkpt lat="32.590839386" lon="35.134674072">
  <ele>269.564941</ele>
  <time>2011-10-18T05:47:23Z</time>
  <speed>1.890000</speed>
</trkpt>
<trkpt lat="32.590839386" lon="35.134643555">
  <ele>272.291504</ele>
  <time>2011-10-18T05:47:25Z</time>
  <speed>1.880000</speed>
</trkpt>
<trkpt lat="32.590839386" lon="35.134609222">
  <ele>274.197754</ele>
  <time>2011-10-18T05:47:27Z</time>
  <speed>1.700000</speed>
</trkpt>
<trkpt lat="32.590839386" lon="35.134574890">
  <ele>275.830566</ele>
  <time>2011-10-18T05:47:29Z</time>
  <speed>2.000000</speed>
</trkpt>
<trkpt lat="32.590843201" lon="35.134536743">
  <ele>277.275879</ele>
  <time>2011-10-18T05:47:31Z</time>
  <speed>1.680000</speed>
</trkpt>
<trkpt lat="32.590847015" lon="35.134494781">
  <ele>278.119629</ele>
  <time>2011-10-18T05:47:33Z</time>
  <speed>1.850000</speed>
</trkpt>
<trkpt lat="32.590847015" lon="35.134456635">
  <ele>278.877441</ele>
  <time>2011-10-18T05:47:35Z</time>
  <speed>1.870000</speed>
</trkpt>
<trkpt lat="32.590858459" lon="35.134418488">
  <ele>279.143066</ele>
  <time>2011-10-18T05:47:37Z</time>
  <speed>1.820000</speed>
</trkpt>
<trkpt lat="32.590862274" lon="35.134387970">
  <ele>279.533691</ele>
  <time>2011-10-18T05:47:39Z</time>
  <speed>1.880000</speed>
</trkpt>
<trkpt lat="32.590869904" lon="35.134349823">
  <ele>280.838379</ele>
  <time>2011-10-18T05:47:41Z</time>
  <speed>1.720000</speed>
</trkpt>
<trkpt lat="32.590873718" lon="35.134311676">
  <ele>281.705566</ele>
  <time>2011-10-18T05:47:43Z</time>
  <speed>2.060000</speed>
</trkpt>
<trkpt lat="32.590881348" lon="35.134273529">
  <ele>282.689941</ele>
  <time>2011-10-18T05:47:45Z</time>
  <speed>1.950000</speed>
</trkpt>
<trkpt lat="32.590888977" lon="35.134235382">
  <ele>283.260254</ele>
  <time>2011-10-18T05:47:47Z</time>
  <speed>1.940000</speed>
</trkpt>
<trkpt lat="32.590896606" lon="35.134185791">
  <ele>283.986816</ele>
  <time>2011-10-18T05:47:50Z</time>
  <speed>1.800000</speed>
</trkpt>
<trkpt lat="32.590908051" lon="35.134143829">
  <ele>284.861816</ele>
  <time>2011-10-18T05:47:52Z</time>
  <speed>1.960000</speed>
</trkpt>
<trkpt lat="32.590919495" lon="35.134101868">
  <ele>285.869629</ele>
  <time>2011-10-18T05:47:54Z</time>
  <speed>2.000000</speed>
</trkpt>
<trkpt lat="32.590923309" lon="35.134059906">
  <ele>286.393066</ele>
  <time>2011-10-18T05:47:56Z</time>
  <speed>2.090000</speed>
</trkpt>
<trkpt lat="32.590930939" lon="35.134021759">
  <ele>286.682129</ele>
  <time>2011-10-18T05:47:58Z</time>
  <speed>1.830000</speed>
</trkpt>
<trkpt lat="32.590946198" lon="35.133991241">
  <ele>286.564941</ele>
  <time>2011-10-18T05:48:00Z</time>
  <speed>1.840000</speed>
</trkpt>
<trkpt lat="32.590957642" lon="35.133953094">
  <ele>286.775879</ele>
  <time>2011-10-18T05:48:02Z</time>
  <speed>1.770000</speed>
</trkpt>
<trkpt lat="32.590965271" lon="35.133914948">
  <ele>286.963379</ele>
  <time>2011-10-18T05:48:04Z</time>
  <speed>1.910000</speed>
</trkpt>
<trkpt lat="32.590972900" lon="35.133876801">
  <ele>287.096191</ele>
  <time>2011-10-18T05:48:06Z</time>
  <speed>1.620000</speed>
</trkpt>
<trkpt lat="32.590984344" lon="35.133838654">
  <ele>287.010254</ele>
  <time>2011-10-18T05:48:08Z</time>
  <speed>1.830000</speed>
</trkpt>
<trkpt lat="32.590995789" lon="35.133808136">
  <ele>287.057129</ele>
  <time>2011-10-18T05:48:10Z</time>
  <speed>1.700000</speed>
</trkpt>
<trkpt lat="32.591007233" lon="35.133766174">
  <ele>286.799316</ele>
  <time>2011-10-18T05:48:12Z</time>
  <speed>1.870000</speed>
</trkpt>
<trkpt lat="32.591014862" lon="35.133724213">
  <ele>286.283691</ele>
  <time>2011-10-18T05:48:14Z</time>
  <speed>1.920000</speed>
</trkpt>
<trkpt lat="32.591026306" lon="35.133689880">
  <ele>285.760254</ele>
  <time>2011-10-18T05:48:16Z</time>
  <speed>1.700000</speed>
</trkpt>
<trkpt lat="32.591033936" lon="35.133647919">
  <ele>285.463379</ele>
  <time>2011-10-18T05:48:18Z</time>
  <speed>1.320000</speed>
</trkpt>
<trkpt lat="32.591041565" lon="35.133613586">
  <ele>285.189941</ele>
  <time>2011-10-18T05:48:20Z</time>
  <speed>1.590000</speed>
</trkpt>
<trkpt lat="32.591049194" lon="35.133563995">
  <ele>285.283691</ele>
  <time>2011-10-18T05:48:23Z</time>
  <speed>1.080000</speed>
</trkpt>
<trkpt lat="32.591075897" lon="35.133548737">
  <ele>284.354004</ele>
  <time>2011-10-18T05:48:29Z</time>
  <speed>0.270000</speed>
</trkpt>
<trkpt lat="32.591098785" lon="35.133560181">
  <ele>283.080566</ele>
  <time>2011-10-18T05:48:32Z</time>
  <speed>0.130000</speed>
</trkpt>
<trkpt lat="32.591125488" lon="35.133571625">
  <ele>282.119629</ele>
  <time>2011-10-18T05:48:37Z</time>
  <speed>0.370000</speed>
</trkpt>
<trkpt lat="32.591156006" lon="35.133575439">
  <ele>281.799316</ele>
  <time>2011-10-18T05:48:41Z</time>
  <speed>0.880000</speed>
</trkpt>
<trkpt lat="32.591182709" lon="35.133594513">
  <ele>281.721191</ele>
  <time>2011-10-18T05:48:46Z</time>
  <speed>0.340000</speed>
</trkpt>
<trkpt lat="32.591213226" lon="35.133598328">
  <ele>281.119629</ele>
  <time>2011-10-18T05:48:51Z</time>
  <speed>0.090000</speed>
</trkpt>
<trkpt lat="32.591175079" lon="35.133583069">
  <ele>280.486816</ele>
  <time>2011-10-18T05:49:24Z</time>
  <speed>1.180000</speed>
</trkpt>
<trkpt lat="32.591140747" lon="35.133586884">
  <ele>280.643066</ele>
  <time>2011-10-18T05:49:27Z</time>
  <speed>0.170000</speed>
</trkpt>
<trkpt lat="32.591110229" lon="35.133579254">
  <ele>280.721191</ele>
  <time>2011-10-18T05:49:41Z</time>
  <speed>0.970000</speed>
</trkpt>
<trkpt lat="32.591079712" lon="35.133579254">
  <ele>281.385254</ele>
  <time>2011-10-18T05:49:46Z</time>
  <speed>0.220000</speed>
</trkpt>
<trkpt lat="32.591075897" lon="35.133548737">
  <ele>281.096191</ele>
  <time>2011-10-18T05:49:57Z</time>
  <speed>0.520000</speed>
</trkpt>
<trkpt lat="32.591079712" lon="35.133518219">
  <ele>279.635254</ele>
  <time>2011-10-18T05:50:10Z</time>
  <speed>0.550000</speed>
</trkpt>
<trkpt lat="32.591083527" lon="35.133502960">
  <ele>282.416504</ele>
  <time>2011-10-18T05:50:16Z</time>
  <speed>0.140000</speed>
</trkpt>
<trkpt lat="32.591121674" lon="35.133495331">
  <ele>283.885254</ele>
  <time>2011-10-18T05:50:43Z</time>
  <speed>0.980000</speed>
</trkpt>
<trkpt lat="32.591159821" lon="35.133506775">
  <ele>284.244629</ele>
  <time>2011-10-18T05:50:46Z</time>
  <speed>1.060000</speed>
</trkpt>
<trkpt lat="32.591194153" lon="35.133518219">
  <ele>283.268066</ele>
  <time>2011-10-18T05:50:49Z</time>
  <speed>0.640000</speed>
</trkpt>
<trkpt lat="32.591194153" lon="35.133533478">
  <ele>286.361816</ele>
  <time>2011-10-18T05:50:52Z</time>
  <speed>0.040000</speed>
</trkpt>
<trkpt lat="32.591163635" lon="35.133533478">
  <ele>286.713379</ele>
  <time>2011-10-18T05:51:11Z</time>
  <speed>2.490000</speed>
</trkpt>
<trkpt lat="32.591133118" lon="35.133529663">
  <ele>286.752441</ele>
  <time>2011-10-18T05:51:12Z</time>
  <speed>3.380000</speed>
</trkpt>
<trkpt lat="32.591102600" lon="35.133522034">
  <ele>286.744629</ele>
  <time>2011-10-18T05:51:13Z</time>
  <speed>3.370000</speed>
</trkpt>
<trkpt lat="32.591064453" lon="35.133510590">
  <ele>286.002441</ele>
  <time>2011-10-18T05:51:14Z</time>
  <speed>4.580000</speed>
</trkpt>
<trkpt lat="32.591022491" lon="35.133495331">
  <ele>284.854004</ele>
  <time>2011-10-18T05:51:15Z</time>
  <speed>5.220000</speed>
</trkpt>
<trkpt lat="32.590972900" lon="35.133472443">
  <ele>283.275879</ele>
  <time>2011-10-18T05:51:16Z</time>
  <speed>5.840000</speed>
</trkpt>
<trkpt lat="32.590919495" lon="35.133453369">
  <ele>282.783691</ele>
  <time>2011-10-18T05:51:17Z</time>
  <speed>5.510000</speed>
</trkpt>
<trkpt lat="32.590877533" lon="35.133430481">
  <ele>281.752441</ele>
  <time>2011-10-18T05:51:18Z</time>
  <speed>4.950000</speed>
</trkpt>
<trkpt lat="32.590843201" lon="35.133403778">
  <ele>280.729004</ele>
  <time>2011-10-18T05:51:19Z</time>
  <speed>3.240000</speed>
</trkpt>
<trkpt lat="32.590812683" lon="35.133388519">
  <ele>280.049316</ele>
  <time>2011-10-18T05:51:20Z</time>
  <speed>2.830000</speed>
</trkpt>
<trkpt lat="32.590785980" lon="35.133384705">
  <ele>279.963379</ele>
  <time>2011-10-18T05:51:21Z</time>
  <speed>3.350000</speed>
</trkpt>
<trkpt lat="32.590751648" lon="35.133373260">
  <ele>279.674316</ele>
  <time>2011-10-18T05:51:22Z</time>
  <speed>3.440000</speed>
</trkpt>
<trkpt lat="32.590724945" lon="35.133361816">
  <ele>278.869629</ele>
  <time>2011-10-18T05:51:23Z</time>
  <speed>3.650000</speed>
</trkpt>
<trkpt lat="32.590694427" lon="35.133346558">
  <ele>278.791504</ele>
  <time>2011-10-18T05:51:24Z</time>
  <speed>3.340000</speed>
</trkpt>
<trkpt lat="32.590667725" lon="35.133338928">
  <ele>278.635254</ele>
  <time>2011-10-18T05:51:25Z</time>
  <speed>3.100000</speed>
</trkpt>
<trkpt lat="32.590641022" lon="35.133323669">
  <ele>279.338379</ele>
  <time>2011-10-18T05:51:26Z</time>
  <speed>2.240000</speed>
</trkpt>
<trkpt lat="32.590618134" lon="35.133300781">
  <ele>278.174316</ele>
  <time>2011-10-18T05:51:28Z</time>
  <speed>1.490000</speed>
</trkpt>
<trkpt lat="32.590606689" lon="35.133270264">
  <ele>278.377441</ele>
  <time>2011-10-18T05:51:32Z</time>
  <speed>0.820000</speed>
</trkpt>
<trkpt lat="32.590595245" lon="35.133239746">
  <ele>278.400879</ele>
  <time>2011-10-18T05:51:36Z</time>
  <speed>0.860000</speed>
</trkpt>
<trkpt lat="32.590568542" lon="35.133209229">
  <ele>277.885254</ele>
  <time>2011-10-18T05:51:39Z</time>
  <speed>1.380000</speed>
</trkpt>
<trkpt lat="32.590541840" lon="35.133193970">
  <ele>278.377441</ele>
  <time>2011-10-18T05:51:41Z</time>
  <speed>1.710000</speed>
</trkpt>
<trkpt lat="32.590511322" lon="35.133174896">
  <ele>277.783691</ele>
  <time>2011-10-18T05:51:43Z</time>
  <speed>1.790000</speed>
</trkpt>
<trkpt lat="32.590480804" lon="35.133148193">
  <ele>277.400879</ele>
  <time>2011-10-18T05:51:45Z</time>
  <speed>2.170000</speed>
</trkpt>
<trkpt lat="32.590438843" lon="35.133125305">
  <ele>277.104004</ele>
  <time>2011-10-18T05:51:47Z</time>
  <speed>2.590000</speed>
</trkpt>
<trkpt lat="32.590396881" lon="35.133090973">
  <ele>276.369629</ele>
  <time>2011-10-18T05:51:49Z</time>
  <speed>2.870000</speed>
</trkpt>
<trkpt lat="32.590377808" lon="35.133068085">
  <ele>276.893066</ele>
  <time>2011-10-18T05:51:50Z</time>
  <speed>2.810000</speed>
</trkpt>
<trkpt lat="32.590343475" lon="35.133026123">
  <ele>277.674316</ele>
  <time>2011-10-18T05:51:52Z</time>
  <speed>2.710000</speed>
</trkpt>
<trkpt lat="32.590312958" lon="35.132976532">
  <ele>278.783691</ele>
  <time>2011-10-18T05:51:54Z</time>
  <speed>2.430000</speed>
</trkpt>
<trkpt lat="32.590293884" lon="35.132934570">
  <ele>279.830566</ele>
  <time>2011-10-18T05:51:56Z</time>
  <speed>1.910000</speed>
</trkpt>
<trkpt lat="32.590274811" lon="35.132896423">
  <ele>280.416504</ele>
  <time>2011-10-18T05:51:58Z</time>
  <speed>1.750000</speed>
</trkpt>
<trkpt lat="32.590290070" lon="35.132926941">
  <ele>280.275879</ele>
  <time>2011-10-18T05:52:23Z</time>
  <speed>3.080000</speed>
</trkpt>
<trkpt lat="32.590316772" lon="35.132972717">
  <ele>280.072754</ele>
  <time>2011-10-18T05:52:24Z</time>
  <speed>4.320000</speed>
</trkpt>
<trkpt lat="32.590347290" lon="35.133018494">
  <ele>279.775879</ele>
  <time>2011-10-18T05:52:25Z</time>
  <speed>5.200000</speed>
</trkpt>
<trkpt lat="32.590389252" lon="35.133068085">
  <ele>279.979004</ele>
  <time>2011-10-18T05:52:26Z</time>
  <speed>5.630000</speed>
</trkpt>
<trkpt lat="32.590438843" lon="35.133110046">
  <ele>279.697754</ele>
  <time>2011-10-18T05:52:27Z</time>
  <speed>6.380000</speed>
</trkpt>
<trkpt lat="32.590496063" lon="35.133167267">
  <ele>280.314941</ele>
  <time>2011-10-18T05:52:28Z</time>
  <speed>6.680000</speed>
</trkpt>
<trkpt lat="32.590545654" lon="35.133209229">
  <ele>280.166504</ele>
  <time>2011-10-18T05:52:29Z</time>
  <speed>5.990000</speed>
</trkpt>
<trkpt lat="32.590587616" lon="35.133247375">
  <ele>279.643066</ele>
  <time>2011-10-18T05:52:30Z</time>
  <speed>5.090000</speed>
</trkpt>
<trkpt lat="32.590633392" lon="35.133274078">
  <ele>279.463379</ele>
  <time>2011-10-18T05:52:31Z</time>
  <speed>5.120000</speed>
</trkpt>
<trkpt lat="32.590682983" lon="35.133293152">
  <ele>279.549316</ele>
  <time>2011-10-18T05:52:32Z</time>
  <speed>4.620000</speed>
</trkpt>
<trkpt lat="32.590724945" lon="35.133300781">
  <ele>279.002441</ele>
  <time>2011-10-18T05:52:33Z</time>
  <speed>4.050000</speed>
</trkpt>
<trkpt lat="32.590766907" lon="35.133308411">
  <ele>278.385254</ele>
  <time>2011-10-18T05:52:34Z</time>
  <speed>4.410000</speed>
</trkpt>
<trkpt lat="32.590816498" lon="35.133312225">
  <ele>278.064941</ele>
  <time>2011-10-18T05:52:35Z</time>
  <speed>3.550000</speed>
</trkpt>
<trkpt lat="32.590850830" lon="35.133319855">
  <ele>277.971191</ele>
  <time>2011-10-18T05:52:36Z</time>
  <speed>2.870000</speed>
</trkpt>
<trkpt lat="32.590908051" lon="35.133323669">
  <ele>276.908691</ele>
  <time>2011-10-18T05:52:38Z</time>
  <speed>2.070000</speed>
</trkpt>
<trkpt lat="32.590953827" lon="35.133331299">
  <ele>276.979004</ele>
  <time>2011-10-18T05:52:40Z</time>
  <speed>1.860000</speed>
</trkpt>
<trkpt lat="32.590980530" lon="35.133331299">
  <ele>276.830566</ele>
  <time>2011-10-18T05:52:41Z</time>
  <speed>2.020000</speed>
</trkpt>
<trkpt lat="32.591011047" lon="35.133338928">
  <ele>276.861816</ele>
  <time>2011-10-18T05:52:42Z</time>
  <speed>2.240000</speed>
</trkpt>
<trkpt lat="32.591037750" lon="35.133358002">
  <ele>279.158691</ele>
  <time>2011-10-18T05:52:43Z</time>
  <speed>2.180000</speed>
</trkpt>
<trkpt lat="32.591060638" lon="35.133373260">
  <ele>280.807129</ele>
  <time>2011-10-18T05:52:44Z</time>
  <speed>2.110000</speed>
</trkpt>
<trkpt lat="32.591083527" lon="35.133388519">
  <ele>281.549316</ele>
  <time>2011-10-18T05:52:45Z</time>
  <speed>2.080000</speed>
</trkpt>
<trkpt lat="32.591114044" lon="35.133392334">
  <ele>281.893066</ele>
  <time>2011-10-18T05:52:46Z</time>
  <speed>1.620000</speed>
</trkpt>
<trkpt lat="32.591156006" lon="35.133399963">
  <ele>282.885254</ele>
  <time>2011-10-18T05:52:48Z</time>
  <speed>1.830000</speed>
</trkpt>
<trkpt lat="32.591182709" lon="35.133399963">
  <ele>283.471191</ele>
  <time>2011-10-18T05:52:49Z</time>
  <speed>2.200000</speed>
</trkpt>
<trkpt lat="32.591243744" lon="35.133399963">
  <ele>283.939941</ele>
  <time>2011-10-18T05:52:51Z</time>
  <speed>2.160000</speed>
</trkpt>
<trkpt lat="32.591297150" lon="35.133384705">
  <ele>284.252441</ele>
  <time>2011-10-18T05:52:53Z</time>
  <speed>1.950000</speed>
</trkpt>
<trkpt lat="32.591339111" lon="35.133346558">
  <ele>285.088379</ele>
  <time>2011-10-18T05:52:55Z</time>
  <speed>1.780000</speed>
</trkpt>
<trkpt lat="32.591358185" lon="35.133319855">
  <ele>284.697754</ele>
  <time>2011-10-18T05:52:56Z</time>
  <speed>2.380000</speed>
</trkpt>
<trkpt lat="32.591373444" lon="35.133289337">
  <ele>284.377441</ele>
  <time>2011-10-18T05:52:57Z</time>
  <speed>2.750000</speed>
</trkpt>
<trkpt lat="32.591392517" lon="35.133251190">
  <ele>284.627441</ele>
  <time>2011-10-18T05:52:58Z</time>
  <speed>2.850000</speed>
</trkpt>
<trkpt lat="32.591403961" lon="35.133209229">
  <ele>283.486816</ele>
  <time>2011-10-18T05:52:59Z</time>
  <speed>2.600000</speed>
</trkpt>
<trkpt lat="32.591415405" lon="35.133178711">
  <ele>283.322754</ele>
  <time>2011-10-18T05:53:00Z</time>
  <speed>2.440000</speed>
</trkpt>
<trkpt lat="32.591426849" lon="35.133148193">
  <ele>283.268066</ele>
  <time>2011-10-18T05:53:01Z</time>
  <speed>2.260000</speed>
</trkpt>
<trkpt lat="32.591449738" lon="35.133129120">
  <ele>282.674316</ele>
  <time>2011-10-18T05:53:02Z</time>
  <speed>2.210000</speed>
</trkpt>
<trkpt lat="32.591484070" lon="35.133102417">
  <ele>284.424316</ele>
  <time>2011-10-18T05:53:04Z</time>
  <speed>2.080000</speed>
</trkpt>
<trkpt lat="32.591518402" lon="35.133060455">
  <ele>284.971191</ele>
  <time>2011-10-18T05:53:06Z</time>
  <speed>2.240000</speed>
</trkpt>
<trkpt lat="32.591556549" lon="35.133041382">
  <ele>285.611816</ele>
  <time>2011-10-18T05:53:08Z</time>
  <speed>1.660000</speed>
</trkpt>
<trkpt lat="32.591590881" lon="35.133029938">
  <ele>286.189941</ele>
  <time>2011-10-18T05:53:10Z</time>
  <speed>1.820000</speed>
</trkpt>
<trkpt lat="32.591625214" lon="35.133018494">
  <ele>287.127441</ele>
  <time>2011-10-18T05:53:12Z</time>
  <speed>1.370000</speed>
</trkpt>
<trkpt lat="32.591659546" lon="35.132995605">
  <ele>287.979004</ele>
  <time>2011-10-18T05:53:14Z</time>
  <speed>1.610000</speed>
</trkpt>
<trkpt lat="32.591701508" lon="35.132972717">
  <ele>289.471191</ele>
  <time>2011-10-18T05:53:16Z</time>
  <speed>2.070000</speed>
</trkpt>
<trkpt lat="32.591724396" lon="35.132957458">
  <ele>289.744629</ele>
  <time>2011-10-18T05:53:17Z</time>
  <speed>2.140000</speed>
</trkpt>
<trkpt lat="32.591743469" lon="35.132934570">
  <ele>290.338379</ele>
  <time>2011-10-18T05:53:18Z</time>
  <speed>1.800000</speed>
</trkpt>
<trkpt lat="32.591781616" lon="35.132900238">
  <ele>290.916504</ele>
  <time>2011-10-18T05:53:20Z</time>
  <speed>1.630000</speed>
</trkpt>
<trkpt lat="32.591808319" lon="35.132881165">
  <ele>291.330566</ele>
  <time>2011-10-18T05:53:21Z</time>
  <speed>2.490000</speed>
</trkpt>
<trkpt lat="32.591835022" lon="35.132862091">
  <ele>291.939941</ele>
  <time>2011-10-18T05:53:22Z</time>
  <speed>2.540000</speed>
</trkpt>
<trkpt lat="32.591865540" lon="35.132839203">
  <ele>292.393066</ele>
  <time>2011-10-18T05:53:23Z</time>
  <speed>2.480000</speed>
</trkpt>
<trkpt lat="32.591896057" lon="35.132820129">
  <ele>292.127441</ele>
  <time>2011-10-18T05:53:24Z</time>
  <speed>2.280000</speed>
</trkpt>
<trkpt lat="32.591941833" lon="35.132793427">
  <ele>292.893066</ele>
  <time>2011-10-18T05:53:26Z</time>
  <speed>2.030000</speed>
</trkpt>
<trkpt lat="32.591976166" lon="35.132755280">
  <ele>293.830566</ele>
  <time>2011-10-18T05:53:28Z</time>
  <speed>2.220000</speed>
</trkpt>
<trkpt lat="32.592021942" lon="35.132713318">
  <ele>294.275879</ele>
  <time>2011-10-18T05:53:30Z</time>
  <speed>2.730000</speed>
</trkpt>
<trkpt lat="32.592037201" lon="35.132675171">
  <ele>294.400879</ele>
  <time>2011-10-18T05:53:31Z</time>
  <speed>2.720000</speed>
</trkpt>
<trkpt lat="32.592056274" lon="35.132644653">
  <ele>293.471191</ele>
  <time>2011-10-18T05:53:32Z</time>
  <speed>3.180000</speed>
</trkpt>
<trkpt lat="32.592086792" lon="35.132610321">
  <ele>293.041504</ele>
  <time>2011-10-18T05:53:33Z</time>
  <speed>3.160000</speed>
</trkpt>
<trkpt lat="32.592113495" lon="35.132579803">
  <ele>294.135254</ele>
  <time>2011-10-18T05:53:34Z</time>
  <speed>3.120000</speed>
</trkpt>
<trkpt lat="32.592144012" lon="35.132556915">
  <ele>294.252441</ele>
  <time>2011-10-18T05:53:35Z</time>
  <speed>2.810000</speed>
</trkpt>
<trkpt lat="32.592163086" lon="35.132530212">
  <ele>293.689941</ele>
  <time>2011-10-18T05:53:36Z</time>
  <speed>2.420000</speed>
</trkpt>
<trkpt lat="32.592182159" lon="35.132503510">
  <ele>293.807129</ele>
  <time>2011-10-18T05:53:37Z</time>
  <speed>2.920000</speed>
</trkpt>
<trkpt lat="32.592205048" lon="35.132472992">
  <ele>292.939941</ele>
  <time>2011-10-18T05:53:38Z</time>
  <speed>3.540000</speed>
</trkpt>
<trkpt lat="32.592231750" lon="35.132450104">
  <ele>292.986816</ele>
  <time>2011-10-18T05:53:39Z</time>
  <speed>3.350000</speed>
</trkpt>
<trkpt lat="32.592254639" lon="35.132427216">
  <ele>293.416504</ele>
  <time>2011-10-18T05:53:40Z</time>
  <speed>2.960000</speed>
</trkpt>
<trkpt lat="32.592285156" lon="35.132415771">
  <ele>292.963379</ele>
  <time>2011-10-18T05:53:41Z</time>
  <speed>3.320000</speed>
</trkpt>
<trkpt lat="32.592330933" lon="35.132381439">
  <ele>292.924316</ele>
  <time>2011-10-18T05:53:43Z</time>
  <speed>2.610000</speed>
</trkpt>
<trkpt lat="32.592357635" lon="35.132354736">
  <ele>293.182129</ele>
  <time>2011-10-18T05:53:44Z</time>
  <speed>3.160000</speed>
</trkpt>
<trkpt lat="32.592384338" lon="35.132316589">
  <ele>292.830566</ele>
  <time>2011-10-18T05:53:45Z</time>
  <speed>3.510000</speed>
</trkpt>
<trkpt lat="32.592411041" lon="35.132278442">
  <ele>292.447754</ele>
  <time>2011-10-18T05:53:46Z</time>
  <speed>3.930000</speed>
</trkpt>
<trkpt lat="32.592460632" lon="35.132244110">
  <ele>291.713379</ele>
  <time>2011-10-18T05:53:47Z</time>
  <speed>4.070000</speed>
</trkpt>
<trkpt lat="32.592491150" lon="35.132205963">
  <ele>291.643066</ele>
  <time>2011-10-18T05:53:48Z</time>
  <speed>3.660000</speed>
</trkpt>
<trkpt lat="32.592514038" lon="35.132167816">
  <ele>292.439941</ele>
  <time>2011-10-18T05:53:49Z</time>
  <speed>3.540000</speed>
</trkpt>
<trkpt lat="32.592544556" lon="35.132144928">
  <ele>292.096191</ele>
  <time>2011-10-18T05:53:50Z</time>
  <speed>3.500000</speed>
</trkpt>
<trkpt lat="32.592597961" lon="35.132125854">
  <ele>292.322754</ele>
  <time>2011-10-18T05:53:51Z</time>
  <speed>3.400000</speed>
</trkpt>
<trkpt lat="32.592628479" lon="35.132144928">
  <ele>291.713379</ele>
  <time>2011-10-18T05:53:52Z</time>
  <speed>3.490000</speed>
</trkpt>
<trkpt lat="32.592658997" lon="35.132160187">
  <ele>291.432129</ele>
  <time>2011-10-18T05:53:53Z</time>
  <speed>3.640000</speed>
</trkpt>
<trkpt lat="32.592689514" lon="35.132175446">
  <ele>291.174316</ele>
  <time>2011-10-18T05:53:54Z</time>
  <speed>2.610000</speed>
</trkpt>
<trkpt lat="32.592720032" lon="35.132179260">
  <ele>291.838379</ele>
  <time>2011-10-18T05:53:55Z</time>
  <speed>3.350000</speed>
</trkpt>
<trkpt lat="32.592765808" lon="35.132190704">
  <ele>290.635254</ele>
  <time>2011-10-18T05:53:56Z</time>
  <speed>4.440000</speed>
</trkpt>
<trkpt lat="32.592830658" lon="35.132198334">
  <ele>289.213379</ele>
  <time>2011-10-18T05:53:57Z</time>
  <speed>5.000000</speed>
</trkpt>
<trkpt lat="32.592868805" lon="35.132221222">
  <ele>288.088379</ele>
  <time>2011-10-18T05:53:58Z</time>
  <speed>3.980000</speed>
</trkpt>
<trkpt lat="32.592906952" lon="35.132244110">
  <ele>287.213379</ele>
  <time>2011-10-18T05:53:59Z</time>
  <speed>3.790000</speed>
</trkpt>
<trkpt lat="32.592941284" lon="35.132270813">
  <ele>286.916504</ele>
  <time>2011-10-18T05:54:00Z</time>
  <speed>3.690000</speed>
</trkpt>
<trkpt lat="32.592975616" lon="35.132305145">
  <ele>286.713379</ele>
  <time>2011-10-18T05:54:01Z</time>
  <speed>3.920000</speed>
</trkpt>
<trkpt lat="32.593017578" lon="35.132328033">
  <ele>285.830566</ele>
  <time>2011-10-18T05:54:02Z</time>
  <speed>3.610000</speed>
</trkpt>
<trkpt lat="32.593055725" lon="35.132343292">
  <ele>284.627441</ele>
  <time>2011-10-18T05:54:03Z</time>
  <speed>3.630000</speed>
</trkpt>
<trkpt lat="32.593109131" lon="35.132366180">
  <ele>283.604004</ele>
  <time>2011-10-18T05:54:04Z</time>
  <speed>3.170000</speed>
</trkpt>
<trkpt lat="32.593135834" lon="35.132389069">
  <ele>282.900879</ele>
  <time>2011-10-18T05:54:05Z</time>
  <speed>3.660000</speed>
</trkpt>
<trkpt lat="32.593177795" lon="35.132419586">
  <ele>283.682129</ele>
  <time>2011-10-18T05:54:06Z</time>
  <speed>4.010000</speed>
</trkpt>
<trkpt lat="32.593204498" lon="35.132442474">
  <ele>283.760254</ele>
  <time>2011-10-18T05:54:07Z</time>
  <speed>3.460000</speed>
</trkpt>
<trkpt lat="32.593235016" lon="35.132453918">
  <ele>284.557129</ele>
  <time>2011-10-18T05:54:08Z</time>
  <speed>3.520000</speed>
</trkpt>
<trkpt lat="32.593261719" lon="35.132446289">
  <ele>283.877441</ele>
  <time>2011-10-18T05:54:09Z</time>
  <speed>3.120000</speed>
</trkpt>
<trkpt lat="32.593318939" lon="35.132450104">
  <ele>283.893066</ele>
  <time>2011-10-18T05:54:11Z</time>
  <speed>3.170000</speed>
</trkpt>
<trkpt lat="32.593349457" lon="35.132457733">
  <ele>284.002441</ele>
  <time>2011-10-18T05:54:12Z</time>
  <speed>3.100000</speed>
</trkpt>
<trkpt lat="32.593399048" lon="35.132461548">
  <ele>284.494629</ele>
  <time>2011-10-18T05:54:14Z</time>
  <speed>2.100000</speed>
</trkpt>
<trkpt lat="32.593433380" lon="35.132453918">
  <ele>285.166504</ele>
  <time>2011-10-18T05:54:16Z</time>
  <speed>2.340000</speed>
</trkpt>
<trkpt lat="32.593471527" lon="35.132438660">
  <ele>285.088379</ele>
  <time>2011-10-18T05:54:18Z</time>
  <speed>2.660000</speed>
</trkpt>
<trkpt lat="32.593521118" lon="35.132427216">
  <ele>285.932129</ele>
  <time>2011-10-18T05:54:20Z</time>
  <speed>2.810000</speed>
</trkpt>
<trkpt lat="32.593570709" lon="35.132411957">
  <ele>286.814941</ele>
  <time>2011-10-18T05:54:22Z</time>
  <speed>2.530000</speed>
</trkpt>
<trkpt lat="32.593612671" lon="35.132392883">
  <ele>287.963379</ele>
  <time>2011-10-18T05:54:24Z</time>
  <speed>2.620000</speed>
</trkpt>
<trkpt lat="32.593658447" lon="35.132377625">
  <ele>288.252441</ele>
  <time>2011-10-18T05:54:26Z</time>
  <speed>2.770000</speed>
</trkpt>
<trkpt lat="32.593704224" lon="35.132350922">
  <ele>289.752441</ele>
  <time>2011-10-18T05:54:28Z</time>
  <speed>3.110000</speed>
</trkpt>
<trkpt lat="32.593727112" lon="35.132328033">
  <ele>289.877441</ele>
  <time>2011-10-18T05:54:29Z</time>
  <speed>3.520000</speed>
</trkpt>
<trkpt lat="32.593753815" lon="35.132305145">
  <ele>290.143066</ele>
  <time>2011-10-18T05:54:30Z</time>
  <speed>3.610000</speed>
</trkpt>
<trkpt lat="32.593784332" lon="35.132289886">
  <ele>289.971191</ele>
  <time>2011-10-18T05:54:31Z</time>
  <speed>3.540000</speed>
</trkpt>
<trkpt lat="32.593814850" lon="35.132270813">
  <ele>289.900879</ele>
  <time>2011-10-18T05:54:32Z</time>
  <speed>3.110000</speed>
</trkpt>
<trkpt lat="32.593860626" lon="35.132247925">
  <ele>289.658691</ele>
  <time>2011-10-18T05:54:34Z</time>
  <speed>2.300000</speed>
</trkpt>
<trkpt lat="32.593887329" lon="35.132232666">
  <ele>289.799316</ele>
  <time>2011-10-18T05:54:35Z</time>
  <speed>2.860000</speed>
</trkpt>
<trkpt lat="32.593910217" lon="35.132217407">
  <ele>289.900879</ele>
  <time>2011-10-18T05:54:36Z</time>
  <speed>2.920000</speed>
</trkpt>
<trkpt lat="32.593936920" lon="35.132202148">
  <ele>290.385254</ele>
  <time>2011-10-18T05:54:37Z</time>
  <speed>3.210000</speed>
</trkpt>
<trkpt lat="32.593971252" lon="35.132186890">
  <ele>289.682129</ele>
  <time>2011-10-18T05:54:38Z</time>
  <speed>3.340000</speed>
</trkpt>
<trkpt lat="32.594001770" lon="35.132183075">
  <ele>288.963379</ele>
  <time>2011-10-18T05:54:39Z</time>
  <speed>3.410000</speed>
</trkpt>
<trkpt lat="32.594039917" lon="35.132175446">
  <ele>288.854004</ele>
  <time>2011-10-18T05:54:40Z</time>
  <speed>4.190000</speed>
</trkpt>
<trkpt lat="32.594078064" lon="35.132164001">
  <ele>289.377441</ele>
  <time>2011-10-18T05:54:41Z</time>
  <speed>4.270000</speed>
</trkpt>
<trkpt lat="32.594123840" lon="35.132160187">
  <ele>289.814941</ele>
  <time>2011-10-18T05:54:42Z</time>
  <speed>4.590000</speed>
</trkpt>
<trkpt lat="32.594165802" lon="35.132152557">
  <ele>290.033691</ele>
  <time>2011-10-18T05:54:43Z</time>
  <speed>4.890000</speed>
</trkpt>
<trkpt lat="32.594234467" lon="35.132133484">
  <ele>290.377441</ele>
  <time>2011-10-18T05:54:44Z</time>
  <speed>6.000000</speed>
</trkpt>
<trkpt lat="32.594306946" lon="35.132110596">
  <ele>288.854004</ele>
  <time>2011-10-18T05:54:45Z</time>
  <speed>5.290000</speed>
</trkpt>
<trkpt lat="32.594364166" lon="35.132095337">
  <ele>288.658691</ele>
  <time>2011-10-18T05:54:46Z</time>
  <speed>4.990000</speed>
</trkpt>
<trkpt lat="32.594406128" lon="35.132083893">
  <ele>288.572754</ele>
  <time>2011-10-18T05:54:47Z</time>
  <speed>5.020000</speed>
</trkpt>
<trkpt lat="32.594451904" lon="35.132068634">
  <ele>288.275879</ele>
  <time>2011-10-18T05:54:48Z</time>
  <speed>5.280000</speed>
</trkpt>
<trkpt lat="32.594505310" lon="35.132045746">
  <ele>287.697754</ele>
  <time>2011-10-18T05:54:49Z</time>
  <speed>5.430000</speed>
</trkpt>
<trkpt lat="32.594554901" lon="35.132019043">
  <ele>286.986816</ele>
  <time>2011-10-18T05:54:50Z</time>
  <speed>5.900000</speed>
</trkpt>
<trkpt lat="32.594604492" lon="35.132007599">
  <ele>286.502441</ele>
  <time>2011-10-18T05:54:51Z</time>
  <speed>5.430000</speed>
</trkpt>
<trkpt lat="32.594654083" lon="35.131992340">
  <ele>285.869629</ele>
  <time>2011-10-18T05:54:52Z</time>
  <speed>5.820000</speed>
</trkpt>
<trkpt lat="32.594707489" lon="35.131973267">
  <ele>286.455566</ele>
  <time>2011-10-18T05:54:53Z</time>
  <speed>5.830000</speed>
</trkpt>
<trkpt lat="32.594764709" lon="35.131950378">
  <ele>286.361816</ele>
  <time>2011-10-18T05:54:54Z</time>
  <speed>6.050000</speed>
</trkpt>
<trkpt lat="32.594821930" lon="35.131935120">
  <ele>285.494629</ele>
  <time>2011-10-18T05:54:55Z</time>
  <speed>6.500000</speed>
</trkpt>
<trkpt lat="32.594882965" lon="35.131919861">
  <ele>285.057129</ele>
  <time>2011-10-18T05:54:56Z</time>
  <speed>7.140000</speed>
</trkpt>
<trkpt lat="32.594944000" lon="35.131896973">
  <ele>285.252441</ele>
  <time>2011-10-18T05:54:57Z</time>
  <speed>7.310000</speed>
</trkpt>
<trkpt lat="32.595008850" lon="35.131870270">
  <ele>284.908691</ele>
  <time>2011-10-18T05:54:58Z</time>
  <speed>7.120000</speed>
</trkpt>
<trkpt lat="32.595069885" lon="35.131839752">
  <ele>284.799316</ele>
  <time>2011-10-18T05:54:59Z</time>
  <speed>7.230000</speed>
</trkpt>
<trkpt lat="32.595130920" lon="35.131793976">
  <ele>285.080566</ele>
  <time>2011-10-18T05:55:00Z</time>
  <speed>7.350000</speed>
</trkpt>
<trkpt lat="32.595191956" lon="35.131748199">
  <ele>285.439941</ele>
  <time>2011-10-18T05:55:01Z</time>
  <speed>7.610000</speed>
</trkpt>
<trkpt lat="32.595249176" lon="35.131710052">
  <ele>284.744629</ele>
  <time>2011-10-18T05:55:02Z</time>
  <speed>7.370000</speed>
</trkpt>
<trkpt lat="32.595306396" lon="35.131675720">
  <ele>284.189941</ele>
  <time>2011-10-18T05:55:03Z</time>
  <speed>6.710000</speed>
</trkpt>
<trkpt lat="32.595378876" lon="35.131649017">
  <ele>283.518066</ele>
  <time>2011-10-18T05:55:04Z</time>
  <speed>8.380000</speed>
</trkpt>
<trkpt lat="32.595458984" lon="35.131622314">
  <ele>283.104004</ele>
  <time>2011-10-18T05:55:05Z</time>
  <speed>8.620000</speed>
</trkpt>
<trkpt lat="32.595542908" lon="35.131580353">
  <ele>283.432129</ele>
  <time>2011-10-18T05:55:06Z</time>
  <speed>8.900000</speed>
</trkpt>
<trkpt lat="32.595619202" lon="35.131538391">
  <ele>283.049316</ele>
  <time>2011-10-18T05:55:07Z</time>
  <speed>8.950000</speed>
</trkpt>
<trkpt lat="32.595691681" lon="35.131507874">
  <ele>282.064941</ele>
  <time>2011-10-18T05:55:08Z</time>
  <speed>8.470000</speed>
</trkpt>
<trkpt lat="32.595771790" lon="35.131492615">
  <ele>280.885254</ele>
  <time>2011-10-18T05:55:09Z</time>
  <speed>8.850000</speed>
</trkpt>
<trkpt lat="32.595840454" lon="35.131462097">
  <ele>279.830566</ele>
  <time>2011-10-18T05:55:10Z</time>
  <speed>6.910000</speed>
</trkpt>
<trkpt lat="32.595901489" lon="35.131427765">
  <ele>278.666504</ele>
  <time>2011-10-18T05:55:11Z</time>
  <speed>7.630000</speed>
</trkpt>
<trkpt lat="32.595966339" lon="35.131389618">
  <ele>277.689941</ele>
  <time>2011-10-18T05:55:12Z</time>
  <speed>7.650000</speed>
</trkpt>
<trkpt lat="32.596031189" lon="35.131351471">
  <ele>276.697754</ele>
  <time>2011-10-18T05:55:13Z</time>
  <speed>8.100000</speed>
</trkpt>
<trkpt lat="32.596099854" lon="35.131309509">
  <ele>276.244629</ele>
  <time>2011-10-18T05:55:14Z</time>
  <speed>8.080000</speed>
</trkpt>
<trkpt lat="32.596160889" lon="35.131271362">
  <ele>276.588379</ele>
  <time>2011-10-18T05:55:15Z</time>
  <speed>7.990000</speed>
</trkpt>
<trkpt lat="32.596225739" lon="35.131237030">
  <ele>276.213379</ele>
  <time>2011-10-18T05:55:16Z</time>
  <speed>8.280000</speed>
</trkpt>
<trkpt lat="32.596298218" lon="35.131217957">
  <ele>276.205566</ele>
  <time>2011-10-18T05:55:17Z</time>
  <speed>8.500000</speed>
</trkpt>
<trkpt lat="32.596374512" lon="35.131206512">
  <ele>275.674316</ele>
  <time>2011-10-18T05:55:18Z</time>
  <speed>8.580000</speed>
</trkpt>
<trkpt lat="32.596454620" lon="35.131179810">
  <ele>275.244629</ele>
  <time>2011-10-18T05:55:19Z</time>
  <speed>8.800000</speed>
</trkpt>
<trkpt lat="32.596523285" lon="35.131137848">
  <ele>274.955566</ele>
  <time>2011-10-18T05:55:20Z</time>
  <speed>8.210000</speed>
</trkpt>
<trkpt lat="32.596580505" lon="35.131080627">
  <ele>274.080566</ele>
  <time>2011-10-18T05:55:21Z</time>
  <speed>8.040000</speed>
</trkpt>
<trkpt lat="32.596637726" lon="35.131015778">
  <ele>273.174316</ele>
  <time>2011-10-18T05:55:22Z</time>
  <speed>8.270000</speed>
</trkpt>
<trkpt lat="32.596691132" lon="35.130950928">
  <ele>272.486816</ele>
  <time>2011-10-18T05:55:23Z</time>
  <speed>8.390000</speed>
</trkpt>
<trkpt lat="32.596748352" lon="35.130886078">
  <ele>271.861816</ele>
  <time>2011-10-18T05:55:24Z</time>
  <speed>8.720000</speed>
</trkpt>
<trkpt lat="32.596809387" lon="35.130825043">
  <ele>272.057129</ele>
  <time>2011-10-18T05:55:25Z</time>
  <speed>8.460000</speed>
</trkpt>
<trkpt lat="32.596881866" lon="35.130779266">
  <ele>271.182129</ele>
  <time>2011-10-18T05:55:26Z</time>
  <speed>8.610000</speed>
</trkpt>
<trkpt lat="32.596946716" lon="35.130737305">
  <ele>271.104004</ele>
  <time>2011-10-18T05:55:27Z</time>
  <speed>7.520000</speed>
</trkpt>
<trkpt lat="32.597003937" lon="35.130695343">
  <ele>269.963379</ele>
  <time>2011-10-18T05:55:28Z</time>
  <speed>7.460000</speed>
</trkpt>
<trkpt lat="32.597061157" lon="35.130653381">
  <ele>269.807129</ele>
  <time>2011-10-18T05:55:29Z</time>
  <speed>7.030000</speed>
</trkpt>
<trkpt lat="32.597103119" lon="35.130619049">
  <ele>269.104004</ele>
  <time>2011-10-18T05:55:30Z</time>
  <speed>5.650000</speed>
</trkpt>
<trkpt lat="32.597145081" lon="35.130592346">
  <ele>268.346191</ele>
  <time>2011-10-18T05:55:31Z</time>
  <speed>4.830000</speed>
</trkpt>
<trkpt lat="32.597171783" lon="35.130573273">
  <ele>267.408691</ele>
  <time>2011-10-18T05:55:32Z</time>
  <speed>3.360000</speed>
</trkpt>
<trkpt lat="32.597198486" lon="35.130561829">
  <ele>266.447754</ele>
  <time>2011-10-18T05:55:33Z</time>
  <speed>2.980000</speed>
</trkpt>
<trkpt lat="32.597251892" lon="35.130565643">
  <ele>265.135254</ele>
  <time>2011-10-18T05:55:35Z</time>
  <speed>2.820000</speed>
</trkpt>
<trkpt lat="32.597282410" lon="35.130577087">
  <ele>264.416504</ele>
  <time>2011-10-18T05:55:36Z</time>
  <speed>3.200000</speed>
</trkpt>
<trkpt lat="32.597324371" lon="35.130580902">
  <ele>264.057129</ele>
  <time>2011-10-18T05:55:37Z</time>
  <speed>4.290000</speed>
</trkpt>
<trkpt lat="32.597362518" lon="35.130580902">
  <ele>263.439941</ele>
  <time>2011-10-18T05:55:38Z</time>
  <speed>4.200000</speed>
</trkpt>
<trkpt lat="32.597400665" lon="35.130588531">
  <ele>262.346191</ele>
  <time>2011-10-18T05:55:39Z</time>
  <speed>4.270000</speed>
</trkpt>
<trkpt lat="32.597442627" lon="35.130577087">
  <ele>261.721191</ele>
  <time>2011-10-18T05:55:40Z</time>
  <speed>4.600000</speed>
</trkpt>
<trkpt lat="32.597480774" lon="35.130558014">
  <ele>261.447754</ele>
  <time>2011-10-18T05:55:41Z</time>
  <speed>4.860000</speed>
</trkpt>
<trkpt lat="32.597530365" lon="35.130550385">
  <ele>260.244629</ele>
  <time>2011-10-18T05:55:42Z</time>
  <speed>5.000000</speed>
</trkpt>
<trkpt lat="32.597591400" lon="35.130550385">
  <ele>259.041504</ele>
  <time>2011-10-18T05:55:43Z</time>
  <speed>6.660000</speed>
</trkpt>
<trkpt lat="32.597648621" lon="35.130569458">
  <ele>257.322754</ele>
  <time>2011-10-18T05:55:44Z</time>
  <speed>5.810000</speed>
</trkpt>
<trkpt lat="32.597694397" lon="35.130577087">
  <ele>257.439941</ele>
  <time>2011-10-18T05:55:45Z</time>
  <speed>3.880000</speed>
</trkpt>
<trkpt lat="32.597724915" lon="35.130561829">
  <ele>257.096191</ele>
  <time>2011-10-18T05:55:46Z</time>
  <speed>1.940000</speed>
</trkpt>
<trkpt lat="32.597747803" lon="35.130542755">
  <ele>256.455566</ele>
  <time>2011-10-18T05:55:47Z</time>
  <speed>1.640000</speed>
</trkpt>
<trkpt lat="32.597751617" lon="35.130496979">
  <ele>257.252441</ele>
  <time>2011-10-18T05:55:49Z</time>
  <speed>2.120000</speed>
</trkpt>
<trkpt lat="32.597740173" lon="35.130439758">
  <ele>257.424316</ele>
  <time>2011-10-18T05:55:51Z</time>
  <speed>2.200000</speed>
</trkpt>
<trkpt lat="32.597702026" lon="35.130397797">
  <ele>258.010254</ele>
  <time>2011-10-18T05:55:53Z</time>
  <speed>2.150000</speed>
</trkpt>
<trkpt lat="32.597648621" lon="35.130382538">
  <ele>258.736816</ele>
  <time>2011-10-18T05:55:55Z</time>
  <speed>2.920000</speed>
</trkpt>
<trkpt lat="32.597621918" lon="35.130378723">
  <ele>259.018066</ele>
  <time>2011-10-18T05:55:56Z</time>
  <speed>2.750000</speed>
</trkpt>
<trkpt lat="32.597591400" lon="35.130371094">
  <ele>259.041504</ele>
  <time>2011-10-18T05:55:57Z</time>
  <speed>2.410000</speed>
</trkpt>
<trkpt lat="32.597564697" lon="35.130371094">
  <ele>259.541504</ele>
  <time>2011-10-18T05:55:58Z</time>
  <speed>2.770000</speed>
</trkpt>
<trkpt lat="32.597515106" lon="35.130371094">
  <ele>259.971191</ele>
  <time>2011-10-18T05:56:00Z</time>
  <speed>2.830000</speed>
</trkpt>
<trkpt lat="32.597488403" lon="35.130363464">
  <ele>260.939941</ele>
  <time>2011-10-18T05:56:01Z</time>
  <speed>2.450000</speed>
</trkpt>
<trkpt lat="32.597442627" lon="35.130336761">
  <ele>260.525879</ele>
  <time>2011-10-18T05:56:03Z</time>
  <speed>2.700000</speed>
</trkpt>
<trkpt lat="32.597396851" lon="35.130321503">
  <ele>261.658691</ele>
  <time>2011-10-18T05:56:05Z</time>
  <speed>2.440000</speed>
</trkpt>
<trkpt lat="32.597370148" lon="35.130275726">
  <ele>262.627441</ele>
  <time>2011-10-18T05:56:07Z</time>
  <speed>2.680000</speed>
</trkpt>
<trkpt lat="32.597370148" lon="35.130214691">
  <ele>263.760254</ele>
  <time>2011-10-18T05:56:09Z</time>
  <speed>2.880000</speed>
</trkpt>
<trkpt lat="32.597385406" lon="35.130157471">
  <ele>263.947754</ele>
  <time>2011-10-18T05:56:11Z</time>
  <speed>2.950000</speed>
</trkpt>
<trkpt lat="32.597400665" lon="35.130130768">
  <ele>262.955566</ele>
  <time>2011-10-18T05:56:12Z</time>
  <speed>3.110000</speed>
</trkpt>
<trkpt lat="32.597415924" lon="35.130100250">
  <ele>262.400879</ele>
  <time>2011-10-18T05:56:13Z</time>
  <speed>3.250000</speed>
</trkpt>
<trkpt lat="32.597431183" lon="35.130065918">
  <ele>261.963379</ele>
  <time>2011-10-18T05:56:14Z</time>
  <speed>3.350000</speed>
</trkpt>
<trkpt lat="32.597446442" lon="35.130039215">
  <ele>262.197754</ele>
  <time>2011-10-18T05:56:15Z</time>
  <speed>3.690000</speed>
</trkpt>
<trkpt lat="32.597476959" lon="35.130012512">
  <ele>262.135254</ele>
  <time>2011-10-18T05:56:16Z</time>
  <speed>3.990000</speed>
</trkpt>
<trkpt lat="32.597499847" lon="35.129974365">
  <ele>262.369629</ele>
  <time>2011-10-18T05:56:17Z</time>
  <speed>4.180000</speed>
</trkpt>
<trkpt lat="32.597518921" lon="35.129936218">
  <ele>263.119629</ele>
  <time>2011-10-18T05:56:18Z</time>
  <speed>4.530000</speed>
</trkpt>
<trkpt lat="32.597549438" lon="35.129909515">
  <ele>262.807129</ele>
  <time>2011-10-18T05:56:19Z</time>
  <speed>4.440000</speed>
</trkpt>
<trkpt lat="32.597583771" lon="35.129875183">
  <ele>262.729004</ele>
  <time>2011-10-18T05:56:20Z</time>
  <speed>4.760000</speed>
</trkpt>
<trkpt lat="32.597621918" lon="35.129848480">
  <ele>262.549316</ele>
  <time>2011-10-18T05:56:21Z</time>
  <speed>4.780000</speed>
</trkpt>
<trkpt lat="32.597663879" lon="35.129829407">
  <ele>261.400879</ele>
  <time>2011-10-18T05:56:22Z</time>
  <speed>5.020000</speed>
</trkpt>
<trkpt lat="32.597709656" lon="35.129825592">
  <ele>260.072754</ele>
  <time>2011-10-18T05:56:23Z</time>
  <speed>4.640000</speed>
</trkpt>
<trkpt lat="32.597747803" lon="35.129829407">
  <ele>259.604004</ele>
  <time>2011-10-18T05:56:24Z</time>
  <speed>3.960000</speed>
</trkpt>
<trkpt lat="32.597782135" lon="35.129837036">
  <ele>259.502441</ele>
  <time>2011-10-18T05:56:25Z</time>
  <speed>3.600000</speed>
</trkpt>
<trkpt lat="32.597827911" lon="35.129840851">
  <ele>260.229004</ele>
  <time>2011-10-18T05:56:27Z</time>
  <speed>2.720000</speed>
</trkpt>
<trkpt lat="32.597873688" lon="35.129837036">
  <ele>260.510254</ele>
  <time>2011-10-18T05:56:29Z</time>
  <speed>2.490000</speed>
</trkpt>
<trkpt lat="32.597919464" lon="35.129829407">
  <ele>261.729004</ele>
  <time>2011-10-18T05:56:31Z</time>
  <speed>2.630000</speed>
</trkpt>
<trkpt lat="32.597949982" lon="35.129829407">
  <ele>262.338379</ele>
  <time>2011-10-18T05:56:32Z</time>
  <speed>2.960000</speed>
</trkpt>
<trkpt lat="32.597980499" lon="35.129814148">
  <ele>262.354004</ele>
  <time>2011-10-18T05:56:33Z</time>
  <speed>2.990000</speed>
</trkpt>
<trkpt lat="32.598003387" lon="35.129798889">
  <ele>263.346191</ele>
  <time>2011-10-18T05:56:34Z</time>
  <speed>2.980000</speed>
</trkpt>
<trkpt lat="32.598037720" lon="35.129787445">
  <ele>263.885254</ele>
  <time>2011-10-18T05:56:35Z</time>
  <speed>3.050000</speed>
</trkpt>
<trkpt lat="32.598072052" lon="35.129760742">
  <ele>263.611816</ele>
  <time>2011-10-18T05:56:36Z</time>
  <speed>3.380000</speed>
</trkpt>
<trkpt lat="32.598106384" lon="35.129734039">
  <ele>263.760254</ele>
  <time>2011-10-18T05:56:37Z</time>
  <speed>3.810000</speed>
</trkpt>
<trkpt lat="32.598144531" lon="35.129711151">
  <ele>263.494629</ele>
  <time>2011-10-18T05:56:38Z</time>
  <speed>3.600000</speed>
</trkpt>
<trkpt lat="32.598178864" lon="35.129688263">
  <ele>263.182129</ele>
  <time>2011-10-18T05:56:39Z</time>
  <speed>3.820000</speed>
</trkpt>
<trkpt lat="32.598209381" lon="35.129657745">
  <ele>263.408691</ele>
  <time>2011-10-18T05:56:40Z</time>
  <speed>3.700000</speed>
</trkpt>
<trkpt lat="32.598232269" lon="35.129627228">
  <ele>263.260254</ele>
  <time>2011-10-18T05:56:41Z</time>
  <speed>3.010000</speed>
</trkpt>
<trkpt lat="32.598278046" lon="35.129589081">
  <ele>263.197754</ele>
  <time>2011-10-18T05:56:43Z</time>
  <speed>2.980000</speed>
</trkpt>
<trkpt lat="32.598335266" lon="35.129562378">
  <ele>264.080566</ele>
  <time>2011-10-18T05:56:45Z</time>
  <speed>2.870000</speed>
</trkpt>
<trkpt lat="32.598377228" lon="35.129539490">
  <ele>265.346191</ele>
  <time>2011-10-18T05:56:47Z</time>
  <speed>2.320000</speed>
</trkpt>
<trkpt lat="32.598403931" lon="35.129528046">
  <ele>265.830566</ele>
  <time>2011-10-18T05:56:48Z</time>
  <speed>2.230000</speed>
</trkpt>
<trkpt lat="32.598453522" lon="35.129489899">
  <ele>265.041504</ele>
  <time>2011-10-18T05:56:50Z</time>
  <speed>2.630000</speed>
</trkpt>
<trkpt lat="32.598480225" lon="35.129463196">
  <ele>264.736816</ele>
  <time>2011-10-18T05:56:51Z</time>
  <speed>2.490000</speed>
</trkpt>
<trkpt lat="32.598491669" lon="35.129432678">
  <ele>265.197754</ele>
  <time>2011-10-18T05:56:52Z</time>
  <speed>2.470000</speed>
</trkpt>
<trkpt lat="32.598522186" lon="35.129402161">
  <ele>266.400879</ele>
  <time>2011-10-18T05:56:54Z</time>
  <speed>1.400000</speed>
</trkpt>
<trkpt lat="32.598564148" lon="35.129367828">
  <ele>267.783691</ele>
  <time>2011-10-18T05:56:56Z</time>
  <speed>2.450000</speed>
</trkpt>
<trkpt lat="32.598590851" lon="35.129337311">
  <ele>267.775879</ele>
  <time>2011-10-18T05:56:57Z</time>
  <speed>2.530000</speed>
</trkpt>
<trkpt lat="32.598613739" lon="35.129314423">
  <ele>267.674316</ele>
  <time>2011-10-18T05:56:58Z</time>
  <speed>2.610000</speed>
</trkpt>
<trkpt lat="32.598632813" lon="35.129295349">
  <ele>268.252441</ele>
  <time>2011-10-18T05:56:59Z</time>
  <speed>2.520000</speed>
</trkpt>
<trkpt lat="32.598663330" lon="35.129241943">
  <ele>267.604004</ele>
  <time>2011-10-18T05:57:01Z</time>
  <speed>2.060000</speed>
</trkpt>
<trkpt lat="32.598678589" lon="35.129211426">
  <ele>267.689941</ele>
  <time>2011-10-18T05:57:02Z</time>
  <speed>2.580000</speed>
</trkpt>
<trkpt lat="32.598705292" lon="35.129180908">
  <ele>267.697754</ele>
  <time>2011-10-18T05:57:03Z</time>
  <speed>2.800000</speed>
</trkpt>
<trkpt lat="32.598720551" lon="35.129146576">
  <ele>267.486816</ele>
  <time>2011-10-18T05:57:04Z</time>
  <speed>2.690000</speed>
</trkpt>
<trkpt lat="32.598739624" lon="35.129119873">
  <ele>266.994629</ele>
  <time>2011-10-18T05:57:05Z</time>
  <speed>2.360000</speed>
</trkpt>
<trkpt lat="32.598754883" lon="35.129062653">
  <ele>267.564941</ele>
  <time>2011-10-18T05:57:07Z</time>
  <speed>2.110000</speed>
</trkpt>
<trkpt lat="32.598762512" lon="35.129016876">
  <ele>268.049316</ele>
  <time>2011-10-18T05:57:09Z</time>
  <speed>1.700000</speed>
</trkpt>
<trkpt lat="32.598762512" lon="35.128971100">
  <ele>268.229004</ele>
  <time>2011-10-18T05:57:11Z</time>
  <speed>2.230000</speed>
</trkpt>
<trkpt lat="32.598770142" lon="35.128921509">
  <ele>269.150879</ele>
  <time>2011-10-18T05:57:13Z</time>
  <speed>2.170000</speed>
</trkpt>
<trkpt lat="32.598796844" lon="35.128875732">
  <ele>268.939941</ele>
  <time>2011-10-18T05:57:15Z</time>
  <speed>2.460000</speed>
</trkpt>
<trkpt lat="32.598819733" lon="35.128852844">
  <ele>268.385254</ele>
  <time>2011-10-18T05:57:16Z</time>
  <speed>2.760000</speed>
</trkpt>
<trkpt lat="32.598861694" lon="35.128826141">
  <ele>268.205566</ele>
  <time>2011-10-18T05:57:18Z</time>
  <speed>2.450000</speed>
</trkpt>
<trkpt lat="32.598888397" lon="35.128814697">
  <ele>268.369629</ele>
  <time>2011-10-18T05:57:19Z</time>
  <speed>2.770000</speed>
</trkpt>
<trkpt lat="32.598934174" lon="35.128818512">
  <ele>268.814941</ele>
  <time>2011-10-18T05:57:21Z</time>
  <speed>2.850000</speed>
</trkpt>
<trkpt lat="32.598960876" lon="35.128829956">
  <ele>268.658691</ele>
  <time>2011-10-18T05:57:22Z</time>
  <speed>3.150000</speed>
</trkpt>
<trkpt lat="32.598987579" lon="35.128822327">
  <ele>268.486816</ele>
  <time>2011-10-18T05:57:23Z</time>
  <speed>3.420000</speed>
</trkpt>
<trkpt lat="32.599025726" lon="35.128799438">
  <ele>268.455566</ele>
  <time>2011-10-18T05:57:24Z</time>
  <speed>3.290000</speed>
</trkpt>
<trkpt lat="32.599048615" lon="35.128768921">
  <ele>268.447754</ele>
  <time>2011-10-18T05:57:25Z</time>
  <speed>3.410000</speed>
</trkpt>
<trkpt lat="32.599086761" lon="35.128734589">
  <ele>267.416504</ele>
  <time>2011-10-18T05:57:26Z</time>
  <speed>3.330000</speed>
</trkpt>
<trkpt lat="32.599090576" lon="35.128696442">
  <ele>267.596191</ele>
  <time>2011-10-18T05:57:27Z</time>
  <speed>3.600000</speed>
</trkpt>
<trkpt lat="32.599094391" lon="35.128650665">
  <ele>267.924316</ele>
  <time>2011-10-18T05:57:28Z</time>
  <speed>3.640000</speed>
</trkpt>
<trkpt lat="32.599082947" lon="35.128612518">
  <ele>266.713379</ele>
  <time>2011-10-18T05:57:29Z</time>
  <speed>3.470000</speed>
</trkpt>
<trkpt lat="32.599079132" lon="35.128574371">
  <ele>265.854004</ele>
  <time>2011-10-18T05:57:30Z</time>
  <speed>2.940000</speed>
</trkpt>
<trkpt lat="32.599098206" lon="35.128528595">
  <ele>265.932129</ele>
  <time>2011-10-18T05:57:31Z</time>
  <speed>4.200000</speed>
</trkpt>
<trkpt lat="32.599121094" lon="35.128482819">
  <ele>265.104004</ele>
  <time>2011-10-18T05:57:32Z</time>
  <speed>4.430000</speed>
</trkpt>
<trkpt lat="32.599147797" lon="35.128444672">
  <ele>264.229004</ele>
  <time>2011-10-18T05:57:33Z</time>
  <speed>4.040000</speed>
</trkpt>
<trkpt lat="32.599163055" lon="35.128410339">
  <ele>263.861816</ele>
  <time>2011-10-18T05:57:34Z</time>
  <speed>3.020000</speed>
</trkpt>
<trkpt lat="32.599170685" lon="35.128360748">
  <ele>263.377441</ele>
  <time>2011-10-18T05:57:35Z</time>
  <speed>3.710000</speed>
</trkpt>
<trkpt lat="32.599197388" lon="35.128337860">
  <ele>261.830566</ele>
  <time>2011-10-18T05:57:36Z</time>
  <speed>4.170000</speed>
</trkpt>
<trkpt lat="32.599231720" lon="35.128322601">
  <ele>260.947754</ele>
  <time>2011-10-18T05:57:37Z</time>
  <speed>4.260000</speed>
</trkpt>
<trkpt lat="32.599269867" lon="35.128311157">
  <ele>260.439941</ele>
  <time>2011-10-18T05:57:38Z</time>
  <speed>4.110000</speed>
</trkpt>
<trkpt lat="32.599308014" lon="35.128295898">
  <ele>259.385254</ele>
  <time>2011-10-18T05:57:39Z</time>
  <speed>4.390000</speed>
</trkpt>
<trkpt lat="32.599353790" lon="35.128276825">
  <ele>258.135254</ele>
  <time>2011-10-18T05:57:40Z</time>
  <speed>4.390000</speed>
</trkpt>
<trkpt lat="32.599376678" lon="35.128250122">
  <ele>258.385254</ele>
  <time>2011-10-18T05:57:41Z</time>
  <speed>4.120000</speed>
</trkpt>
<trkpt lat="32.599403381" lon="35.128234863">
  <ele>257.674316</ele>
  <time>2011-10-18T05:57:42Z</time>
  <speed>2.420000</speed>
</trkpt>
<trkpt lat="32.599426270" lon="35.128192902">
  <ele>257.236816</ele>
  <time>2011-10-18T05:57:44Z</time>
  <speed>1.200000</speed>
</trkpt>
<trkpt lat="32.599437714" lon="35.128154755">
  <ele>256.158691</ele>
  <time>2011-10-18T05:57:46Z</time>
  <speed>1.060000</speed>
</trkpt>
<trkpt lat="32.599449158" lon="35.128124237">
  <ele>256.221191</ele>
  <time>2011-10-18T05:57:49Z</time>
  <speed>0.570000</speed>
</trkpt>
<trkpt lat="32.599475861" lon="35.128067017">
  <ele>256.174316</ele>
  <time>2011-10-18T05:57:53Z</time>
  <speed>3.040000</speed>
</trkpt>
<trkpt lat="32.599494934" lon="35.128032684">
  <ele>256.541504</ele>
  <time>2011-10-18T05:57:54Z</time>
  <speed>3.640000</speed>
</trkpt>
<trkpt lat="32.599510193" lon="35.127990723">
  <ele>256.260254</ele>
  <time>2011-10-18T05:57:55Z</time>
  <speed>3.590000</speed>
</trkpt>
<trkpt lat="32.599533081" lon="35.127948761">
  <ele>254.887939</ele>
  <time>2011-10-18T05:57:56Z</time>
  <speed>3.700000</speed>
</trkpt>
<trkpt lat="32.599552155" lon="35.127922058">
  <ele>254.684814</ele>
  <time>2011-10-18T05:57:57Z</time>
  <speed>2.940000</speed>
</trkpt>
<trkpt lat="32.599571228" lon="35.127880096">
  <ele>254.384033</ele>
  <time>2011-10-18T05:57:59Z</time>
  <speed>1.670000</speed>
</trkpt>
<trkpt lat="32.599544525" lon="35.127826691">
  <ele>254.055908</ele>
  <time>2011-10-18T05:58:01Z</time>
  <speed>2.420000</speed>
</trkpt>
<trkpt lat="32.599533081" lon="35.127796173">
  <ele>253.012939</ele>
  <time>2011-10-18T05:58:02Z</time>
  <speed>2.190000</speed>
</trkpt>
<trkpt lat="32.599533081" lon="35.127727509">
  <ele>251.462158</ele>
  <time>2011-10-18T05:58:04Z</time>
  <speed>2.790000</speed>
</trkpt>
<trkpt lat="32.599559784" lon="35.127696991">
  <ele>251.137939</ele>
  <time>2011-10-18T05:58:05Z</time>
  <speed>3.600000</speed>
</trkpt>
<trkpt lat="32.599590302" lon="35.127681732">
  <ele>250.915283</ele>
  <time>2011-10-18T05:58:06Z</time>
  <speed>3.670000</speed>
</trkpt>
<trkpt lat="32.599617004" lon="35.127651215">
  <ele>250.333252</ele>
  <time>2011-10-18T05:58:07Z</time>
  <speed>3.250000</speed>
</trkpt>
<trkpt lat="32.599639893" lon="35.127616882">
  <ele>249.891846</ele>
  <time>2011-10-18T05:58:08Z</time>
  <speed>2.060000</speed>
</trkpt>
<trkpt lat="32.599639893" lon="35.127578735">
  <ele>249.192627</ele>
  <time>2011-10-18T05:58:10Z</time>
  <speed>1.920000</speed>
</trkpt>
<trkpt lat="32.599620819" lon="35.127548218">
  <ele>249.032471</ele>
  <time>2011-10-18T05:58:11Z</time>
  <speed>3.410000</speed>
</trkpt>
<trkpt lat="32.599601746" lon="35.127498627">
  <ele>248.528564</ele>
  <time>2011-10-18T05:58:13Z</time>
  <speed>1.840000</speed>
</trkpt>
<trkpt lat="32.599628448" lon="35.127479553">
  <ele>248.009033</ele>
  <time>2011-10-18T05:58:14Z</time>
  <speed>2.600000</speed>
</trkpt>
<trkpt lat="32.599651337" lon="35.127460480">
  <ele>247.255127</ele>
  <time>2011-10-18T05:58:15Z</time>
  <speed>2.960000</speed>
</trkpt>
<trkpt lat="32.599678040" lon="35.127437592">
  <ele>246.805908</ele>
  <time>2011-10-18T05:58:16Z</time>
  <speed>3.020000</speed>
</trkpt>
<trkpt lat="32.599712372" lon="35.127418518">
  <ele>245.954346</ele>
  <time>2011-10-18T05:58:17Z</time>
  <speed>3.330000</speed>
</trkpt>
<trkpt lat="32.599742889" lon="35.127403259">
  <ele>245.739502</ele>
  <time>2011-10-18T05:58:18Z</time>
  <speed>2.850000</speed>
</trkpt>
<trkpt lat="32.599761963" lon="35.127361298">
  <ele>245.759033</ele>
  <time>2011-10-18T05:58:20Z</time>
  <speed>1.520000</speed>
</trkpt>
<trkpt lat="32.599765778" lon="35.127292633">
  <ele>244.087158</ele>
  <time>2011-10-18T05:58:22Z</time>
  <speed>2.080000</speed>
</trkpt>
<trkpt lat="32.599777222" lon="35.127235413">
  <ele>243.387939</ele>
  <time>2011-10-18T05:58:24Z</time>
  <speed>2.040000</speed>
</trkpt>
<trkpt lat="32.599792480" lon="35.127178192">
  <ele>241.368408</ele>
  <time>2011-10-18T05:58:26Z</time>
  <speed>1.850000</speed>
</trkpt>
<trkpt lat="32.599830627" lon="35.127143860">
  <ele>239.575439</ele>
  <time>2011-10-18T05:58:28Z</time>
  <speed>2.730000</speed>
</trkpt>
<trkpt lat="32.599864960" lon="35.127132416">
  <ele>238.606689</ele>
  <time>2011-10-18T05:58:30Z</time>
  <speed>1.430000</speed>
</trkpt>
<trkpt lat="32.599903107" lon="35.127140045">
  <ele>238.399658</ele>
  <time>2011-10-18T05:58:32Z</time>
  <speed>2.110000</speed>
</trkpt>
<trkpt lat="32.599956512" lon="35.127143860">
  <ele>238.583252</ele>
  <time>2011-10-18T05:58:34Z</time>
  <speed>2.450000</speed>
</trkpt>
<trkpt lat="32.600013733" lon="35.127132416">
  <ele>238.177002</ele>
  <time>2011-10-18T05:58:36Z</time>
  <speed>2.570000</speed>
</trkpt>
<trkpt lat="32.600055695" lon="35.127128601">
  <ele>238.540283</ele>
  <time>2011-10-18T05:58:38Z</time>
  <speed>2.320000</speed>
</trkpt>
<trkpt lat="32.600097656" lon="35.127132416">
  <ele>238.333252</ele>
  <time>2011-10-18T05:58:40Z</time>
  <speed>1.940000</speed>
</trkpt>
<trkpt lat="32.600131989" lon="35.127143860">
  <ele>237.048096</ele>
  <time>2011-10-18T05:58:41Z</time>
  <speed>2.660000</speed>
</trkpt>
<trkpt lat="32.600158691" lon="35.127159119">
  <ele>238.427002</ele>
  <time>2011-10-18T05:58:42Z</time>
  <speed>2.660000</speed>
</trkpt>
<trkpt lat="32.600193024" lon="35.127162933">
  <ele>238.364502</ele>
  <time>2011-10-18T05:58:43Z</time>
  <speed>2.720000</speed>
</trkpt>
<trkpt lat="32.600227356" lon="35.127178192">
  <ele>238.266846</ele>
  <time>2011-10-18T05:58:44Z</time>
  <speed>2.760000</speed>
</trkpt>
<trkpt lat="32.600254059" lon="35.127189636">
  <ele>238.466064</ele>
  <time>2011-10-18T05:58:45Z</time>
  <speed>2.660000</speed>
</trkpt>
<trkpt lat="32.600276947" lon="35.127208710">
  <ele>238.040283</ele>
  <time>2011-10-18T05:58:46Z</time>
  <speed>2.470000</speed>
</trkpt>
<trkpt lat="32.600307465" lon="35.127223969">
  <ele>237.442627</ele>
  <time>2011-10-18T05:58:47Z</time>
  <speed>2.720000</speed>
</trkpt>
<trkpt lat="32.600349426" lon="35.127262115">
  <ele>237.083252</ele>
  <time>2011-10-18T05:58:49Z</time>
  <speed>2.500000</speed>
</trkpt>
<trkpt lat="32.600379944" lon="35.127300262">
  <ele>236.360596</ele>
  <time>2011-10-18T05:58:51Z</time>
  <speed>1.560000</speed>
</trkpt>
<trkpt lat="32.600387573" lon="35.127342224">
  <ele>237.063721</ele>
  <time>2011-10-18T05:58:53Z</time>
  <speed>1.770000</speed>
</trkpt>
<trkpt lat="32.600372314" lon="35.127384186">
  <ele>237.481689</ele>
  <time>2011-10-18T05:58:55Z</time>
  <speed>2.200000</speed>
</trkpt>
<trkpt lat="32.600349426" lon="35.127422333">
  <ele>238.024658</ele>
  <time>2011-10-18T05:58:57Z</time>
  <speed>2.220000</speed>
</trkpt>
<trkpt lat="32.600330353" lon="35.127456665">
  <ele>237.731689</ele>
  <time>2011-10-18T05:58:59Z</time>
  <speed>1.610000</speed>
</trkpt>
<trkpt lat="32.600311279" lon="35.127487183">
  <ele>237.708252</ele>
  <time>2011-10-18T05:59:01Z</time>
  <speed>1.860000</speed>
</trkpt>
<trkpt lat="32.600288391" lon="35.127529144">
  <ele>238.809814</ele>
  <time>2011-10-18T05:59:03Z</time>
  <speed>1.990000</speed>
</trkpt>
<trkpt lat="32.600269318" lon="35.127574921">
  <ele>239.786377</ele>
  <time>2011-10-18T05:59:05Z</time>
  <speed>1.260000</speed>
</trkpt>
<trkpt lat="32.600238800" lon="35.127624512">
  <ele>239.583252</ele>
  <time>2011-10-18T05:59:08Z</time>
  <speed>1.630000</speed>
</trkpt>
<trkpt lat="32.600219727" lon="35.127658844">
  <ele>239.536377</ele>
  <time>2011-10-18T05:59:10Z</time>
  <speed>1.750000</speed>
</trkpt>
<trkpt lat="32.600196838" lon="35.127693176">
  <ele>238.848877</ele>
  <time>2011-10-18T05:59:12Z</time>
  <speed>1.650000</speed>
</trkpt>
<trkpt lat="32.600154877" lon="35.127727509">
  <ele>238.079346</ele>
  <time>2011-10-18T05:59:14Z</time>
  <speed>1.860000</speed>
</trkpt>
<trkpt lat="32.600131989" lon="35.127761841">
  <ele>237.751221</ele>
  <time>2011-10-18T05:59:16Z</time>
  <speed>1.780000</speed>
</trkpt>
<trkpt lat="32.600105286" lon="35.127796173">
  <ele>237.247314</ele>
  <time>2011-10-18T05:59:18Z</time>
  <speed>1.710000</speed>
</trkpt>
<trkpt lat="32.600078583" lon="35.127811432">
  <ele>237.493408</ele>
  <time>2011-10-18T05:59:20Z</time>
  <speed>1.330000</speed>
</trkpt>
<trkpt lat="32.600051880" lon="35.127830505">
  <ele>237.802002</ele>
  <time>2011-10-18T05:59:22Z</time>
  <speed>1.470000</speed>
</trkpt>
<trkpt lat="32.600028992" lon="35.127872467">
  <ele>238.395752</ele>
  <time>2011-10-18T05:59:24Z</time>
  <speed>1.540000</speed>
</trkpt>
<trkpt lat="32.600006104" lon="35.127902985">
  <ele>239.141846</ele>
  <time>2011-10-18T05:59:26Z</time>
  <speed>1.510000</speed>
</trkpt>
<trkpt lat="32.599983215" lon="35.127925873">
  <ele>239.528564</ele>
  <time>2011-10-18T05:59:28Z</time>
  <speed>1.430000</speed>
</trkpt>
<trkpt lat="32.599960327" lon="35.127956390">
  <ele>240.571533</ele>
  <time>2011-10-18T05:59:30Z</time>
  <speed>0.980000</speed>
</trkpt>
<trkpt lat="32.599933624" lon="35.127990723">
  <ele>241.622314</ele>
  <time>2011-10-18T05:59:33Z</time>
  <speed>1.190000</speed>
</trkpt>
<trkpt lat="32.599910736" lon="35.128009796">
  <ele>241.700439</ele>
  <time>2011-10-18T05:59:35Z</time>
  <speed>0.950000</speed>
</trkpt>
<trkpt lat="32.599880219" lon="35.128028870">
  <ele>241.477783</ele>
  <time>2011-10-18T05:59:38Z</time>
  <speed>1.040000</speed>
</trkpt>
<trkpt lat="32.599861145" lon="35.128047943">
  <ele>242.680908</ele>
  <time>2011-10-18T05:59:41Z</time>
  <speed>0.970000</speed>
</trkpt>
<trkpt lat="32.599834442" lon="35.128067017">
  <ele>243.184814</ele>
  <time>2011-10-18T05:59:44Z</time>
  <speed>1.010000</speed>
</trkpt>
<trkpt lat="32.599807739" lon="35.128093719">
  <ele>244.880127</ele>
  <time>2011-10-18T05:59:46Z</time>
  <speed>1.150000</speed>
</trkpt>
<trkpt lat="32.599777222" lon="35.128108978">
  <ele>245.157471</ele>
  <time>2011-10-18T05:59:48Z</time>
  <speed>1.460000</speed>
</trkpt>
<trkpt lat="32.599750519" lon="35.128131866">
  <ele>245.923096</ele>
  <time>2011-10-18T05:59:50Z</time>
  <speed>1.450000</speed>
</trkpt>
<trkpt lat="32.599765778" lon="35.128162384">
  <ele>245.360596</ele>
  <time>2011-10-18T05:59:55Z</time>
  <speed>1.040000</speed>
</trkpt>
<trkpt lat="32.599811554" lon="35.128200531">
  <ele>245.852783</ele>
  <time>2011-10-18T05:59:57Z</time>
  <speed>3.800000</speed>
</trkpt>
<trkpt lat="32.599849701" lon="35.128223419">
  <ele>245.501221</ele>
  <time>2011-10-18T05:59:58Z</time>
  <speed>3.940000</speed>
</trkpt>
<trkpt lat="32.599880219" lon="35.128242493">
  <ele>245.208252</ele>
  <time>2011-10-18T05:59:59Z</time>
  <speed>3.620000</speed>
</trkpt>
<trkpt lat="32.599918365" lon="35.128265381">
  <ele>244.509033</ele>
  <time>2011-10-18T06:00:00Z</time>
  <speed>3.690000</speed>
</trkpt>
<trkpt lat="32.599945068" lon="35.128292084">
  <ele>243.727783</ele>
  <time>2011-10-18T06:00:01Z</time>
  <speed>3.240000</speed>
</trkpt>
<trkpt lat="32.599967957" lon="35.128314972">
  <ele>243.137939</ele>
  <time>2011-10-18T06:00:02Z</time>
  <speed>2.610000</speed>
</trkpt>
<trkpt lat="32.600002289" lon="35.128322601">
  <ele>241.610596</ele>
  <time>2011-10-18T06:00:03Z</time>
  <speed>2.820000</speed>
</trkpt>
<trkpt lat="32.600036621" lon="35.128330231">
  <ele>240.536377</ele>
  <time>2011-10-18T06:00:04Z</time>
  <speed>3.640000</speed>
</trkpt>
<trkpt lat="32.600063324" lon="35.128337860">
  <ele>239.259033</ele>
  <time>2011-10-18T06:00:05Z</time>
  <speed>2.160000</speed>
</trkpt>
<trkpt lat="32.600093842" lon="35.128349304">
  <ele>238.680908</ele>
  <time>2011-10-18T06:00:06Z</time>
  <speed>1.810000</speed>
</trkpt>
<trkpt lat="32.600131989" lon="35.128376007">
  <ele>237.473877</ele>
  <time>2011-10-18T06:00:08Z</time>
  <speed>2.930000</speed>
</trkpt>
<trkpt lat="32.600154877" lon="35.128410339">
  <ele>236.661377</ele>
  <time>2011-10-18T06:00:09Z</time>
  <speed>3.960000</speed>
</trkpt>
<trkpt lat="32.600189209" lon="35.128452301">
  <ele>235.790283</ele>
  <time>2011-10-18T06:00:10Z</time>
  <speed>4.780000</speed>
</trkpt>
<trkpt lat="32.600238800" lon="35.128486633">
  <ele>234.516846</ele>
  <time>2011-10-18T06:00:11Z</time>
  <speed>5.880000</speed>
</trkpt>
<trkpt lat="32.600273132" lon="35.128528595">
  <ele>233.598877</ele>
  <time>2011-10-18T06:00:12Z</time>
  <speed>4.200000</speed>
</trkpt>
<trkpt lat="32.600311279" lon="35.128555298">
  <ele>232.634033</ele>
  <time>2011-10-18T06:00:13Z</time>
  <speed>4.400000</speed>
</trkpt>
<trkpt lat="32.600357056" lon="35.128589630">
  <ele>231.360596</ele>
  <time>2011-10-18T06:00:14Z</time>
  <speed>5.260000</speed>
</trkpt>
<trkpt lat="32.600399017" lon="35.128620148">
  <ele>230.575439</ele>
  <time>2011-10-18T06:00:15Z</time>
  <speed>4.730000</speed>
</trkpt>
<trkpt lat="32.600433350" lon="35.128650665">
  <ele>229.505127</ele>
  <time>2011-10-18T06:00:16Z</time>
  <speed>4.690000</speed>
</trkpt>
<trkpt lat="32.600471497" lon="35.128662109">
  <ele>228.380127</ele>
  <time>2011-10-18T06:00:17Z</time>
  <speed>3.340000</speed>
</trkpt>
<trkpt lat="32.600505829" lon="35.128658295">
  <ele>226.333252</ele>
  <time>2011-10-18T06:00:18Z</time>
  <speed>2.410000</speed>
</trkpt>
<trkpt lat="32.600532532" lon="35.128700256">
  <ele>224.497314</ele>
  <time>2011-10-18T06:00:20Z</time>
  <speed>2.690000</speed>
</trkpt>
<trkpt lat="32.600543976" lon="35.128730774">
  <ele>223.614502</ele>
  <time>2011-10-18T06:00:21Z</time>
  <speed>2.170000</speed>
</trkpt>
<trkpt lat="32.600547791" lon="35.128765106">
  <ele>222.118408</ele>
  <time>2011-10-18T06:00:23Z</time>
  <speed>1.050000</speed>
</trkpt>
<trkpt lat="32.600540161" lon="35.128791809">
  <ele>220.868408</ele>
  <time>2011-10-18T06:00:46Z</time>
  <speed>0.150000</speed>
</trkpt>
<trkpt lat="32.600551605" lon="35.128822327">
  <ele>220.692627</ele>
  <time>2011-10-18T06:01:01Z</time>
  <speed>0.060000</speed>
</trkpt>
<trkpt lat="32.600563049" lon="35.128852844">
  <ele>220.645752</ele>
  <time>2011-10-18T06:01:19Z</time>
  <speed>2.330000</speed>
</trkpt>
<trkpt lat="32.600570679" lon="35.128913879">
  <ele>220.641846</ele>
  <time>2011-10-18T06:01:21Z</time>
  <speed>2.650000</speed>
</trkpt>
<trkpt lat="32.600574493" lon="35.128948212">
  <ele>220.266846</ele>
  <time>2011-10-18T06:01:22Z</time>
  <speed>2.940000</speed>
</trkpt>
<trkpt lat="32.600574493" lon="35.128978729">
  <ele>219.907471</ele>
  <time>2011-10-18T06:01:23Z</time>
  <speed>3.070000</speed>
</trkpt>
<trkpt lat="32.600578308" lon="35.129013062">
  <ele>219.735596</ele>
  <time>2011-10-18T06:01:24Z</time>
  <speed>3.010000</speed>
</trkpt>
<trkpt lat="32.600585938" lon="35.129051208">
  <ele>220.059814</ele>
  <time>2011-10-18T06:01:25Z</time>
  <speed>3.270000</speed>
</trkpt>
<trkpt lat="32.600601196" lon="35.129081726">
  <ele>219.669189</ele>
  <time>2011-10-18T06:01:26Z</time>
  <speed>3.470000</speed>
</trkpt>
<trkpt lat="32.600620270" lon="35.129116058">
  <ele>219.384033</ele>
  <time>2011-10-18T06:01:27Z</time>
  <speed>3.780000</speed>
</trkpt>
<trkpt lat="32.600635529" lon="35.129154205">
  <ele>219.059814</ele>
  <time>2011-10-18T06:01:28Z</time>
  <speed>3.510000</speed>
</trkpt>
<trkpt lat="32.600646973" lon="35.129192352">
  <ele>219.438721</ele>
  <time>2011-10-18T06:01:29Z</time>
  <speed>3.010000</speed>
</trkpt>
<trkpt lat="32.600658417" lon="35.129226685">
  <ele>219.243408</ele>
  <time>2011-10-18T06:01:30Z</time>
  <speed>3.170000</speed>
</trkpt>
<trkpt lat="32.600677490" lon="35.129257202">
  <ele>219.083252</ele>
  <time>2011-10-18T06:01:31Z</time>
  <speed>3.400000</speed>
</trkpt>
<trkpt lat="32.600688934" lon="35.129295349">
  <ele>218.442627</ele>
  <time>2011-10-18T06:01:32Z</time>
  <speed>3.520000</speed>
</trkpt>
<trkpt lat="32.600708008" lon="35.129325867">
  <ele>218.423096</ele>
  <time>2011-10-18T06:01:33Z</time>
  <speed>3.060000</speed>
</trkpt>
<trkpt lat="32.600719452" lon="35.129360199">
  <ele>218.001221</ele>
  <time>2011-10-18T06:01:34Z</time>
  <speed>3.070000</speed>
</trkpt>
<trkpt lat="32.600730896" lon="35.129394531">
  <ele>217.520752</ele>
  <time>2011-10-18T06:01:35Z</time>
  <speed>3.440000</speed>
</trkpt>
<trkpt lat="32.600742340" lon="35.129432678">
  <ele>216.860596</ele>
  <time>2011-10-18T06:01:36Z</time>
  <speed>3.690000</speed>
</trkpt>
<trkpt lat="32.600753784" lon="35.129478455">
  <ele>216.637939</ele>
  <time>2011-10-18T06:01:37Z</time>
  <speed>3.820000</speed>
</trkpt>
<trkpt lat="32.600757599" lon="35.129516602">
  <ele>216.087158</ele>
  <time>2011-10-18T06:01:38Z</time>
  <speed>3.410000</speed>
</trkpt>
<trkpt lat="32.600772858" lon="35.129554749">
  <ele>215.684814</ele>
  <time>2011-10-18T06:01:39Z</time>
  <speed>3.390000</speed>
</trkpt>
<trkpt lat="32.600784302" lon="35.129589081">
  <ele>215.255127</ele>
  <time>2011-10-18T06:01:40Z</time>
  <speed>3.420000</speed>
</trkpt>
<trkpt lat="32.600795746" lon="35.129627228">
  <ele>215.052002</ele>
  <time>2011-10-18T06:01:41Z</time>
  <speed>3.530000</speed>
</trkpt>
<trkpt lat="32.600811005" lon="35.129665375">
  <ele>214.489502</ele>
  <time>2011-10-18T06:01:42Z</time>
  <speed>3.720000</speed>
</trkpt>
<trkpt lat="32.600822449" lon="35.129707336">
  <ele>214.130127</ele>
  <time>2011-10-18T06:01:43Z</time>
  <speed>3.820000</speed>
</trkpt>
<trkpt lat="32.600849152" lon="35.129737854">
  <ele>213.739502</ele>
  <time>2011-10-18T06:01:44Z</time>
  <speed>4.450000</speed>
</trkpt>
<trkpt lat="32.600887299" lon="35.129772186">
  <ele>213.938721</ele>
  <time>2011-10-18T06:01:45Z</time>
  <speed>4.600000</speed>
</trkpt>
<trkpt lat="32.600921631" lon="35.129810333">
  <ele>214.927002</ele>
  <time>2011-10-18T06:01:46Z</time>
  <speed>4.660000</speed>
</trkpt>
<trkpt lat="32.600963593" lon="35.129837036">
  <ele>214.052002</ele>
  <time>2011-10-18T06:01:47Z</time>
  <speed>5.180000</speed>
</trkpt>
<trkpt lat="32.600997925" lon="35.129871368">
  <ele>214.055908</ele>
  <time>2011-10-18T06:01:48Z</time>
  <speed>4.710000</speed>
</trkpt>
<trkpt lat="32.601028442" lon="35.129901886">
  <ele>213.739502</ele>
  <time>2011-10-18T06:01:49Z</time>
  <speed>4.590000</speed>
</trkpt>
<trkpt lat="32.601055145" lon="35.129932404">
  <ele>213.993408</ele>
  <time>2011-10-18T06:01:50Z</time>
  <speed>3.980000</speed>
</trkpt>
<trkpt lat="32.601085663" lon="35.129962921">
  <ele>213.927002</ele>
  <time>2011-10-18T06:01:51Z</time>
  <speed>3.470000</speed>
</trkpt>
<trkpt lat="32.601104736" lon="35.130004883">
  <ele>214.294189</ele>
  <time>2011-10-18T06:01:52Z</time>
  <speed>4.230000</speed>
</trkpt>
<trkpt lat="32.601131439" lon="35.130050659">
  <ele>216.692627</ele>
  <time>2011-10-18T06:01:53Z</time>
  <speed>3.950000</speed>
</trkpt>
<trkpt lat="32.601154327" lon="35.130092621">
  <ele>216.884033</ele>
  <time>2011-10-18T06:01:54Z</time>
  <speed>4.040000</speed>
</trkpt>
<trkpt lat="32.601173401" lon="35.130138397">
  <ele>218.298096</ele>
  <time>2011-10-18T06:01:55Z</time>
  <speed>3.610000</speed>
</trkpt>
<trkpt lat="32.601192474" lon="35.130184174">
  <ele>219.223877</ele>
  <time>2011-10-18T06:01:56Z</time>
  <speed>3.890000</speed>
</trkpt>
<trkpt lat="32.601211548" lon="35.130214691">
  <ele>219.102783</ele>
  <time>2011-10-18T06:01:57Z</time>
  <speed>3.840000</speed>
</trkpt>
<trkpt lat="32.601230621" lon="35.130252838">
  <ele>219.012939</ele>
  <time>2011-10-18T06:01:58Z</time>
  <speed>4.540000</speed>
</trkpt>
<trkpt lat="32.601261139" lon="35.130290985">
  <ele>218.458252</ele>
  <time>2011-10-18T06:01:59Z</time>
  <speed>4.970000</speed>
</trkpt>
<trkpt lat="32.601295471" lon="35.130325317">
  <ele>217.700439</ele>
  <time>2011-10-18T06:02:00Z</time>
  <speed>4.700000</speed>
</trkpt>
<trkpt lat="32.601329803" lon="35.130355835">
  <ele>217.602783</ele>
  <time>2011-10-18T06:02:01Z</time>
  <speed>4.770000</speed>
</trkpt>
<trkpt lat="32.601367950" lon="35.130382538">
  <ele>218.762939</ele>
  <time>2011-10-18T06:02:02Z</time>
  <speed>4.650000</speed>
</trkpt>
<trkpt lat="32.601406097" lon="35.130401611">
  <ele>219.829346</ele>
  <time>2011-10-18T06:02:03Z</time>
  <speed>4.110000</speed>
</trkpt>
<trkpt lat="32.601428986" lon="35.130409241">
  <ele>220.544189</ele>
  <time>2011-10-18T06:02:04Z</time>
  <speed>3.410000</speed>
</trkpt>
<trkpt lat="32.601463318" lon="35.130405426">
  <ele>220.634033</ele>
  <time>2011-10-18T06:02:05Z</time>
  <speed>3.220000</speed>
</trkpt>
<trkpt lat="32.601493835" lon="35.130405426">
  <ele>221.696533</ele>
  <time>2011-10-18T06:02:06Z</time>
  <speed>3.300000</speed>
</trkpt>
<trkpt lat="32.601524353" lon="35.130420685">
  <ele>222.419189</ele>
  <time>2011-10-18T06:02:07Z</time>
  <speed>3.230000</speed>
</trkpt>
<trkpt lat="32.601554871" lon="35.130432129">
  <ele>223.208252</ele>
  <time>2011-10-18T06:02:08Z</time>
  <speed>2.650000</speed>
</trkpt>
<trkpt lat="32.601600647" lon="35.130455017">
  <ele>224.438721</ele>
  <time>2011-10-18T06:02:10Z</time>
  <speed>2.340000</speed>
</trkpt>
<trkpt lat="32.601642609" lon="35.130481720">
  <ele>224.856689</ele>
  <time>2011-10-18T06:02:12Z</time>
  <speed>2.740000</speed>
</trkpt>
<trkpt lat="32.601661682" lon="35.130504608">
  <ele>225.192627</ele>
  <time>2011-10-18T06:02:13Z</time>
  <speed>2.710000</speed>
</trkpt>
<trkpt lat="32.601699829" lon="35.130550385">
  <ele>225.661377</ele>
  <time>2011-10-18T06:02:15Z</time>
  <speed>2.760000</speed>
</trkpt>
<trkpt lat="32.601726532" lon="35.130569458">
  <ele>225.555908</ele>
  <time>2011-10-18T06:02:16Z</time>
  <speed>3.100000</speed>
</trkpt>
<trkpt lat="32.601757050" lon="35.130596161">
  <ele>226.555908</ele>
  <time>2011-10-18T06:02:18Z</time>
  <speed>1.990000</speed>
</trkpt>
<trkpt lat="32.601795197" lon="35.130607605">
  <ele>226.739502</ele>
  <time>2011-10-18T06:02:20Z</time>
  <speed>1.720000</speed>
</trkpt>
<trkpt lat="32.601840973" lon="35.130599976">
  <ele>227.048096</ele>
  <time>2011-10-18T06:02:22Z</time>
  <speed>2.050000</speed>
</trkpt>
<trkpt lat="32.601890564" lon="35.130599976">
  <ele>228.341064</ele>
  <time>2011-10-18T06:02:24Z</time>
  <speed>2.070000</speed>
</trkpt>
<trkpt lat="32.601917267" lon="35.130592346">
  <ele>228.989502</ele>
  <time>2011-10-18T06:02:25Z</time>
  <speed>2.520000</speed>
</trkpt>
<trkpt lat="32.601943970" lon="35.130603790">
  <ele>229.020752</ele>
  <time>2011-10-18T06:02:26Z</time>
  <speed>2.640000</speed>
</trkpt>
<trkpt lat="32.601966858" lon="35.130645752">
  <ele>230.497314</ele>
  <time>2011-10-18T06:02:28Z</time>
  <speed>2.050000</speed>
</trkpt>
<trkpt lat="32.601955414" lon="35.130699158">
  <ele>230.524658</ele>
  <time>2011-10-18T06:02:30Z</time>
  <speed>2.620000</speed>
</trkpt>
<trkpt lat="32.601955414" lon="35.130729675">
  <ele>230.712158</ele>
  <time>2011-10-18T06:02:31Z</time>
  <speed>2.670000</speed>
</trkpt>
<trkpt lat="32.601951599" lon="35.130790710">
  <ele>231.344971</ele>
  <time>2011-10-18T06:02:33Z</time>
  <speed>2.710000</speed>
</trkpt>
<trkpt lat="32.601947784" lon="35.130821228">
  <ele>230.825439</ele>
  <time>2011-10-18T06:02:34Z</time>
  <speed>2.680000</speed>
</trkpt>
<trkpt lat="32.601947784" lon="35.130855560">
  <ele>230.438721</ele>
  <time>2011-10-18T06:02:35Z</time>
  <speed>3.010000</speed>
</trkpt>
<trkpt lat="32.601936340" lon="35.130886078">
  <ele>229.387939</ele>
  <time>2011-10-18T06:02:36Z</time>
  <speed>2.520000</speed>
</trkpt>
<trkpt lat="32.601928711" lon="35.130916595">
  <ele>229.052002</ele>
  <time>2011-10-18T06:02:37Z</time>
  <speed>2.310000</speed>
</trkpt>
<trkpt lat="32.601928711" lon="35.130977631">
  <ele>229.208252</ele>
  <time>2011-10-18T06:02:39Z</time>
  <speed>2.240000</speed>
</trkpt>
<trkpt lat="32.601943970" lon="35.131019592">
  <ele>229.446533</ele>
  <time>2011-10-18T06:02:41Z</time>
  <speed>2.070000</speed>
</trkpt>
<trkpt lat="32.601970673" lon="35.131057739">
  <ele>230.235596</ele>
  <time>2011-10-18T06:02:43Z</time>
  <speed>1.730000</speed>
</trkpt>
<trkpt lat="32.602012634" lon="35.131088257">
  <ele>230.755127</ele>
  <time>2011-10-18T06:02:45Z</time>
  <speed>2.050000</speed>
</trkpt>
<trkpt lat="32.602046967" lon="35.131111145">
  <ele>232.509033</ele>
  <time>2011-10-18T06:02:47Z</time>
  <speed>1.760000</speed>
</trkpt>
<trkpt lat="32.602069855" lon="35.131141663">
  <ele>232.598877</ele>
  <time>2011-10-18T06:02:49Z</time>
  <speed>1.420000</speed>
</trkpt>
<trkpt lat="32.602111816" lon="35.131160736">
  <ele>233.419189</ele>
  <time>2011-10-18T06:02:52Z</time>
  <speed>1.970000</speed>
</trkpt>
<trkpt lat="32.602142334" lon="35.131179810">
  <ele>233.122314</ele>
  <time>2011-10-18T06:02:54Z</time>
  <speed>1.500000</speed>
</trkpt>
<trkpt lat="32.602176666" lon="35.131202698">
  <ele>232.966064</ele>
  <time>2011-10-18T06:02:56Z</time>
  <speed>1.500000</speed>
</trkpt>
<trkpt lat="32.602214813" lon="35.131229401">
  <ele>233.399658</ele>
  <time>2011-10-18T06:02:58Z</time>
  <speed>1.380000</speed>
</trkpt>
<trkpt lat="32.602245331" lon="35.131244659">
  <ele>234.200439</ele>
  <time>2011-10-18T06:03:00Z</time>
  <speed>1.450000</speed>
</trkpt>
<trkpt lat="32.602272034" lon="35.131263733">
  <ele>234.376221</ele>
  <time>2011-10-18T06:03:02Z</time>
  <speed>1.470000</speed>
</trkpt>
<trkpt lat="32.602294922" lon="35.131298065">
  <ele>234.751221</ele>
  <time>2011-10-18T06:03:04Z</time>
  <speed>1.440000</speed>
</trkpt>
<trkpt lat="32.602333069" lon="35.131313324">
  <ele>235.747314</ele>
  <time>2011-10-18T06:03:07Z</time>
  <speed>1.450000</speed>
</trkpt>
<trkpt lat="32.602371216" lon="35.131317139">
  <ele>237.180908</ele>
  <time>2011-10-18T06:03:10Z</time>
  <speed>1.420000</speed>
</trkpt>
<trkpt lat="32.602401733" lon="35.131317139">
  <ele>237.602783</ele>
  <time>2011-10-18T06:03:12Z</time>
  <speed>1.250000</speed>
</trkpt>
<trkpt lat="32.602432251" lon="35.131320953">
  <ele>238.587158</ele>
  <time>2011-10-18T06:03:14Z</time>
  <speed>1.490000</speed>
</trkpt>
<trkpt lat="32.602455139" lon="35.131351471">
  <ele>238.938721</ele>
  <time>2011-10-18T06:03:16Z</time>
  <speed>1.710000</speed>
</trkpt>
<trkpt lat="32.602447510" lon="35.131385803">
  <ele>238.731689</ele>
  <time>2011-10-18T06:03:18Z</time>
  <speed>1.390000</speed>
</trkpt>
<trkpt lat="32.602439880" lon="35.131423950">
  <ele>239.063721</ele>
  <time>2011-10-18T06:03:20Z</time>
  <speed>1.660000</speed>
</trkpt>
<trkpt lat="32.602447510" lon="35.131458282">
  <ele>239.251221</ele>
  <time>2011-10-18T06:03:22Z</time>
  <speed>1.600000</speed>
</trkpt>
<trkpt lat="32.602474213" lon="35.131496429">
  <ele>238.844971</ele>
  <time>2011-10-18T06:03:24Z</time>
  <speed>1.190000</speed>
</trkpt>
<trkpt lat="32.602500916" lon="35.131526947">
  <ele>237.719971</ele>
  <time>2011-10-18T06:03:26Z</time>
  <speed>1.170000</speed>
</trkpt>
<trkpt lat="32.602539063" lon="35.131538391">
  <ele>237.341064</ele>
  <time>2011-10-18T06:03:28Z</time>
  <speed>1.860000</speed>
</trkpt>
<trkpt lat="32.602573395" lon="35.131546021">
  <ele>237.579346</ele>
  <time>2011-10-18T06:03:29Z</time>
  <speed>1.830000</speed>
</trkpt>
<trkpt lat="32.602600098" lon="35.131553650">
  <ele>237.059814</ele>
  <time>2011-10-18T06:03:31Z</time>
  <speed>1.320000</speed>
</trkpt>
<trkpt lat="32.602630615" lon="35.131572723">
  <ele>237.110596</ele>
  <time>2011-10-18T06:03:34Z</time>
  <speed>1.120000</speed>
</trkpt>
<trkpt lat="32.602657318" lon="35.131595612">
  <ele>237.098877</ele>
  <time>2011-10-18T06:03:36Z</time>
  <speed>1.390000</speed>
</trkpt>
<trkpt lat="32.602691650" lon="35.131618500">
  <ele>236.805908</ele>
  <time>2011-10-18T06:03:38Z</time>
  <speed>1.550000</speed>
</trkpt>
<trkpt lat="32.602718353" lon="35.131641388">
  <ele>237.177002</ele>
  <time>2011-10-18T06:03:40Z</time>
  <speed>1.670000</speed>
</trkpt>
<trkpt lat="32.602756500" lon="35.131649017">
  <ele>237.255127</ele>
  <time>2011-10-18T06:03:42Z</time>
  <speed>1.230000</speed>
</trkpt>
<trkpt lat="32.602802277" lon="35.131645203">
  <ele>237.891846</ele>
  <time>2011-10-18T06:03:44Z</time>
  <speed>1.310000</speed>
</trkpt>
<trkpt lat="32.602836609" lon="35.131649017">
  <ele>238.063721</ele>
  <time>2011-10-18T06:03:46Z</time>
  <speed>1.340000</speed>
</trkpt>
<trkpt lat="32.602870941" lon="35.131652832">
  <ele>237.399658</ele>
  <time>2011-10-18T06:03:48Z</time>
  <speed>1.060000</speed>
</trkpt>
<trkpt lat="32.602893829" lon="35.131668091">
  <ele>237.567627</ele>
  <time>2011-10-18T06:03:52Z</time>
  <speed>0.050000</speed>
</trkpt>
<trkpt lat="32.602962494" lon="35.131729126">
  <ele>236.552002</ele>
  <time>2011-10-18T06:04:29Z</time>
  <speed>4.080000</speed>
</trkpt>
<trkpt lat="32.603023529" lon="35.131774902">
  <ele>235.372314</ele>
  <time>2011-10-18T06:04:30Z</time>
  <speed>4.840000</speed>
</trkpt>
<trkpt lat="32.603076935" lon="35.131824493">
  <ele>234.548096</ele>
  <time>2011-10-18T06:04:31Z</time>
  <speed>5.530000</speed>
</trkpt>
<trkpt lat="32.603134155" lon="35.131874084">
  <ele>233.977783</ele>
  <time>2011-10-18T06:04:32Z</time>
  <speed>6.540000</speed>
</trkpt>
<trkpt lat="32.603195190" lon="35.131927490">
  <ele>233.376221</ele>
  <time>2011-10-18T06:04:33Z</time>
  <speed>6.250000</speed>
</trkpt>
<trkpt lat="32.603248596" lon="35.131973267">
  <ele>232.813721</ele>
  <time>2011-10-18T06:04:34Z</time>
  <speed>5.970000</speed>
</trkpt>
<trkpt lat="32.603298187" lon="35.132003784">
  <ele>232.321533</ele>
  <time>2011-10-18T06:04:35Z</time>
  <speed>3.930000</speed>
</trkpt>
<trkpt lat="32.603332520" lon="35.132022858">
  <ele>231.762939</ele>
  <time>2011-10-18T06:04:36Z</time>
  <speed>3.110000</speed>
</trkpt>
<trkpt lat="32.603366852" lon="35.132007599">
  <ele>231.231689</ele>
  <time>2011-10-18T06:04:37Z</time>
  <speed>2.820000</speed>
</trkpt>
<trkpt lat="32.603397369" lon="35.131973267">
  <ele>230.364502</ele>
  <time>2011-10-18T06:04:38Z</time>
  <speed>2.960000</speed>
</trkpt>
<trkpt lat="32.603420258" lon="35.131927490">
  <ele>229.579346</ele>
  <time>2011-10-18T06:04:39Z</time>
  <speed>3.860000</speed>
</trkpt>
<trkpt lat="32.603515625" lon="35.131862640">
  <ele>229.485596</ele>
  <time>2011-10-18T06:04:40Z</time>
  <speed>4.340000</speed>
</trkpt>
<trkpt lat="32.603542328" lon="35.131816864">
  <ele>228.571533</ele>
  <time>2011-10-18T06:04:41Z</time>
  <speed>5.100000</speed>
</trkpt>
<trkpt lat="32.603569031" lon="35.131774902">
  <ele>228.692627</ele>
  <time>2011-10-18T06:04:42Z</time>
  <speed>5.340000</speed>
</trkpt>
<trkpt lat="32.603599548" lon="35.131729126">
  <ele>228.446533</ele>
  <time>2011-10-18T06:04:43Z</time>
  <speed>5.670000</speed>
</trkpt>
<trkpt lat="32.603630066" lon="35.131675720">
  <ele>227.759033</ele>
  <time>2011-10-18T06:04:44Z</time>
  <speed>5.900000</speed>
</trkpt>
<trkpt lat="32.603664398" lon="35.131622314">
  <ele>227.415283</ele>
  <time>2011-10-18T06:04:45Z</time>
  <speed>5.870000</speed>
</trkpt>
<trkpt lat="32.603702545" lon="35.131572723">
  <ele>227.247314</ele>
  <time>2011-10-18T06:04:46Z</time>
  <speed>6.550000</speed>
</trkpt>
<trkpt lat="32.603733063" lon="35.131511688">
  <ele>226.731689</ele>
  <time>2011-10-18T06:04:47Z</time>
  <speed>6.510000</speed>
</trkpt>
<trkpt lat="32.603767395" lon="35.131446838">
  <ele>225.809814</ele>
  <time>2011-10-18T06:04:48Z</time>
  <speed>6.720000</speed>
</trkpt>
<trkpt lat="32.603797913" lon="35.131389618">
  <ele>225.278564</ele>
  <time>2011-10-18T06:04:49Z</time>
  <speed>5.870000</speed>
</trkpt>
<trkpt lat="32.603828430" lon="35.131336212">
  <ele>225.419189</ele>
  <time>2011-10-18T06:04:50Z</time>
  <speed>5.610000</speed>
</trkpt>
<trkpt lat="32.603851318" lon="35.131282806">
  <ele>224.872314</ele>
  <time>2011-10-18T06:04:51Z</time>
  <speed>5.390000</speed>
</trkpt>
<trkpt lat="32.603866577" lon="35.131225586">
  <ele>224.489502</ele>
  <time>2011-10-18T06:04:52Z</time>
  <speed>4.180000</speed>
</trkpt>
<trkpt lat="32.603878021" lon="35.131183624">
  <ele>224.466064</ele>
  <time>2011-10-18T06:04:53Z</time>
  <speed>3.110000</speed>
</trkpt>
<trkpt lat="32.603878021" lon="35.131126404">
  <ele>224.837158</ele>
  <time>2011-10-18T06:04:55Z</time>
  <speed>2.040000</speed>
</trkpt>
<trkpt lat="32.603889465" lon="35.131092072">
  <ele>224.102783</ele>
  <time>2011-10-18T06:04:57Z</time>
  <speed>1.240000</speed>
</trkpt>
<trkpt lat="32.603919983" lon="35.131076813">
  <ele>224.079346</ele>
  <time>2011-10-18T06:04:59Z</time>
  <speed>1.220000</speed>
</trkpt>
<trkpt lat="32.603954315" lon="35.131069183">
  <ele>223.352783</ele>
  <time>2011-10-18T06:05:01Z</time>
  <speed>2.180000</speed>
</trkpt>
<trkpt lat="32.603981018" lon="35.131065369">
  <ele>222.938721</ele>
  <time>2011-10-18T06:05:02Z</time>
  <speed>3.140000</speed>
</trkpt>
<trkpt lat="32.604015350" lon="35.131057739">
  <ele>222.833252</ele>
  <time>2011-10-18T06:05:03Z</time>
  <speed>3.410000</speed>
</trkpt>
<trkpt lat="32.604038239" lon="35.131046295">
  <ele>222.329346</ele>
  <time>2011-10-18T06:05:04Z</time>
  <speed>2.700000</speed>
</trkpt>
<trkpt lat="32.604068756" lon="35.131038666">
  <ele>221.665283</ele>
  <time>2011-10-18T06:05:05Z</time>
  <speed>2.220000</speed>
</trkpt>
<trkpt lat="32.604084015" lon="35.131057739">
  <ele>223.583252</ele>
  <time>2011-10-18T06:05:10Z</time>
  <speed>0.050000</speed>
</trkpt>
<trkpt lat="32.604110718" lon="35.131046295">
  <ele>223.930908</ele>
  <time>2011-10-18T06:05:52Z</time>
  <speed>0.330000</speed>
</trkpt>
<trkpt lat="32.604133606" lon="35.131019592">
  <ele>223.907471</ele>
  <time>2011-10-18T06:06:16Z</time>
  <speed>0.870000</speed>
</trkpt>
<trkpt lat="32.604103088" lon="35.130977631">
  <ele>223.790283</ele>
  <time>2011-10-18T06:06:19Z</time>
  <speed>1.700000</speed>
</trkpt>
<trkpt lat="32.604099274" lon="35.130920410">
  <ele>223.692627</ele>
  <time>2011-10-18T06:06:21Z</time>
  <speed>1.870000</speed>
</trkpt>
<trkpt lat="32.604084015" lon="35.130874634">
  <ele>223.321533</ele>
  <time>2011-10-18T06:06:23Z</time>
  <speed>2.360000</speed>
</trkpt>
<trkpt lat="32.604080200" lon="35.130821228">
  <ele>222.821533</ele>
  <time>2011-10-18T06:06:25Z</time>
  <speed>2.130000</speed>
</trkpt>
<trkpt lat="32.604087830" lon="35.130790710">
  <ele>221.786377</ele>
  <time>2011-10-18T06:06:26Z</time>
  <speed>2.260000</speed>
</trkpt>
<trkpt lat="32.604099274" lon="35.130760193">
  <ele>220.208252</ele>
  <time>2011-10-18T06:06:28Z</time>
  <speed>0.900000</speed>
</trkpt>
<trkpt lat="32.604129791" lon="35.130756378">
  <ele>219.020752</ele>
  <time>2011-10-18T06:06:30Z</time>
  <speed>1.910000</speed>
</trkpt>
<trkpt lat="32.604156494" lon="35.130764008">
  <ele>218.251221</ele>
  <time>2011-10-18T06:06:31Z</time>
  <speed>2.250000</speed>
</trkpt>
<trkpt lat="32.604206085" lon="35.130752563">
  <ele>216.829346</ele>
  <time>2011-10-18T06:06:33Z</time>
  <speed>2.640000</speed>
</trkpt>
<trkpt lat="32.604251862" lon="35.130748749">
  <ele>214.165283</ele>
  <time>2011-10-18T06:06:35Z</time>
  <speed>1.840000</speed>
</trkpt>
<trkpt lat="32.604274750" lon="35.130764008">
  <ele>213.286377</ele>
  <time>2011-10-18T06:06:37Z</time>
  <speed>1.620000</speed>
</trkpt>
<trkpt lat="32.604309082" lon="35.130805969">
  <ele>211.575439</ele>
  <time>2011-10-18T06:06:39Z</time>
  <speed>2.210000</speed>
</trkpt>
<trkpt lat="32.604339600" lon="35.130821228">
  <ele>210.985596</ele>
  <time>2011-10-18T06:06:40Z</time>
  <speed>2.290000</speed>
</trkpt>
<trkpt lat="32.604373932" lon="35.130840302">
  <ele>209.969971</ele>
  <time>2011-10-18T06:06:41Z</time>
  <speed>2.740000</speed>
</trkpt>
<trkpt lat="32.604415894" lon="35.130851746">
  <ele>209.438721</ele>
  <time>2011-10-18T06:06:42Z</time>
  <speed>2.600000</speed>
</trkpt>
<trkpt lat="32.604438782" lon="35.130867004">
  <ele>208.594971</ele>
  <time>2011-10-18T06:06:43Z</time>
  <speed>2.030000</speed>
</trkpt>
<trkpt lat="32.604469299" lon="35.130901337">
  <ele>207.880127</ele>
  <time>2011-10-18T06:06:45Z</time>
  <speed>1.370000</speed>
</trkpt>
<trkpt lat="32.604492188" lon="35.130920410">
  <ele>207.223877</ele>
  <time>2011-10-18T06:06:47Z</time>
  <speed>1.320000</speed>
</trkpt>
<trkpt lat="32.604515076" lon="35.130950928">
  <ele>206.466064</ele>
  <time>2011-10-18T06:06:49Z</time>
  <speed>1.320000</speed>
</trkpt>
<trkpt lat="32.604526520" lon="35.130981445">
  <ele>206.200439</ele>
  <time>2011-10-18T06:06:51Z</time>
  <speed>1.950000</speed>
</trkpt>
<trkpt lat="32.604553223" lon="35.131019592">
  <ele>205.313721</ele>
  <time>2011-10-18T06:06:53Z</time>
  <speed>1.680000</speed>
</trkpt>
<trkpt lat="32.604572296" lon="35.131053925">
  <ele>204.876221</ele>
  <time>2011-10-18T06:06:55Z</time>
  <speed>1.280000</speed>
</trkpt>
<trkpt lat="32.604591370" lon="35.131088257">
  <ele>205.321533</ele>
  <time>2011-10-18T06:06:57Z</time>
  <speed>1.090000</speed>
</trkpt>
<trkpt lat="32.604606628" lon="35.131118774">
  <ele>204.977783</ele>
  <time>2011-10-18T06:06:59Z</time>
  <speed>1.450000</speed>
</trkpt>
<trkpt lat="32.604618073" lon="35.131153107">
  <ele>203.841064</ele>
  <time>2011-10-18T06:07:01Z</time>
  <speed>2.010000</speed>
</trkpt>
<trkpt lat="32.604614258" lon="35.131183624">
  <ele>202.602783</ele>
  <time>2011-10-18T06:07:03Z</time>
  <speed>2.220000</speed>
</trkpt>
<trkpt lat="32.604598999" lon="35.131221771">
  <ele>201.759033</ele>
  <time>2011-10-18T06:07:05Z</time>
  <speed>1.340000</speed>
</trkpt>
<trkpt lat="32.604595184" lon="35.131263733">
  <ele>201.915283</ele>
  <time>2011-10-18T06:07:10Z</time>
  <speed>0.150000</speed>
</trkpt>
<trkpt lat="32.604576111" lon="35.131298065">
  <ele>201.477783</ele>
  <time>2011-10-18T06:07:21Z</time>
  <speed>0.510000</speed>
</trkpt>
<trkpt lat="32.604549408" lon="35.131309509">
  <ele>201.505127</ele>
  <time>2011-10-18T06:07:24Z</time>
  <speed>0.580000</speed>
</trkpt>
<trkpt lat="32.604515076" lon="35.131301880">
  <ele>201.911377</ele>
  <time>2011-10-18T06:07:28Z</time>
  <speed>0.130000</speed>
</trkpt>
<trkpt lat="32.604488373" lon="35.131301880">
  <ele>202.083252</ele>
  <time>2011-10-18T06:07:35Z</time>
  <speed>0.820000</speed>
</trkpt>
<trkpt lat="32.604454041" lon="35.131320953">
  <ele>202.180908</ele>
  <time>2011-10-18T06:07:38Z</time>
  <speed>1.170000</speed>
</trkpt>
<trkpt lat="32.604427338" lon="35.131324768">
  <ele>202.317627</ele>
  <time>2011-10-18T06:07:40Z</time>
  <speed>0.970000</speed>
</trkpt>
<trkpt lat="32.604396820" lon="35.131336212">
  <ele>202.532471</ele>
  <time>2011-10-18T06:07:45Z</time>
  <speed>0.140000</speed>
</trkpt>
<trkpt lat="32.604389191" lon="35.131305695">
  <ele>204.579346</ele>
  <time>2011-10-18T06:07:51Z</time>
  <speed>0.260000</speed>
</trkpt>
<trkpt lat="32.604366302" lon="35.131286621">
  <ele>206.680908</ele>
  <time>2011-10-18T06:07:55Z</time>
  <speed>1.020000</speed>
</trkpt>
<trkpt lat="32.604339600" lon="35.131271362">
  <ele>207.329346</ele>
  <time>2011-10-18T06:08:00Z</time>
  <speed>0.830000</speed>
</trkpt>
<trkpt lat="32.604305267" lon="35.131271362">
  <ele>207.509033</ele>
  <time>2011-10-18T06:08:03Z</time>
  <speed>1.120000</speed>
</trkpt>
<trkpt lat="32.604278564" lon="35.131278992">
  <ele>208.653564</ele>
  <time>2011-10-18T06:08:07Z</time>
  <speed>0.190000</speed>
</trkpt>
<trkpt lat="32.604259491" lon="35.131259918">
  <ele>210.759033</ele>
  <time>2011-10-18T06:08:25Z</time>
  <speed>0.660000</speed>
</trkpt>
<trkpt lat="32.604255676" lon="35.131233215">
  <ele>212.833252</ele>
  <time>2011-10-18T06:08:30Z</time>
  <speed>0.390000</speed>
</trkpt>
<trkpt lat="32.604236603" lon="35.131210327">
  <ele>213.493408</ele>
  <time>2011-10-18T06:08:33Z</time>
  <speed>0.680000</speed>
</trkpt>
<trkpt lat="32.604217529" lon="35.131175995">
  <ele>215.423096</ele>
  <time>2011-10-18T06:08:36Z</time>
  <speed>1.150000</speed>
</trkpt>
<trkpt lat="32.604194641" lon="35.131145477">
  <ele>215.798096</ele>
  <time>2011-10-18T06:08:38Z</time>
  <speed>1.110000</speed>
</trkpt>
<trkpt lat="32.604190826" lon="35.131103516">
  <ele>215.813721</ele>
  <time>2011-10-18T06:08:41Z</time>
  <speed>1.060000</speed>
</trkpt>
<trkpt lat="32.604171753" lon="35.131072998">
  <ele>216.134033</ele>
  <time>2011-10-18T06:08:43Z</time>
  <speed>1.040000</speed>
</trkpt>
<trkpt lat="32.604141235" lon="35.131053925">
  <ele>216.544189</ele>
  <time>2011-10-18T06:08:47Z</time>
  <speed>1.060000</speed>
</trkpt>
<trkpt lat="32.604114532" lon="35.131042480">
  <ele>217.110596</ele>
  <time>2011-10-18T06:08:49Z</time>
  <speed>1.170000</speed>
</trkpt>
<trkpt lat="32.604114532" lon="35.130985260">
  <ele>218.391846</ele>
  <time>2011-10-18T06:08:55Z</time>
  <speed>1.360000</speed>
</trkpt>
<trkpt lat="32.604099274" lon="35.130958557">
  <ele>218.188721</ele>
  <time>2011-10-18T06:08:57Z</time>
  <speed>1.670000</speed>
</trkpt>
<trkpt lat="32.604076385" lon="35.130920410">
  <ele>218.126221</ele>
  <time>2011-10-18T06:08:59Z</time>
  <speed>1.960000</speed>
</trkpt>
<trkpt lat="32.604068756" lon="35.130882263">
  <ele>218.348877</ele>
  <time>2011-10-18T06:09:01Z</time>
  <speed>2.350000</speed>
</trkpt>
<trkpt lat="32.604064941" lon="35.130821228">
  <ele>218.005127</ele>
  <time>2011-10-18T06:09:03Z</time>
  <speed>2.810000</speed>
</trkpt>
<trkpt lat="32.604064941" lon="35.130767822">
  <ele>217.227783</ele>
  <time>2011-10-18T06:09:05Z</time>
  <speed>2.370000</speed>
</trkpt>
<trkpt lat="32.604095459" lon="35.130756378">
  <ele>215.614502</ele>
  <time>2011-10-18T06:09:07Z</time>
  <speed>2.130000</speed>
</trkpt>
<trkpt lat="32.604133606" lon="35.130760193">
  <ele>214.634033</ele>
  <time>2011-10-18T06:09:09Z</time>
  <speed>2.090000</speed>
</trkpt>
<trkpt lat="32.604164124" lon="35.130767822">
  <ele>213.985596</ele>
  <time>2011-10-18T06:09:10Z</time>
  <speed>2.570000</speed>
</trkpt>
<trkpt lat="32.604206085" lon="35.130760193">
  <ele>212.313721</ele>
  <time>2011-10-18T06:09:12Z</time>
  <speed>2.340000</speed>
</trkpt>
<trkpt lat="32.604248047" lon="35.130760193">
  <ele>210.298096</ele>
  <time>2011-10-18T06:09:14Z</time>
  <speed>1.730000</speed>
</trkpt>
<trkpt lat="32.604305267" lon="35.130729675">
  <ele>209.430908</ele>
  <time>2011-10-18T06:09:16Z</time>
  <speed>2.210000</speed>
</trkpt>
<trkpt lat="32.604328156" lon="35.130710602">
  <ele>208.333252</ele>
  <time>2011-10-18T06:09:17Z</time>
  <speed>2.360000</speed>
</trkpt>
<trkpt lat="32.604358673" lon="35.130699158">
  <ele>207.270752</ele>
  <time>2011-10-18T06:09:18Z</time>
  <speed>2.560000</speed>
</trkpt>
<trkpt lat="32.604419708" lon="35.130680084">
  <ele>206.770752</ele>
  <time>2011-10-18T06:09:19Z</time>
  <speed>3.490000</speed>
</trkpt>
<trkpt lat="32.604469299" lon="35.130661011">
  <ele>206.083252</ele>
  <time>2011-10-18T06:09:20Z</time>
  <speed>3.310000</speed>
</trkpt>
<trkpt lat="32.604499817" lon="35.130645752">
  <ele>205.196533</ele>
  <time>2011-10-18T06:09:21Z</time>
  <speed>3.040000</speed>
</trkpt>
<trkpt lat="32.604549408" lon="35.130626678">
  <ele>202.934814</ele>
  <time>2011-10-18T06:09:23Z</time>
  <speed>2.800000</speed>
</trkpt>
<trkpt lat="32.604583740" lon="35.130607605">
  <ele>202.411377</ele>
  <time>2011-10-18T06:09:24Z</time>
  <speed>1.950000</speed>
</trkpt>
<trkpt lat="32.604610443" lon="35.130573273">
  <ele>200.548096</ele>
  <time>2011-10-18T06:09:26Z</time>
  <speed>1.630000</speed>
</trkpt>
<trkpt lat="32.604629517" lon="35.130542755">
  <ele>199.294189</ele>
  <time>2011-10-18T06:09:28Z</time>
  <speed>1.680000</speed>
</trkpt>
<trkpt lat="32.604656219" lon="35.130512238">
  <ele>197.579346</ele>
  <time>2011-10-18T06:09:30Z</time>
  <speed>1.270000</speed>
</trkpt>
<trkpt lat="32.604679108" lon="35.130500793">
  <ele>195.255127</ele>
  <time>2011-10-18T06:09:32Z</time>
  <speed>1.160000</speed>
</trkpt>
<trkpt lat="32.604701996" lon="35.130474091">
  <ele>194.044189</ele>
  <time>2011-10-18T06:09:34Z</time>
  <speed>2.180000</speed>
</trkpt>
<trkpt lat="32.604732513" lon="35.130435944">
  <ele>192.204346</ele>
  <time>2011-10-18T06:09:36Z</time>
  <speed>2.230000</speed>
</trkpt>
<trkpt lat="32.604755402" lon="35.130416870">
  <ele>191.571533</ele>
  <time>2011-10-18T06:09:37Z</time>
  <speed>2.420000</speed>
</trkpt>
<trkpt lat="32.604778290" lon="35.130393982">
  <ele>190.844971</ele>
  <time>2011-10-18T06:09:38Z</time>
  <speed>2.050000</speed>
</trkpt>
<trkpt lat="32.604808807" lon="35.130363464">
  <ele>190.427002</ele>
  <time>2011-10-18T06:09:40Z</time>
  <speed>1.810000</speed>
</trkpt>
<trkpt lat="32.604816437" lon="35.130310059">
  <ele>191.618408</ele>
  <time>2011-10-18T06:09:41Z</time>
  <speed>1.430000</speed>
</trkpt>
<trkpt lat="32.604816437" lon="35.130275726">
  <ele>190.762939</ele>
  <time>2011-10-18T06:09:43Z</time>
  <speed>1.080000</speed>
</trkpt>
<trkpt lat="32.604789734" lon="35.130260468">
  <ele>189.583252</ele>
  <time>2011-10-18T06:09:46Z</time>
  <speed>0.530000</speed>
</trkpt>
<trkpt lat="32.604751587" lon="35.130271912">
  <ele>189.520752</ele>
  <time>2011-10-18T06:09:59Z</time>
  <speed>1.190000</speed>
</trkpt>
<trkpt lat="32.604709625" lon="35.130268097">
  <ele>189.731689</ele>
  <time>2011-10-18T06:10:01Z</time>
  <speed>1.860000</speed>
</trkpt>
<trkpt lat="32.604667664" lon="35.130264282">
  <ele>190.110596</ele>
  <time>2011-10-18T06:10:03Z</time>
  <speed>1.550000</speed>
</trkpt>
<trkpt lat="32.604629517" lon="35.130256653">
  <ele>190.212158</ele>
  <time>2011-10-18T06:10:05Z</time>
  <speed>1.560000</speed>
</trkpt>
<trkpt lat="32.604587555" lon="35.130249023">
  <ele>190.509033</ele>
  <time>2011-10-18T06:10:07Z</time>
  <speed>1.950000</speed>
</trkpt>
<trkpt lat="32.604553223" lon="35.130233765">
  <ele>190.661377</ele>
  <time>2011-10-18T06:10:09Z</time>
  <speed>1.570000</speed>
</trkpt>
<trkpt lat="32.604507446" lon="35.130222321">
  <ele>191.216064</ele>
  <time>2011-10-18T06:10:11Z</time>
  <speed>2.040000</speed>
</trkpt>
<trkpt lat="32.604469299" lon="35.130187988">
  <ele>192.001221</ele>
  <time>2011-10-18T06:10:13Z</time>
  <speed>2.030000</speed>
</trkpt>
<trkpt lat="32.604423523" lon="35.130165100">
  <ele>193.200439</ele>
  <time>2011-10-18T06:10:15Z</time>
  <speed>2.400000</speed>
</trkpt>
<trkpt lat="32.604381561" lon="35.130138397">
  <ele>193.950439</ele>
  <time>2011-10-18T06:10:17Z</time>
  <speed>2.050000</speed>
</trkpt>
<trkpt lat="32.604343414" lon="35.130111694">
  <ele>194.329346</ele>
  <time>2011-10-18T06:10:19Z</time>
  <speed>2.200000</speed>
</trkpt>
<trkpt lat="32.604301453" lon="35.130088806">
  <ele>194.782471</ele>
  <time>2011-10-18T06:10:21Z</time>
  <speed>2.460000</speed>
</trkpt>
<trkpt lat="32.604259491" lon="35.130058289">
  <ele>195.001221</ele>
  <time>2011-10-18T06:10:23Z</time>
  <speed>2.970000</speed>
</trkpt>
<trkpt lat="32.604232788" lon="35.130043030">
  <ele>195.118408</ele>
  <time>2011-10-18T06:10:24Z</time>
  <speed>3.380000</speed>
</trkpt>
<trkpt lat="32.604202271" lon="35.130027771">
  <ele>195.165283</ele>
  <time>2011-10-18T06:10:25Z</time>
  <speed>3.140000</speed>
</trkpt>
<trkpt lat="32.604175568" lon="35.130012512">
  <ele>195.501221</ele>
  <time>2011-10-18T06:10:26Z</time>
  <speed>3.140000</speed>
</trkpt>
<trkpt lat="32.604152679" lon="35.130004883">
  <ele>196.141846</ele>
  <time>2011-10-18T06:10:27Z</time>
  <speed>2.690000</speed>
</trkpt>
<trkpt lat="32.604095459" lon="35.129985809">
  <ele>195.981689</ele>
  <time>2011-10-18T06:10:29Z</time>
  <speed>2.940000</speed>
</trkpt>
<trkpt lat="32.604068756" lon="35.129974365">
  <ele>195.805908</ele>
  <time>2011-10-18T06:10:30Z</time>
  <speed>2.780000</speed>
</trkpt>
<trkpt lat="32.604042053" lon="35.129959106">
  <ele>195.981689</ele>
  <time>2011-10-18T06:10:31Z</time>
  <speed>3.050000</speed>
</trkpt>
<trkpt lat="32.604011536" lon="35.129940033">
  <ele>195.958252</ele>
  <time>2011-10-18T06:10:32Z</time>
  <speed>2.970000</speed>
</trkpt>
<trkpt lat="32.603981018" lon="35.129920959">
  <ele>195.985596</ele>
  <time>2011-10-18T06:10:33Z</time>
  <speed>3.640000</speed>
</trkpt>
<trkpt lat="32.603950500" lon="35.129905701">
  <ele>195.973877</ele>
  <time>2011-10-18T06:10:34Z</time>
  <speed>3.630000</speed>
</trkpt>
<trkpt lat="32.603919983" lon="35.129886627">
  <ele>196.157471</ele>
  <time>2011-10-18T06:10:35Z</time>
  <speed>3.600000</speed>
</trkpt>
<trkpt lat="32.603885651" lon="35.129867554">
  <ele>196.259033</ele>
  <time>2011-10-18T06:10:36Z</time>
  <speed>3.360000</speed>
</trkpt>
<trkpt lat="32.603855133" lon="35.129852295">
  <ele>196.419189</ele>
  <time>2011-10-18T06:10:37Z</time>
  <speed>2.760000</speed>
</trkpt>
<trkpt lat="32.603824615" lon="35.129852295">
  <ele>196.903564</ele>
  <time>2011-10-18T06:10:38Z</time>
  <speed>2.780000</speed>
</trkpt>
<trkpt lat="32.603801727" lon="35.129829407">
  <ele>197.262939</ele>
  <time>2011-10-18T06:10:39Z</time>
  <speed>2.670000</speed>
</trkpt>
<trkpt lat="32.603752136" lon="35.129810333">
  <ele>198.317627</ele>
  <time>2011-10-18T06:10:41Z</time>
  <speed>2.680000</speed>
</trkpt>
<trkpt lat="32.603721619" lon="35.129798889">
  <ele>198.622314</ele>
  <time>2011-10-18T06:10:42Z</time>
  <speed>2.820000</speed>
</trkpt>
<trkpt lat="32.603694916" lon="35.129787445">
  <ele>198.997314</ele>
  <time>2011-10-18T06:10:43Z</time>
  <speed>3.200000</speed>
</trkpt>
<trkpt lat="32.603664398" lon="35.129779816">
  <ele>198.501221</ele>
  <time>2011-10-18T06:10:44Z</time>
  <speed>3.290000</speed>
</trkpt>
<trkpt lat="32.603630066" lon="35.129779816">
  <ele>199.282471</ele>
  <time>2011-10-18T06:10:45Z</time>
  <speed>3.300000</speed>
</trkpt>
<trkpt lat="32.603599548" lon="35.129768372">
  <ele>200.040283</ele>
  <time>2011-10-18T06:10:46Z</time>
  <speed>3.170000</speed>
</trkpt>
<trkpt lat="32.603549957" lon="35.129768372">
  <ele>200.540283</ele>
  <time>2011-10-18T06:10:48Z</time>
  <speed>2.740000</speed>
</trkpt>
<trkpt lat="32.603500366" lon="35.129776001">
  <ele>201.067627</ele>
  <time>2011-10-18T06:10:50Z</time>
  <speed>2.520000</speed>
</trkpt>
<trkpt lat="32.603454590" lon="35.129776001">
  <ele>200.520752</ele>
  <time>2011-10-18T06:10:52Z</time>
  <speed>2.840000</speed>
</trkpt>
<trkpt lat="32.603420258" lon="35.129779816">
  <ele>201.247314</ele>
  <time>2011-10-18T06:10:53Z</time>
  <speed>2.940000</speed>
</trkpt>
<trkpt lat="32.603389740" lon="35.129779816">
  <ele>201.610596</ele>
  <time>2011-10-18T06:10:54Z</time>
  <speed>3.060000</speed>
</trkpt>
<trkpt lat="32.603340149" lon="35.129779816">
  <ele>201.434814</ele>
  <time>2011-10-18T06:10:56Z</time>
  <speed>2.740000</speed>
</trkpt>
<trkpt lat="32.603286743" lon="35.129783630">
  <ele>201.352783</ele>
  <time>2011-10-18T06:10:58Z</time>
  <speed>3.120000</speed>
</trkpt>
<trkpt lat="32.603252411" lon="35.129787445">
  <ele>201.212158</ele>
  <time>2011-10-18T06:10:59Z</time>
  <speed>2.630000</speed>
</trkpt>
<trkpt lat="32.603206635" lon="35.129791260">
  <ele>200.735596</ele>
  <time>2011-10-18T06:11:01Z</time>
  <speed>2.300000</speed>
</trkpt>
<trkpt lat="32.603179932" lon="35.129798889">
  <ele>201.485596</ele>
  <time>2011-10-18T06:11:02Z</time>
  <speed>2.470000</speed>
</trkpt>
<trkpt lat="32.603149414" lon="35.129814148">
  <ele>202.137939</ele>
  <time>2011-10-18T06:11:03Z</time>
  <speed>2.530000</speed>
</trkpt>
<trkpt lat="32.603118896" lon="35.129821777">
  <ele>203.036377</ele>
  <time>2011-10-18T06:11:04Z</time>
  <speed>2.670000</speed>
</trkpt>
<trkpt lat="32.603065491" lon="35.129821777">
  <ele>204.052002</ele>
  <time>2011-10-18T06:11:06Z</time>
  <speed>2.560000</speed>
</trkpt>
<trkpt lat="32.603012085" lon="35.129814148">
  <ele>203.864502</ele>
  <time>2011-10-18T06:11:08Z</time>
  <speed>2.620000</speed>
</trkpt>
<trkpt lat="32.602981567" lon="35.129810333">
  <ele>203.626221</ele>
  <time>2011-10-18T06:11:09Z</time>
  <speed>2.770000</speed>
</trkpt>
<trkpt lat="32.602931976" lon="35.129802704">
  <ele>202.981689</ele>
  <time>2011-10-18T06:11:11Z</time>
  <speed>2.970000</speed>
</trkpt>
<trkpt lat="32.602901459" lon="35.129798889">
  <ele>202.677002</ele>
  <time>2011-10-18T06:11:12Z</time>
  <speed>2.880000</speed>
</trkpt>
<trkpt lat="32.602874756" lon="35.129795074">
  <ele>202.716064</ele>
  <time>2011-10-18T06:11:13Z</time>
  <speed>2.650000</speed>
</trkpt>
<trkpt lat="32.602828979" lon="35.129795074">
  <ele>202.454346</ele>
  <time>2011-10-18T06:11:15Z</time>
  <speed>2.190000</speed>
</trkpt>
<trkpt lat="32.602767944" lon="35.129798889">
  <ele>202.302002</ele>
  <time>2011-10-18T06:11:17Z</time>
  <speed>3.170000</speed>
</trkpt>
<trkpt lat="32.602733612" lon="35.129795074">
  <ele>202.302002</ele>
  <time>2011-10-18T06:11:18Z</time>
  <speed>3.200000</speed>
</trkpt>
<trkpt lat="32.602695465" lon="35.129791260">
  <ele>202.723877</ele>
  <time>2011-10-18T06:11:19Z</time>
  <speed>3.250000</speed>
</trkpt>
<trkpt lat="32.602664948" lon="35.129783630">
  <ele>202.348877</ele>
  <time>2011-10-18T06:11:20Z</time>
  <speed>2.810000</speed>
</trkpt>
<trkpt lat="32.602630615" lon="35.129787445">
  <ele>203.153564</ele>
  <time>2011-10-18T06:11:21Z</time>
  <speed>3.100000</speed>
</trkpt>
<trkpt lat="32.602596283" lon="35.129787445">
  <ele>203.528564</ele>
  <time>2011-10-18T06:11:22Z</time>
  <speed>2.850000</speed>
</trkpt>
<trkpt lat="32.602561951" lon="35.129779816">
  <ele>203.630127</ele>
  <time>2011-10-18T06:11:23Z</time>
  <speed>3.070000</speed>
</trkpt>
<trkpt lat="32.602531433" lon="35.129776001">
  <ele>204.102783</ele>
  <time>2011-10-18T06:11:24Z</time>
  <speed>3.300000</speed>
</trkpt>
<trkpt lat="32.602500916" lon="35.129764557">
  <ele>203.911377</ele>
  <time>2011-10-18T06:11:25Z</time>
  <speed>3.770000</speed>
</trkpt>
<trkpt lat="32.602462769" lon="35.129749298">
  <ele>203.950439</ele>
  <time>2011-10-18T06:11:26Z</time>
  <speed>4.070000</speed>
</trkpt>
<trkpt lat="32.602424622" lon="35.129737854">
  <ele>203.841064</ele>
  <time>2011-10-18T06:11:27Z</time>
  <speed>3.870000</speed>
</trkpt>
<trkpt lat="32.602394104" lon="35.129718781">
  <ele>203.673096</ele>
  <time>2011-10-18T06:11:28Z</time>
  <speed>3.820000</speed>
</trkpt>
<trkpt lat="32.602359772" lon="35.129711151">
  <ele>203.380127</ele>
  <time>2011-10-18T06:11:29Z</time>
  <speed>3.380000</speed>
</trkpt>
<trkpt lat="32.602329254" lon="35.129695892">
  <ele>203.368408</ele>
  <time>2011-10-18T06:11:30Z</time>
  <speed>3.340000</speed>
</trkpt>
<trkpt lat="32.602294922" lon="35.129692078">
  <ele>203.384033</ele>
  <time>2011-10-18T06:11:31Z</time>
  <speed>3.570000</speed>
</trkpt>
<trkpt lat="32.602260590" lon="35.129688263">
  <ele>203.130127</ele>
  <time>2011-10-18T06:11:32Z</time>
  <speed>3.500000</speed>
</trkpt>
<trkpt lat="32.602230072" lon="35.129680634">
  <ele>202.766846</ele>
  <time>2011-10-18T06:11:33Z</time>
  <speed>3.690000</speed>
</trkpt>
<trkpt lat="32.602195740" lon="35.129673004">
  <ele>202.641846</ele>
  <time>2011-10-18T06:11:34Z</time>
  <speed>3.400000</speed>
</trkpt>
<trkpt lat="32.602161407" lon="35.129669189">
  <ele>202.399658</ele>
  <time>2011-10-18T06:11:35Z</time>
  <speed>3.520000</speed>
</trkpt>
<trkpt lat="32.602130890" lon="35.129665375">
  <ele>202.505127</ele>
  <time>2011-10-18T06:11:36Z</time>
  <speed>3.420000</speed>
</trkpt>
<trkpt lat="32.602096558" lon="35.129657745">
  <ele>202.274658</ele>
  <time>2011-10-18T06:11:37Z</time>
  <speed>3.590000</speed>
</trkpt>
<trkpt lat="32.602066040" lon="35.129650116">
  <ele>202.118408</ele>
  <time>2011-10-18T06:11:38Z</time>
  <speed>3.310000</speed>
</trkpt>
<trkpt lat="32.602035522" lon="35.129646301">
  <ele>201.747314</ele>
  <time>2011-10-18T06:11:39Z</time>
  <speed>3.100000</speed>
</trkpt>
<trkpt lat="32.602008820" lon="35.129642487">
  <ele>201.415283</ele>
  <time>2011-10-18T06:11:40Z</time>
  <speed>3.150000</speed>
</trkpt>
<trkpt lat="32.601982117" lon="35.129634857">
  <ele>201.259033</ele>
  <time>2011-10-18T06:11:41Z</time>
  <speed>3.090000</speed>
</trkpt>
<trkpt lat="32.601921082" lon="35.129638672">
  <ele>200.598877</ele>
  <time>2011-10-18T06:11:43Z</time>
  <speed>3.090000</speed>
</trkpt>
<trkpt lat="32.601867676" lon="35.129631042">
  <ele>200.075439</ele>
  <time>2011-10-18T06:11:45Z</time>
  <speed>3.010000</speed>
</trkpt>
<trkpt lat="32.601818085" lon="35.129619598">
  <ele>199.762939</ele>
  <time>2011-10-18T06:11:47Z</time>
  <speed>2.890000</speed>
</trkpt>
<trkpt lat="32.601760864" lon="35.129611969">
  <ele>199.184814</ele>
  <time>2011-10-18T06:11:49Z</time>
  <speed>2.940000</speed>
</trkpt>
<trkpt lat="32.601734161" lon="35.129608154">
  <ele>199.012939</ele>
  <time>2011-10-18T06:11:50Z</time>
  <speed>2.890000</speed>
</trkpt>
<trkpt lat="32.601703644" lon="35.129604340">
  <ele>199.356689</ele>
  <time>2011-10-18T06:11:51Z</time>
  <speed>2.650000</speed>
</trkpt>
<trkpt lat="32.601654053" lon="35.129585266">
  <ele>199.536377</ele>
  <time>2011-10-18T06:11:53Z</time>
  <speed>2.820000</speed>
</trkpt>
<trkpt lat="32.601623535" lon="35.129577637">
  <ele>199.821533</ele>
  <time>2011-10-18T06:11:54Z</time>
  <speed>2.780000</speed>
</trkpt>
<trkpt lat="32.601570129" lon="35.129558563">
  <ele>200.005127</ele>
  <time>2011-10-18T06:11:56Z</time>
  <speed>2.830000</speed>
</trkpt>
<trkpt lat="32.601543427" lon="35.129554749">
  <ele>200.759033</ele>
  <time>2011-10-18T06:11:57Z</time>
  <speed>2.710000</speed>
</trkpt>
<trkpt lat="32.601512909" lon="35.129550934">
  <ele>201.442627</ele>
  <time>2011-10-18T06:11:58Z</time>
  <speed>2.270000</speed>
</trkpt>
<trkpt lat="32.601467133" lon="35.129531860">
  <ele>201.528564</ele>
  <time>2011-10-18T06:12:00Z</time>
  <speed>2.520000</speed>
</trkpt>
<trkpt lat="32.601421356" lon="35.129516602">
  <ele>201.915283</ele>
  <time>2011-10-18T06:12:02Z</time>
  <speed>2.540000</speed>
</trkpt>
<trkpt lat="32.601379395" lon="35.129486084">
  <ele>202.157471</ele>
  <time>2011-10-18T06:12:04Z</time>
  <speed>2.650000</speed>
</trkpt>
<trkpt lat="32.601348877" lon="35.129474640">
  <ele>203.266846</ele>
  <time>2011-10-18T06:12:05Z</time>
  <speed>2.960000</speed>
</trkpt>
<trkpt lat="32.601306915" lon="35.129451752">
  <ele>203.743408</ele>
  <time>2011-10-18T06:12:07Z</time>
  <speed>2.510000</speed>
</trkpt>
<trkpt lat="32.601272583" lon="35.129417419">
  <ele>203.637939</ele>
  <time>2011-10-18T06:12:09Z</time>
  <speed>2.510000</speed>
</trkpt>
<trkpt lat="32.601226807" lon="35.129394531">
  <ele>205.094971</ele>
  <time>2011-10-18T06:12:11Z</time>
  <speed>2.540000</speed>
</trkpt>
<trkpt lat="32.601196289" lon="35.129379272">
  <ele>204.645752</ele>
  <time>2011-10-18T06:12:13Z</time>
  <speed>2.150000</speed>
</trkpt>
<trkpt lat="32.601154327" lon="35.129348755">
  <ele>205.130127</ele>
  <time>2011-10-18T06:12:15Z</time>
  <speed>2.110000</speed>
</trkpt>
<trkpt lat="32.601123810" lon="35.129310608">
  <ele>205.290283</ele>
  <time>2011-10-18T06:12:17Z</time>
  <speed>1.850000</speed>
</trkpt>
<trkpt lat="32.601089478" lon="35.129287720">
  <ele>206.575439</ele>
  <time>2011-10-18T06:12:19Z</time>
  <speed>1.430000</speed>
</trkpt>
<trkpt lat="32.601058960" lon="35.129268646">
  <ele>206.762939</ele>
  <time>2011-10-18T06:12:21Z</time>
  <speed>1.750000</speed>
</trkpt>
<trkpt lat="32.601039886" lon="35.129219055">
  <ele>206.442627</ele>
  <time>2011-10-18T06:12:23Z</time>
  <speed>1.620000</speed>
</trkpt>
<trkpt lat="32.601016998" lon="35.129177094">
  <ele>206.473877</ele>
  <time>2011-10-18T06:12:25Z</time>
  <speed>1.620000</speed>
</trkpt>
<trkpt lat="32.601001740" lon="35.129135132">
  <ele>207.782471</ele>
  <time>2011-10-18T06:12:27Z</time>
  <speed>1.890000</speed>
</trkpt>
<trkpt lat="32.600994110" lon="35.129085541">
  <ele>207.969971</ele>
  <time>2011-10-18T06:12:28Z</time>
  <speed>2.310000</speed>
</trkpt>
<trkpt lat="32.600994110" lon="35.129035950">
  <ele>208.680908</ele>
  <time>2011-10-18T06:12:30Z</time>
  <speed>1.930000</speed>
</trkpt>
<trkpt lat="32.600994110" lon="35.128990173">
  <ele>209.122314</ele>
  <time>2011-10-18T06:12:32Z</time>
  <speed>0.930000</speed>
</trkpt>
<trkpt lat="32.600978851" lon="35.128952026">
  <ele>209.391846</ele>
  <time>2011-10-18T06:12:34Z</time>
  <speed>1.070000</speed>
</trkpt>
<trkpt lat="32.600955963" lon="35.128917694">
  <ele>209.239502</ele>
  <time>2011-10-18T06:12:36Z</time>
  <speed>1.790000</speed>
</trkpt>
<trkpt lat="32.600914001" lon="35.128894806">
  <ele>208.634033</ele>
  <time>2011-10-18T06:12:38Z</time>
  <speed>2.180000</speed>
</trkpt>
<trkpt lat="32.600883484" lon="35.128898621">
  <ele>208.759033</ele>
  <time>2011-10-18T06:12:39Z</time>
  <speed>2.130000</speed>
</trkpt>
<trkpt lat="32.600856781" lon="35.128910065">
  <ele>209.368408</ele>
  <time>2011-10-18T06:12:40Z</time>
  <speed>2.450000</speed>
</trkpt>
<trkpt lat="32.600830078" lon="35.128921509">
  <ele>209.329346</ele>
  <time>2011-10-18T06:12:41Z</time>
  <speed>2.320000</speed>
</trkpt>
<trkpt lat="32.600788116" lon="35.128955841">
  <ele>208.719971</ele>
  <time>2011-10-18T06:12:43Z</time>
  <speed>2.280000</speed>
</trkpt>
<trkpt lat="32.600765228" lon="35.128971100">
  <ele>209.755127</ele>
  <time>2011-10-18T06:12:44Z</time>
  <speed>1.570000</speed>
</trkpt>
<trkpt lat="32.600753784" lon="35.129005432">
  <ele>210.368408</ele>
  <time>2011-10-18T06:12:46Z</time>
  <speed>1.410000</speed>
</trkpt>
<trkpt lat="32.600749969" lon="35.129039764">
  <ele>209.794189</ele>
  <time>2011-10-18T06:12:48Z</time>
  <speed>1.650000</speed>
</trkpt>
<trkpt lat="32.600734711" lon="35.129085541">
  <ele>209.177002</ele>
  <time>2011-10-18T06:12:50Z</time>
  <speed>1.980000</speed>
</trkpt>
<trkpt lat="32.600727081" lon="35.129127502">
  <ele>208.899658</ele>
  <time>2011-10-18T06:12:52Z</time>
  <speed>1.690000</speed>
</trkpt>
<trkpt lat="32.600730896" lon="35.129169464">
  <ele>208.825439</ele>
  <time>2011-10-18T06:12:54Z</time>
  <speed>1.280000</speed>
</trkpt>
<trkpt lat="32.600738525" lon="35.129211426">
  <ele>208.153564</ele>
  <time>2011-10-18T06:12:56Z</time>
  <speed>2.170000</speed>
</trkpt>
<trkpt lat="32.600746155" lon="35.129245758">
  <ele>208.594971</ele>
  <time>2011-10-18T06:12:57Z</time>
  <speed>2.020000</speed>
</trkpt>
<trkpt lat="32.600780487" lon="35.129268646">
  <ele>207.278564</ele>
  <time>2011-10-18T06:12:59Z</time>
  <speed>2.110000</speed>
</trkpt>
<trkpt lat="32.600814819" lon="35.129306793">
  <ele>207.180908</ele>
  <time>2011-10-18T06:13:01Z</time>
  <speed>1.880000</speed>
</trkpt>
<trkpt lat="32.600841522" lon="35.129352570">
  <ele>207.262939</ele>
  <time>2011-10-18T06:13:03Z</time>
  <speed>1.840000</speed>
</trkpt>
<trkpt lat="32.600868225" lon="35.129394531">
  <ele>207.364502</ele>
  <time>2011-10-18T06:13:05Z</time>
  <speed>2.120000</speed>
</trkpt>
<trkpt lat="32.600902557" lon="35.129436493">
  <ele>206.348877</ele>
  <time>2011-10-18T06:13:07Z</time>
  <speed>2.190000</speed>
</trkpt>
<trkpt lat="32.600921631" lon="35.129459381">
  <ele>206.098877</ele>
  <time>2011-10-18T06:13:08Z</time>
  <speed>2.400000</speed>
</trkpt>
<trkpt lat="32.600933075" lon="35.129489899">
  <ele>205.946533</ele>
  <time>2011-10-18T06:13:09Z</time>
  <speed>2.340000</speed>
</trkpt>
<trkpt lat="32.600967407" lon="35.129539490">
  <ele>205.575439</ele>
  <time>2011-10-18T06:13:11Z</time>
  <speed>2.260000</speed>
</trkpt>
<trkpt lat="32.600982666" lon="35.129566193">
  <ele>205.344971</ele>
  <time>2011-10-18T06:13:12Z</time>
  <speed>2.440000</speed>
</trkpt>
<trkpt lat="32.601028442" lon="35.129585266">
  <ele>206.044189</ele>
  <time>2011-10-18T06:13:13Z</time>
  <speed>2.080000</speed>
</trkpt>
<trkpt lat="32.601051331" lon="35.129608154">
  <ele>205.747314</ele>
  <time>2011-10-18T06:13:14Z</time>
  <speed>2.480000</speed>
</trkpt>
<trkpt lat="32.601089478" lon="35.129657745">
  <ele>205.352783</ele>
  <time>2011-10-18T06:13:16Z</time>
  <speed>3.120000</speed>
</trkpt>
<trkpt lat="32.601108551" lon="35.129684448">
  <ele>204.485596</ele>
  <time>2011-10-18T06:13:17Z</time>
  <speed>2.740000</speed>
</trkpt>
<trkpt lat="32.601142883" lon="35.129749298">
  <ele>205.591064</ele>
  <time>2011-10-18T06:13:19Z</time>
  <speed>2.570000</speed>
</trkpt>
<trkpt lat="32.601150513" lon="35.129787445">
  <ele>207.423096</ele>
  <time>2011-10-18T06:13:20Z</time>
  <speed>2.500000</speed>
</trkpt>
<trkpt lat="32.601161957" lon="35.129817963">
  <ele>208.341064</ele>
  <time>2011-10-18T06:13:21Z</time>
  <speed>2.330000</speed>
</trkpt>
<trkpt lat="32.601169586" lon="35.129856110">
  <ele>210.302002</ele>
  <time>2011-10-18T06:13:22Z</time>
  <speed>2.250000</speed>
</trkpt>
<trkpt lat="32.601203918" lon="35.129905701">
  <ele>211.700439</ele>
  <time>2011-10-18T06:13:24Z</time>
  <speed>2.640000</speed>
</trkpt>
<trkpt lat="32.601238251" lon="35.129959106">
  <ele>212.184814</ele>
  <time>2011-10-18T06:13:26Z</time>
  <speed>3.220000</speed>
</trkpt>
<trkpt lat="32.601249695" lon="35.129993439">
  <ele>212.684814</ele>
  <time>2011-10-18T06:13:27Z</time>
  <speed>3.020000</speed>
</trkpt>
<trkpt lat="32.601276398" lon="35.130016327">
  <ele>212.716064</ele>
  <time>2011-10-18T06:13:28Z</time>
  <speed>3.180000</speed>
</trkpt>
<trkpt lat="32.601310730" lon="35.130054474">
  <ele>213.290283</ele>
  <time>2011-10-18T06:13:30Z</time>
  <speed>2.250000</speed>
</trkpt>
<trkpt lat="32.601337433" lon="35.130073547">
  <ele>212.626221</ele>
  <time>2011-10-18T06:13:31Z</time>
  <speed>2.880000</speed>
</trkpt>
<trkpt lat="32.601356506" lon="35.130096436">
  <ele>212.540283</ele>
  <time>2011-10-18T06:13:32Z</time>
  <speed>3.270000</speed>
</trkpt>
<trkpt lat="32.601371765" lon="35.130134583">
  <ele>213.262939</ele>
  <time>2011-10-18T06:13:33Z</time>
  <speed>3.020000</speed>
</trkpt>
<trkpt lat="32.601379395" lon="35.130176544">
  <ele>213.813721</ele>
  <time>2011-10-18T06:13:34Z</time>
  <speed>3.360000</speed>
</trkpt>
<trkpt lat="32.601379395" lon="35.130207062">
  <ele>214.302002</ele>
  <time>2011-10-18T06:13:35Z</time>
  <speed>2.790000</speed>
</trkpt>
<trkpt lat="32.601379395" lon="35.130271912">
  <ele>215.544189</ele>
  <time>2011-10-18T06:13:37Z</time>
  <speed>2.570000</speed>
</trkpt>
<trkpt lat="32.601387024" lon="35.130306244">
  <ele>216.509033</ele>
  <time>2011-10-18T06:13:38Z</time>
  <speed>2.340000</speed>
</trkpt>
<trkpt lat="32.601402283" lon="35.130359650">
  <ele>216.946533</ele>
  <time>2011-10-18T06:13:40Z</time>
  <speed>2.480000</speed>
</trkpt>
<trkpt lat="32.601421356" lon="35.130382538">
  <ele>216.930908</ele>
  <time>2011-10-18T06:13:41Z</time>
  <speed>2.580000</speed>
</trkpt>
<trkpt lat="32.601451874" lon="35.130424500">
  <ele>217.419189</ele>
  <time>2011-10-18T06:13:43Z</time>
  <speed>2.330000</speed>
</trkpt>
<trkpt lat="32.601493835" lon="35.130451202">
  <ele>219.391846</ele>
  <time>2011-10-18T06:13:45Z</time>
  <speed>2.690000</speed>
</trkpt>
<trkpt lat="32.601531982" lon="35.130474091">
  <ele>220.446533</ele>
  <time>2011-10-18T06:13:47Z</time>
  <speed>2.070000</speed>
</trkpt>
<trkpt lat="32.601570129" lon="35.130489349">
  <ele>221.384033</ele>
  <time>2011-10-18T06:13:49Z</time>
  <speed>1.860000</speed>
</trkpt>
<trkpt lat="32.601623535" lon="35.130512238">
  <ele>222.177002</ele>
  <time>2011-10-18T06:13:51Z</time>
  <speed>2.400000</speed>
</trkpt>
<trkpt lat="32.601654053" lon="35.130542755">
  <ele>222.247314</ele>
  <time>2011-10-18T06:13:53Z</time>
  <speed>2.200000</speed>
</trkpt>
<trkpt lat="32.601684570" lon="35.130573273">
  <ele>221.153564</ele>
  <time>2011-10-18T06:13:55Z</time>
  <speed>2.030000</speed>
</trkpt>
<trkpt lat="32.601722717" lon="35.130599976">
  <ele>220.755127</ele>
  <time>2011-10-18T06:13:57Z</time>
  <speed>1.830000</speed>
</trkpt>
<trkpt lat="32.601749420" lon="35.130626678">
  <ele>221.223877</ele>
  <time>2011-10-18T06:13:59Z</time>
  <speed>1.680000</speed>
</trkpt>
<trkpt lat="32.601787567" lon="35.130634308">
  <ele>220.884033</ele>
  <time>2011-10-18T06:14:01Z</time>
  <speed>1.880000</speed>
</trkpt>
<trkpt lat="32.601833344" lon="35.130634308">
  <ele>220.782471</ele>
  <time>2011-10-18T06:14:03Z</time>
  <speed>1.720000</speed>
</trkpt>
<trkpt lat="32.601871490" lon="35.130622864">
  <ele>220.844971</ele>
  <time>2011-10-18T06:14:05Z</time>
  <speed>1.580000</speed>
</trkpt>
<trkpt lat="32.601909637" lon="35.130626678">
  <ele>222.180908</ele>
  <time>2011-10-18T06:14:07Z</time>
  <speed>1.670000</speed>
</trkpt>
<trkpt lat="32.601959229" lon="35.130622864">
  <ele>223.036377</ele>
  <time>2011-10-18T06:14:09Z</time>
  <speed>1.950000</speed>
</trkpt>
<trkpt lat="32.601970673" lon="35.130672455">
  <ele>223.634033</ele>
  <time>2011-10-18T06:14:11Z</time>
  <speed>2.300000</speed>
</trkpt>
<trkpt lat="32.601963043" lon="35.130718231">
  <ele>223.094971</ele>
  <time>2011-10-18T06:14:13Z</time>
  <speed>1.900000</speed>
</trkpt>
<trkpt lat="32.601963043" lon="35.130764008">
  <ele>223.458252</ele>
  <time>2011-10-18T06:14:15Z</time>
  <speed>1.940000</speed>
</trkpt>
<trkpt lat="32.601955414" lon="35.130809784">
  <ele>222.563721</ele>
  <time>2011-10-18T06:14:17Z</time>
  <speed>2.190000</speed>
</trkpt>
<trkpt lat="32.601947784" lon="35.130859375">
  <ele>222.966064</ele>
  <time>2011-10-18T06:14:19Z</time>
  <speed>2.250000</speed>
</trkpt>
<trkpt lat="32.601936340" lon="35.130908966">
  <ele>223.321533</ele>
  <time>2011-10-18T06:14:21Z</time>
  <speed>1.920000</speed>
</trkpt>
<trkpt lat="32.601928711" lon="35.130962372">
  <ele>222.977783</ele>
  <time>2011-10-18T06:14:23Z</time>
  <speed>2.000000</speed>
</trkpt>
<trkpt lat="32.601932526" lon="35.131004333">
  <ele>222.977783</ele>
  <time>2011-10-18T06:14:25Z</time>
  <speed>1.680000</speed>
</trkpt>
<trkpt lat="32.601951599" lon="35.131034851">
  <ele>223.501221</ele>
  <time>2011-10-18T06:14:27Z</time>
  <speed>1.300000</speed>
</trkpt>
<trkpt lat="32.601974487" lon="35.131057739">
  <ele>223.641846</ele>
  <time>2011-10-18T06:14:29Z</time>
  <speed>1.690000</speed>
</trkpt>
<trkpt lat="32.602008820" lon="35.131088257">
  <ele>223.602783</ele>
  <time>2011-10-18T06:14:31Z</time>
  <speed>2.410000</speed>
</trkpt>
<trkpt lat="32.602043152" lon="35.131130219">
  <ele>223.391846</ele>
  <time>2011-10-18T06:14:33Z</time>
  <speed>2.060000</speed>
</trkpt>
<trkpt lat="32.602073669" lon="35.131160736">
  <ele>224.052002</ele>
  <time>2011-10-18T06:14:35Z</time>
  <speed>1.650000</speed>
</trkpt>
<trkpt lat="32.602119446" lon="35.131191254">
  <ele>225.634033</ele>
  <time>2011-10-18T06:14:37Z</time>
  <speed>1.730000</speed>
</trkpt>
<trkpt lat="32.602161407" lon="35.131206512">
  <ele>225.180908</ele>
  <time>2011-10-18T06:14:39Z</time>
  <speed>1.930000</speed>
</trkpt>
<trkpt lat="32.602191925" lon="35.131229401">
  <ele>225.958252</ele>
  <time>2011-10-18T06:14:41Z</time>
  <speed>1.610000</speed>
</trkpt>
<trkpt lat="32.602226257" lon="35.131244659">
  <ele>227.239502</ele>
  <time>2011-10-18T06:14:43Z</time>
  <speed>1.830000</speed>
</trkpt>
<trkpt lat="32.602252960" lon="35.131267548">
  <ele>227.251221</ele>
  <time>2011-10-18T06:14:45Z</time>
  <speed>1.330000</speed>
</trkpt>
<trkpt lat="32.602279663" lon="35.131294250">
  <ele>227.680908</ele>
  <time>2011-10-18T06:14:47Z</time>
  <speed>1.620000</speed>
</trkpt>
<trkpt lat="32.602306366" lon="35.131313324">
  <ele>228.391846</ele>
  <time>2011-10-18T06:14:49Z</time>
  <speed>1.380000</speed>
</trkpt>
<trkpt lat="32.602340698" lon="35.131317139">
  <ele>228.950439</ele>
  <time>2011-10-18T06:14:51Z</time>
  <speed>1.460000</speed>
</trkpt>
<trkpt lat="32.602382660" lon="35.131320953">
  <ele>228.852783</ele>
  <time>2011-10-18T06:14:53Z</time>
  <speed>1.560000</speed>
</trkpt>
<trkpt lat="32.602409363" lon="35.131320953">
  <ele>229.501221</ele>
  <time>2011-10-18T06:14:55Z</time>
  <speed>1.510000</speed>
</trkpt>
<trkpt lat="32.602436066" lon="35.131336212">
  <ele>229.813721</ele>
  <time>2011-10-18T06:14:57Z</time>
  <speed>1.280000</speed>
</trkpt>
<trkpt lat="32.602470398" lon="35.131374359">
  <ele>229.966064</ele>
  <time>2011-10-18T06:14:59Z</time>
  <speed>1.380000</speed>
</trkpt>
<trkpt lat="32.602462769" lon="35.131408691">
  <ele>230.442627</ele>
  <time>2011-10-18T06:15:01Z</time>
  <speed>2.030000</speed>
</trkpt>
<trkpt lat="32.602462769" lon="35.131450653">
  <ele>230.591064</ele>
  <time>2011-10-18T06:15:03Z</time>
  <speed>1.540000</speed>
</trkpt>
<trkpt lat="32.602478027" lon="35.131492615">
  <ele>230.235596</ele>
  <time>2011-10-18T06:15:05Z</time>
  <speed>1.440000</speed>
</trkpt>
<trkpt lat="32.602497101" lon="35.131515503">
  <ele>230.755127</ele>
  <time>2011-10-18T06:15:07Z</time>
  <speed>0.880000</speed>
</trkpt>
<trkpt lat="32.602535248" lon="35.131523132">
  <ele>231.024658</ele>
  <time>2011-10-18T06:15:09Z</time>
  <speed>1.730000</speed>
</trkpt>
<trkpt lat="32.602565765" lon="35.131534576">
  <ele>231.594971</ele>
  <time>2011-10-18T06:15:11Z</time>
  <speed>1.990000</speed>
</trkpt>
<trkpt lat="32.602596283" lon="35.131549835">
  <ele>232.055908</ele>
  <time>2011-10-18T06:15:13Z</time>
  <speed>1.420000</speed>
</trkpt>
<trkpt lat="32.602622986" lon="35.131561279">
  <ele>231.962158</ele>
  <time>2011-10-18T06:15:15Z</time>
  <speed>1.010000</speed>
</trkpt>
<trkpt lat="32.602653503" lon="35.131587982">
  <ele>232.055908</ele>
  <time>2011-10-18T06:15:17Z</time>
  <speed>1.430000</speed>
</trkpt>
<trkpt lat="32.602695465" lon="35.131614685">
  <ele>231.071533</ele>
  <time>2011-10-18T06:15:19Z</time>
  <speed>2.030000</speed>
</trkpt>
<trkpt lat="32.602725983" lon="35.131641388">
  <ele>231.270752</ele>
  <time>2011-10-18T06:15:21Z</time>
  <speed>1.420000</speed>
</trkpt>
<trkpt lat="32.602764130" lon="35.131649017">
  <ele>231.403564</ele>
  <time>2011-10-18T06:15:23Z</time>
  <speed>1.310000</speed>
</trkpt>
<trkpt lat="32.602794647" lon="35.131656647">
  <ele>231.481689</ele>
  <time>2011-10-18T06:15:25Z</time>
  <speed>1.450000</speed>
</trkpt>
<trkpt lat="32.602825165" lon="35.131668091">
  <ele>232.200439</ele>
  <time>2011-10-18T06:15:27Z</time>
  <speed>1.130000</speed>
</trkpt>
<trkpt lat="32.602859497" lon="35.131675720">
  <ele>233.235596</ele>
  <time>2011-10-18T06:15:29Z</time>
  <speed>1.180000</speed>
</trkpt>
<trkpt lat="32.602890015" lon="35.131683350">
  <ele>233.165283</ele>
  <time>2011-10-18T06:15:31Z</time>
  <speed>1.020000</speed>
</trkpt>
<trkpt lat="32.602916718" lon="35.131683350">
  <ele>234.126221</ele>
  <time>2011-10-18T06:15:33Z</time>
  <speed>0.950000</speed>
</trkpt>
<trkpt lat="32.602943420" lon="35.131694794">
  <ele>234.969971</ele>
  <time>2011-10-18T06:15:48Z</time>
  <speed>1.340000</speed>
</trkpt>
<trkpt lat="32.602970123" lon="35.131710052">
  <ele>234.762939</ele>
  <time>2011-10-18T06:15:49Z</time>
  <speed>2.200000</speed>
</trkpt>
<trkpt lat="32.603004456" lon="35.131725311">
  <ele>234.559814</ele>
  <time>2011-10-18T06:15:50Z</time>
  <speed>2.570000</speed>
</trkpt>
<trkpt lat="32.603031158" lon="35.131732941">
  <ele>234.419189</ele>
  <time>2011-10-18T06:15:51Z</time>
  <speed>2.280000</speed>
</trkpt>
<trkpt lat="32.603061676" lon="35.131748199">
  <ele>233.923096</ele>
  <time>2011-10-18T06:15:52Z</time>
  <speed>2.360000</speed>
</trkpt>
<trkpt lat="32.603107452" lon="35.131767273">
  <ele>233.352783</ele>
  <time>2011-10-18T06:15:54Z</time>
  <speed>2.510000</speed>
</trkpt>
<trkpt lat="32.603126526" lon="35.131793976">
  <ele>232.817627</ele>
  <time>2011-10-18T06:15:55Z</time>
  <speed>3.420000</speed>
</trkpt>
<trkpt lat="32.603172302" lon="35.131828308">
  <ele>231.833252</ele>
  <time>2011-10-18T06:15:56Z</time>
  <speed>5.230000</speed>
</trkpt>
<trkpt lat="32.603218079" lon="35.131870270">
  <ele>231.075439</ele>
  <time>2011-10-18T06:15:57Z</time>
  <speed>5.210000</speed>
</trkpt>
<trkpt lat="32.603267670" lon="35.131908417">
  <ele>230.290283</ele>
  <time>2011-10-18T06:15:58Z</time>
  <speed>5.800000</speed>
</trkpt>
<trkpt lat="32.603321075" lon="35.131946564">
  <ele>229.626221</ele>
  <time>2011-10-18T06:15:59Z</time>
  <speed>6.540000</speed>
</trkpt>
<trkpt lat="32.603366852" lon="35.131980896">
  <ele>228.977783</ele>
  <time>2011-10-18T06:16:00Z</time>
  <speed>5.320000</speed>
</trkpt>
<trkpt lat="32.603397369" lon="35.132007599">
  <ele>228.219971</ele>
  <time>2011-10-18T06:16:01Z</time>
  <speed>3.860000</speed>
</trkpt>
<trkpt lat="32.603408813" lon="35.132053375">
  <ele>226.286377</ele>
  <time>2011-10-18T06:16:03Z</time>
  <speed>2.100000</speed>
</trkpt>
<trkpt lat="32.603385925" lon="35.132095337">
  <ele>224.790283</ele>
  <time>2011-10-18T06:16:05Z</time>
  <speed>1.780000</speed>
</trkpt>
<trkpt lat="32.603359222" lon="35.132133484">
  <ele>223.915283</ele>
  <time>2011-10-18T06:16:07Z</time>
  <speed>2.730000</speed>
</trkpt>
<trkpt lat="32.603343964" lon="35.132179260">
  <ele>223.399658</ele>
  <time>2011-10-18T06:16:09Z</time>
  <speed>2.280000</speed>
</trkpt>
<trkpt lat="32.603317261" lon="35.132217407">
  <ele>222.055908</ele>
  <time>2011-10-18T06:16:11Z</time>
  <speed>2.080000</speed>
</trkpt>
<trkpt lat="32.603298187" lon="35.132255554">
  <ele>220.891846</ele>
  <time>2011-10-18T06:16:13Z</time>
  <speed>2.170000</speed>
</trkpt>
<trkpt lat="32.603275299" lon="35.132289886">
  <ele>219.895752</ele>
  <time>2011-10-18T06:16:15Z</time>
  <speed>1.760000</speed>
</trkpt>
<trkpt lat="32.603256226" lon="35.132320404">
  <ele>219.802002</ele>
  <time>2011-10-18T06:16:17Z</time>
  <speed>1.770000</speed>
</trkpt>
<trkpt lat="32.603229523" lon="35.132343292">
  <ele>219.192627</ele>
  <time>2011-10-18T06:16:20Z</time>
  <speed>0.890000</speed>
</trkpt>
<trkpt lat="32.603218079" lon="35.132373810">
  <ele>217.751221</ele>
  <time>2011-10-18T06:16:25Z</time>
  <speed>0.980000</speed>
</trkpt>
<trkpt lat="32.603225708" lon="35.132404327">
  <ele>217.024658</ele>
  <time>2011-10-18T06:16:29Z</time>
  <speed>0.210000</speed>
</trkpt>
<trkpt lat="32.603260040" lon="35.132385254">
  <ele>217.759033</ele>
  <time>2011-10-18T06:16:35Z</time>
  <speed>0.630000</speed>
</trkpt>
<trkpt lat="32.603233337" lon="35.132389069">
  <ele>218.704346</ele>
  <time>2011-10-18T06:16:41Z</time>
  <speed>1.650000</speed>
</trkpt>
<trkpt lat="32.603233337" lon="35.132423401">
  <ele>218.016846</ele>
  <time>2011-10-18T06:16:44Z</time>
  <speed>0.850000</speed>
</trkpt>
<trkpt lat="32.603256226" lon="35.132442474">
  <ele>218.669189</ele>
  <time>2011-10-18T06:16:46Z</time>
  <speed>1.870000</speed>
</trkpt>
<trkpt lat="32.603298187" lon="35.132465363">
  <ele>217.938721</ele>
  <time>2011-10-18T06:16:48Z</time>
  <speed>2.020000</speed>
</trkpt>
<trkpt lat="32.603317261" lon="35.132514954">
  <ele>217.333252</ele>
  <time>2011-10-18T06:16:50Z</time>
  <speed>3.830000</speed>
</trkpt>
<trkpt lat="32.603317261" lon="35.132556915">
  <ele>217.118408</ele>
  <time>2011-10-18T06:16:51Z</time>
  <speed>3.660000</speed>
</trkpt>
<trkpt lat="32.603313446" lon="35.132606506">
  <ele>216.704346</ele>
  <time>2011-10-18T06:16:52Z</time>
  <speed>4.370000</speed>
</trkpt>
<trkpt lat="32.603332520" lon="35.132652283">
  <ele>216.216064</ele>
  <time>2011-10-18T06:16:53Z</time>
  <speed>4.260000</speed>
</trkpt>
<trkpt lat="32.603343964" lon="35.132724762">
  <ele>215.567627</ele>
  <time>2011-10-18T06:16:54Z</time>
  <speed>5.540000</speed>
</trkpt>
<trkpt lat="32.603351593" lon="35.132793427">
  <ele>215.067627</ele>
  <time>2011-10-18T06:16:55Z</time>
  <speed>4.350000</speed>
</trkpt>
<trkpt lat="32.603374481" lon="35.132835388">
  <ele>214.579346</ele>
  <time>2011-10-18T06:16:56Z</time>
  <speed>3.320000</speed>
</trkpt>
<trkpt lat="32.603404999" lon="35.132877350">
  <ele>213.946533</ele>
  <time>2011-10-18T06:16:57Z</time>
  <speed>3.240000</speed>
</trkpt>
<trkpt lat="32.603431702" lon="35.132911682">
  <ele>212.731689</ele>
  <time>2011-10-18T06:16:58Z</time>
  <speed>2.660000</speed>
</trkpt>
<trkpt lat="32.603466034" lon="35.132942200">
  <ele>212.005127</ele>
  <time>2011-10-18T06:16:59Z</time>
  <speed>3.850000</speed>
</trkpt>
<trkpt lat="32.603507996" lon="35.132968903">
  <ele>211.450439</ele>
  <time>2011-10-18T06:17:00Z</time>
  <speed>3.920000</speed>
</trkpt>
<trkpt lat="32.603569031" lon="35.132972717">
  <ele>210.137939</ele>
  <time>2011-10-18T06:17:01Z</time>
  <speed>2.660000</speed>
</trkpt>
<trkpt lat="32.603633881" lon="35.133010864">
  <ele>209.059814</ele>
  <time>2011-10-18T06:17:02Z</time>
  <speed>5.660000</speed>
</trkpt>
<trkpt lat="32.603683472" lon="35.133049011">
  <ele>208.446533</ele>
  <time>2011-10-18T06:17:03Z</time>
  <speed>5.320000</speed>
</trkpt>
<trkpt lat="32.603713989" lon="35.133079529">
  <ele>207.637939</ele>
  <time>2011-10-18T06:17:04Z</time>
  <speed>3.870000</speed>
</trkpt>
<trkpt lat="32.603759766" lon="35.133113861">
  <ele>206.802002</ele>
  <time>2011-10-18T06:17:05Z</time>
  <speed>3.900000</speed>
</trkpt>
<trkpt lat="32.603809357" lon="35.133152008">
  <ele>205.872314</ele>
  <time>2011-10-18T06:17:06Z</time>
  <speed>5.040000</speed>
</trkpt>
<trkpt lat="32.603851318" lon="35.133209229">
  <ele>205.075439</ele>
  <time>2011-10-18T06:17:07Z</time>
  <speed>5.320000</speed>
</trkpt>
<trkpt lat="32.603870392" lon="35.133255005">
  <ele>204.091064</ele>
  <time>2011-10-18T06:17:08Z</time>
  <speed>4.190000</speed>
</trkpt>
<trkpt lat="32.603858948" lon="35.133296967">
  <ele>203.219971</ele>
  <time>2011-10-18T06:17:09Z</time>
  <speed>3.600000</speed>
</trkpt>
<trkpt lat="32.603870392" lon="35.133335114">
  <ele>202.735596</ele>
  <time>2011-10-18T06:17:10Z</time>
  <speed>2.980000</speed>
</trkpt>
<trkpt lat="32.603878021" lon="35.133369446">
  <ele>202.098877</ele>
  <time>2011-10-18T06:17:11Z</time>
  <speed>3.100000</speed>
</trkpt>
<trkpt lat="32.603885651" lon="35.133407593">
  <ele>201.372314</ele>
  <time>2011-10-18T06:17:12Z</time>
  <speed>3.130000</speed>
</trkpt>
<trkpt lat="32.603900909" lon="35.133445740">
  <ele>199.927002</ele>
  <time>2011-10-18T06:17:13Z</time>
  <speed>3.030000</speed>
</trkpt>
<trkpt lat="32.603935242" lon="35.133483887">
  <ele>198.458252</ele>
  <time>2011-10-18T06:17:14Z</time>
  <speed>3.790000</speed>
</trkpt>
<trkpt lat="32.603988647" lon="35.133522034">
  <ele>197.899658</ele>
  <time>2011-10-18T06:17:15Z</time>
  <speed>3.760000</speed>
</trkpt>
<trkpt lat="32.604015350" lon="35.133556366">
  <ele>196.794189</ele>
  <time>2011-10-18T06:17:16Z</time>
  <speed>3.580000</speed>
</trkpt>
<trkpt lat="32.604030609" lon="35.133605957">
  <ele>195.606689</ele>
  <time>2011-10-18T06:17:17Z</time>
  <speed>4.690000</speed>
</trkpt>
<trkpt lat="32.604045868" lon="35.133651733">
  <ele>195.255127</ele>
  <time>2011-10-18T06:17:18Z</time>
  <speed>4.350000</speed>
</trkpt>
<trkpt lat="32.604042053" lon="35.133697510">
  <ele>193.966064</ele>
  <time>2011-10-18T06:17:19Z</time>
  <speed>4.340000</speed>
</trkpt>
<trkpt lat="32.604042053" lon="35.133739471">
  <ele>193.204346</ele>
  <time>2011-10-18T06:17:20Z</time>
  <speed>3.010000</speed>
</trkpt>
<trkpt lat="32.604053497" lon="35.133781433">
  <ele>190.954346</ele>
  <time>2011-10-18T06:17:22Z</time>
  <speed>2.810000</speed>
</trkpt>
<trkpt lat="32.604072571" lon="35.133842468">
  <ele>189.739502</ele>
  <time>2011-10-18T06:17:23Z</time>
  <speed>4.280000</speed>
</trkpt>
<trkpt lat="32.604095459" lon="35.133895874">
  <ele>188.512939</ele>
  <time>2011-10-18T06:17:24Z</time>
  <speed>4.230000</speed>
</trkpt>
<trkpt lat="32.604106903" lon="35.133937836">
  <ele>187.450439</ele>
  <time>2011-10-18T06:17:25Z</time>
  <speed>3.330000</speed>
</trkpt>
<trkpt lat="32.604099274" lon="35.133975983">
  <ele>186.594971</ele>
  <time>2011-10-18T06:17:26Z</time>
  <speed>3.760000</speed>
</trkpt>
<trkpt lat="32.604084015" lon="35.134017944">
  <ele>185.278564</ele>
  <time>2011-10-18T06:17:27Z</time>
  <speed>3.960000</speed>
</trkpt>
<trkpt lat="32.604064941" lon="35.134052277">
  <ele>184.774658</ele>
  <time>2011-10-18T06:17:28Z</time>
  <speed>3.100000</speed>
</trkpt>
<trkpt lat="32.604045868" lon="35.134082794">
  <ele>183.997314</ele>
  <time>2011-10-18T06:17:30Z</time>
  <speed>0.130000</speed>
</trkpt>
<trkpt lat="32.604064941" lon="35.134059906">
  <ele>185.368408</ele>
  <time>2011-10-18T06:17:57Z</time>
  <speed>1.150000</speed>
</trkpt>
<trkpt lat="32.604087830" lon="35.134033203">
  <ele>186.204346</ele>
  <time>2011-10-18T06:17:59Z</time>
  <speed>1.180000</speed>
</trkpt>
<trkpt lat="32.604106903" lon="35.134002686">
  <ele>186.266846</ele>
  <time>2011-10-18T06:18:01Z</time>
  <speed>0.460000</speed>
</trkpt>
<trkpt lat="32.604122162" lon="35.133972168">
  <ele>187.294189</ele>
  <time>2011-10-18T06:18:04Z</time>
  <speed>0.970000</speed>
</trkpt>
<trkpt lat="32.604137421" lon="35.133945465">
  <ele>188.364502</ele>
  <time>2011-10-18T06:18:06Z</time>
  <speed>0.760000</speed>
</trkpt>
<trkpt lat="32.604125977" lon="35.133914948">
  <ele>189.352783</ele>
  <time>2011-10-18T06:18:08Z</time>
  <speed>0.980000</speed>
</trkpt>
<trkpt lat="32.604110718" lon="35.133888245">
  <ele>189.977783</ele>
  <time>2011-10-18T06:18:10Z</time>
  <speed>1.120000</speed>
</trkpt>
<trkpt lat="32.604099274" lon="35.133846283">
  <ele>190.649658</ele>
  <time>2011-10-18T06:18:13Z</time>
  <speed>0.870000</speed>
</trkpt>
<trkpt lat="32.604091644" lon="35.133808136">
  <ele>192.309814</ele>
  <time>2011-10-18T06:18:16Z</time>
  <speed>1.120000</speed>
</trkpt>
<trkpt lat="32.604091644" lon="35.133777618">
  <ele>193.927002</ele>
  <time>2011-10-18T06:18:18Z</time>
  <speed>0.860000</speed>
</trkpt>
<trkpt lat="32.604106903" lon="35.133754730">
  <ele>195.325439</ele>
  <time>2011-10-18T06:18:22Z</time>
  <speed>0.660000</speed>
</trkpt>
<trkpt lat="32.604133606" lon="35.133735657">
  <ele>196.223877</ele>
  <time>2011-10-18T06:18:25Z</time>
  <speed>0.910000</speed>
</trkpt>
<trkpt lat="32.604187012" lon="35.133750916">
  <ele>198.059814</ele>
  <time>2011-10-18T06:18:29Z</time>
  <speed>1.250000</speed>
</trkpt>
<trkpt lat="32.604240417" lon="35.133754730">
  <ele>198.040283</ele>
  <time>2011-10-18T06:18:31Z</time>
  <speed>3.160000</speed>
</trkpt>
<trkpt lat="32.604270935" lon="35.133754730">
  <ele>198.153564</ele>
  <time>2011-10-18T06:18:32Z</time>
  <speed>3.630000</speed>
</trkpt>
<trkpt lat="32.604309082" lon="35.133758545">
  <ele>197.747314</ele>
  <time>2011-10-18T06:18:33Z</time>
  <speed>4.110000</speed>
</trkpt>
<trkpt lat="32.604351044" lon="35.133762360">
  <ele>197.606689</ele>
  <time>2011-10-18T06:18:34Z</time>
  <speed>4.860000</speed>
</trkpt>
<trkpt lat="32.604400635" lon="35.133773804">
  <ele>197.704346</ele>
  <time>2011-10-18T06:18:35Z</time>
  <speed>4.740000</speed>
</trkpt>
<trkpt lat="32.604450226" lon="35.133773804">
  <ele>197.481689</ele>
  <time>2011-10-18T06:18:36Z</time>
  <speed>4.550000</speed>
</trkpt>
<trkpt lat="32.604488373" lon="35.133792877">
  <ele>197.130127</ele>
  <time>2011-10-18T06:18:37Z</time>
  <speed>4.450000</speed>
</trkpt>
<trkpt lat="32.604526520" lon="35.133815765">
  <ele>196.567627</ele>
  <time>2011-10-18T06:18:38Z</time>
  <speed>3.940000</speed>
</trkpt>
<trkpt lat="32.604545593" lon="35.133838654">
  <ele>195.602783</ele>
  <time>2011-10-18T06:18:39Z</time>
  <speed>3.210000</speed>
</trkpt>
<trkpt lat="32.604576111" lon="35.133880615">
  <ele>194.692627</ele>
  <time>2011-10-18T06:18:41Z</time>
  <speed>2.300000</speed>
</trkpt>
<trkpt lat="32.604576111" lon="35.133907318">
  <ele>193.669189</ele>
  <time>2011-10-18T06:18:44Z</time>
  <speed>0.110000</speed>
</trkpt>
<trkpt lat="32.604557037" lon="35.133968353">
  <ele>192.094971</ele>
  <time>2011-10-18T06:18:55Z</time>
  <speed>3.310000</speed>
</trkpt>
<trkpt lat="32.604545593" lon="35.134006500">
  <ele>191.973877</ele>
  <time>2011-10-18T06:18:56Z</time>
  <speed>4.160000</speed>
</trkpt>
<trkpt lat="32.604534149" lon="35.134056091">
  <ele>192.126221</ele>
  <time>2011-10-18T06:18:57Z</time>
  <speed>4.660000</speed>
</trkpt>
<trkpt lat="32.604518890" lon="35.134113312">
  <ele>191.872314</ele>
  <time>2011-10-18T06:18:58Z</time>
  <speed>5.150000</speed>
</trkpt>
<trkpt lat="32.604518890" lon="35.134174347">
  <ele>191.512939</ele>
  <time>2011-10-18T06:18:59Z</time>
  <speed>5.030000</speed>
</trkpt>
<trkpt lat="32.604534149" lon="35.134231567">
  <ele>190.809814</ele>
  <time>2011-10-18T06:19:00Z</time>
  <speed>5.750000</speed>
</trkpt>
<trkpt lat="32.604564667" lon="35.134281158">
  <ele>189.794189</ele>
  <time>2011-10-18T06:19:01Z</time>
  <speed>5.270000</speed>
</trkpt>
<trkpt lat="32.604598999" lon="35.134326935">
  <ele>189.192627</ele>
  <time>2011-10-18T06:19:02Z</time>
  <speed>6.000000</speed>
</trkpt>
<trkpt lat="32.604640961" lon="35.134376526">
  <ele>188.395752</ele>
  <time>2011-10-18T06:19:03Z</time>
  <speed>6.230000</speed>
</trkpt>
<trkpt lat="32.604679108" lon="35.134418488">
  <ele>187.872314</ele>
  <time>2011-10-18T06:19:04Z</time>
  <speed>5.360000</speed>
</trkpt>
<trkpt lat="32.604724884" lon="35.134441376">
  <ele>187.630127</ele>
  <time>2011-10-18T06:19:05Z</time>
  <speed>5.200000</speed>
</trkpt>
<trkpt lat="32.604763031" lon="35.134449005">
  <ele>188.485596</ele>
  <time>2011-10-18T06:19:06Z</time>
  <speed>2.860000</speed>
</trkpt>
<trkpt lat="32.604801178" lon="35.134433746">
  <ele>187.735596</ele>
  <time>2011-10-18T06:19:08Z</time>
  <speed>1.020000</speed>
</trkpt>
<trkpt lat="32.604839325" lon="35.134429932">
  <ele>187.497314</ele>
  <time>2011-10-18T06:19:10Z</time>
  <speed>1.890000</speed>
</trkpt>
<trkpt lat="32.604885101" lon="35.134422302">
  <ele>186.489502</ele>
  <time>2011-10-18T06:19:12Z</time>
  <speed>2.510000</speed>
</trkpt>
<trkpt lat="32.604927063" lon="35.134429932">
  <ele>185.723877</ele>
  <time>2011-10-18T06:19:14Z</time>
  <speed>1.340000</speed>
</trkpt>
<trkpt lat="32.604946136" lon="35.134479523">
  <ele>184.637939</ele>
  <time>2011-10-18T06:19:16Z</time>
  <speed>3.160000</speed>
</trkpt>
<trkpt lat="32.604946136" lon="35.134521484">
  <ele>184.032471</ele>
  <time>2011-10-18T06:19:17Z</time>
  <speed>4.030000</speed>
</trkpt>
<trkpt lat="32.604938507" lon="35.134582520">
  <ele>182.341064</ele>
  <time>2011-10-18T06:19:18Z</time>
  <speed>4.130000</speed>
</trkpt>
<trkpt lat="32.604946136" lon="35.134628296">
  <ele>180.911377</ele>
  <time>2011-10-18T06:19:19Z</time>
  <speed>3.780000</speed>
</trkpt>
<trkpt lat="32.604934692" lon="35.134670258">
  <ele>180.192627</ele>
  <time>2011-10-18T06:19:20Z</time>
  <speed>4.640000</speed>
</trkpt>
<trkpt lat="32.604904175" lon="35.134708405">
  <ele>179.395752</ele>
  <time>2011-10-18T06:19:21Z</time>
  <speed>4.800000</speed>
</trkpt>
<trkpt lat="32.604858398" lon="35.134746552">
  <ele>177.622314</ele>
  <time>2011-10-18T06:19:22Z</time>
  <speed>5.370000</speed>
</trkpt>
<trkpt lat="32.604831696" lon="35.134780884">
  <ele>176.552002</ele>
  <time>2011-10-18T06:19:23Z</time>
  <speed>3.440000</speed>
</trkpt>
<trkpt lat="32.604820251" lon="35.134807587">
  <ele>175.594971</ele>
  <time>2011-10-18T06:19:24Z</time>
  <speed>2.310000</speed>
</trkpt>
<trkpt lat="32.604820251" lon="35.134860992">
  <ele>173.219971</ele>
  <time>2011-10-18T06:19:26Z</time>
  <speed>1.750000</speed>
</trkpt>
<trkpt lat="32.604862213" lon="35.134899139">
  <ele>170.348877</ele>
  <time>2011-10-18T06:19:28Z</time>
  <speed>3.850000</speed>
</trkpt>
<trkpt lat="32.604888916" lon="35.134929657">
  <ele>169.723877</ele>
  <time>2011-10-18T06:19:29Z</time>
  <speed>3.390000</speed>
</trkpt>
<trkpt lat="32.604900360" lon="35.134967804">
  <ele>168.512939</ele>
  <time>2011-10-18T06:19:30Z</time>
  <speed>2.990000</speed>
</trkpt>
<trkpt lat="32.604907990" lon="35.135005951">
  <ele>167.243408</ele>
  <time>2011-10-18T06:19:31Z</time>
  <speed>3.470000</speed>
</trkpt>
<trkpt lat="32.604923248" lon="35.135036469">
  <ele>166.821533</ele>
  <time>2011-10-18T06:19:32Z</time>
  <speed>3.220000</speed>
</trkpt>
<trkpt lat="32.604942322" lon="35.135070801">
  <ele>165.618408</ele>
  <time>2011-10-18T06:19:33Z</time>
  <speed>3.810000</speed>
</trkpt>
<trkpt lat="32.604957581" lon="35.135108948">
  <ele>164.903564</ele>
  <time>2011-10-18T06:19:34Z</time>
  <speed>3.400000</speed>
</trkpt>
<trkpt lat="32.604980469" lon="35.135135651">
  <ele>163.571533</ele>
  <time>2011-10-18T06:19:35Z</time>
  <speed>2.880000</speed>
</trkpt>
<trkpt lat="32.605018616" lon="35.135154724">
  <ele>162.923096</ele>
  <time>2011-10-18T06:19:36Z</time>
  <speed>3.110000</speed>
</trkpt>
<trkpt lat="32.605037689" lon="35.135185242">
  <ele>162.692627</ele>
  <time>2011-10-18T06:19:37Z</time>
  <speed>2.860000</speed>
</trkpt>
<trkpt lat="32.605041504" lon="35.135231018">
  <ele>161.552002</ele>
  <time>2011-10-18T06:19:38Z</time>
  <speed>4.480000</speed>
</trkpt>
<trkpt lat="32.605041504" lon="35.135284424">
  <ele>161.247314</ele>
  <time>2011-10-18T06:19:39Z</time>
  <speed>5.090000</speed>
</trkpt>
<trkpt lat="32.605033875" lon="35.135341644">
  <ele>160.712158</ele>
  <time>2011-10-18T06:19:40Z</time>
  <speed>4.990000</speed>
</trkpt>
<trkpt lat="32.605026245" lon="35.135395050">
  <ele>159.743408</ele>
  <time>2011-10-18T06:19:41Z</time>
  <speed>4.430000</speed>
</trkpt>
<trkpt lat="32.605026245" lon="35.135448456">
  <ele>158.251221</ele>
  <time>2011-10-18T06:19:42Z</time>
  <speed>4.290000</speed>
</trkpt>
<trkpt lat="32.605037689" lon="35.135494232">
  <ele>158.094971</ele>
  <time>2011-10-18T06:19:43Z</time>
  <speed>3.830000</speed>
</trkpt>
<trkpt lat="32.605049133" lon="35.135540009">
  <ele>157.512939</ele>
  <time>2011-10-18T06:19:44Z</time>
  <speed>4.450000</speed>
</trkpt>
<trkpt lat="32.605068207" lon="35.135597229">
  <ele>156.036377</ele>
  <time>2011-10-18T06:19:45Z</time>
  <speed>5.140000</speed>
</trkpt>
<trkpt lat="32.605094910" lon="35.135654449">
  <ele>154.942627</ele>
  <time>2011-10-18T06:19:46Z</time>
  <speed>4.630000</speed>
</trkpt>
<trkpt lat="32.605117798" lon="35.135700226">
  <ele>154.130127</ele>
  <time>2011-10-18T06:19:47Z</time>
  <speed>4.640000</speed>
</trkpt>
<trkpt lat="32.605136871" lon="35.135765076">
  <ele>152.708252</ele>
  <time>2011-10-18T06:19:48Z</time>
  <speed>5.490000</speed>
</trkpt>
<trkpt lat="32.605159760" lon="35.135818481">
  <ele>151.751221</ele>
  <time>2011-10-18T06:19:49Z</time>
  <speed>5.230000</speed>
</trkpt>
<trkpt lat="32.605190277" lon="35.135856628">
  <ele>150.626221</ele>
  <time>2011-10-18T06:19:50Z</time>
  <speed>4.460000</speed>
</trkpt>
<trkpt lat="32.605232239" lon="35.135910034">
  <ele>150.450439</ele>
  <time>2011-10-18T06:19:51Z</time>
  <speed>6.260000</speed>
</trkpt>
<trkpt lat="32.605278015" lon="35.135959625">
  <ele>149.450439</ele>
  <time>2011-10-18T06:19:52Z</time>
  <speed>5.680000</speed>
</trkpt>
<trkpt lat="32.605327606" lon="35.136005402">
  <ele>147.524658</ele>
  <time>2011-10-18T06:19:53Z</time>
  <speed>5.730000</speed>
</trkpt>
<trkpt lat="32.605365753" lon="35.136054993">
  <ele>146.274658</ele>
  <time>2011-10-18T06:19:54Z</time>
  <speed>5.570000</speed>
</trkpt>
<trkpt lat="32.605426788" lon="35.136104584">
  <ele>144.645752</ele>
  <time>2011-10-18T06:19:55Z</time>
  <speed>7.800000</speed>
</trkpt>
<trkpt lat="32.605484009" lon="35.136157990">
  <ele>143.247314</ele>
  <time>2011-10-18T06:19:56Z</time>
  <speed>7.340000</speed>
</trkpt>
<trkpt lat="32.605533600" lon="35.136226654">
  <ele>141.614502</ele>
  <time>2011-10-18T06:19:57Z</time>
  <speed>7.660000</speed>
</trkpt>
<trkpt lat="32.605587006" lon="35.136302948">
  <ele>140.868408</ele>
  <time>2011-10-18T06:19:58Z</time>
  <speed>8.300000</speed>
</trkpt>
<trkpt lat="32.605655670" lon="35.136356354">
  <ele>139.762939</ele>
  <time>2011-10-18T06:19:59Z</time>
  <speed>7.430000</speed>
</trkpt>
<trkpt lat="32.605709076" lon="35.136409760">
  <ele>139.169189</ele>
  <time>2011-10-18T06:20:00Z</time>
  <speed>7.270000</speed>
</trkpt>
<trkpt lat="32.605770111" lon="35.136455536">
  <ele>138.427002</ele>
  <time>2011-10-18T06:20:01Z</time>
  <speed>7.180000</speed>
</trkpt>
<trkpt lat="32.605838776" lon="35.136486053">
  <ele>137.462158</ele>
  <time>2011-10-18T06:20:02Z</time>
  <speed>7.430000</speed>
</trkpt>
<trkpt lat="32.605899811" lon="35.136524200">
  <ele>136.782471</ele>
  <time>2011-10-18T06:20:03Z</time>
  <speed>6.580000</speed>
</trkpt>
<trkpt lat="32.605941772" lon="35.136550903">
  <ele>136.571533</ele>
  <time>2011-10-18T06:20:04Z</time>
  <speed>3.330000</speed>
</trkpt>
<trkpt lat="32.605964661" lon="35.136566162">
  <ele>136.009033</ele>
  <time>2011-10-18T06:20:05Z</time>
  <speed>2.330000</speed>
</trkpt>
<trkpt lat="32.605987549" lon="35.136589050">
  <ele>135.981689</ele>
  <time>2011-10-18T06:20:08Z</time>
  <speed>0.110000</speed>
</trkpt>
<trkpt lat="32.606029510" lon="35.136550903">
  <ele>138.079346</ele>
  <time>2011-10-18T06:20:27Z</time>
  <speed>1.560000</speed>
</trkpt>
<trkpt lat="32.606063843" lon="35.136516571">
  <ele>138.497314</ele>
  <time>2011-10-18T06:20:29Z</time>
  <speed>1.460000</speed>
</trkpt>
<trkpt lat="32.606086731" lon="35.136497498">
  <ele>139.376221</ele>
  <time>2011-10-18T06:20:30Z</time>
  <speed>2.260000</speed>
</trkpt>
<trkpt lat="32.606109619" lon="35.136474609">
  <ele>139.434814</ele>
  <time>2011-10-18T06:20:31Z</time>
  <speed>2.400000</speed>
</trkpt>
<trkpt lat="32.606147766" lon="35.136463165">
  <ele>140.473877</ele>
  <time>2011-10-18T06:20:32Z</time>
  <speed>2.770000</speed>
</trkpt>
<trkpt lat="32.606166840" lon="35.136417389">
  <ele>140.989502</ele>
  <time>2011-10-18T06:20:34Z</time>
  <speed>2.340000</speed>
</trkpt>
<trkpt lat="32.606197357" lon="35.136371613">
  <ele>142.223877</ele>
  <time>2011-10-18T06:20:36Z</time>
  <speed>2.670000</speed>
</trkpt>
<trkpt lat="32.606201172" lon="35.136329651">
  <ele>143.509033</ele>
  <time>2011-10-18T06:20:37Z</time>
  <speed>2.710000</speed>
</trkpt>
<trkpt lat="32.606216431" lon="35.136302948">
  <ele>143.915283</ele>
  <time>2011-10-18T06:20:38Z</time>
  <speed>2.300000</speed>
</trkpt>
<trkpt lat="32.606235504" lon="35.136276245">
  <ele>144.313721</ele>
  <time>2011-10-18T06:20:39Z</time>
  <speed>2.250000</speed>
</trkpt>
<trkpt lat="32.606262207" lon="35.136238098">
  <ele>146.321533</ele>
  <time>2011-10-18T06:20:41Z</time>
  <speed>2.300000</speed>
</trkpt>
<trkpt lat="32.606292725" lon="35.136207581">
  <ele>148.165283</ele>
  <time>2011-10-18T06:20:43Z</time>
  <speed>2.410000</speed>
</trkpt>
<trkpt lat="32.606327057" lon="35.136169434">
  <ele>148.770752</ele>
  <time>2011-10-18T06:20:45Z</time>
  <speed>2.580000</speed>
</trkpt>
<trkpt lat="32.606365204" lon="35.136142731">
  <ele>149.458252</ele>
  <time>2011-10-18T06:20:47Z</time>
  <speed>1.910000</speed>
</trkpt>
<trkpt lat="32.606403351" lon="35.136127472">
  <ele>150.579346</ele>
  <time>2011-10-18T06:20:49Z</time>
  <speed>2.510000</speed>
</trkpt>
<trkpt lat="32.606430054" lon="35.136085510">
  <ele>151.098877</ele>
  <time>2011-10-18T06:20:51Z</time>
  <speed>2.070000</speed>
</trkpt>
<trkpt lat="32.606472015" lon="35.136054993">
  <ele>151.680908</ele>
  <time>2011-10-18T06:20:53Z</time>
  <speed>2.210000</speed>
</trkpt>
<trkpt lat="32.606498718" lon="35.136005402">
  <ele>152.427002</ele>
  <time>2011-10-18T06:20:55Z</time>
  <speed>2.090000</speed>
</trkpt>
<trkpt lat="32.606513977" lon="35.135955811">
  <ele>153.114502</ele>
  <time>2011-10-18T06:20:57Z</time>
  <speed>1.950000</speed>
</trkpt>
<trkpt lat="32.606529236" lon="35.135913849">
  <ele>154.005127</ele>
  <time>2011-10-18T06:20:59Z</time>
  <speed>1.300000</speed>
</trkpt>
<trkpt lat="32.606559753" lon="35.135860443">
  <ele>154.876221</ele>
  <time>2011-10-18T06:21:02Z</time>
  <speed>1.530000</speed>
</trkpt>
<trkpt lat="32.606517792" lon="35.135791779">
  <ele>157.012939</ele>
  <time>2011-10-18T06:21:03Z</time>
  <speed>1.750000</speed>
</trkpt>
<trkpt lat="32.606544495" lon="35.135753632">
  <ele>157.743408</ele>
  <time>2011-10-18T06:21:05Z</time>
  <speed>1.930000</speed>
</trkpt>
<trkpt lat="32.606567383" lon="35.135730743">
  <ele>158.177002</ele>
  <time>2011-10-18T06:21:07Z</time>
  <speed>1.390000</speed>
</trkpt>
<trkpt lat="32.606597900" lon="35.135749817">
  <ele>157.954346</ele>
  <time>2011-10-18T06:21:09Z</time>
  <speed>2.040000</speed>
</trkpt>
<trkpt lat="32.606620789" lon="35.135807037">
  <ele>158.509033</ele>
  <time>2011-10-18T06:21:11Z</time>
  <speed>2.810000</speed>
</trkpt>
<trkpt lat="32.606643677" lon="35.135837555">
  <ele>158.384033</ele>
  <time>2011-10-18T06:21:12Z</time>
  <speed>3.830000</speed>
</trkpt>
<trkpt lat="32.606674194" lon="35.135871887">
  <ele>158.024658</ele>
  <time>2011-10-18T06:21:13Z</time>
  <speed>4.350000</speed>
</trkpt>
<trkpt lat="32.606704712" lon="35.135906219">
  <ele>157.493408</ele>
  <time>2011-10-18T06:21:14Z</time>
  <speed>3.800000</speed>
</trkpt>
<trkpt lat="32.606735229" lon="35.135929108">
  <ele>156.969971</ele>
  <time>2011-10-18T06:21:15Z</time>
  <speed>3.750000</speed>
</trkpt>
<trkpt lat="32.606769562" lon="35.135963440">
  <ele>156.739502</ele>
  <time>2011-10-18T06:21:16Z</time>
  <speed>4.250000</speed>
</trkpt>
<trkpt lat="32.606788635" lon="35.136005402">
  <ele>155.626221</ele>
  <time>2011-10-18T06:21:17Z</time>
  <speed>4.520000</speed>
</trkpt>
<trkpt lat="32.606815338" lon="35.136051178">
  <ele>155.333252</ele>
  <time>2011-10-18T06:21:18Z</time>
  <speed>4.920000</speed>
</trkpt>
<trkpt lat="32.606853485" lon="35.136096954">
  <ele>155.126221</ele>
  <time>2011-10-18T06:21:19Z</time>
  <speed>4.800000</speed>
</trkpt>
<trkpt lat="32.606880188" lon="35.136135101">
  <ele>154.415283</ele>
  <time>2011-10-18T06:21:20Z</time>
  <speed>4.060000</speed>
</trkpt>
<trkpt lat="32.606903076" lon="35.136192322">
  <ele>152.821533</ele>
  <time>2011-10-18T06:21:21Z</time>
  <speed>5.030000</speed>
</trkpt>
<trkpt lat="32.606925964" lon="35.136249542">
  <ele>151.692627</ele>
  <time>2011-10-18T06:21:22Z</time>
  <speed>5.970000</speed>
</trkpt>
<trkpt lat="32.606948853" lon="35.136318207">
  <ele>150.989502</ele>
  <time>2011-10-18T06:21:23Z</time>
  <speed>6.450000</speed>
</trkpt>
<trkpt lat="32.606975555" lon="35.136386871">
  <ele>150.333252</ele>
  <time>2011-10-18T06:21:24Z</time>
  <speed>6.470000</speed>
</trkpt>
<trkpt lat="32.607002258" lon="35.136447906">
  <ele>149.548096</ele>
  <time>2011-10-18T06:21:25Z</time>
  <speed>6.490000</speed>
</trkpt>
<trkpt lat="32.607025146" lon="35.136505127">
  <ele>148.696533</ele>
  <time>2011-10-18T06:21:26Z</time>
  <speed>5.680000</speed>
</trkpt>
<trkpt lat="32.607036591" lon="35.136550903">
  <ele>148.040283</ele>
  <time>2011-10-18T06:21:27Z</time>
  <speed>3.330000</speed>
</trkpt>
<trkpt lat="32.607051849" lon="35.136585236">
  <ele>147.532471</ele>
  <time>2011-10-18T06:21:28Z</time>
  <speed>3.250000</speed>
</trkpt>
<trkpt lat="32.607070923" lon="35.136615753">
  <ele>146.903564</ele>
  <time>2011-10-18T06:21:29Z</time>
  <speed>3.100000</speed>
</trkpt>
<trkpt lat="32.607093811" lon="35.136646271">
  <ele>146.106689</ele>
  <time>2011-10-18T06:21:30Z</time>
  <speed>3.140000</speed>
</trkpt>
<trkpt lat="32.607116699" lon="35.136680603">
  <ele>146.981689</ele>
  <time>2011-10-18T06:21:31Z</time>
  <speed>2.940000</speed>
</trkpt>
<trkpt lat="32.607131958" lon="35.136707306">
  <ele>146.145752</ele>
  <time>2011-10-18T06:21:32Z</time>
  <speed>3.000000</speed>
</trkpt>
<trkpt lat="32.607158661" lon="35.136749268">
  <ele>147.927002</ele>
  <time>2011-10-18T06:21:33Z</time>
  <speed>3.110000</speed>
</trkpt>
<trkpt lat="32.607162476" lon="35.136783600">
  <ele>147.536377</ele>
  <time>2011-10-18T06:21:34Z</time>
  <speed>3.340000</speed>
</trkpt>
<trkpt lat="32.607151031" lon="35.136821747">
  <ele>146.634033</ele>
  <time>2011-10-18T06:21:35Z</time>
  <speed>3.460000</speed>
</trkpt>
<trkpt lat="32.607143402" lon="35.136859894">
  <ele>147.126221</ele>
  <time>2011-10-18T06:21:36Z</time>
  <speed>2.740000</speed>
</trkpt>
<trkpt lat="32.607151031" lon="35.136894226">
  <ele>146.505127</ele>
  <time>2011-10-18T06:21:37Z</time>
  <speed>2.880000</speed>
</trkpt>
<trkpt lat="32.607162476" lon="35.136924744">
  <ele>146.204346</ele>
  <time>2011-10-18T06:21:38Z</time>
  <speed>3.290000</speed>
</trkpt>
<trkpt lat="32.607173920" lon="35.136959076">
  <ele>145.618408</ele>
  <time>2011-10-18T06:21:39Z</time>
  <speed>3.560000</speed>
</trkpt>
<trkpt lat="32.607192993" lon="35.137004852">
  <ele>144.923096</ele>
  <time>2011-10-18T06:21:40Z</time>
  <speed>4.440000</speed>
</trkpt>
<trkpt lat="32.607208252" lon="35.137050629">
  <ele>144.102783</ele>
  <time>2011-10-18T06:21:41Z</time>
  <speed>3.900000</speed>
</trkpt>
<trkpt lat="32.607215881" lon="35.137092590">
  <ele>143.575439</ele>
  <time>2011-10-18T06:21:42Z</time>
  <speed>3.180000</speed>
</trkpt>
<trkpt lat="32.607219696" lon="35.137149811">
  <ele>142.739502</ele>
  <time>2011-10-18T06:21:44Z</time>
  <speed>2.890000</speed>
</trkpt>
<trkpt lat="32.607212067" lon="35.137191772">
  <ele>142.501221</ele>
  <time>2011-10-18T06:21:45Z</time>
  <speed>3.450000</speed>
</trkpt>
<trkpt lat="32.607208252" lon="35.137226105">
  <ele>141.954346</ele>
  <time>2011-10-18T06:21:46Z</time>
  <speed>2.840000</speed>
</trkpt>
<trkpt lat="32.607212067" lon="35.137260437">
  <ele>142.352783</ele>
  <time>2011-10-18T06:21:47Z</time>
  <speed>2.280000</speed>
</trkpt>
<trkpt lat="32.607215881" lon="35.137294769">
  <ele>143.231689</ele>
  <time>2011-10-18T06:21:49Z</time>
  <speed>0.830000</speed>
</trkpt>
<trkpt lat="32.607208252" lon="35.137317657">
  <ele>141.243408</ele>
  <time>2011-10-18T06:21:55Z</time>
  <speed>0.710000</speed>
</trkpt>
<trkpt lat="32.607181549" lon="35.137351990">
  <ele>141.759033</ele>
  <time>2011-10-18T06:21:57Z</time>
  <speed>1.490000</speed>
</trkpt>
<trkpt lat="32.607166290" lon="35.137405396">
  <ele>141.540283</ele>
  <time>2011-10-18T06:21:59Z</time>
  <speed>2.200000</speed>
</trkpt>
<trkpt lat="32.607162476" lon="35.137439728">
  <ele>141.384033</ele>
  <time>2011-10-18T06:22:00Z</time>
  <speed>3.030000</speed>
</trkpt>
<trkpt lat="32.607162476" lon="35.137500763">
  <ele>140.802002</ele>
  <time>2011-10-18T06:22:01Z</time>
  <speed>4.950000</speed>
</trkpt>
<trkpt lat="32.607170105" lon="35.137554169">
  <ele>140.489502</ele>
  <time>2011-10-18T06:22:02Z</time>
  <speed>4.220000</speed>
</trkpt>
<trkpt lat="32.607166290" lon="35.137611389">
  <ele>139.755127</ele>
  <time>2011-10-18T06:22:03Z</time>
  <speed>4.910000</speed>
</trkpt>
<trkpt lat="32.607181549" lon="35.137680054">
  <ele>138.466064</ele>
  <time>2011-10-18T06:22:04Z</time>
  <speed>4.780000</speed>
</trkpt>
<trkpt lat="32.607192993" lon="35.137741089">
  <ele>137.673096</ele>
  <time>2011-10-18T06:22:05Z</time>
  <speed>4.700000</speed>
</trkpt>
<trkpt lat="32.607200623" lon="35.137805939">
  <ele>137.305908</ele>
  <time>2011-10-18T06:22:06Z</time>
  <speed>4.890000</speed>
</trkpt>
<trkpt lat="32.607219696" lon="35.137859344">
  <ele>136.009033</ele>
  <time>2011-10-18T06:22:07Z</time>
  <speed>5.440000</speed>
</trkpt>
<trkpt lat="32.607246399" lon="35.137908936">
  <ele>135.317627</ele>
  <time>2011-10-18T06:22:08Z</time>
  <speed>4.850000</speed>
</trkpt>
<trkpt lat="32.607273102" lon="35.137954712">
  <ele>134.536377</ele>
  <time>2011-10-18T06:22:09Z</time>
  <speed>5.030000</speed>
</trkpt>
<trkpt lat="32.607311249" lon="35.138004303">
  <ele>134.083252</ele>
  <time>2011-10-18T06:22:10Z</time>
  <speed>5.050000</speed>
</trkpt>
<trkpt lat="32.607341766" lon="35.138053894">
  <ele>133.469971</ele>
  <time>2011-10-18T06:22:11Z</time>
  <speed>4.690000</speed>
</trkpt>
<trkpt lat="32.607353210" lon="35.138107300">
  <ele>133.255127</ele>
  <time>2011-10-18T06:22:12Z</time>
  <speed>5.080000</speed>
</trkpt>
<trkpt lat="32.607376099" lon="35.138160706">
  <ele>132.700439</ele>
  <time>2011-10-18T06:22:13Z</time>
  <speed>5.420000</speed>
</trkpt>
<trkpt lat="32.607395172" lon="35.138225555">
  <ele>132.602783</ele>
  <time>2011-10-18T06:22:14Z</time>
  <speed>5.700000</speed>
</trkpt>
<trkpt lat="32.607410431" lon="35.138282776">
  <ele>132.837158</ele>
  <time>2011-10-18T06:22:15Z</time>
  <speed>5.550000</speed>
</trkpt>
<trkpt lat="32.607437134" lon="35.138336182">
  <ele>132.579346</ele>
  <time>2011-10-18T06:22:16Z</time>
  <speed>5.010000</speed>
</trkpt>
<trkpt lat="32.607456207" lon="35.138385773">
  <ele>132.009033</ele>
  <time>2011-10-18T06:22:17Z</time>
  <speed>4.730000</speed>
</trkpt>
<trkpt lat="32.607479095" lon="35.138416290">
  <ele>131.126221</ele>
  <time>2011-10-18T06:22:18Z</time>
  <speed>3.950000</speed>
</trkpt>
<trkpt lat="32.607509613" lon="35.138442993">
  <ele>130.844971</ele>
  <time>2011-10-18T06:22:19Z</time>
  <speed>3.810000</speed>
</trkpt>
<trkpt lat="32.607551575" lon="35.138462067">
  <ele>131.087158</ele>
  <time>2011-10-18T06:22:20Z</time>
  <speed>3.560000</speed>
</trkpt>
<trkpt lat="32.607601166" lon="35.138473511">
  <ele>131.708252</ele>
  <time>2011-10-18T06:22:21Z</time>
  <speed>3.600000</speed>
</trkpt>
<trkpt lat="32.607639313" lon="35.138481140">
  <ele>132.239502</ele>
  <time>2011-10-18T06:22:22Z</time>
  <speed>2.810000</speed>
</trkpt>
<trkpt lat="32.607662201" lon="35.138492584">
  <ele>132.317627</ele>
  <time>2011-10-18T06:22:23Z</time>
  <speed>2.120000</speed>
</trkpt>
<trkpt lat="32.607696533" lon="35.138488770">
  <ele>131.872314</ele>
  <time>2011-10-18T06:22:25Z</time>
  <speed>1.010000</speed>
</trkpt>
<trkpt lat="32.607719421" lon="35.138492584">
  <ele>134.458252</ele>
  <time>2011-10-18T06:22:29Z</time>
  <speed>0.060000</speed>
</trkpt>
<trkpt lat="32.607742310" lon="35.138507843">
  <ele>135.751221</ele>
  <time>2011-10-18T06:22:44Z</time>
  <speed>0.940000</speed>
</trkpt>
<trkpt lat="32.607772827" lon="35.138523102">
  <ele>136.438721</ele>
  <time>2011-10-18T06:22:50Z</time>
  <speed>0.920000</speed>
</trkpt>
<trkpt lat="32.607803345" lon="35.138549805">
  <ele>137.157471</ele>
  <time>2011-10-18T06:22:56Z</time>
  <speed>1.190000</speed>
</trkpt>
<trkpt lat="32.607845306" lon="35.138542175">
  <ele>137.673096</ele>
  <time>2011-10-18T06:22:59Z</time>
  <speed>1.290000</speed>
</trkpt>
<trkpt lat="32.607875824" lon="35.138542175">
  <ele>137.684814</ele>
  <time>2011-10-18T06:23:01Z</time>
  <speed>1.150000</speed>
</trkpt>
<trkpt lat="32.607917786" lon="35.138534546">
  <ele>138.161377</ele>
  <time>2011-10-18T06:23:04Z</time>
  <speed>1.450000</speed>
</trkpt>
<trkpt lat="32.607948303" lon="35.138538361">
  <ele>138.145752</ele>
  <time>2011-10-18T06:23:06Z</time>
  <speed>1.390000</speed>
</trkpt>
<trkpt lat="32.607971191" lon="35.138545990">
  <ele>139.243408</ele>
  <time>2011-10-18T06:23:08Z</time>
  <speed>1.060000</speed>
</trkpt>
<trkpt lat="32.608001709" lon="35.138530731">
  <ele>139.794189</ele>
  <time>2011-10-18T06:23:13Z</time>
  <speed>1.090000</speed>
</trkpt>
<trkpt lat="32.608036041" lon="35.138526917">
  <ele>140.352783</ele>
  <time>2011-10-18T06:23:15Z</time>
  <speed>2.250000</speed>
</trkpt>
<trkpt lat="32.608078003" lon="35.138511658">
  <ele>140.719971</ele>
  <time>2011-10-18T06:23:17Z</time>
  <speed>2.710000</speed>
</trkpt>
<trkpt lat="32.608112335" lon="35.138477325">
  <ele>140.407471</ele>
  <time>2011-10-18T06:23:19Z</time>
  <speed>2.070000</speed>
</trkpt>
<trkpt lat="32.608116150" lon="35.138442993">
  <ele>140.501221</ele>
  <time>2011-10-18T06:23:21Z</time>
  <speed>2.000000</speed>
</trkpt>
<trkpt lat="32.608131409" lon="35.138397217">
  <ele>141.063721</ele>
  <time>2011-10-18T06:23:23Z</time>
  <speed>2.050000</speed>
</trkpt>
<trkpt lat="32.608139038" lon="35.138347626">
  <ele>142.493408</ele>
  <time>2011-10-18T06:23:25Z</time>
  <speed>2.210000</speed>
</trkpt>
<trkpt lat="32.608158112" lon="35.138309479">
  <ele>143.102783</ele>
  <time>2011-10-18T06:23:27Z</time>
  <speed>2.150000</speed>
</trkpt>
<trkpt lat="32.608169556" lon="35.138252258">
  <ele>143.774658</ele>
  <time>2011-10-18T06:23:29Z</time>
  <speed>2.160000</speed>
</trkpt>
<trkpt lat="32.608173370" lon="35.138198853">
  <ele>144.657471</ele>
  <time>2011-10-18T06:23:31Z</time>
  <speed>2.280000</speed>
</trkpt>
<trkpt lat="32.608192444" lon="35.138160706">
  <ele>145.302002</ele>
  <time>2011-10-18T06:23:33Z</time>
  <speed>2.280000</speed>
</trkpt>
<trkpt lat="32.608222961" lon="35.138126373">
  <ele>145.821533</ele>
  <time>2011-10-18T06:23:35Z</time>
  <speed>2.320000</speed>
</trkpt>
<trkpt lat="32.608257294" lon="35.138092041">
  <ele>146.723877</ele>
  <time>2011-10-18T06:23:37Z</time>
  <speed>2.480000</speed>
</trkpt>
<trkpt lat="32.608287811" lon="35.138050079">
  <ele>147.598877</ele>
  <time>2011-10-18T06:23:39Z</time>
  <speed>2.200000</speed>
</trkpt>
<trkpt lat="32.608322144" lon="35.138019562">
  <ele>148.173096</ele>
  <time>2011-10-18T06:23:41Z</time>
  <speed>2.050000</speed>
</trkpt>
<trkpt lat="32.608337402" lon="35.137985229">
  <ele>148.005127</ele>
  <time>2011-10-18T06:23:43Z</time>
  <speed>1.810000</speed>
</trkpt>
<trkpt lat="32.608348846" lon="35.137947083">
  <ele>148.399658</ele>
  <time>2011-10-18T06:23:45Z</time>
  <speed>2.010000</speed>
</trkpt>
<trkpt lat="32.608375549" lon="35.137928009">
  <ele>148.778564</ele>
  <time>2011-10-18T06:23:47Z</time>
  <speed>1.790000</speed>
</trkpt>
<trkpt lat="32.608409882" lon="35.137924194">
  <ele>148.977783</ele>
  <time>2011-10-18T06:23:49Z</time>
  <speed>1.940000</speed>
</trkpt>
<trkpt lat="32.608440399" lon="35.137916565">
  <ele>149.106689</ele>
  <time>2011-10-18T06:23:51Z</time>
  <speed>1.420000</speed>
</trkpt>
<trkpt lat="32.608470917" lon="35.137901306">
  <ele>149.798096</ele>
  <time>2011-10-18T06:23:53Z</time>
  <speed>1.740000</speed>
</trkpt>
<trkpt lat="32.608486176" lon="35.137855530">
  <ele>150.216064</ele>
  <time>2011-10-18T06:23:55Z</time>
  <speed>2.040000</speed>
</trkpt>
<trkpt lat="32.608486176" lon="35.137809753">
  <ele>150.466064</ele>
  <time>2011-10-18T06:23:57Z</time>
  <speed>1.870000</speed>
</trkpt>
<trkpt lat="32.608486176" lon="35.137767792">
  <ele>150.481689</ele>
  <time>2011-10-18T06:23:59Z</time>
  <speed>1.890000</speed>
</trkpt>
<trkpt lat="32.608486176" lon="35.137725830">
  <ele>150.555908</ele>
  <time>2011-10-18T06:24:01Z</time>
  <speed>1.760000</speed>
</trkpt>
<trkpt lat="32.608486176" lon="35.137687683">
  <ele>150.372314</ele>
  <time>2011-10-18T06:24:03Z</time>
  <speed>1.950000</speed>
</trkpt>
<trkpt lat="32.608478546" lon="35.137645721">
  <ele>150.341064</ele>
  <time>2011-10-18T06:24:05Z</time>
  <speed>1.670000</speed>
</trkpt>
<trkpt lat="32.608470917" lon="35.137603760">
  <ele>150.137939</ele>
  <time>2011-10-18T06:24:07Z</time>
  <speed>1.980000</speed>
</trkpt>
<trkpt lat="32.608467102" lon="35.137557983">
  <ele>150.657471</ele>
  <time>2011-10-18T06:24:09Z</time>
  <speed>1.750000</speed>
</trkpt>
<trkpt lat="32.608467102" lon="35.137523651">
  <ele>150.485596</ele>
  <time>2011-10-18T06:24:11Z</time>
  <speed>1.510000</speed>
</trkpt>
<trkpt lat="32.608478546" lon="35.137493134">
  <ele>150.692627</ele>
  <time>2011-10-18T06:24:13Z</time>
  <speed>1.540000</speed>
</trkpt>
<trkpt lat="32.608505249" lon="35.137489319">
  <ele>150.321533</ele>
  <time>2011-10-18T06:24:16Z</time>
  <speed>1.100000</speed>
</trkpt>
<trkpt lat="32.608528137" lon="35.137523651">
  <ele>149.641846</ele>
  <time>2011-10-18T06:24:18Z</time>
  <speed>1.300000</speed>
</trkpt>
<trkpt lat="32.608554840" lon="35.137557983">
  <ele>148.790283</ele>
  <time>2011-10-18T06:24:20Z</time>
  <speed>2.450000</speed>
</trkpt>
<trkpt lat="32.608596802" lon="35.137588501">
  <ele>148.055908</ele>
  <time>2011-10-18T06:24:22Z</time>
  <speed>2.620000</speed>
</trkpt>
<trkpt lat="32.608623505" lon="35.137596130">
  <ele>147.321533</ele>
  <time>2011-10-18T06:24:23Z</time>
  <speed>2.620000</speed>
</trkpt>
<trkpt lat="32.608657837" lon="35.137611389">
  <ele>146.958252</ele>
  <time>2011-10-18T06:24:24Z</time>
  <speed>2.530000</speed>
</trkpt>
<trkpt lat="32.608676910" lon="35.137653351">
  <ele>145.442627</ele>
  <time>2011-10-18T06:24:26Z</time>
  <speed>1.670000</speed>
</trkpt>
<trkpt lat="32.608680725" lon="35.137710571">
  <ele>146.419189</ele>
  <time>2011-10-18T06:24:28Z</time>
  <speed>2.020000</speed>
</trkpt>
<trkpt lat="32.608711243" lon="35.137737274">
  <ele>145.884033</ele>
  <time>2011-10-18T06:24:30Z</time>
  <speed>2.150000</speed>
</trkpt>
<trkpt lat="32.608749390" lon="35.137760162">
  <ele>146.063721</ele>
  <time>2011-10-18T06:24:32Z</time>
  <speed>1.740000</speed>
</trkpt>
<trkpt lat="32.608783722" lon="35.137756348">
  <ele>146.044189</ele>
  <time>2011-10-18T06:24:34Z</time>
  <speed>1.540000</speed>
</trkpt>
<trkpt lat="32.608818054" lon="35.137748718">
  <ele>145.153564</ele>
  <time>2011-10-18T06:24:37Z</time>
  <speed>1.610000</speed>
</trkpt>
<trkpt lat="32.608852386" lon="35.137763977">
  <ele>145.395752</ele>
  <time>2011-10-18T06:24:39Z</time>
  <speed>1.890000</speed>
</trkpt>
<trkpt lat="32.608875275" lon="35.137786865">
  <ele>145.419189</ele>
  <time>2011-10-18T06:24:41Z</time>
  <speed>1.610000</speed>
</trkpt>
<trkpt lat="32.608901978" lon="35.137805939">
  <ele>146.278564</ele>
  <time>2011-10-18T06:24:43Z</time>
  <speed>1.830000</speed>
</trkpt>
<trkpt lat="32.608928680" lon="35.137817383">
  <ele>147.114502</ele>
  <time>2011-10-18T06:24:45Z</time>
  <speed>1.570000</speed>
</trkpt>
<trkpt lat="32.608963013" lon="35.137798309">
  <ele>148.376221</ele>
  <time>2011-10-18T06:24:48Z</time>
  <speed>1.280000</speed>
</trkpt>
<trkpt lat="32.608997345" lon="35.137779236">
  <ele>149.423096</ele>
  <time>2011-10-18T06:24:51Z</time>
  <speed>1.690000</speed>
</trkpt>
<trkpt lat="32.609035492" lon="35.137783051">
  <ele>150.344971</ele>
  <time>2011-10-18T06:24:53Z</time>
  <speed>1.800000</speed>
</trkpt>
<trkpt lat="32.609062195" lon="35.137771606">
  <ele>150.657471</ele>
  <time>2011-10-18T06:24:55Z</time>
  <speed>1.360000</speed>
</trkpt>
<trkpt lat="32.609096527" lon="35.137752533">
  <ele>151.645752</ele>
  <time>2011-10-18T06:24:58Z</time>
  <speed>1.160000</speed>
</trkpt>
<trkpt lat="32.609119415" lon="35.137733459">
  <ele>152.688721</ele>
  <time>2011-10-18T06:25:00Z</time>
  <speed>1.460000</speed>
</trkpt>
<trkpt lat="32.609157562" lon="35.137729645">
  <ele>152.141846</ele>
  <time>2011-10-18T06:25:02Z</time>
  <speed>2.080000</speed>
</trkpt>
<trkpt lat="32.609191895" lon="35.137725830">
  <ele>151.262939</ele>
  <time>2011-10-18T06:25:04Z</time>
  <speed>2.160000</speed>
</trkpt>
<trkpt lat="32.609233856" lon="35.137733459">
  <ele>150.516846</ele>
  <time>2011-10-18T06:25:06Z</time>
  <speed>2.390000</speed>
</trkpt>
<trkpt lat="32.609272003" lon="35.137725830">
  <ele>149.520752</ele>
  <time>2011-10-18T06:25:08Z</time>
  <speed>1.930000</speed>
</trkpt>
<trkpt lat="32.609302521" lon="35.137722015">
  <ele>148.727783</ele>
  <time>2011-10-18T06:25:10Z</time>
  <speed>1.540000</speed>
</trkpt>
<trkpt lat="32.609333038" lon="35.137725830">
  <ele>147.891846</ele>
  <time>2011-10-18T06:25:12Z</time>
  <speed>1.520000</speed>
</trkpt>
<trkpt lat="32.609367371" lon="35.137702942">
  <ele>147.251221</ele>
  <time>2011-10-18T06:25:14Z</time>
  <speed>1.500000</speed>
</trkpt>
<trkpt lat="32.609394073" lon="35.137706757">
  <ele>145.981689</ele>
  <time>2011-10-18T06:25:16Z</time>
  <speed>1.030000</speed>
</trkpt>
<trkpt lat="32.609420776" lon="35.137722015">
  <ele>145.059814</ele>
  <time>2011-10-18T06:25:19Z</time>
  <speed>0.380000</speed>
</trkpt>
<trkpt lat="32.609386444" lon="35.137729645">
  <ele>145.829346</ele>
  <time>2011-10-18T06:25:31Z</time>
  <speed>1.710000</speed>
</trkpt>
<trkpt lat="32.609355927" lon="35.137729645">
  <ele>146.333252</ele>
  <time>2011-10-18T06:25:33Z</time>
  <speed>1.310000</speed>
</trkpt>
<trkpt lat="32.609333038" lon="35.137706757">
  <ele>146.059814</ele>
  <time>2011-10-18T06:25:35Z</time>
  <speed>1.260000</speed>
</trkpt>
<trkpt lat="32.609298706" lon="35.137706757">
  <ele>146.208252</ele>
  <time>2011-10-18T06:25:37Z</time>
  <speed>0.860000</speed>
</trkpt>
<trkpt lat="32.609291077" lon="35.137744904">
  <ele>146.497314</ele>
  <time>2011-10-18T06:25:40Z</time>
  <speed>0.630000</speed>
</trkpt>
<trkpt lat="32.609321594" lon="35.137733459">
  <ele>146.540283</ele>
  <time>2011-10-18T06:25:44Z</time>
  <speed>0.440000</speed>
</trkpt>
<trkpt lat="32.609352112" lon="35.137714386">
  <ele>147.501221</ele>
  <time>2011-10-18T06:25:47Z</time>
  <speed>0.870000</speed>
</trkpt>
<trkpt lat="32.609378815" lon="35.137699127">
  <ele>147.813721</ele>
  <time>2011-10-18T06:25:50Z</time>
  <speed>0.390000</speed>
</trkpt>
<trkpt lat="32.609409332" lon="35.137702942">
  <ele>147.755127</ele>
  <time>2011-10-18T06:25:54Z</time>
  <speed>1.070000</speed>
</trkpt>
<trkpt lat="32.609447479" lon="35.137722015">
  <ele>148.141846</ele>
  <time>2011-10-18T06:25:56Z</time>
  <speed>2.440000</speed>
</trkpt>
<trkpt lat="32.609481812" lon="35.137718201">
  <ele>148.466064</ele>
  <time>2011-10-18T06:25:57Z</time>
  <speed>2.590000</speed>
</trkpt>
<trkpt lat="32.609508514" lon="35.137710571">
  <ele>148.696533</ele>
  <time>2011-10-18T06:25:58Z</time>
  <speed>1.730000</speed>
</trkpt>
<trkpt lat="32.609527588" lon="35.137691498">
  <ele>148.864502</ele>
  <time>2011-10-18T06:26:00Z</time>
  <speed>1.080000</speed>
</trkpt>
<trkpt lat="32.609493256" lon="35.137668610">
  <ele>148.966064</ele>
  <time>2011-10-18T06:26:03Z</time>
  <speed>1.820000</speed>
</trkpt>
<trkpt lat="32.609451294" lon="35.137676239">
  <ele>149.192627</ele>
  <time>2011-10-18T06:26:05Z</time>
  <speed>1.420000</speed>
</trkpt>
<trkpt lat="32.609416962" lon="35.137664795">
  <ele>148.969971</ele>
  <time>2011-10-18T06:26:07Z</time>
  <speed>1.590000</speed>
</trkpt>
<trkpt lat="32.609394073" lon="35.137641907">
  <ele>148.298096</ele>
  <time>2011-10-18T06:26:09Z</time>
  <speed>1.500000</speed>
</trkpt>
<trkpt lat="32.609371185" lon="35.137622833">
  <ele>148.255127</ele>
  <time>2011-10-18T06:26:11Z</time>
  <speed>0.910000</speed>
</trkpt>
<trkpt lat="32.609340668" lon="35.137603760">
  <ele>148.126221</ele>
  <time>2011-10-18T06:26:14Z</time>
  <speed>1.210000</speed>
</trkpt>
<trkpt lat="32.609298706" lon="35.137596130">
  <ele>148.934814</ele>
  <time>2011-10-18T06:26:16Z</time>
  <speed>1.920000</speed>
</trkpt>
<trkpt lat="32.609264374" lon="35.137588501">
  <ele>148.969971</ele>
  <time>2011-10-18T06:26:18Z</time>
  <speed>0.940000</speed>
</trkpt>
<trkpt lat="32.609272003" lon="35.137626648">
  <ele>149.594971</ele>
  <time>2011-10-18T06:26:20Z</time>
  <speed>1.490000</speed>
</trkpt>
<trkpt lat="32.609298706" lon="35.137657166">
  <ele>148.630127</ele>
  <time>2011-10-18T06:26:22Z</time>
  <speed>1.070000</speed>
</trkpt>
<trkpt lat="32.609317780" lon="35.137683868">
  <ele>147.583252</ele>
  <time>2011-10-18T06:26:24Z</time>
  <speed>0.790000</speed>
</trkpt>
<trkpt lat="32.609344482" lon="35.137710571">
  <ele>146.177002</ele>
  <time>2011-10-18T06:26:27Z</time>
  <speed>1.030000</speed>
</trkpt>
<trkpt lat="32.609371185" lon="35.137733459">
  <ele>146.927002</ele>
  <time>2011-10-18T06:26:29Z</time>
  <speed>0.550000</speed>
</trkpt>
<trkpt lat="32.609405518" lon="35.137733459">
  <ele>147.001221</ele>
  <time>2011-10-18T06:26:32Z</time>
  <speed>0.860000</speed>
</trkpt>
<trkpt lat="32.609447479" lon="35.137733459">
  <ele>146.594971</ele>
  <time>2011-10-18T06:26:35Z</time>
  <speed>1.250000</speed>
</trkpt>
<trkpt lat="32.609489441" lon="35.137722015">
  <ele>146.950439</ele>
  <time>2011-10-18T06:26:38Z</time>
  <speed>1.550000</speed>
</trkpt>
<trkpt lat="32.609500885" lon="35.137695313">
  <ele>148.501221</ele>
  <time>2011-10-18T06:26:39Z</time>
  <speed>1.380000</speed>
</trkpt>
<trkpt lat="32.609493256" lon="35.137657166">
  <ele>149.782471</ele>
  <time>2011-10-18T06:26:42Z</time>
  <speed>0.690000</speed>
</trkpt>
<trkpt lat="32.609466553" lon="35.137645721">
  <ele>150.364502</ele>
  <time>2011-10-18T06:26:44Z</time>
  <speed>0.880000</speed>
</trkpt>
<trkpt lat="32.609436035" lon="35.137622833">
  <ele>150.802002</ele>
  <time>2011-10-18T06:26:49Z</time>
  <speed>0.060000</speed>
</trkpt>
<trkpt lat="32.609416962" lon="35.137645721">
  <ele>152.321533</ele>
  <time>2011-10-18T06:27:50Z</time>
  <speed>0.680000</speed>
</trkpt>
<trkpt lat="32.609409332" lon="35.137676239">
  <ele>152.364502</ele>
  <time>2011-10-18T06:27:52Z</time>
  <speed>1.110000</speed>
</trkpt>
<trkpt lat="32.609394073" lon="35.137714386">
  <ele>152.020752</ele>
  <time>2011-10-18T06:27:54Z</time>
  <speed>1.880000</speed>
</trkpt>
<trkpt lat="32.609390259" lon="35.137763977">
  <ele>152.040283</ele>
  <time>2011-10-18T06:27:56Z</time>
  <speed>2.320000</speed>
</trkpt>
<trkpt lat="32.609390259" lon="35.137828827">
  <ele>152.294189</ele>
  <time>2011-10-18T06:27:58Z</time>
  <speed>2.740000</speed>
</trkpt>
<trkpt lat="32.609394073" lon="35.137859344">
  <ele>152.270752</ele>
  <time>2011-10-18T06:27:59Z</time>
  <speed>2.650000</speed>
</trkpt>
<trkpt lat="32.609397888" lon="35.137912750">
  <ele>152.106689</ele>
  <time>2011-10-18T06:28:01Z</time>
  <speed>2.220000</speed>
</trkpt>
<trkpt lat="32.609409332" lon="35.137954712">
  <ele>151.919189</ele>
  <time>2011-10-18T06:28:03Z</time>
  <speed>1.930000</speed>
</trkpt>
<trkpt lat="32.609413147" lon="35.137989044">
  <ele>151.509033</ele>
  <time>2011-10-18T06:28:05Z</time>
  <speed>1.300000</speed>
</trkpt>
<trkpt lat="32.609436035" lon="35.138023376">
  <ele>150.755127</ele>
  <time>2011-10-18T06:28:07Z</time>
  <speed>0.930000</speed>
</trkpt>
<trkpt lat="32.609466553" lon="35.138046265">
  <ele>150.028564</ele>
  <time>2011-10-18T06:28:09Z</time>
  <speed>0.660000</speed>
</trkpt>
<trkpt lat="32.609474182" lon="35.138080597">
  <ele>149.192627</ele>
  <time>2011-10-18T06:28:11Z</time>
  <speed>2.230000</speed>
</trkpt>
<trkpt lat="32.609474182" lon="35.138122559">
  <ele>148.567627</ele>
  <time>2011-10-18T06:28:13Z</time>
  <speed>1.990000</speed>
</trkpt>
<trkpt lat="32.609451294" lon="35.138149261">
  <ele>147.778564</ele>
  <time>2011-10-18T06:28:15Z</time>
  <speed>1.980000</speed>
</trkpt>
<trkpt lat="32.609420776" lon="35.138156891">
  <ele>147.368408</ele>
  <time>2011-10-18T06:28:17Z</time>
  <speed>1.780000</speed>
</trkpt>
<trkpt lat="32.609390259" lon="35.138141632">
  <ele>147.497314</ele>
  <time>2011-10-18T06:28:19Z</time>
  <speed>1.460000</speed>
</trkpt>
<trkpt lat="32.609405518" lon="35.138092041">
  <ele>146.341064</ele>
  <time>2011-10-18T06:28:22Z</time>
  <speed>1.300000</speed>
</trkpt>
<trkpt lat="32.609424591" lon="35.138065338">
  <ele>145.923096</ele>
  <time>2011-10-18T06:28:26Z</time>
  <speed>0.040000</speed>
</trkpt>
<trkpt lat="32.609455109" lon="35.138046265">
  <ele>146.708252</ele>
  <time>2011-10-18T06:28:38Z</time>
  <speed>0.090000</speed>
</trkpt>
<trkpt lat="32.609485626" lon="35.138065338">
  <ele>146.790283</ele>
  <time>2011-10-18T06:29:31Z</time>
  <speed>0.310000</speed>
</trkpt>
<trkpt lat="32.609512329" lon="35.138053894">
  <ele>146.466064</ele>
  <time>2011-10-18T06:29:40Z</time>
  <speed>0.140000</speed>
</trkpt>
<trkpt lat="32.609500885" lon="35.138027191">
  <ele>148.450439</ele>
  <time>2011-10-18T06:34:10Z</time>
  <speed>0.480000</speed>
</trkpt>
<trkpt lat="32.609485626" lon="35.137989044">
  <ele>148.540283</ele>
  <time>2011-10-18T06:34:12Z</time>
  <speed>1.170000</speed>
</trkpt>
<trkpt lat="32.609447479" lon="35.137950897">
  <ele>149.337158</ele>
  <time>2011-10-18T06:34:14Z</time>
  <speed>2.010000</speed>
</trkpt>
<trkpt lat="32.609420776" lon="35.137939453">
  <ele>149.173096</ele>
  <time>2011-10-18T06:34:16Z</time>
  <speed>1.380000</speed>
</trkpt>
<trkpt lat="32.609382629" lon="35.137931824">
  <ele>148.563721</ele>
  <time>2011-10-18T06:34:18Z</time>
  <speed>2.110000</speed>
</trkpt>
<trkpt lat="32.609355927" lon="35.137924194">
  <ele>148.458252</ele>
  <time>2011-10-18T06:34:19Z</time>
  <speed>2.100000</speed>
</trkpt>
<trkpt lat="32.609329224" lon="35.137912750">
  <ele>148.462158</ele>
  <time>2011-10-18T06:34:20Z</time>
  <speed>2.550000</speed>
</trkpt>
<trkpt lat="32.609287262" lon="35.137886047">
  <ele>147.829346</ele>
  <time>2011-10-18T06:34:22Z</time>
  <speed>2.420000</speed>
</trkpt>
<trkpt lat="32.609245300" lon="35.137855530">
  <ele>148.204346</ele>
  <time>2011-10-18T06:34:23Z</time>
  <speed>4.230000</speed>
</trkpt>
<trkpt lat="32.609207153" lon="35.137821198">
  <ele>148.333252</ele>
  <time>2011-10-18T06:34:24Z</time>
  <speed>3.570000</speed>
</trkpt>
<trkpt lat="32.609176636" lon="35.137802124">
  <ele>148.052002</ele>
  <time>2011-10-18T06:34:25Z</time>
  <speed>2.690000</speed>
</trkpt>
<trkpt lat="32.609127045" lon="35.137798309">
  <ele>147.458252</ele>
  <time>2011-10-18T06:34:27Z</time>
  <speed>2.070000</speed>
</trkpt>
<trkpt lat="32.609073639" lon="35.137805939">
  <ele>147.153564</ele>
  <time>2011-10-18T06:34:29Z</time>
  <speed>2.010000</speed>
</trkpt>
<trkpt lat="32.609046936" lon="35.137832642">
  <ele>147.434814</ele>
  <time>2011-10-18T06:34:30Z</time>
  <speed>1.930000</speed>
</trkpt>
<trkpt lat="32.609008789" lon="35.137859344">
  <ele>146.708252</ele>
  <time>2011-10-18T06:34:32Z</time>
  <speed>1.370000</speed>
</trkpt>
<trkpt lat="32.608982086" lon="35.137870789">
  <ele>145.540283</ele>
  <time>2011-10-18T06:34:34Z</time>
  <speed>1.560000</speed>
</trkpt>
<trkpt lat="32.608943939" lon="35.137859344">
  <ele>145.841064</ele>
  <time>2011-10-18T06:34:35Z</time>
  <speed>1.830000</speed>
</trkpt>
<trkpt lat="32.608894348" lon="35.137836456">
  <ele>144.700439</ele>
  <time>2011-10-18T06:34:37Z</time>
  <speed>1.550000</speed>
</trkpt>
<trkpt lat="32.608867645" lon="35.137821198">
  <ele>143.677002</ele>
  <time>2011-10-18T06:34:39Z</time>
  <speed>1.600000</speed>
</trkpt>
<trkpt lat="32.608825684" lon="35.137809753">
  <ele>143.532471</ele>
  <time>2011-10-18T06:34:41Z</time>
  <speed>1.390000</speed>
</trkpt>
<trkpt lat="32.608802795" lon="35.137828827">
  <ele>144.005127</ele>
  <time>2011-10-18T06:34:43Z</time>
  <speed>0.730000</speed>
</trkpt>
<trkpt lat="32.608783722" lon="35.137855530">
  <ele>144.903564</ele>
  <time>2011-10-18T06:34:47Z</time>
  <speed>0.560000</speed>
</trkpt>
<trkpt lat="32.608795166" lon="35.137886047">
  <ele>145.274658</ele>
  <time>2011-10-18T06:34:50Z</time>
  <speed>0.160000</speed>
</trkpt>
<trkpt lat="32.608779907" lon="35.137901306">
  <ele>145.532471</ele>
  <time>2011-10-18T06:34:58Z</time>
</trkpt>
</trkseg>
</trk>
</gpx>
